<?xml version="1.0" encoding="UTF-8" standalone="no" ?>
<gpx xmlns="http://www.topografix.com/GPX/1/1" xmlns:xsi="http://www.w3.org/2001/XMLSchema-instance" xsi:schemaLocation="http://www.topografix.com/GPX/1/1 http://www.topografix.com/GPX/1/1/gpx.xsd" version="1.1" creator="VisuGPX - https://www.visugpx.com">
  <metadata>
    <name>rando du 08/01/12 à la chapelle launay</name>
    <desc><![CDATA[autour de la chapelle launay]]></desc>
  </metadata>
  <trk>
    <name><![CDATA[rando du 08/01/12 à la chapelle launay_1]]></name>
    <trkseg>
      <trkpt lat="47.37654" lon="-1.96701">
        <ele>-92</ele>
        <time>2012-01-08T07:23:39Z</time>
      </trkpt>
      <trkpt lat="47.37652" lon="-1.96694">
        <ele>-92</ele>
        <time>2012-01-08T07:23:41Z</time>
      </trkpt>
      <trkpt lat="47.37649" lon="-1.96686">
        <ele>-91</ele>
        <time>2012-01-08T07:23:43Z</time>
      </trkpt>
      <trkpt lat="47.37647" lon="-1.96677">
        <ele>-91</ele>
        <time>2012-01-08T07:23:45Z</time>
      </trkpt>
      <trkpt lat="47.37632" lon="-1.96626">
        <ele>-93</ele>
        <time>2012-01-08T07:23:47Z</time>
      </trkpt>
      <trkpt lat="47.37632" lon="-1.96626">
        <ele>-93</ele>
        <time>2012-01-08T07:23:49Z</time>
      </trkpt>
      <trkpt lat="47.37632" lon="-1.96626">
        <ele>-93</ele>
        <time>2012-01-08T07:23:51Z</time>
      </trkpt>
      <trkpt lat="47.37632" lon="-1.96626">
        <ele>-93</ele>
        <time>2012-01-08T07:23:53Z</time>
      </trkpt>
      <trkpt lat="47.37632" lon="-1.96626">
        <ele>-92</ele>
        <time>2012-01-08T07:23:55Z</time>
      </trkpt>
      <trkpt lat="47.37632" lon="-1.96626">
        <ele>-92</ele>
        <time>2012-01-08T07:23:57Z</time>
      </trkpt>
      <trkpt lat="47.37632" lon="-1.96626">
        <ele>-92</ele>
        <time>2012-01-08T07:23:59Z</time>
      </trkpt>
      <trkpt lat="47.37632" lon="-1.96626">
        <ele>-92</ele>
        <time>2012-01-08T07:24:01Z</time>
      </trkpt>
      <trkpt lat="47.37632" lon="-1.96626">
        <ele>-92</ele>
        <time>2012-01-08T07:24:04Z</time>
      </trkpt>
      <trkpt lat="47.37632" lon="-1.96626">
        <ele>-92</ele>
        <time>2012-01-08T07:24:06Z</time>
      </trkpt>
      <trkpt lat="47.37632" lon="-1.96626">
        <ele>-92</ele>
        <time>2012-01-08T07:24:08Z</time>
      </trkpt>
      <trkpt lat="47.37632" lon="-1.96626">
        <ele>-92</ele>
        <time>2012-01-08T07:24:10Z</time>
      </trkpt>
      <trkpt lat="47.37632" lon="-1.96626">
        <ele>-92</ele>
        <time>2012-01-08T07:24:12Z</time>
      </trkpt>
      <trkpt lat="47.37632" lon="-1.96625">
        <ele>-92</ele>
        <time>2012-01-08T07:24:14Z</time>
      </trkpt>
      <trkpt lat="47.37631" lon="-1.96625">
        <ele>-92</ele>
        <time>2012-01-08T07:24:16Z</time>
      </trkpt>
      <trkpt lat="47.37631" lon="-1.96625">
        <ele>-92</ele>
        <time>2012-01-08T07:24:18Z</time>
      </trkpt>
      <trkpt lat="47.37631" lon="-1.96625">
        <ele>-92</ele>
        <time>2012-01-08T07:24:20Z</time>
      </trkpt>
      <trkpt lat="47.37631" lon="-1.96624">
        <ele>-92</ele>
        <time>2012-01-08T07:24:22Z</time>
      </trkpt>
      <trkpt lat="47.3763" lon="-1.96624">
        <ele>-92</ele>
        <time>2012-01-08T07:24:24Z</time>
      </trkpt>
      <trkpt lat="47.3763" lon="-1.96624">
        <ele>-92</ele>
        <time>2012-01-08T07:24:27Z</time>
      </trkpt>
      <trkpt lat="47.3763" lon="-1.96623">
        <ele>-92</ele>
        <time>2012-01-08T07:24:29Z</time>
      </trkpt>
      <trkpt lat="47.3763" lon="-1.96623">
        <ele>-92</ele>
        <time>2012-01-08T07:24:31Z</time>
      </trkpt>
      <trkpt lat="47.3763" lon="-1.96623">
        <ele>-92</ele>
        <time>2012-01-08T07:24:33Z</time>
      </trkpt>
      <trkpt lat="47.3763" lon="-1.96623">
        <ele>-92</ele>
        <time>2012-01-08T07:24:35Z</time>
      </trkpt>
      <trkpt lat="47.3763" lon="-1.96623">
        <ele>-92</ele>
        <time>2012-01-08T07:24:37Z</time>
      </trkpt>
      <trkpt lat="47.3763" lon="-1.96623">
        <ele>-92</ele>
        <time>2012-01-08T07:24:39Z</time>
      </trkpt>
      <trkpt lat="47.3763" lon="-1.96623">
        <ele>-92</ele>
        <time>2012-01-08T07:24:42Z</time>
      </trkpt>
      <trkpt lat="47.3763" lon="-1.96623">
        <ele>-92</ele>
        <time>2012-01-08T07:24:44Z</time>
      </trkpt>
      <trkpt lat="47.3763" lon="-1.96623">
        <ele>-92</ele>
        <time>2012-01-08T07:24:46Z</time>
      </trkpt>
      <trkpt lat="47.37629" lon="-1.96621">
        <ele>-92</ele>
        <time>2012-01-08T07:24:48Z</time>
      </trkpt>
      <trkpt lat="47.37628" lon="-1.96617">
        <ele>-92</ele>
        <time>2012-01-08T07:24:50Z</time>
      </trkpt>
      <trkpt lat="47.37627" lon="-1.96612">
        <ele>-92</ele>
        <time>2012-01-08T07:24:53Z</time>
      </trkpt>
      <trkpt lat="47.37625" lon="-1.96607">
        <ele>-92</ele>
        <time>2012-01-08T07:24:55Z</time>
      </trkpt>
      <trkpt lat="47.37622" lon="-1.966">
        <ele>-92</ele>
        <time>2012-01-08T07:24:57Z</time>
      </trkpt>
      <trkpt lat="47.37621" lon="-1.96598">
        <ele>-93</ele>
        <time>2012-01-08T07:24:59Z</time>
      </trkpt>
      <trkpt lat="47.37618" lon="-1.9659">
        <ele>-93</ele>
        <time>2012-01-08T07:25:01Z</time>
      </trkpt>
      <trkpt lat="47.37616" lon="-1.96586">
        <ele>-92</ele>
        <time>2012-01-08T07:25:03Z</time>
      </trkpt>
      <trkpt lat="47.37614" lon="-1.96581">
        <ele>-92</ele>
        <time>2012-01-08T07:25:05Z</time>
      </trkpt>
      <trkpt lat="47.37612" lon="-1.96576">
        <ele>-92</ele>
        <time>2012-01-08T07:25:07Z</time>
      </trkpt>
      <trkpt lat="47.37611" lon="-1.96573">
        <ele>-92</ele>
        <time>2012-01-08T07:25:09Z</time>
      </trkpt>
      <trkpt lat="47.37606" lon="-1.96561">
        <ele>-92</ele>
        <time>2012-01-08T07:25:11Z</time>
      </trkpt>
      <trkpt lat="47.37602" lon="-1.96552">
        <ele>-92</ele>
        <time>2012-01-08T07:25:13Z</time>
      </trkpt>
      <trkpt lat="47.37598" lon="-1.96541">
        <ele>-92</ele>
        <time>2012-01-08T07:25:15Z</time>
      </trkpt>
      <trkpt lat="47.37595" lon="-1.96531">
        <ele>-92</ele>
        <time>2012-01-08T07:25:17Z</time>
      </trkpt>
      <trkpt lat="47.3759" lon="-1.96521">
        <ele>-92</ele>
        <time>2012-01-08T07:25:19Z</time>
      </trkpt>
      <trkpt lat="47.37587" lon="-1.96511">
        <ele>-92</ele>
        <time>2012-01-08T07:25:21Z</time>
      </trkpt>
      <trkpt lat="47.37583" lon="-1.96502">
        <ele>-92</ele>
        <time>2012-01-08T07:25:24Z</time>
      </trkpt>
      <trkpt lat="47.37577" lon="-1.9649">
        <ele>-92</ele>
        <time>2012-01-08T07:25:26Z</time>
      </trkpt>
      <trkpt lat="47.37574" lon="-1.96481">
        <ele>-92</ele>
        <time>2012-01-08T07:25:28Z</time>
      </trkpt>
      <trkpt lat="47.37569" lon="-1.96471">
        <ele>-92</ele>
        <time>2012-01-08T07:25:30Z</time>
      </trkpt>
      <trkpt lat="47.37564" lon="-1.9646">
        <ele>-92</ele>
        <time>2012-01-08T07:25:32Z</time>
      </trkpt>
      <trkpt lat="47.3756" lon="-1.96449">
        <ele>-92</ele>
        <time>2012-01-08T07:25:34Z</time>
      </trkpt>
      <trkpt lat="47.37554" lon="-1.96438">
        <ele>-92</ele>
        <time>2012-01-08T07:25:36Z</time>
      </trkpt>
      <trkpt lat="47.37549" lon="-1.96427">
        <ele>-91</ele>
        <time>2012-01-08T07:25:38Z</time>
      </trkpt>
      <trkpt lat="47.37544" lon="-1.96415">
        <ele>-91</ele>
        <time>2012-01-08T07:25:40Z</time>
      </trkpt>
      <trkpt lat="47.37539" lon="-1.96404">
        <ele>-91</ele>
        <time>2012-01-08T07:25:42Z</time>
      </trkpt>
      <trkpt lat="47.37534" lon="-1.96392">
        <ele>-91</ele>
        <time>2012-01-08T07:25:44Z</time>
      </trkpt>
      <trkpt lat="47.37529" lon="-1.96381">
        <ele>-91</ele>
        <time>2012-01-08T07:25:46Z</time>
      </trkpt>
      <trkpt lat="47.37524" lon="-1.9637">
        <ele>-91</ele>
        <time>2012-01-08T07:25:48Z</time>
      </trkpt>
      <trkpt lat="47.37519" lon="-1.96359">
        <ele>-91</ele>
        <time>2012-01-08T07:25:51Z</time>
      </trkpt>
      <trkpt lat="47.37513" lon="-1.96344">
        <ele>-91</ele>
        <time>2012-01-08T07:25:53Z</time>
      </trkpt>
      <trkpt lat="47.37512" lon="-1.96335">
        <ele>-91</ele>
        <time>2012-01-08T07:25:55Z</time>
      </trkpt>
      <trkpt lat="47.37513" lon="-1.9633">
        <ele>-91</ele>
        <time>2012-01-08T07:25:57Z</time>
      </trkpt>
      <trkpt lat="47.37514" lon="-1.96327">
        <ele>-91</ele>
        <time>2012-01-08T07:25:59Z</time>
      </trkpt>
      <trkpt lat="47.37521" lon="-1.9632">
        <ele>-91</ele>
        <time>2012-01-08T07:26:01Z</time>
      </trkpt>
      <trkpt lat="47.37525" lon="-1.96315">
        <ele>-91</ele>
        <time>2012-01-08T07:26:03Z</time>
      </trkpt>
      <trkpt lat="47.37529" lon="-1.96309">
        <ele>-91</ele>
        <time>2012-01-08T07:26:05Z</time>
      </trkpt>
      <trkpt lat="47.37534" lon="-1.96302">
        <ele>-90</ele>
        <time>2012-01-08T07:26:07Z</time>
      </trkpt>
      <trkpt lat="47.3754" lon="-1.96295">
        <ele>-90</ele>
        <time>2012-01-08T07:26:09Z</time>
      </trkpt>
      <trkpt lat="47.37545" lon="-1.96288">
        <ele>-89</ele>
        <time>2012-01-08T07:26:11Z</time>
      </trkpt>
      <trkpt lat="47.3755" lon="-1.96281">
        <ele>-89</ele>
        <time>2012-01-08T07:26:13Z</time>
      </trkpt>
      <trkpt lat="47.37556" lon="-1.96274">
        <ele>-89</ele>
        <time>2012-01-08T07:26:16Z</time>
      </trkpt>
      <trkpt lat="47.37561" lon="-1.96268">
        <ele>-89</ele>
        <time>2012-01-08T07:26:18Z</time>
      </trkpt>
      <trkpt lat="47.3757" lon="-1.96259">
        <ele>-89</ele>
        <time>2012-01-08T07:26:20Z</time>
      </trkpt>
      <trkpt lat="47.37576" lon="-1.96252">
        <ele>-89</ele>
        <time>2012-01-08T07:26:22Z</time>
      </trkpt>
      <trkpt lat="47.37579" lon="-1.96248">
        <ele>-89</ele>
        <time>2012-01-08T07:26:24Z</time>
      </trkpt>
      <trkpt lat="47.37589" lon="-1.96238">
        <ele>-89</ele>
        <time>2012-01-08T07:26:26Z</time>
      </trkpt>
      <trkpt lat="47.37596" lon="-1.9623">
        <ele>-88</ele>
        <time>2012-01-08T07:26:28Z</time>
      </trkpt>
      <trkpt lat="47.37601" lon="-1.96224">
        <ele>-88</ele>
        <time>2012-01-08T07:26:30Z</time>
      </trkpt>
      <trkpt lat="47.37606" lon="-1.96218">
        <ele>-88</ele>
        <time>2012-01-08T07:26:32Z</time>
      </trkpt>
      <trkpt lat="47.37613" lon="-1.96211">
        <ele>-87</ele>
        <time>2012-01-08T07:26:34Z</time>
      </trkpt>
      <trkpt lat="47.37619" lon="-1.96205">
        <ele>-87</ele>
        <time>2012-01-08T07:26:36Z</time>
      </trkpt>
      <trkpt lat="47.37625" lon="-1.96198">
        <ele>-87</ele>
        <time>2012-01-08T07:26:38Z</time>
      </trkpt>
      <trkpt lat="47.37632" lon="-1.96191">
        <ele>-87</ele>
        <time>2012-01-08T07:26:40Z</time>
      </trkpt>
      <trkpt lat="47.37638" lon="-1.96184">
        <ele>-87</ele>
        <time>2012-01-08T07:26:42Z</time>
      </trkpt>
      <trkpt lat="47.37644" lon="-1.96178">
        <ele>-87</ele>
        <time>2012-01-08T07:26:44Z</time>
      </trkpt>
      <trkpt lat="47.37648" lon="-1.96174">
        <ele>-87</ele>
        <time>2012-01-08T07:26:47Z</time>
      </trkpt>
      <trkpt lat="47.37652" lon="-1.96171">
        <ele>-89</ele>
        <time>2012-01-08T07:26:49Z</time>
      </trkpt>
      <trkpt lat="47.37659" lon="-1.96163">
        <ele>-88</ele>
        <time>2012-01-08T07:26:51Z</time>
      </trkpt>
      <trkpt lat="47.37664" lon="-1.96154">
        <ele>-88</ele>
        <time>2012-01-08T07:26:53Z</time>
      </trkpt>
      <trkpt lat="47.37671" lon="-1.96148">
        <ele>-88</ele>
        <time>2012-01-08T07:26:55Z</time>
      </trkpt>
      <trkpt lat="47.37677" lon="-1.96141">
        <ele>-86</ele>
        <time>2012-01-08T07:26:57Z</time>
      </trkpt>
      <trkpt lat="47.37685" lon="-1.96136">
        <ele>-86</ele>
        <time>2012-01-08T07:26:59Z</time>
      </trkpt>
      <trkpt lat="47.37691" lon="-1.96131">
        <ele>-86</ele>
        <time>2012-01-08T07:27:01Z</time>
      </trkpt>
      <trkpt lat="47.37697" lon="-1.96124">
        <ele>-86</ele>
        <time>2012-01-08T07:27:03Z</time>
      </trkpt>
      <trkpt lat="47.37703" lon="-1.96116">
        <ele>-86</ele>
        <time>2012-01-08T07:27:05Z</time>
      </trkpt>
      <trkpt lat="47.37707" lon="-1.96111">
        <ele>-86</ele>
        <time>2012-01-08T07:27:07Z</time>
      </trkpt>
      <trkpt lat="47.37712" lon="-1.9611">
        <ele>-87</ele>
        <time>2012-01-08T07:27:09Z</time>
      </trkpt>
      <trkpt lat="47.37718" lon="-1.96107">
        <ele>-87</ele>
        <time>2012-01-08T07:27:11Z</time>
      </trkpt>
      <trkpt lat="47.37722" lon="-1.96099">
        <ele>-87</ele>
        <time>2012-01-08T07:27:13Z</time>
      </trkpt>
      <trkpt lat="47.37726" lon="-1.96093">
        <ele>-87</ele>
        <time>2012-01-08T07:27:15Z</time>
      </trkpt>
      <trkpt lat="47.37732" lon="-1.96087">
        <ele>-87</ele>
        <time>2012-01-08T07:27:17Z</time>
      </trkpt>
      <trkpt lat="47.37738" lon="-1.96082">
        <ele>-87</ele>
        <time>2012-01-08T07:27:19Z</time>
      </trkpt>
      <trkpt lat="47.37744" lon="-1.96077">
        <ele>-87</ele>
        <time>2012-01-08T07:27:21Z</time>
      </trkpt>
      <trkpt lat="47.37751" lon="-1.96071">
        <ele>-87</ele>
        <time>2012-01-08T07:27:23Z</time>
      </trkpt>
      <trkpt lat="47.37756" lon="-1.96065">
        <ele>-86</ele>
        <time>2012-01-08T07:27:25Z</time>
      </trkpt>
      <trkpt lat="47.37764" lon="-1.96058">
        <ele>-86</ele>
        <time>2012-01-08T07:27:28Z</time>
      </trkpt>
      <trkpt lat="47.37771" lon="-1.96052">
        <ele>-86</ele>
        <time>2012-01-08T07:27:30Z</time>
      </trkpt>
      <trkpt lat="47.37777" lon="-1.96045">
        <ele>-86</ele>
        <time>2012-01-08T07:27:32Z</time>
      </trkpt>
      <trkpt lat="47.37784" lon="-1.96037">
        <ele>-86</ele>
        <time>2012-01-08T07:27:34Z</time>
      </trkpt>
      <trkpt lat="47.37795" lon="-1.96025">
        <ele>-86</ele>
        <time>2012-01-08T07:27:36Z</time>
      </trkpt>
      <trkpt lat="47.37802" lon="-1.96016">
        <ele>-86</ele>
        <time>2012-01-08T07:27:38Z</time>
      </trkpt>
      <trkpt lat="47.37809" lon="-1.9601">
        <ele>-87</ele>
        <time>2012-01-08T07:27:40Z</time>
      </trkpt>
      <trkpt lat="47.37815" lon="-1.96005">
        <ele>-87</ele>
        <time>2012-01-08T07:27:42Z</time>
      </trkpt>
      <trkpt lat="47.37819" lon="-1.96">
        <ele>-88</ele>
        <time>2012-01-08T07:27:44Z</time>
      </trkpt>
      <trkpt lat="47.37823" lon="-1.95995">
        <ele>-88</ele>
        <time>2012-01-08T07:27:46Z</time>
      </trkpt>
      <trkpt lat="47.37826" lon="-1.95992">
        <ele>-87</ele>
        <time>2012-01-08T07:27:48Z</time>
      </trkpt>
      <trkpt lat="47.37827" lon="-1.95985">
        <ele>-87</ele>
        <time>2012-01-08T07:27:50Z</time>
      </trkpt>
      <trkpt lat="47.37826" lon="-1.95976">
        <ele>-87</ele>
        <time>2012-01-08T07:27:52Z</time>
      </trkpt>
      <trkpt lat="47.37826" lon="-1.95966">
        <ele>-87</ele>
        <time>2012-01-08T07:27:54Z</time>
      </trkpt>
      <trkpt lat="47.37825" lon="-1.95956">
        <ele>-86</ele>
        <time>2012-01-08T07:27:56Z</time>
      </trkpt>
      <trkpt lat="47.37824" lon="-1.95945">
        <ele>-86</ele>
        <time>2012-01-08T07:27:58Z</time>
      </trkpt>
      <trkpt lat="47.37823" lon="-1.95935">
        <ele>-86</ele>
        <time>2012-01-08T07:28:01Z</time>
      </trkpt>
      <trkpt lat="47.37823" lon="-1.95924">
        <ele>-86</ele>
        <time>2012-01-08T07:28:03Z</time>
      </trkpt>
      <trkpt lat="47.37821" lon="-1.95907">
        <ele>-86</ele>
        <time>2012-01-08T07:28:05Z</time>
      </trkpt>
      <trkpt lat="47.3782" lon="-1.95895">
        <ele>-86</ele>
        <time>2012-01-08T07:28:07Z</time>
      </trkpt>
      <trkpt lat="47.37819" lon="-1.95883">
        <ele>-85</ele>
        <time>2012-01-08T07:28:09Z</time>
      </trkpt>
      <trkpt lat="47.37818" lon="-1.9587">
        <ele>-85</ele>
        <time>2012-01-08T07:28:11Z</time>
      </trkpt>
      <trkpt lat="47.37817" lon="-1.95858">
        <ele>-85</ele>
        <time>2012-01-08T07:28:13Z</time>
      </trkpt>
      <trkpt lat="47.37816" lon="-1.95845">
        <ele>-84</ele>
        <time>2012-01-08T07:28:15Z</time>
      </trkpt>
      <trkpt lat="47.37814" lon="-1.95834">
        <ele>-84</ele>
        <time>2012-01-08T07:28:17Z</time>
      </trkpt>
      <trkpt lat="47.37813" lon="-1.95822">
        <ele>-84</ele>
        <time>2012-01-08T07:28:19Z</time>
      </trkpt>
      <trkpt lat="47.37812" lon="-1.95811">
        <ele>-84</ele>
        <time>2012-01-08T07:28:21Z</time>
      </trkpt>
      <trkpt lat="47.37811" lon="-1.958">
        <ele>-84</ele>
        <time>2012-01-08T07:28:23Z</time>
      </trkpt>
      <trkpt lat="47.37809" lon="-1.95788">
        <ele>-84</ele>
        <time>2012-01-08T07:28:26Z</time>
      </trkpt>
      <trkpt lat="47.37807" lon="-1.9577">
        <ele>-84</ele>
        <time>2012-01-08T07:28:28Z</time>
      </trkpt>
      <trkpt lat="47.37802" lon="-1.95762">
        <ele>-84</ele>
        <time>2012-01-08T07:28:30Z</time>
      </trkpt>
      <trkpt lat="47.37795" lon="-1.95757">
        <ele>-84</ele>
        <time>2012-01-08T07:28:32Z</time>
      </trkpt>
      <trkpt lat="47.37787" lon="-1.95754">
        <ele>-84</ele>
        <time>2012-01-08T07:28:34Z</time>
      </trkpt>
      <trkpt lat="47.3778" lon="-1.9575">
        <ele>-84</ele>
        <time>2012-01-08T07:28:36Z</time>
      </trkpt>
      <trkpt lat="47.37773" lon="-1.95746">
        <ele>-84</ele>
        <time>2012-01-08T07:28:38Z</time>
      </trkpt>
      <trkpt lat="47.37766" lon="-1.95743">
        <ele>-84</ele>
        <time>2012-01-08T07:28:40Z</time>
      </trkpt>
      <trkpt lat="47.37759" lon="-1.95739">
        <ele>-84</ele>
        <time>2012-01-08T07:28:42Z</time>
      </trkpt>
      <trkpt lat="47.37752" lon="-1.95736">
        <ele>-84</ele>
        <time>2012-01-08T07:28:45Z</time>
      </trkpt>
      <trkpt lat="47.37741" lon="-1.9573">
        <ele>-84</ele>
        <time>2012-01-08T07:28:47Z</time>
      </trkpt>
      <trkpt lat="47.37735" lon="-1.95727">
        <ele>-84</ele>
        <time>2012-01-08T07:28:49Z</time>
      </trkpt>
      <trkpt lat="47.37727" lon="-1.95723">
        <ele>-84</ele>
        <time>2012-01-08T07:28:51Z</time>
      </trkpt>
      <trkpt lat="47.3772" lon="-1.9572">
        <ele>-84</ele>
        <time>2012-01-08T07:28:53Z</time>
      </trkpt>
      <trkpt lat="47.37712" lon="-1.95715">
        <ele>-84</ele>
        <time>2012-01-08T07:28:55Z</time>
      </trkpt>
      <trkpt lat="47.37704" lon="-1.95711">
        <ele>-84</ele>
        <time>2012-01-08T07:28:57Z</time>
      </trkpt>
      <trkpt lat="47.37696" lon="-1.95708">
        <ele>-84</ele>
        <time>2012-01-08T07:28:59Z</time>
      </trkpt>
      <trkpt lat="47.37689" lon="-1.95705">
        <ele>-84</ele>
        <time>2012-01-08T07:29:02Z</time>
      </trkpt>
      <trkpt lat="47.37682" lon="-1.95702">
        <ele>-84</ele>
        <time>2012-01-08T07:29:04Z</time>
      </trkpt>
      <trkpt lat="47.37672" lon="-1.95698">
        <ele>-84</ele>
        <time>2012-01-08T07:29:06Z</time>
      </trkpt>
      <trkpt lat="47.37666" lon="-1.95695">
        <ele>-84</ele>
        <time>2012-01-08T07:29:08Z</time>
      </trkpt>
      <trkpt lat="47.37659" lon="-1.95693">
        <ele>-84</ele>
        <time>2012-01-08T07:29:10Z</time>
      </trkpt>
      <trkpt lat="47.37653" lon="-1.95689">
        <ele>-84</ele>
        <time>2012-01-08T07:29:12Z</time>
      </trkpt>
      <trkpt lat="47.37647" lon="-1.95685">
        <ele>-84</ele>
        <time>2012-01-08T07:29:14Z</time>
      </trkpt>
      <trkpt lat="47.3764" lon="-1.95683">
        <ele>-84</ele>
        <time>2012-01-08T07:29:16Z</time>
      </trkpt>
      <trkpt lat="47.37634" lon="-1.95681">
        <ele>-84</ele>
        <time>2012-01-08T07:29:18Z</time>
      </trkpt>
      <trkpt lat="47.37627" lon="-1.9568">
        <ele>-84</ele>
        <time>2012-01-08T07:29:20Z</time>
      </trkpt>
      <trkpt lat="47.3762" lon="-1.95677">
        <ele>-84</ele>
        <time>2012-01-08T07:29:22Z</time>
      </trkpt>
      <trkpt lat="47.37613" lon="-1.95674">
        <ele>-84</ele>
        <time>2012-01-08T07:29:24Z</time>
      </trkpt>
      <trkpt lat="47.37606" lon="-1.95671">
        <ele>-84</ele>
        <time>2012-01-08T07:29:26Z</time>
      </trkpt>
      <trkpt lat="47.37598" lon="-1.95669">
        <ele>-84</ele>
        <time>2012-01-08T07:29:29Z</time>
      </trkpt>
      <trkpt lat="47.37589" lon="-1.95663">
        <ele>-84</ele>
        <time>2012-01-08T07:29:31Z</time>
      </trkpt>
      <trkpt lat="47.37584" lon="-1.95658">
        <ele>-84</ele>
        <time>2012-01-08T07:29:33Z</time>
      </trkpt>
      <trkpt lat="47.37581" lon="-1.9565">
        <ele>-85</ele>
        <time>2012-01-08T07:29:35Z</time>
      </trkpt>
      <trkpt lat="47.37582" lon="-1.95641">
        <ele>-85</ele>
        <time>2012-01-08T07:29:37Z</time>
      </trkpt>
      <trkpt lat="47.37582" lon="-1.95632">
        <ele>-84</ele>
        <time>2012-01-08T07:29:39Z</time>
      </trkpt>
      <trkpt lat="47.37583" lon="-1.95624">
        <ele>-84</ele>
        <time>2012-01-08T07:29:41Z</time>
      </trkpt>
      <trkpt lat="47.37583" lon="-1.95615">
        <ele>-84</ele>
        <time>2012-01-08T07:29:43Z</time>
      </trkpt>
      <trkpt lat="47.37583" lon="-1.95605">
        <ele>-84</ele>
        <time>2012-01-08T07:29:45Z</time>
      </trkpt>
      <trkpt lat="47.37584" lon="-1.95594">
        <ele>-85</ele>
        <time>2012-01-08T07:29:47Z</time>
      </trkpt>
      <trkpt lat="47.37584" lon="-1.95582">
        <ele>-84</ele>
        <time>2012-01-08T07:29:49Z</time>
      </trkpt>
      <trkpt lat="47.37585" lon="-1.95571">
        <ele>-84</ele>
        <time>2012-01-08T07:29:51Z</time>
      </trkpt>
      <trkpt lat="47.37585" lon="-1.95561">
        <ele>-84</ele>
        <time>2012-01-08T07:29:53Z</time>
      </trkpt>
      <trkpt lat="47.37586" lon="-1.95549">
        <ele>-84</ele>
        <time>2012-01-08T07:29:56Z</time>
      </trkpt>
      <trkpt lat="47.37588" lon="-1.9553">
        <ele>-83</ele>
        <time>2012-01-08T07:29:58Z</time>
      </trkpt>
      <trkpt lat="47.37589" lon="-1.95517">
        <ele>-83</ele>
        <time>2012-01-08T07:30:00Z</time>
      </trkpt>
      <trkpt lat="47.3759" lon="-1.95503">
        <ele>-83</ele>
        <time>2012-01-08T07:30:02Z</time>
      </trkpt>
      <trkpt lat="47.37591" lon="-1.9549">
        <ele>-83</ele>
        <time>2012-01-08T07:30:04Z</time>
      </trkpt>
      <trkpt lat="47.37592" lon="-1.95479">
        <ele>-82</ele>
        <time>2012-01-08T07:30:06Z</time>
      </trkpt>
      <trkpt lat="47.37594" lon="-1.95466">
        <ele>-83</ele>
        <time>2012-01-08T07:30:08Z</time>
      </trkpt>
      <trkpt lat="47.37596" lon="-1.95452">
        <ele>-83</ele>
        <time>2012-01-08T07:30:10Z</time>
      </trkpt>
      <trkpt lat="47.37598" lon="-1.95438">
        <ele>-82</ele>
        <time>2012-01-08T07:30:12Z</time>
      </trkpt>
      <trkpt lat="47.37599" lon="-1.95424">
        <ele>-82</ele>
        <time>2012-01-08T07:30:15Z</time>
      </trkpt>
      <trkpt lat="47.37601" lon="-1.95404">
        <ele>-82</ele>
        <time>2012-01-08T07:30:17Z</time>
      </trkpt>
      <trkpt lat="47.37603" lon="-1.9539">
        <ele>-83</ele>
        <time>2012-01-08T07:30:19Z</time>
      </trkpt>
      <trkpt lat="47.37604" lon="-1.95375">
        <ele>-82</ele>
        <time>2012-01-08T07:30:21Z</time>
      </trkpt>
      <trkpt lat="47.37605" lon="-1.95361">
        <ele>-82</ele>
        <time>2012-01-08T07:30:23Z</time>
      </trkpt>
      <trkpt lat="47.37605" lon="-1.95347">
        <ele>-82</ele>
        <time>2012-01-08T07:30:25Z</time>
      </trkpt>
      <trkpt lat="47.37606" lon="-1.95334">
        <ele>-82</ele>
        <time>2012-01-08T07:30:27Z</time>
      </trkpt>
      <trkpt lat="47.37606" lon="-1.9532">
        <ele>-82</ele>
        <time>2012-01-08T07:30:29Z</time>
      </trkpt>
      <trkpt lat="47.37607" lon="-1.95306">
        <ele>-82</ele>
        <time>2012-01-08T07:30:31Z</time>
      </trkpt>
      <trkpt lat="47.37607" lon="-1.95292">
        <ele>-82</ele>
        <time>2012-01-08T07:30:33Z</time>
      </trkpt>
      <trkpt lat="47.37608" lon="-1.95279">
        <ele>-82</ele>
        <time>2012-01-08T07:30:36Z</time>
      </trkpt>
      <trkpt lat="47.37609" lon="-1.9526">
        <ele>-82</ele>
        <time>2012-01-08T07:30:38Z</time>
      </trkpt>
      <trkpt lat="47.37609" lon="-1.95247">
        <ele>-82</ele>
        <time>2012-01-08T07:30:40Z</time>
      </trkpt>
      <trkpt lat="47.3761" lon="-1.95235">
        <ele>-82</ele>
        <time>2012-01-08T07:30:42Z</time>
      </trkpt>
      <trkpt lat="47.3761" lon="-1.95222">
        <ele>-82</ele>
        <time>2012-01-08T07:30:44Z</time>
      </trkpt>
      <trkpt lat="47.37609" lon="-1.9521">
        <ele>-82</ele>
        <time>2012-01-08T07:30:46Z</time>
      </trkpt>
      <trkpt lat="47.37607" lon="-1.95196">
        <ele>-82</ele>
        <time>2012-01-08T07:30:48Z</time>
      </trkpt>
      <trkpt lat="47.37606" lon="-1.95184">
        <ele>-82</ele>
        <time>2012-01-08T07:30:50Z</time>
      </trkpt>
      <trkpt lat="47.37604" lon="-1.9517">
        <ele>-82</ele>
        <time>2012-01-08T07:30:52Z</time>
      </trkpt>
      <trkpt lat="47.37601" lon="-1.95157">
        <ele>-81</ele>
        <time>2012-01-08T07:30:54Z</time>
      </trkpt>
      <trkpt lat="47.37599" lon="-1.95141">
        <ele>-81</ele>
        <time>2012-01-08T07:30:56Z</time>
      </trkpt>
      <trkpt lat="47.37597" lon="-1.95127">
        <ele>-81</ele>
        <time>2012-01-08T07:30:59Z</time>
      </trkpt>
      <trkpt lat="47.37593" lon="-1.95105">
        <ele>-82</ele>
        <time>2012-01-08T07:31:01Z</time>
      </trkpt>
      <trkpt lat="47.37591" lon="-1.95091">
        <ele>-82</ele>
        <time>2012-01-08T07:31:03Z</time>
      </trkpt>
      <trkpt lat="47.37588" lon="-1.95076">
        <ele>-81</ele>
        <time>2012-01-08T07:31:05Z</time>
      </trkpt>
      <trkpt lat="47.37585" lon="-1.95062">
        <ele>-81</ele>
        <time>2012-01-08T07:31:07Z</time>
      </trkpt>
      <trkpt lat="47.37583" lon="-1.95048">
        <ele>-81</ele>
        <time>2012-01-08T07:31:09Z</time>
      </trkpt>
      <trkpt lat="47.3758" lon="-1.95032">
        <ele>-81</ele>
        <time>2012-01-08T07:31:11Z</time>
      </trkpt>
      <trkpt lat="47.37577" lon="-1.95018">
        <ele>-81</ele>
        <time>2012-01-08T07:31:13Z</time>
      </trkpt>
      <trkpt lat="47.37574" lon="-1.95002">
        <ele>-81</ele>
        <time>2012-01-08T07:31:15Z</time>
      </trkpt>
      <trkpt lat="47.37571" lon="-1.94986">
        <ele>-81</ele>
        <time>2012-01-08T07:31:17Z</time>
      </trkpt>
      <trkpt lat="47.37568" lon="-1.94971">
        <ele>-81</ele>
        <time>2012-01-08T07:31:19Z</time>
      </trkpt>
      <trkpt lat="47.37565" lon="-1.94956">
        <ele>-81</ele>
        <time>2012-01-08T07:31:21Z</time>
      </trkpt>
      <trkpt lat="47.37563" lon="-1.94941">
        <ele>-81</ele>
        <time>2012-01-08T07:31:24Z</time>
      </trkpt>
      <trkpt lat="47.3756" lon="-1.9492">
        <ele>-81</ele>
        <time>2012-01-08T07:31:26Z</time>
      </trkpt>
      <trkpt lat="47.37558" lon="-1.94908">
        <ele>-82</ele>
        <time>2012-01-08T07:31:28Z</time>
      </trkpt>
      <trkpt lat="47.37556" lon="-1.94896">
        <ele>-82</ele>
        <time>2012-01-08T07:31:30Z</time>
      </trkpt>
      <trkpt lat="47.37554" lon="-1.94888">
        <ele>-82</ele>
        <time>2012-01-08T07:31:32Z</time>
      </trkpt>
      <trkpt lat="47.37553" lon="-1.94877">
        <ele>-82</ele>
        <time>2012-01-08T07:31:34Z</time>
      </trkpt>
      <trkpt lat="47.37551" lon="-1.94864">
        <ele>-82</ele>
        <time>2012-01-08T07:31:36Z</time>
      </trkpt>
      <trkpt lat="47.37548" lon="-1.9485">
        <ele>-82</ele>
        <time>2012-01-08T07:31:38Z</time>
      </trkpt>
      <trkpt lat="47.37545" lon="-1.94834">
        <ele>-82</ele>
        <time>2012-01-08T07:31:40Z</time>
      </trkpt>
      <trkpt lat="47.37543" lon="-1.9482">
        <ele>-82</ele>
        <time>2012-01-08T07:31:43Z</time>
      </trkpt>
      <trkpt lat="47.37539" lon="-1.94798">
        <ele>-82</ele>
        <time>2012-01-08T07:31:45Z</time>
      </trkpt>
      <trkpt lat="47.37535" lon="-1.94784">
        <ele>-82</ele>
        <time>2012-01-08T07:31:47Z</time>
      </trkpt>
      <trkpt lat="47.37527" lon="-1.94775">
        <ele>-82</ele>
        <time>2012-01-08T07:31:49Z</time>
      </trkpt>
      <trkpt lat="47.37517" lon="-1.94769">
        <ele>-82</ele>
        <time>2012-01-08T07:31:51Z</time>
      </trkpt>
      <trkpt lat="47.37506" lon="-1.94764">
        <ele>-82</ele>
        <time>2012-01-08T07:31:53Z</time>
      </trkpt>
      <trkpt lat="47.37494" lon="-1.94758">
        <ele>-82</ele>
        <time>2012-01-08T07:31:55Z</time>
      </trkpt>
      <trkpt lat="47.37483" lon="-1.94753">
        <ele>-82</ele>
        <time>2012-01-08T07:31:57Z</time>
      </trkpt>
      <trkpt lat="47.37471" lon="-1.94748">
        <ele>-82</ele>
        <time>2012-01-08T07:31:59Z</time>
      </trkpt>
      <trkpt lat="47.37459" lon="-1.94743">
        <ele>-82</ele>
        <time>2012-01-08T07:32:01Z</time>
      </trkpt>
      <trkpt lat="47.37447" lon="-1.94738">
        <ele>-83</ele>
        <time>2012-01-08T07:32:04Z</time>
      </trkpt>
      <trkpt lat="47.37429" lon="-1.94731">
        <ele>-83</ele>
        <time>2012-01-08T07:32:06Z</time>
      </trkpt>
      <trkpt lat="47.37417" lon="-1.94726">
        <ele>-83</ele>
        <time>2012-01-08T07:32:08Z</time>
      </trkpt>
      <trkpt lat="47.37405" lon="-1.94721">
        <ele>-83</ele>
        <time>2012-01-08T07:32:10Z</time>
      </trkpt>
      <trkpt lat="47.37393" lon="-1.94716">
        <ele>-84</ele>
        <time>2012-01-08T07:32:12Z</time>
      </trkpt>
      <trkpt lat="47.37381" lon="-1.94711">
        <ele>-84</ele>
        <time>2012-01-08T07:32:14Z</time>
      </trkpt>
      <trkpt lat="47.37369" lon="-1.94706">
        <ele>-84</ele>
        <time>2012-01-08T07:32:16Z</time>
      </trkpt>
      <trkpt lat="47.37356" lon="-1.94701">
        <ele>-85</ele>
        <time>2012-01-08T07:32:18Z</time>
      </trkpt>
      <trkpt lat="47.37344" lon="-1.94696">
        <ele>-85</ele>
        <time>2012-01-08T07:32:20Z</time>
      </trkpt>
      <trkpt lat="47.37331" lon="-1.94691">
        <ele>-86</ele>
        <time>2012-01-08T07:32:22Z</time>
      </trkpt>
      <trkpt lat="47.37318" lon="-1.94685">
        <ele>-86</ele>
        <time>2012-01-08T07:32:25Z</time>
      </trkpt>
      <trkpt lat="47.37298" lon="-1.94677">
        <ele>-87</ele>
        <time>2012-01-08T07:32:27Z</time>
      </trkpt>
      <trkpt lat="47.37284" lon="-1.94671">
        <ele>-87</ele>
        <time>2012-01-08T07:32:29Z</time>
      </trkpt>
      <trkpt lat="47.3727" lon="-1.94666">
        <ele>-87</ele>
        <time>2012-01-08T07:32:31Z</time>
      </trkpt>
      <trkpt lat="47.37256" lon="-1.94661">
        <ele>-88</ele>
        <time>2012-01-08T07:32:33Z</time>
      </trkpt>
      <trkpt lat="47.37242" lon="-1.94655">
        <ele>-88</ele>
        <time>2012-01-08T07:32:35Z</time>
      </trkpt>
      <trkpt lat="47.37228" lon="-1.94649">
        <ele>-88</ele>
        <time>2012-01-08T07:32:37Z</time>
      </trkpt>
      <trkpt lat="47.37214" lon="-1.94643">
        <ele>-89</ele>
        <time>2012-01-08T07:32:39Z</time>
      </trkpt>
      <trkpt lat="47.37199" lon="-1.94638">
        <ele>-90</ele>
        <time>2012-01-08T07:32:41Z</time>
      </trkpt>
      <trkpt lat="47.37186" lon="-1.94632">
        <ele>-91</ele>
        <time>2012-01-08T07:32:43Z</time>
      </trkpt>
      <trkpt lat="47.37172" lon="-1.94626">
        <ele>-91</ele>
        <time>2012-01-08T07:32:45Z</time>
      </trkpt>
      <trkpt lat="47.37158" lon="-1.9462">
        <ele>-91</ele>
        <time>2012-01-08T07:32:47Z</time>
      </trkpt>
      <trkpt lat="47.37144" lon="-1.94614">
        <ele>-92</ele>
        <time>2012-01-08T07:32:49Z</time>
      </trkpt>
      <trkpt lat="47.3713" lon="-1.94609">
        <ele>-94</ele>
        <time>2012-01-08T07:32:51Z</time>
      </trkpt>
      <trkpt lat="47.37116" lon="-1.94603">
        <ele>-95</ele>
        <time>2012-01-08T07:32:53Z</time>
      </trkpt>
      <trkpt lat="47.37101" lon="-1.94597">
        <ele>-96</ele>
        <time>2012-01-08T07:32:55Z</time>
      </trkpt>
      <trkpt lat="47.37085" lon="-1.94591">
        <ele>-96</ele>
        <time>2012-01-08T07:32:57Z</time>
      </trkpt>
      <trkpt lat="47.37067" lon="-1.94584">
        <ele>-97</ele>
        <time>2012-01-08T07:32:59Z</time>
      </trkpt>
      <trkpt lat="47.3705" lon="-1.94578">
        <ele>-97</ele>
        <time>2012-01-08T07:33:01Z</time>
      </trkpt>
      <trkpt lat="47.37035" lon="-1.94573">
        <ele>-98</ele>
        <time>2012-01-08T07:33:03Z</time>
      </trkpt>
      <trkpt lat="47.37022" lon="-1.94568">
        <ele>-98</ele>
        <time>2012-01-08T07:33:05Z</time>
      </trkpt>
      <trkpt lat="47.37009" lon="-1.94563">
        <ele>-98</ele>
        <time>2012-01-08T07:33:08Z</time>
      </trkpt>
      <trkpt lat="47.36993" lon="-1.94556">
        <ele>-98</ele>
        <time>2012-01-08T07:33:10Z</time>
      </trkpt>
      <trkpt lat="47.36982" lon="-1.94553">
        <ele>-98</ele>
        <time>2012-01-08T07:33:12Z</time>
      </trkpt>
      <trkpt lat="47.36971" lon="-1.94556">
        <ele>-97</ele>
        <time>2012-01-08T07:33:14Z</time>
      </trkpt>
      <trkpt lat="47.36961" lon="-1.94561">
        <ele>-97</ele>
        <time>2012-01-08T07:33:16Z</time>
      </trkpt>
      <trkpt lat="47.3695" lon="-1.94564">
        <ele>-97</ele>
        <time>2012-01-08T07:33:18Z</time>
      </trkpt>
      <trkpt lat="47.3694" lon="-1.94567">
        <ele>-96</ele>
        <time>2012-01-08T07:33:20Z</time>
      </trkpt>
      <trkpt lat="47.3693" lon="-1.94567">
        <ele>-95</ele>
        <time>2012-01-08T07:33:22Z</time>
      </trkpt>
      <trkpt lat="47.36919" lon="-1.94568">
        <ele>-95</ele>
        <time>2012-01-08T07:33:25Z</time>
      </trkpt>
      <trkpt lat="47.36909" lon="-1.94572">
        <ele>-95</ele>
        <time>2012-01-08T07:33:27Z</time>
      </trkpt>
      <trkpt lat="47.36893" lon="-1.94576">
        <ele>-94</ele>
        <time>2012-01-08T07:33:29Z</time>
      </trkpt>
      <trkpt lat="47.36883" lon="-1.94578">
        <ele>-94</ele>
        <time>2012-01-08T07:33:31Z</time>
      </trkpt>
      <trkpt lat="47.36872" lon="-1.9458">
        <ele>-94</ele>
        <time>2012-01-08T07:33:33Z</time>
      </trkpt>
      <trkpt lat="47.36864" lon="-1.94581">
        <ele>-93</ele>
        <time>2012-01-08T07:33:35Z</time>
      </trkpt>
      <trkpt lat="47.36859" lon="-1.94583">
        <ele>-94</ele>
        <time>2012-01-08T07:33:37Z</time>
      </trkpt>
      <trkpt lat="47.36857" lon="-1.94584">
        <ele>-94</ele>
        <time>2012-01-08T07:33:39Z</time>
      </trkpt>
      <trkpt lat="47.36856" lon="-1.94585">
        <ele>-94</ele>
        <time>2012-01-08T07:33:41Z</time>
      </trkpt>
      <trkpt lat="47.36856" lon="-1.94585">
        <ele>-94</ele>
        <time>2012-01-08T07:33:43Z</time>
      </trkpt>
      <trkpt lat="47.36856" lon="-1.94585">
        <ele>-94</ele>
        <time>2012-01-08T07:33:45Z</time>
      </trkpt>
      <trkpt lat="47.36855" lon="-1.94585">
        <ele>-94</ele>
        <time>2012-01-08T07:33:47Z</time>
      </trkpt>
      <trkpt lat="47.36855" lon="-1.94585">
        <ele>-94</ele>
        <time>2012-01-08T07:33:49Z</time>
      </trkpt>
      <trkpt lat="47.36855" lon="-1.94586">
        <ele>-94</ele>
        <time>2012-01-08T07:33:52Z</time>
      </trkpt>
      <trkpt lat="47.36855" lon="-1.94586">
        <ele>-94</ele>
        <time>2012-01-08T07:33:54Z</time>
      </trkpt>
      <trkpt lat="47.36855" lon="-1.94592">
        <ele>-94</ele>
        <time>2012-01-08T07:33:56Z</time>
      </trkpt>
      <trkpt lat="47.36855" lon="-1.94596">
        <ele>-95</ele>
        <time>2012-01-08T07:33:58Z</time>
      </trkpt>
      <trkpt lat="47.36856" lon="-1.946">
        <ele>-95</ele>
        <time>2012-01-08T07:34:00Z</time>
      </trkpt>
      <trkpt lat="47.36856" lon="-1.94604">
        <ele>-94</ele>
        <time>2012-01-08T07:34:02Z</time>
      </trkpt>
      <trkpt lat="47.36858" lon="-1.94609">
        <ele>-94</ele>
        <time>2012-01-08T07:34:04Z</time>
      </trkpt>
      <trkpt lat="47.36859" lon="-1.94613">
        <ele>-94</ele>
        <time>2012-01-08T07:34:06Z</time>
      </trkpt>
      <trkpt lat="47.3686" lon="-1.94617">
        <ele>-95</ele>
        <time>2012-01-08T07:34:08Z</time>
      </trkpt>
      <trkpt lat="47.36861" lon="-1.9462">
        <ele>-95</ele>
        <time>2012-01-08T07:34:10Z</time>
      </trkpt>
      <trkpt lat="47.36861" lon="-1.94621">
        <ele>-95</ele>
        <time>2012-01-08T07:34:12Z</time>
      </trkpt>
      <trkpt lat="47.36861" lon="-1.94623">
        <ele>-95</ele>
        <time>2012-01-08T07:34:15Z</time>
      </trkpt>
      <trkpt lat="47.36861" lon="-1.94623">
        <ele>-94</ele>
        <time>2012-01-08T07:34:17Z</time>
      </trkpt>
      <trkpt lat="47.36861" lon="-1.94623">
        <ele>-94</ele>
        <time>2012-01-08T07:34:19Z</time>
      </trkpt>
      <trkpt lat="47.36861" lon="-1.94623">
        <ele>-94</ele>
        <time>2012-01-08T07:34:21Z</time>
      </trkpt>
      <trkpt lat="47.3686" lon="-1.94623">
        <ele>-94</ele>
        <time>2012-01-08T07:34:23Z</time>
      </trkpt>
      <trkpt lat="47.3686" lon="-1.94624">
        <ele>-94</ele>
        <time>2012-01-08T07:34:25Z</time>
      </trkpt>
      <trkpt lat="47.3686" lon="-1.94624">
        <ele>-95</ele>
        <time>2012-01-08T07:34:27Z</time>
      </trkpt>
      <trkpt lat="47.3686" lon="-1.94625">
        <ele>-95</ele>
        <time>2012-01-08T07:34:29Z</time>
      </trkpt>
      <trkpt lat="47.3686" lon="-1.94625">
        <ele>-95</ele>
        <time>2012-01-08T07:34:31Z</time>
      </trkpt>
      <trkpt lat="47.3686" lon="-1.94625">
        <ele>-95</ele>
        <time>2012-01-08T07:34:33Z</time>
      </trkpt>
      <trkpt lat="47.36859" lon="-1.94624">
        <ele>-95</ele>
        <time>2012-01-08T07:34:36Z</time>
      </trkpt>
      <trkpt lat="47.36859" lon="-1.94623">
        <ele>-95</ele>
        <time>2012-01-08T07:34:38Z</time>
      </trkpt>
      <trkpt lat="47.36858" lon="-1.94619">
        <ele>-95</ele>
        <time>2012-01-08T07:34:40Z</time>
      </trkpt>
      <trkpt lat="47.36855" lon="-1.94613">
        <ele>-95</ele>
        <time>2012-01-08T07:34:42Z</time>
      </trkpt>
      <trkpt lat="47.36853" lon="-1.94605">
        <ele>-94</ele>
        <time>2012-01-08T07:34:44Z</time>
      </trkpt>
      <trkpt lat="47.3685" lon="-1.94597">
        <ele>-94</ele>
        <time>2012-01-08T07:34:46Z</time>
      </trkpt>
      <trkpt lat="47.36846" lon="-1.94588">
        <ele>-94</ele>
        <time>2012-01-08T07:34:48Z</time>
      </trkpt>
      <trkpt lat="47.36842" lon="-1.94579">
        <ele>-94</ele>
        <time>2012-01-08T07:34:50Z</time>
      </trkpt>
      <trkpt lat="47.36836" lon="-1.94569">
        <ele>-94</ele>
        <time>2012-01-08T07:34:52Z</time>
      </trkpt>
      <trkpt lat="47.36831" lon="-1.9456">
        <ele>-93</ele>
        <time>2012-01-08T07:34:54Z</time>
      </trkpt>
      <trkpt lat="47.36824" lon="-1.9455">
        <ele>-93</ele>
        <time>2012-01-08T07:34:57Z</time>
      </trkpt>
      <trkpt lat="47.36815" lon="-1.94535">
        <ele>-93</ele>
        <time>2012-01-08T07:34:59Z</time>
      </trkpt>
      <trkpt lat="47.3681" lon="-1.94526">
        <ele>-93</ele>
        <time>2012-01-08T07:35:01Z</time>
      </trkpt>
      <trkpt lat="47.36804" lon="-1.94517">
        <ele>-94</ele>
        <time>2012-01-08T07:35:03Z</time>
      </trkpt>
      <trkpt lat="47.36798" lon="-1.9451">
        <ele>-94</ele>
        <time>2012-01-08T07:35:05Z</time>
      </trkpt>
      <trkpt lat="47.36792" lon="-1.94507">
        <ele>-94</ele>
        <time>2012-01-08T07:35:07Z</time>
      </trkpt>
      <trkpt lat="47.36784" lon="-1.94508">
        <ele>-94</ele>
        <time>2012-01-08T07:35:09Z</time>
      </trkpt>
      <trkpt lat="47.36776" lon="-1.94511">
        <ele>-94</ele>
        <time>2012-01-08T07:35:11Z</time>
      </trkpt>
      <trkpt lat="47.36767" lon="-1.94514">
        <ele>-94</ele>
        <time>2012-01-08T07:35:13Z</time>
      </trkpt>
      <trkpt lat="47.36758" lon="-1.94515">
        <ele>-94</ele>
        <time>2012-01-08T07:35:15Z</time>
      </trkpt>
      <trkpt lat="47.36749" lon="-1.94518">
        <ele>-95</ele>
        <time>2012-01-08T07:35:18Z</time>
      </trkpt>
      <trkpt lat="47.36734" lon="-1.94522">
        <ele>-95</ele>
        <time>2012-01-08T07:35:20Z</time>
      </trkpt>
      <trkpt lat="47.36725" lon="-1.94524">
        <ele>-96</ele>
        <time>2012-01-08T07:35:22Z</time>
      </trkpt>
      <trkpt lat="47.36716" lon="-1.94528">
        <ele>-96</ele>
        <time>2012-01-08T07:35:24Z</time>
      </trkpt>
      <trkpt lat="47.36707" lon="-1.94532">
        <ele>-97</ele>
        <time>2012-01-08T07:35:26Z</time>
      </trkpt>
      <trkpt lat="47.36697" lon="-1.94535">
        <ele>-97</ele>
        <time>2012-01-08T07:35:28Z</time>
      </trkpt>
      <trkpt lat="47.36687" lon="-1.94536">
        <ele>-97</ele>
        <time>2012-01-08T07:35:30Z</time>
      </trkpt>
      <trkpt lat="47.36676" lon="-1.94538">
        <ele>-97</ele>
        <time>2012-01-08T07:35:32Z</time>
      </trkpt>
      <trkpt lat="47.36665" lon="-1.94539">
        <ele>-98</ele>
        <time>2012-01-08T07:35:34Z</time>
      </trkpt>
      <trkpt lat="47.36653" lon="-1.94541">
        <ele>-99</ele>
        <time>2012-01-08T07:35:36Z</time>
      </trkpt>
      <trkpt lat="47.36643" lon="-1.94541">
        <ele>-100</ele>
        <time>2012-01-08T07:35:38Z</time>
      </trkpt>
      <trkpt lat="47.36636" lon="-1.94539">
        <ele>-101</ele>
        <time>2012-01-08T07:35:41Z</time>
      </trkpt>
      <trkpt lat="47.36627" lon="-1.94538">
        <ele>-102</ele>
        <time>2012-01-08T07:35:43Z</time>
      </trkpt>
      <trkpt lat="47.36623" lon="-1.94531">
        <ele>-103</ele>
        <time>2012-01-08T07:35:45Z</time>
      </trkpt>
      <trkpt lat="47.36624" lon="-1.94522">
        <ele>-103</ele>
        <time>2012-01-08T07:35:47Z</time>
      </trkpt>
      <trkpt lat="47.36623" lon="-1.94513">
        <ele>-103</ele>
        <time>2012-01-08T07:35:49Z</time>
      </trkpt>
      <trkpt lat="47.3662" lon="-1.94504">
        <ele>-104</ele>
        <time>2012-01-08T07:35:51Z</time>
      </trkpt>
      <trkpt lat="47.36616" lon="-1.94496">
        <ele>-104</ele>
        <time>2012-01-08T07:35:53Z</time>
      </trkpt>
      <trkpt lat="47.3661" lon="-1.9449">
        <ele>-104</ele>
        <time>2012-01-08T07:35:55Z</time>
      </trkpt>
      <trkpt lat="47.36604" lon="-1.94485">
        <ele>-105</ele>
        <time>2012-01-08T07:35:57Z</time>
      </trkpt>
      <trkpt lat="47.36598" lon="-1.9448">
        <ele>-105</ele>
        <time>2012-01-08T07:35:59Z</time>
      </trkpt>
      <trkpt lat="47.36592" lon="-1.94475">
        <ele>-106</ele>
        <time>2012-01-08T07:36:01Z</time>
      </trkpt>
      <trkpt lat="47.36583" lon="-1.94472">
        <ele>-106</ele>
        <time>2012-01-08T07:36:04Z</time>
      </trkpt>
      <trkpt lat="47.36576" lon="-1.94468">
        <ele>-106</ele>
        <time>2012-01-08T07:36:06Z</time>
      </trkpt>
      <trkpt lat="47.36569" lon="-1.94463">
        <ele>-106</ele>
        <time>2012-01-08T07:36:08Z</time>
      </trkpt>
      <trkpt lat="47.36559" lon="-1.94459">
        <ele>-106</ele>
        <time>2012-01-08T07:36:10Z</time>
      </trkpt>
      <trkpt lat="47.36549" lon="-1.94455">
        <ele>-106</ele>
        <time>2012-01-08T07:36:12Z</time>
      </trkpt>
      <trkpt lat="47.36539" lon="-1.94449">
        <ele>-107</ele>
        <time>2012-01-08T07:36:14Z</time>
      </trkpt>
      <trkpt lat="47.36529" lon="-1.94444">
        <ele>-107</ele>
        <time>2012-01-08T07:36:16Z</time>
      </trkpt>
      <trkpt lat="47.36519" lon="-1.94438">
        <ele>-107</ele>
        <time>2012-01-08T07:36:18Z</time>
      </trkpt>
      <trkpt lat="47.36509" lon="-1.94431">
        <ele>-107</ele>
        <time>2012-01-08T07:36:20Z</time>
      </trkpt>
      <trkpt lat="47.36499" lon="-1.94422">
        <ele>-107</ele>
        <time>2012-01-08T07:36:22Z</time>
      </trkpt>
      <trkpt lat="47.36492" lon="-1.94406">
        <ele>-107</ele>
        <time>2012-01-08T07:36:24Z</time>
      </trkpt>
      <trkpt lat="47.36486" lon="-1.9439">
        <ele>-106</ele>
        <time>2012-01-08T07:36:26Z</time>
      </trkpt>
      <trkpt lat="47.3648" lon="-1.94375">
        <ele>-106</ele>
        <time>2012-01-08T07:36:28Z</time>
      </trkpt>
      <trkpt lat="47.36475" lon="-1.94361">
        <ele>-106</ele>
        <time>2012-01-08T07:36:31Z</time>
      </trkpt>
      <trkpt lat="47.36466" lon="-1.94343">
        <ele>-105</ele>
        <time>2012-01-08T07:36:33Z</time>
      </trkpt>
      <trkpt lat="47.3646" lon="-1.94329">
        <ele>-104</ele>
        <time>2012-01-08T07:36:35Z</time>
      </trkpt>
      <trkpt lat="47.36455" lon="-1.94315">
        <ele>-104</ele>
        <time>2012-01-08T07:36:37Z</time>
      </trkpt>
      <trkpt lat="47.36451" lon="-1.94299">
        <ele>-103</ele>
        <time>2012-01-08T07:36:39Z</time>
      </trkpt>
      <trkpt lat="47.36448" lon="-1.94284">
        <ele>-103</ele>
        <time>2012-01-08T07:36:41Z</time>
      </trkpt>
      <trkpt lat="47.36446" lon="-1.94271">
        <ele>-103</ele>
        <time>2012-01-08T07:36:43Z</time>
      </trkpt>
      <trkpt lat="47.36444" lon="-1.94257">
        <ele>-103</ele>
        <time>2012-01-08T07:36:45Z</time>
      </trkpt>
      <trkpt lat="47.36442" lon="-1.94246">
        <ele>-103</ele>
        <time>2012-01-08T07:36:47Z</time>
      </trkpt>
      <trkpt lat="47.36441" lon="-1.94237">
        <ele>-102</ele>
        <time>2012-01-08T07:36:49Z</time>
      </trkpt>
      <trkpt lat="47.36442" lon="-1.9423">
        <ele>-102</ele>
        <time>2012-01-08T07:36:52Z</time>
      </trkpt>
      <trkpt lat="47.36445" lon="-1.94227">
        <ele>-102</ele>
        <time>2012-01-08T07:36:54Z</time>
      </trkpt>
      <trkpt lat="47.36451" lon="-1.94227">
        <ele>-102</ele>
        <time>2012-01-08T07:36:56Z</time>
      </trkpt>
      <trkpt lat="47.36457" lon="-1.94227">
        <ele>-102</ele>
        <time>2012-01-08T07:36:58Z</time>
      </trkpt>
      <trkpt lat="47.36465" lon="-1.94227">
        <ele>-102</ele>
        <time>2012-01-08T07:37:00Z</time>
      </trkpt>
      <trkpt lat="47.36474" lon="-1.94226">
        <ele>-101</ele>
        <time>2012-01-08T07:37:02Z</time>
      </trkpt>
      <trkpt lat="47.36483" lon="-1.94225">
        <ele>-101</ele>
        <time>2012-01-08T07:37:04Z</time>
      </trkpt>
      <trkpt lat="47.36493" lon="-1.94223">
        <ele>-101</ele>
        <time>2012-01-08T07:37:06Z</time>
      </trkpt>
      <trkpt lat="47.36502" lon="-1.94219">
        <ele>-101</ele>
        <time>2012-01-08T07:37:08Z</time>
      </trkpt>
      <trkpt lat="47.36512" lon="-1.94214">
        <ele>-101</ele>
        <time>2012-01-08T07:37:10Z</time>
      </trkpt>
      <trkpt lat="47.36522" lon="-1.9421">
        <ele>-101</ele>
        <time>2012-01-08T07:37:12Z</time>
      </trkpt>
      <trkpt lat="47.36536" lon="-1.94203">
        <ele>-101</ele>
        <time>2012-01-08T07:37:15Z</time>
      </trkpt>
      <trkpt lat="47.36546" lon="-1.94199">
        <ele>-101</ele>
        <time>2012-01-08T07:37:17Z</time>
      </trkpt>
      <trkpt lat="47.36555" lon="-1.94194">
        <ele>-101</ele>
        <time>2012-01-08T07:37:19Z</time>
      </trkpt>
      <trkpt lat="47.36564" lon="-1.94189">
        <ele>-100</ele>
        <time>2012-01-08T07:37:21Z</time>
      </trkpt>
      <trkpt lat="47.36573" lon="-1.94185">
        <ele>-100</ele>
        <time>2012-01-08T07:37:23Z</time>
      </trkpt>
      <trkpt lat="47.36582" lon="-1.9418">
        <ele>-99</ele>
        <time>2012-01-08T07:37:25Z</time>
      </trkpt>
      <trkpt lat="47.36591" lon="-1.94176">
        <ele>-98</ele>
        <time>2012-01-08T07:37:27Z</time>
      </trkpt>
      <trkpt lat="47.36599" lon="-1.94173">
        <ele>-98</ele>
        <time>2012-01-08T07:37:29Z</time>
      </trkpt>
      <trkpt lat="47.36607" lon="-1.94168">
        <ele>-97</ele>
        <time>2012-01-08T07:37:31Z</time>
      </trkpt>
      <trkpt lat="47.36617" lon="-1.94156">
        <ele>-97</ele>
        <time>2012-01-08T07:37:34Z</time>
      </trkpt>
      <trkpt lat="47.36622" lon="-1.94145">
        <ele>-96</ele>
        <time>2012-01-08T07:37:36Z</time>
      </trkpt>
      <trkpt lat="47.36625" lon="-1.94132">
        <ele>-96</ele>
        <time>2012-01-08T07:37:38Z</time>
      </trkpt>
      <trkpt lat="47.36627" lon="-1.94119">
        <ele>-96</ele>
        <time>2012-01-08T07:37:40Z</time>
      </trkpt>
      <trkpt lat="47.36631" lon="-1.94105">
        <ele>-95</ele>
        <time>2012-01-08T07:37:42Z</time>
      </trkpt>
      <trkpt lat="47.36634" lon="-1.94091">
        <ele>-95</ele>
        <time>2012-01-08T07:37:44Z</time>
      </trkpt>
      <trkpt lat="47.36638" lon="-1.94077">
        <ele>-95</ele>
        <time>2012-01-08T07:37:46Z</time>
      </trkpt>
      <trkpt lat="47.36641" lon="-1.94063">
        <ele>-95</ele>
        <time>2012-01-08T07:37:48Z</time>
      </trkpt>
      <trkpt lat="47.36645" lon="-1.94049">
        <ele>-95</ele>
        <time>2012-01-08T07:37:50Z</time>
      </trkpt>
      <trkpt lat="47.3665" lon="-1.94028">
        <ele>-95</ele>
        <time>2012-01-08T07:37:53Z</time>
      </trkpt>
      <trkpt lat="47.36654" lon="-1.94014">
        <ele>-95</ele>
        <time>2012-01-08T07:37:55Z</time>
      </trkpt>
      <trkpt lat="47.36657" lon="-1.94">
        <ele>-95</ele>
        <time>2012-01-08T07:37:57Z</time>
      </trkpt>
      <trkpt lat="47.36661" lon="-1.93985">
        <ele>-95</ele>
        <time>2012-01-08T07:37:59Z</time>
      </trkpt>
      <trkpt lat="47.36665" lon="-1.93971">
        <ele>-95</ele>
        <time>2012-01-08T07:38:01Z</time>
      </trkpt>
      <trkpt lat="47.36668" lon="-1.93956">
        <ele>-95</ele>
        <time>2012-01-08T07:38:03Z</time>
      </trkpt>
      <trkpt lat="47.36671" lon="-1.93942">
        <ele>-94</ele>
        <time>2012-01-08T07:38:05Z</time>
      </trkpt>
      <trkpt lat="47.36675" lon="-1.93928">
        <ele>-94</ele>
        <time>2012-01-08T07:38:07Z</time>
      </trkpt>
      <trkpt lat="47.3668" lon="-1.93906">
        <ele>-94</ele>
        <time>2012-01-08T07:38:10Z</time>
      </trkpt>
      <trkpt lat="47.36683" lon="-1.93891">
        <ele>-94</ele>
        <time>2012-01-08T07:38:12Z</time>
      </trkpt>
      <trkpt lat="47.36687" lon="-1.93877">
        <ele>-94</ele>
        <time>2012-01-08T07:38:14Z</time>
      </trkpt>
      <trkpt lat="47.3669" lon="-1.93863">
        <ele>-94</ele>
        <time>2012-01-08T07:38:16Z</time>
      </trkpt>
      <trkpt lat="47.36694" lon="-1.93849">
        <ele>-94</ele>
        <time>2012-01-08T07:38:18Z</time>
      </trkpt>
      <trkpt lat="47.36698" lon="-1.93835">
        <ele>-94</ele>
        <time>2012-01-08T07:38:20Z</time>
      </trkpt>
      <trkpt lat="47.36703" lon="-1.93822">
        <ele>-93</ele>
        <time>2012-01-08T07:38:22Z</time>
      </trkpt>
      <trkpt lat="47.36707" lon="-1.9381">
        <ele>-93</ele>
        <time>2012-01-08T07:38:24Z</time>
      </trkpt>
      <trkpt lat="47.36711" lon="-1.93797">
        <ele>-92</ele>
        <time>2012-01-08T07:38:26Z</time>
      </trkpt>
      <trkpt lat="47.36716" lon="-1.93778">
        <ele>-92</ele>
        <time>2012-01-08T07:38:29Z</time>
      </trkpt>
      <trkpt lat="47.3672" lon="-1.93765">
        <ele>-92</ele>
        <time>2012-01-08T07:38:31Z</time>
      </trkpt>
      <trkpt lat="47.36723" lon="-1.93753">
        <ele>-92</ele>
        <time>2012-01-08T07:38:33Z</time>
      </trkpt>
      <trkpt lat="47.36726" lon="-1.9374">
        <ele>-92</ele>
        <time>2012-01-08T07:38:35Z</time>
      </trkpt>
      <trkpt lat="47.36728" lon="-1.93728">
        <ele>-91</ele>
        <time>2012-01-08T07:38:37Z</time>
      </trkpt>
      <trkpt lat="47.36728" lon="-1.93715">
        <ele>-91</ele>
        <time>2012-01-08T07:38:39Z</time>
      </trkpt>
      <trkpt lat="47.36723" lon="-1.93704">
        <ele>-91</ele>
        <time>2012-01-08T07:38:41Z</time>
      </trkpt>
      <trkpt lat="47.36719" lon="-1.93693">
        <ele>-91</ele>
        <time>2012-01-08T07:38:43Z</time>
      </trkpt>
      <trkpt lat="47.36717" lon="-1.93682">
        <ele>-91</ele>
        <time>2012-01-08T07:38:45Z</time>
      </trkpt>
      <trkpt lat="47.36717" lon="-1.9367">
        <ele>-91</ele>
        <time>2012-01-08T07:38:47Z</time>
      </trkpt>
      <trkpt lat="47.3672" lon="-1.93659">
        <ele>-91</ele>
        <time>2012-01-08T07:38:49Z</time>
      </trkpt>
      <trkpt lat="47.36724" lon="-1.93647">
        <ele>-90</ele>
        <time>2012-01-08T07:38:51Z</time>
      </trkpt>
      <trkpt lat="47.36725" lon="-1.93634">
        <ele>-90</ele>
        <time>2012-01-08T07:38:53Z</time>
      </trkpt>
      <trkpt lat="47.36718" lon="-1.93615">
        <ele>-90</ele>
        <time>2012-01-08T07:38:56Z</time>
      </trkpt>
      <trkpt lat="47.3671" lon="-1.93607">
        <ele>-90</ele>
        <time>2012-01-08T07:38:58Z</time>
      </trkpt>
      <trkpt lat="47.36701" lon="-1.93601">
        <ele>-89</ele>
        <time>2012-01-08T07:39:00Z</time>
      </trkpt>
      <trkpt lat="47.36691" lon="-1.93596">
        <ele>-89</ele>
        <time>2012-01-08T07:39:02Z</time>
      </trkpt>
      <trkpt lat="47.36681" lon="-1.93591">
        <ele>-89</ele>
        <time>2012-01-08T07:39:04Z</time>
      </trkpt>
      <trkpt lat="47.36671" lon="-1.93586">
        <ele>-89</ele>
        <time>2012-01-08T07:39:06Z</time>
      </trkpt>
      <trkpt lat="47.36662" lon="-1.93581">
        <ele>-89</ele>
        <time>2012-01-08T07:39:08Z</time>
      </trkpt>
      <trkpt lat="47.36653" lon="-1.93577">
        <ele>-89</ele>
        <time>2012-01-08T07:39:10Z</time>
      </trkpt>
      <trkpt lat="47.36644" lon="-1.93572">
        <ele>-89</ele>
        <time>2012-01-08T07:39:12Z</time>
      </trkpt>
      <trkpt lat="47.36635" lon="-1.93568">
        <ele>-89</ele>
        <time>2012-01-08T07:39:14Z</time>
      </trkpt>
      <trkpt lat="47.36626" lon="-1.93562">
        <ele>-89</ele>
        <time>2012-01-08T07:39:16Z</time>
      </trkpt>
      <trkpt lat="47.36617" lon="-1.93557">
        <ele>-89</ele>
        <time>2012-01-08T07:39:18Z</time>
      </trkpt>
      <trkpt lat="47.36609" lon="-1.93552">
        <ele>-89</ele>
        <time>2012-01-08T07:39:20Z</time>
      </trkpt>
      <trkpt lat="47.366" lon="-1.93548">
        <ele>-89</ele>
        <time>2012-01-08T07:39:22Z</time>
      </trkpt>
      <trkpt lat="47.36586" lon="-1.93541">
        <ele>-89</ele>
        <time>2012-01-08T07:39:25Z</time>
      </trkpt>
      <trkpt lat="47.36579" lon="-1.93531">
        <ele>-90</ele>
        <time>2012-01-08T07:39:27Z</time>
      </trkpt>
      <trkpt lat="47.36574" lon="-1.9352">
        <ele>-90</ele>
        <time>2012-01-08T07:39:29Z</time>
      </trkpt>
      <trkpt lat="47.36568" lon="-1.93512">
        <ele>-90</ele>
        <time>2012-01-08T07:39:31Z</time>
      </trkpt>
      <trkpt lat="47.36561" lon="-1.93504">
        <ele>-90</ele>
        <time>2012-01-08T07:39:33Z</time>
      </trkpt>
      <trkpt lat="47.36555" lon="-1.93496">
        <ele>-91</ele>
        <time>2012-01-08T07:39:35Z</time>
      </trkpt>
      <trkpt lat="47.36548" lon="-1.93486">
        <ele>-90</ele>
        <time>2012-01-08T07:39:37Z</time>
      </trkpt>
      <trkpt lat="47.36542" lon="-1.93476">
        <ele>-90</ele>
        <time>2012-01-08T07:39:39Z</time>
      </trkpt>
      <trkpt lat="47.36537" lon="-1.93465">
        <ele>-90</ele>
        <time>2012-01-08T07:39:41Z</time>
      </trkpt>
      <trkpt lat="47.36533" lon="-1.93455">
        <ele>-90</ele>
        <time>2012-01-08T07:39:43Z</time>
      </trkpt>
      <trkpt lat="47.3653" lon="-1.93443">
        <ele>-91</ele>
        <time>2012-01-08T07:39:45Z</time>
      </trkpt>
      <trkpt lat="47.36526" lon="-1.93425">
        <ele>-91</ele>
        <time>2012-01-08T07:39:48Z</time>
      </trkpt>
      <trkpt lat="47.36524" lon="-1.93413">
        <ele>-91</ele>
        <time>2012-01-08T07:39:50Z</time>
      </trkpt>
      <trkpt lat="47.36522" lon="-1.93402">
        <ele>-91</ele>
        <time>2012-01-08T07:39:52Z</time>
      </trkpt>
      <trkpt lat="47.36519" lon="-1.93389">
        <ele>-91</ele>
        <time>2012-01-08T07:39:54Z</time>
      </trkpt>
      <trkpt lat="47.36517" lon="-1.93377">
        <ele>-91</ele>
        <time>2012-01-08T07:39:56Z</time>
      </trkpt>
      <trkpt lat="47.36513" lon="-1.93366">
        <ele>-91</ele>
        <time>2012-01-08T07:39:58Z</time>
      </trkpt>
      <trkpt lat="47.36506" lon="-1.93358">
        <ele>-91</ele>
        <time>2012-01-08T07:40:00Z</time>
      </trkpt>
      <trkpt lat="47.36497" lon="-1.93356">
        <ele>-91</ele>
        <time>2012-01-08T07:40:02Z</time>
      </trkpt>
      <trkpt lat="47.36487" lon="-1.93357">
        <ele>-91</ele>
        <time>2012-01-08T07:40:04Z</time>
      </trkpt>
      <trkpt lat="47.36477" lon="-1.93355">
        <ele>-91</ele>
        <time>2012-01-08T07:40:06Z</time>
      </trkpt>
      <trkpt lat="47.36466" lon="-1.93353">
        <ele>-91</ele>
        <time>2012-01-08T07:40:08Z</time>
      </trkpt>
      <trkpt lat="47.36456" lon="-1.9335">
        <ele>-91</ele>
        <time>2012-01-08T07:40:10Z</time>
      </trkpt>
      <trkpt lat="47.3644" lon="-1.93351">
        <ele>-92</ele>
        <time>2012-01-08T07:40:13Z</time>
      </trkpt>
      <trkpt lat="47.36429" lon="-1.93354">
        <ele>-92</ele>
        <time>2012-01-08T07:40:15Z</time>
      </trkpt>
      <trkpt lat="47.36418" lon="-1.93355">
        <ele>-92</ele>
        <time>2012-01-08T07:40:17Z</time>
      </trkpt>
      <trkpt lat="47.36407" lon="-1.93355">
        <ele>-92</ele>
        <time>2012-01-08T07:40:19Z</time>
      </trkpt>
      <trkpt lat="47.36395" lon="-1.93354">
        <ele>-92</ele>
        <time>2012-01-08T07:40:21Z</time>
      </trkpt>
      <trkpt lat="47.36383" lon="-1.93355">
        <ele>-93</ele>
        <time>2012-01-08T07:40:23Z</time>
      </trkpt>
      <trkpt lat="47.36372" lon="-1.93355">
        <ele>-93</ele>
        <time>2012-01-08T07:40:25Z</time>
      </trkpt>
      <trkpt lat="47.36359" lon="-1.93355">
        <ele>-94</ele>
        <time>2012-01-08T07:40:27Z</time>
      </trkpt>
      <trkpt lat="47.36347" lon="-1.93355">
        <ele>-94</ele>
        <time>2012-01-08T07:40:29Z</time>
      </trkpt>
      <trkpt lat="47.36334" lon="-1.93355">
        <ele>-95</ele>
        <time>2012-01-08T07:40:31Z</time>
      </trkpt>
      <trkpt lat="47.36322" lon="-1.93353">
        <ele>-95</ele>
        <time>2012-01-08T07:40:33Z</time>
      </trkpt>
      <trkpt lat="47.36302" lon="-1.93352">
        <ele>-95</ele>
        <time>2012-01-08T07:40:35Z</time>
      </trkpt>
      <trkpt lat="47.36289" lon="-1.93352">
        <ele>-96</ele>
        <time>2012-01-08T07:40:38Z</time>
      </trkpt>
      <trkpt lat="47.36276" lon="-1.93351">
        <ele>-96</ele>
        <time>2012-01-08T07:40:40Z</time>
      </trkpt>
      <trkpt lat="47.36266" lon="-1.93352">
        <ele>-97</ele>
        <time>2012-01-08T07:40:42Z</time>
      </trkpt>
      <trkpt lat="47.36258" lon="-1.93354">
        <ele>-98</ele>
        <time>2012-01-08T07:40:44Z</time>
      </trkpt>
      <trkpt lat="47.36253" lon="-1.93358">
        <ele>-99</ele>
        <time>2012-01-08T07:40:46Z</time>
      </trkpt>
      <trkpt lat="47.3625" lon="-1.93363">
        <ele>-99</ele>
        <time>2012-01-08T07:40:48Z</time>
      </trkpt>
      <trkpt lat="47.36247" lon="-1.93374">
        <ele>-99</ele>
        <time>2012-01-08T07:40:50Z</time>
      </trkpt>
      <trkpt lat="47.3624" lon="-1.9338">
        <ele>-99</ele>
        <time>2012-01-08T07:40:52Z</time>
      </trkpt>
      <trkpt lat="47.36236" lon="-1.9339">
        <ele>-99</ele>
        <time>2012-01-08T07:40:54Z</time>
      </trkpt>
      <trkpt lat="47.36232" lon="-1.93401">
        <ele>-100</ele>
        <time>2012-01-08T07:40:56Z</time>
      </trkpt>
      <trkpt lat="47.36234" lon="-1.9341">
        <ele>-100</ele>
        <time>2012-01-08T07:40:58Z</time>
      </trkpt>
      <trkpt lat="47.3624" lon="-1.93414">
        <ele>-100</ele>
        <time>2012-01-08T07:41:01Z</time>
      </trkpt>
      <trkpt lat="47.36246" lon="-1.93414">
        <ele>-99</ele>
        <time>2012-01-08T07:41:03Z</time>
      </trkpt>
      <trkpt lat="47.36248" lon="-1.93411">
        <ele>-98</ele>
        <time>2012-01-08T07:41:05Z</time>
      </trkpt>
      <trkpt lat="47.36245" lon="-1.9341">
        <ele>-98</ele>
        <time>2012-01-08T07:41:07Z</time>
      </trkpt>
      <trkpt lat="47.36235" lon="-1.93413">
        <ele>-97</ele>
        <time>2012-01-08T07:41:09Z</time>
      </trkpt>
      <trkpt lat="47.3622" lon="-1.93417">
        <ele>-98</ele>
        <time>2012-01-08T07:41:11Z</time>
      </trkpt>
      <trkpt lat="47.3621" lon="-1.93418">
        <ele>-98</ele>
        <time>2012-01-08T07:41:13Z</time>
      </trkpt>
      <trkpt lat="47.362" lon="-1.9342">
        <ele>-99</ele>
        <time>2012-01-08T07:41:15Z</time>
      </trkpt>
      <trkpt lat="47.36194" lon="-1.93421">
        <ele>-99</ele>
        <time>2012-01-08T07:41:17Z</time>
      </trkpt>
      <trkpt lat="47.36184" lon="-1.93419">
        <ele>-99</ele>
        <time>2012-01-08T07:41:19Z</time>
      </trkpt>
      <trkpt lat="47.36179" lon="-1.93405">
        <ele>-100</ele>
        <time>2012-01-08T07:41:22Z</time>
      </trkpt>
      <trkpt lat="47.36186" lon="-1.93391">
        <ele>-100</ele>
        <time>2012-01-08T07:41:24Z</time>
      </trkpt>
      <trkpt lat="47.36201" lon="-1.93379">
        <ele>-100</ele>
        <time>2012-01-08T07:41:26Z</time>
      </trkpt>
      <trkpt lat="47.3621" lon="-1.93376">
        <ele>-100</ele>
        <time>2012-01-08T07:41:28Z</time>
      </trkpt>
      <trkpt lat="47.36215" lon="-1.93373">
        <ele>-100</ele>
        <time>2012-01-08T07:41:30Z</time>
      </trkpt>
      <trkpt lat="47.36223" lon="-1.9337">
        <ele>-100</ele>
        <time>2012-01-08T07:41:32Z</time>
      </trkpt>
      <trkpt lat="47.36231" lon="-1.93369">
        <ele>-100</ele>
        <time>2012-01-08T07:41:34Z</time>
      </trkpt>
      <trkpt lat="47.36236" lon="-1.93366">
        <ele>-99</ele>
        <time>2012-01-08T07:41:36Z</time>
      </trkpt>
      <trkpt lat="47.36241" lon="-1.93379">
        <ele>-99</ele>
        <time>2012-01-08T07:41:39Z</time>
      </trkpt>
      <trkpt lat="47.36232" lon="-1.93384">
        <ele>-99</ele>
        <time>2012-01-08T07:41:41Z</time>
      </trkpt>
      <trkpt lat="47.36223" lon="-1.93385">
        <ele>-99</ele>
        <time>2012-01-08T07:41:43Z</time>
      </trkpt>
      <trkpt lat="47.36216" lon="-1.93387">
        <ele>-99</ele>
        <time>2012-01-08T07:41:45Z</time>
      </trkpt>
      <trkpt lat="47.3621" lon="-1.93389">
        <ele>-100</ele>
        <time>2012-01-08T07:41:47Z</time>
      </trkpt>
      <trkpt lat="47.36205" lon="-1.93392">
        <ele>-101</ele>
        <time>2012-01-08T07:41:49Z</time>
      </trkpt>
      <trkpt lat="47.36199" lon="-1.93394">
        <ele>-101</ele>
        <time>2012-01-08T07:41:51Z</time>
      </trkpt>
      <trkpt lat="47.36198" lon="-1.9339">
        <ele>-101</ele>
        <time>2012-01-08T07:41:53Z</time>
      </trkpt>
      <trkpt lat="47.36201" lon="-1.93388">
        <ele>-102</ele>
        <time>2012-01-08T07:41:55Z</time>
      </trkpt>
      <trkpt lat="47.36201" lon="-1.93388">
        <ele>-102</ele>
        <time>2012-01-08T07:41:58Z</time>
      </trkpt>
      <trkpt lat="47.36202" lon="-1.93388">
        <ele>-102</ele>
        <time>2012-01-08T07:42:00Z</time>
      </trkpt>
      <trkpt lat="47.36202" lon="-1.93388">
        <ele>-102</ele>
        <time>2012-01-08T07:42:02Z</time>
      </trkpt>
      <trkpt lat="47.36195" lon="-1.93261">
        <ele>-104</ele>
        <time>2012-01-08T07:42:04Z</time>
      </trkpt>
      <trkpt lat="47.36198" lon="-1.93246">
        <ele>-104</ele>
        <time>2012-01-08T07:42:06Z</time>
      </trkpt>
      <trkpt lat="47.36202" lon="-1.9323">
        <ele>-105</ele>
        <time>2012-01-08T07:42:08Z</time>
      </trkpt>
      <trkpt lat="47.36206" lon="-1.93213">
        <ele>-105</ele>
        <time>2012-01-08T07:42:10Z</time>
      </trkpt>
      <trkpt lat="47.36208" lon="-1.93196">
        <ele>-106</ele>
        <time>2012-01-08T07:42:12Z</time>
      </trkpt>
      <trkpt lat="47.36207" lon="-1.93179">
        <ele>-106</ele>
        <time>2012-01-08T07:42:14Z</time>
      </trkpt>
      <trkpt lat="47.36203" lon="-1.93164">
        <ele>-106</ele>
        <time>2012-01-08T07:42:16Z</time>
      </trkpt>
      <trkpt lat="47.36199" lon="-1.93143">
        <ele>-105</ele>
        <time>2012-01-08T07:42:18Z</time>
      </trkpt>
      <trkpt lat="47.36198" lon="-1.93131">
        <ele>-105</ele>
        <time>2012-01-08T07:42:21Z</time>
      </trkpt>
      <trkpt lat="47.36197" lon="-1.93119">
        <ele>-104</ele>
        <time>2012-01-08T07:42:23Z</time>
      </trkpt>
      <trkpt lat="47.36197" lon="-1.9311">
        <ele>-104</ele>
        <time>2012-01-08T07:42:25Z</time>
      </trkpt>
      <trkpt lat="47.36195" lon="-1.93099">
        <ele>-104</ele>
        <time>2012-01-08T07:42:27Z</time>
      </trkpt>
      <trkpt lat="47.36193" lon="-1.93089">
        <ele>-103</ele>
        <time>2012-01-08T07:42:29Z</time>
      </trkpt>
      <trkpt lat="47.36192" lon="-1.93077">
        <ele>-103</ele>
        <time>2012-01-08T07:42:31Z</time>
      </trkpt>
      <trkpt lat="47.36191" lon="-1.93064">
        <ele>-103</ele>
        <time>2012-01-08T07:42:33Z</time>
      </trkpt>
      <trkpt lat="47.36188" lon="-1.93042">
        <ele>-102</ele>
        <time>2012-01-08T07:42:35Z</time>
      </trkpt>
      <trkpt lat="47.36185" lon="-1.93027">
        <ele>-102</ele>
        <time>2012-01-08T07:42:38Z</time>
      </trkpt>
      <trkpt lat="47.36183" lon="-1.93013">
        <ele>-102</ele>
        <time>2012-01-08T07:42:40Z</time>
      </trkpt>
      <trkpt lat="47.36182" lon="-1.92999">
        <ele>-102</ele>
        <time>2012-01-08T07:42:42Z</time>
      </trkpt>
      <trkpt lat="47.36181" lon="-1.92985">
        <ele>-102</ele>
        <time>2012-01-08T07:42:44Z</time>
      </trkpt>
      <trkpt lat="47.36181" lon="-1.92973">
        <ele>-102</ele>
        <time>2012-01-08T07:42:46Z</time>
      </trkpt>
      <trkpt lat="47.36181" lon="-1.9296">
        <ele>-102</ele>
        <time>2012-01-08T07:42:48Z</time>
      </trkpt>
      <trkpt lat="47.3618" lon="-1.92948">
        <ele>-102</ele>
        <time>2012-01-08T07:42:50Z</time>
      </trkpt>
      <trkpt lat="47.36181" lon="-1.92935">
        <ele>-102</ele>
        <time>2012-01-08T07:42:52Z</time>
      </trkpt>
      <trkpt lat="47.36181" lon="-1.92923">
        <ele>-102</ele>
        <time>2012-01-08T07:42:54Z</time>
      </trkpt>
      <trkpt lat="47.36182" lon="-1.92909">
        <ele>-102</ele>
        <time>2012-01-08T07:42:56Z</time>
      </trkpt>
      <trkpt lat="47.36182" lon="-1.92896">
        <ele>-102</ele>
        <time>2012-01-08T07:42:58Z</time>
      </trkpt>
      <trkpt lat="47.36182" lon="-1.92877">
        <ele>-102</ele>
        <time>2012-01-08T07:43:00Z</time>
      </trkpt>
      <trkpt lat="47.36182" lon="-1.92865">
        <ele>-101</ele>
        <time>2012-01-08T07:43:03Z</time>
      </trkpt>
      <trkpt lat="47.36181" lon="-1.92852">
        <ele>-101</ele>
        <time>2012-01-08T07:43:05Z</time>
      </trkpt>
      <trkpt lat="47.36181" lon="-1.9284">
        <ele>-101</ele>
        <time>2012-01-08T07:43:07Z</time>
      </trkpt>
      <trkpt lat="47.36181" lon="-1.92827">
        <ele>-101</ele>
        <time>2012-01-08T07:43:09Z</time>
      </trkpt>
      <trkpt lat="47.36181" lon="-1.92815">
        <ele>-100</ele>
        <time>2012-01-08T07:43:11Z</time>
      </trkpt>
      <trkpt lat="47.36181" lon="-1.92801">
        <ele>-100</ele>
        <time>2012-01-08T07:43:13Z</time>
      </trkpt>
      <trkpt lat="47.36181" lon="-1.92788">
        <ele>-99</ele>
        <time>2012-01-08T07:43:15Z</time>
      </trkpt>
      <trkpt lat="47.3618" lon="-1.92773">
        <ele>-99</ele>
        <time>2012-01-08T07:43:17Z</time>
      </trkpt>
      <trkpt lat="47.3618" lon="-1.9276">
        <ele>-98</ele>
        <time>2012-01-08T07:43:19Z</time>
      </trkpt>
      <trkpt lat="47.3618" lon="-1.92746">
        <ele>-98</ele>
        <time>2012-01-08T07:43:21Z</time>
      </trkpt>
      <trkpt lat="47.3618" lon="-1.92733">
        <ele>-98</ele>
        <time>2012-01-08T07:43:23Z</time>
      </trkpt>
      <trkpt lat="47.3618" lon="-1.92712">
        <ele>-98</ele>
        <time>2012-01-08T07:43:26Z</time>
      </trkpt>
      <trkpt lat="47.3618" lon="-1.92698">
        <ele>-98</ele>
        <time>2012-01-08T07:43:28Z</time>
      </trkpt>
      <trkpt lat="47.3618" lon="-1.92684">
        <ele>-97</ele>
        <time>2012-01-08T07:43:30Z</time>
      </trkpt>
      <trkpt lat="47.3618" lon="-1.92671">
        <ele>-97</ele>
        <time>2012-01-08T07:43:32Z</time>
      </trkpt>
      <trkpt lat="47.3618" lon="-1.92658">
        <ele>-97</ele>
        <time>2012-01-08T07:43:34Z</time>
      </trkpt>
      <trkpt lat="47.36181" lon="-1.92646">
        <ele>-96</ele>
        <time>2012-01-08T07:43:36Z</time>
      </trkpt>
      <trkpt lat="47.36182" lon="-1.92635">
        <ele>-96</ele>
        <time>2012-01-08T07:43:38Z</time>
      </trkpt>
      <trkpt lat="47.36182" lon="-1.92626">
        <ele>-96</ele>
        <time>2012-01-08T07:43:40Z</time>
      </trkpt>
      <trkpt lat="47.36183" lon="-1.92617">
        <ele>-96</ele>
        <time>2012-01-08T07:43:42Z</time>
      </trkpt>
      <trkpt lat="47.36184" lon="-1.92607">
        <ele>-96</ele>
        <time>2012-01-08T07:43:44Z</time>
      </trkpt>
      <trkpt lat="47.36185" lon="-1.92596">
        <ele>-95</ele>
        <time>2012-01-08T07:43:46Z</time>
      </trkpt>
      <trkpt lat="47.36187" lon="-1.92584">
        <ele>-95</ele>
        <time>2012-01-08T07:43:48Z</time>
      </trkpt>
      <trkpt lat="47.36188" lon="-1.92565">
        <ele>-94</ele>
        <time>2012-01-08T07:43:51Z</time>
      </trkpt>
      <trkpt lat="47.36189" lon="-1.92552">
        <ele>-94</ele>
        <time>2012-01-08T07:43:53Z</time>
      </trkpt>
      <trkpt lat="47.3619" lon="-1.92541">
        <ele>-94</ele>
        <time>2012-01-08T07:43:55Z</time>
      </trkpt>
      <trkpt lat="47.36192" lon="-1.92536">
        <ele>-94</ele>
        <time>2012-01-08T07:43:57Z</time>
      </trkpt>
      <trkpt lat="47.36194" lon="-1.92539">
        <ele>-95</ele>
        <time>2012-01-08T07:43:59Z</time>
      </trkpt>
      <trkpt lat="47.36195" lon="-1.92539">
        <ele>-95</ele>
        <time>2012-01-08T07:44:01Z</time>
      </trkpt>
      <trkpt lat="47.36199" lon="-1.9254">
        <ele>-94</ele>
        <time>2012-01-08T07:44:03Z</time>
      </trkpt>
      <trkpt lat="47.36204" lon="-1.9254">
        <ele>-94</ele>
        <time>2012-01-08T07:44:05Z</time>
      </trkpt>
      <trkpt lat="47.36211" lon="-1.9254">
        <ele>-93</ele>
        <time>2012-01-08T07:44:07Z</time>
      </trkpt>
      <trkpt lat="47.3622" lon="-1.92539">
        <ele>-93</ele>
        <time>2012-01-08T07:44:09Z</time>
      </trkpt>
      <trkpt lat="47.36233" lon="-1.92538">
        <ele>-93</ele>
        <time>2012-01-08T07:44:11Z</time>
      </trkpt>
      <trkpt lat="47.3624" lon="-1.92543">
        <ele>-93</ele>
        <time>2012-01-08T07:44:14Z</time>
      </trkpt>
      <trkpt lat="47.36246" lon="-1.92553">
        <ele>-93</ele>
        <time>2012-01-08T07:44:16Z</time>
      </trkpt>
      <trkpt lat="47.36248" lon="-1.92565">
        <ele>-93</ele>
        <time>2012-01-08T07:44:18Z</time>
      </trkpt>
      <trkpt lat="47.36254" lon="-1.92572">
        <ele>-93</ele>
        <time>2012-01-08T07:44:20Z</time>
      </trkpt>
      <trkpt lat="47.36261" lon="-1.92571">
        <ele>-92</ele>
        <time>2012-01-08T07:44:22Z</time>
      </trkpt>
      <trkpt lat="47.3627" lon="-1.92569">
        <ele>-92</ele>
        <time>2012-01-08T07:44:24Z</time>
      </trkpt>
      <trkpt lat="47.36279" lon="-1.92568">
        <ele>-92</ele>
        <time>2012-01-08T07:44:26Z</time>
      </trkpt>
      <trkpt lat="47.36288" lon="-1.92567">
        <ele>-92</ele>
        <time>2012-01-08T07:44:28Z</time>
      </trkpt>
      <trkpt lat="47.36302" lon="-1.92565">
        <ele>-91</ele>
        <time>2012-01-08T07:44:30Z</time>
      </trkpt>
      <trkpt lat="47.36311" lon="-1.92563">
        <ele>-91</ele>
        <time>2012-01-08T07:44:33Z</time>
      </trkpt>
      <trkpt lat="47.36319" lon="-1.92561">
        <ele>-91</ele>
        <time>2012-01-08T07:44:35Z</time>
      </trkpt>
      <trkpt lat="47.36328" lon="-1.9256">
        <ele>-91</ele>
        <time>2012-01-08T07:44:37Z</time>
      </trkpt>
      <trkpt lat="47.36337" lon="-1.92558">
        <ele>-92</ele>
        <time>2012-01-08T07:44:39Z</time>
      </trkpt>
      <trkpt lat="47.36344" lon="-1.92556">
        <ele>-92</ele>
        <time>2012-01-08T07:44:41Z</time>
      </trkpt>
      <trkpt lat="47.36353" lon="-1.92553">
        <ele>-91</ele>
        <time>2012-01-08T07:44:43Z</time>
      </trkpt>
      <trkpt lat="47.36362" lon="-1.92551">
        <ele>-91</ele>
        <time>2012-01-08T07:44:45Z</time>
      </trkpt>
      <trkpt lat="47.36369" lon="-1.92547">
        <ele>-91</ele>
        <time>2012-01-08T07:44:47Z</time>
      </trkpt>
      <trkpt lat="47.36376" lon="-1.92545">
        <ele>-90</ele>
        <time>2012-01-08T07:44:49Z</time>
      </trkpt>
      <trkpt lat="47.36383" lon="-1.92542">
        <ele>-90</ele>
        <time>2012-01-08T07:44:51Z</time>
      </trkpt>
      <trkpt lat="47.3639" lon="-1.92538">
        <ele>-90</ele>
        <time>2012-01-08T07:44:53Z</time>
      </trkpt>
      <trkpt lat="47.36401" lon="-1.9253">
        <ele>-90</ele>
        <time>2012-01-08T07:44:56Z</time>
      </trkpt>
      <trkpt lat="47.36409" lon="-1.92526">
        <ele>-90</ele>
        <time>2012-01-08T07:44:58Z</time>
      </trkpt>
      <trkpt lat="47.36415" lon="-1.92522">
        <ele>-90</ele>
        <time>2012-01-08T07:45:00Z</time>
      </trkpt>
      <trkpt lat="47.36422" lon="-1.92518">
        <ele>-90</ele>
        <time>2012-01-08T07:45:02Z</time>
      </trkpt>
      <trkpt lat="47.36429" lon="-1.92513">
        <ele>-89</ele>
        <time>2012-01-08T07:45:04Z</time>
      </trkpt>
      <trkpt lat="47.36437" lon="-1.92507">
        <ele>-89</ele>
        <time>2012-01-08T07:45:06Z</time>
      </trkpt>
      <trkpt lat="47.36445" lon="-1.92501">
        <ele>-89</ele>
        <time>2012-01-08T07:45:08Z</time>
      </trkpt>
      <trkpt lat="47.36454" lon="-1.92495">
        <ele>-89</ele>
        <time>2012-01-08T07:45:10Z</time>
      </trkpt>
      <trkpt lat="47.36463" lon="-1.92489">
        <ele>-89</ele>
        <time>2012-01-08T07:45:12Z</time>
      </trkpt>
      <trkpt lat="47.36472" lon="-1.92483">
        <ele>-88</ele>
        <time>2012-01-08T07:45:14Z</time>
      </trkpt>
      <trkpt lat="47.3648" lon="-1.92476">
        <ele>-88</ele>
        <time>2012-01-08T07:45:16Z</time>
      </trkpt>
      <trkpt lat="47.36488" lon="-1.9247">
        <ele>-88</ele>
        <time>2012-01-08T07:45:18Z</time>
      </trkpt>
      <trkpt lat="47.36501" lon="-1.92461">
        <ele>-88</ele>
        <time>2012-01-08T07:45:21Z</time>
      </trkpt>
      <trkpt lat="47.36509" lon="-1.92455">
        <ele>-87</ele>
        <time>2012-01-08T07:45:23Z</time>
      </trkpt>
      <trkpt lat="47.36517" lon="-1.9245">
        <ele>-87</ele>
        <time>2012-01-08T07:45:25Z</time>
      </trkpt>
      <trkpt lat="47.36526" lon="-1.92446">
        <ele>-87</ele>
        <time>2012-01-08T07:45:27Z</time>
      </trkpt>
      <trkpt lat="47.36535" lon="-1.92443">
        <ele>-86</ele>
        <time>2012-01-08T07:45:29Z</time>
      </trkpt>
      <trkpt lat="47.36544" lon="-1.9244">
        <ele>-86</ele>
        <time>2012-01-08T07:45:31Z</time>
      </trkpt>
      <trkpt lat="47.36552" lon="-1.92439">
        <ele>-85</ele>
        <time>2012-01-08T07:45:33Z</time>
      </trkpt>
      <trkpt lat="47.36559" lon="-1.92438">
        <ele>-85</ele>
        <time>2012-01-08T07:45:35Z</time>
      </trkpt>
      <trkpt lat="47.36565" lon="-1.92438">
        <ele>-85</ele>
        <time>2012-01-08T07:45:37Z</time>
      </trkpt>
      <trkpt lat="47.36569" lon="-1.92443">
        <ele>-85</ele>
        <time>2012-01-08T07:45:39Z</time>
      </trkpt>
      <trkpt lat="47.36571" lon="-1.92452">
        <ele>-85</ele>
        <time>2012-01-08T07:45:41Z</time>
      </trkpt>
      <trkpt lat="47.36572" lon="-1.92462">
        <ele>-85</ele>
        <time>2012-01-08T07:45:43Z</time>
      </trkpt>
      <trkpt lat="47.36572" lon="-1.92472">
        <ele>-85</ele>
        <time>2012-01-08T07:45:45Z</time>
      </trkpt>
      <trkpt lat="47.36573" lon="-1.92482">
        <ele>-85</ele>
        <time>2012-01-08T07:45:47Z</time>
      </trkpt>
      <trkpt lat="47.36575" lon="-1.92498">
        <ele>-84</ele>
        <time>2012-01-08T07:45:49Z</time>
      </trkpt>
      <trkpt lat="47.36575" lon="-1.92507">
        <ele>-84</ele>
        <time>2012-01-08T07:45:52Z</time>
      </trkpt>
      <trkpt lat="47.36577" lon="-1.92514">
        <ele>-84</ele>
        <time>2012-01-08T07:45:54Z</time>
      </trkpt>
      <trkpt lat="47.36582" lon="-1.92518">
        <ele>-85</ele>
        <time>2012-01-08T07:45:56Z</time>
      </trkpt>
      <trkpt lat="47.36589" lon="-1.92518">
        <ele>-85</ele>
        <time>2012-01-08T07:45:58Z</time>
      </trkpt>
      <trkpt lat="47.36597" lon="-1.92517">
        <ele>-85</ele>
        <time>2012-01-08T07:46:00Z</time>
      </trkpt>
      <trkpt lat="47.36604" lon="-1.92517">
        <ele>-84</ele>
        <time>2012-01-08T07:46:02Z</time>
      </trkpt>
      <trkpt lat="47.36612" lon="-1.92517">
        <ele>-84</ele>
        <time>2012-01-08T07:46:04Z</time>
      </trkpt>
      <trkpt lat="47.36619" lon="-1.92516">
        <ele>-83</ele>
        <time>2012-01-08T07:46:06Z</time>
      </trkpt>
      <trkpt lat="47.36625" lon="-1.92513">
        <ele>-85</ele>
        <time>2012-01-08T07:46:08Z</time>
      </trkpt>
      <trkpt lat="47.36632" lon="-1.92513">
        <ele>-85</ele>
        <time>2012-01-08T07:46:10Z</time>
      </trkpt>
      <trkpt lat="47.36641" lon="-1.92519">
        <ele>-84</ele>
        <time>2012-01-08T07:46:13Z</time>
      </trkpt>
      <trkpt lat="47.36648" lon="-1.9252">
        <ele>-84</ele>
        <time>2012-01-08T07:46:15Z</time>
      </trkpt>
      <trkpt lat="47.36656" lon="-1.92519">
        <ele>-83</ele>
        <time>2012-01-08T07:46:17Z</time>
      </trkpt>
      <trkpt lat="47.36663" lon="-1.92518">
        <ele>-82</ele>
        <time>2012-01-08T07:46:19Z</time>
      </trkpt>
      <trkpt lat="47.36671" lon="-1.92515">
        <ele>-82</ele>
        <time>2012-01-08T07:46:21Z</time>
      </trkpt>
      <trkpt lat="47.36678" lon="-1.92511">
        <ele>-82</ele>
        <time>2012-01-08T07:46:23Z</time>
      </trkpt>
      <trkpt lat="47.36686" lon="-1.92507">
        <ele>-82</ele>
        <time>2012-01-08T07:46:25Z</time>
      </trkpt>
      <trkpt lat="47.36694" lon="-1.92504">
        <ele>-82</ele>
        <time>2012-01-08T07:46:27Z</time>
      </trkpt>
      <trkpt lat="47.36702" lon="-1.92501">
        <ele>-82</ele>
        <time>2012-01-08T07:46:29Z</time>
      </trkpt>
      <trkpt lat="47.36713" lon="-1.92496">
        <ele>-82</ele>
        <time>2012-01-08T07:46:31Z</time>
      </trkpt>
      <trkpt lat="47.36721" lon="-1.92493">
        <ele>-82</ele>
        <time>2012-01-08T07:46:34Z</time>
      </trkpt>
      <trkpt lat="47.36729" lon="-1.92491">
        <ele>-82</ele>
        <time>2012-01-08T07:46:36Z</time>
      </trkpt>
      <trkpt lat="47.36738" lon="-1.92491">
        <ele>-82</ele>
        <time>2012-01-08T07:46:38Z</time>
      </trkpt>
      <trkpt lat="47.36746" lon="-1.92491">
        <ele>-81</ele>
        <time>2012-01-08T07:46:40Z</time>
      </trkpt>
      <trkpt lat="47.36755" lon="-1.92493">
        <ele>-81</ele>
        <time>2012-01-08T07:46:42Z</time>
      </trkpt>
      <trkpt lat="47.36763" lon="-1.92494">
        <ele>-81</ele>
        <time>2012-01-08T07:46:44Z</time>
      </trkpt>
      <trkpt lat="47.36771" lon="-1.92497">
        <ele>-81</ele>
        <time>2012-01-08T07:46:46Z</time>
      </trkpt>
      <trkpt lat="47.3678" lon="-1.92498">
        <ele>-81</ele>
        <time>2012-01-08T07:46:48Z</time>
      </trkpt>
      <trkpt lat="47.36788" lon="-1.925">
        <ele>-81</ele>
        <time>2012-01-08T07:46:50Z</time>
      </trkpt>
      <trkpt lat="47.36801" lon="-1.92502">
        <ele>-81</ele>
        <time>2012-01-08T07:46:53Z</time>
      </trkpt>
      <trkpt lat="47.36809" lon="-1.92504">
        <ele>-81</ele>
        <time>2012-01-08T07:46:55Z</time>
      </trkpt>
      <trkpt lat="47.36816" lon="-1.92502">
        <ele>-81</ele>
        <time>2012-01-08T07:46:57Z</time>
      </trkpt>
      <trkpt lat="47.36824" lon="-1.925">
        <ele>-81</ele>
        <time>2012-01-08T07:46:59Z</time>
      </trkpt>
      <trkpt lat="47.36833" lon="-1.925">
        <ele>-81</ele>
        <time>2012-01-08T07:47:01Z</time>
      </trkpt>
      <trkpt lat="47.3684" lon="-1.92503">
        <ele>-81</ele>
        <time>2012-01-08T07:47:03Z</time>
      </trkpt>
      <trkpt lat="47.36848" lon="-1.92501">
        <ele>-81</ele>
        <time>2012-01-08T07:47:05Z</time>
      </trkpt>
      <trkpt lat="47.36855" lon="-1.92496">
        <ele>-81</ele>
        <time>2012-01-08T07:47:07Z</time>
      </trkpt>
      <trkpt lat="47.36862" lon="-1.9249">
        <ele>-81</ele>
        <time>2012-01-08T07:47:09Z</time>
      </trkpt>
      <trkpt lat="47.36868" lon="-1.92483">
        <ele>-80</ele>
        <time>2012-01-08T07:47:11Z</time>
      </trkpt>
      <trkpt lat="47.36874" lon="-1.92477">
        <ele>-80</ele>
        <time>2012-01-08T07:47:13Z</time>
      </trkpt>
      <trkpt lat="47.3688" lon="-1.92473">
        <ele>-80</ele>
        <time>2012-01-08T07:47:15Z</time>
      </trkpt>
      <trkpt lat="47.36889" lon="-1.92465">
        <ele>-81</ele>
        <time>2012-01-08T07:47:18Z</time>
      </trkpt>
      <trkpt lat="47.36891" lon="-1.92458">
        <ele>-81</ele>
        <time>2012-01-08T07:47:20Z</time>
      </trkpt>
      <trkpt lat="47.36891" lon="-1.92451">
        <ele>-81</ele>
        <time>2012-01-08T07:47:22Z</time>
      </trkpt>
      <trkpt lat="47.36891" lon="-1.92442">
        <ele>-81</ele>
        <time>2012-01-08T07:47:24Z</time>
      </trkpt>
      <trkpt lat="47.3689" lon="-1.92432">
        <ele>-81</ele>
        <time>2012-01-08T07:47:26Z</time>
      </trkpt>
      <trkpt lat="47.3689" lon="-1.92421">
        <ele>-80</ele>
        <time>2012-01-08T07:47:28Z</time>
      </trkpt>
      <trkpt lat="47.36889" lon="-1.92409">
        <ele>-80</ele>
        <time>2012-01-08T07:47:30Z</time>
      </trkpt>
      <trkpt lat="47.36889" lon="-1.92397">
        <ele>-80</ele>
        <time>2012-01-08T07:47:32Z</time>
      </trkpt>
      <trkpt lat="47.36888" lon="-1.92385">
        <ele>-80</ele>
        <time>2012-01-08T07:47:34Z</time>
      </trkpt>
      <trkpt lat="47.36888" lon="-1.92373">
        <ele>-80</ele>
        <time>2012-01-08T07:47:36Z</time>
      </trkpt>
      <trkpt lat="47.36887" lon="-1.92362">
        <ele>-80</ele>
        <time>2012-01-08T07:47:38Z</time>
      </trkpt>
      <trkpt lat="47.36886" lon="-1.92347">
        <ele>-80</ele>
        <time>2012-01-08T07:47:40Z</time>
      </trkpt>
      <trkpt lat="47.36887" lon="-1.92337">
        <ele>-80</ele>
        <time>2012-01-08T07:47:43Z</time>
      </trkpt>
      <trkpt lat="47.36889" lon="-1.92327">
        <ele>-80</ele>
        <time>2012-01-08T07:47:45Z</time>
      </trkpt>
      <trkpt lat="47.3689" lon="-1.92319">
        <ele>-80</ele>
        <time>2012-01-08T07:47:47Z</time>
      </trkpt>
      <trkpt lat="47.36889" lon="-1.92311">
        <ele>-80</ele>
        <time>2012-01-08T07:47:49Z</time>
      </trkpt>
      <trkpt lat="47.36888" lon="-1.92302">
        <ele>-80</ele>
        <time>2012-01-08T07:47:51Z</time>
      </trkpt>
      <trkpt lat="47.36887" lon="-1.92293">
        <ele>-80</ele>
        <time>2012-01-08T07:47:53Z</time>
      </trkpt>
      <trkpt lat="47.36885" lon="-1.92282">
        <ele>-80</ele>
        <time>2012-01-08T07:47:55Z</time>
      </trkpt>
      <trkpt lat="47.36884" lon="-1.92272">
        <ele>-80</ele>
        <time>2012-01-08T07:47:57Z</time>
      </trkpt>
      <trkpt lat="47.36883" lon="-1.92262">
        <ele>-80</ele>
        <time>2012-01-08T07:47:59Z</time>
      </trkpt>
      <trkpt lat="47.36882" lon="-1.92251">
        <ele>-81</ele>
        <time>2012-01-08T07:48:01Z</time>
      </trkpt>
      <trkpt lat="47.36881" lon="-1.92237">
        <ele>-80</ele>
        <time>2012-01-08T07:48:03Z</time>
      </trkpt>
      <trkpt lat="47.3688" lon="-1.9222">
        <ele>-81</ele>
        <time>2012-01-08T07:48:05Z</time>
      </trkpt>
      <trkpt lat="47.3688" lon="-1.92208">
        <ele>-81</ele>
        <time>2012-01-08T07:48:08Z</time>
      </trkpt>
      <trkpt lat="47.3688" lon="-1.92197">
        <ele>-81</ele>
        <time>2012-01-08T07:48:10Z</time>
      </trkpt>
      <trkpt lat="47.3688" lon="-1.92186">
        <ele>-82</ele>
        <time>2012-01-08T07:48:12Z</time>
      </trkpt>
      <trkpt lat="47.3688" lon="-1.92175">
        <ele>-82</ele>
        <time>2012-01-08T07:48:14Z</time>
      </trkpt>
      <trkpt lat="47.3688" lon="-1.92167">
        <ele>-83</ele>
        <time>2012-01-08T07:48:16Z</time>
      </trkpt>
      <trkpt lat="47.3688" lon="-1.92157">
        <ele>-83</ele>
        <time>2012-01-08T07:48:18Z</time>
      </trkpt>
      <trkpt lat="47.3688" lon="-1.92146">
        <ele>-83</ele>
        <time>2012-01-08T07:48:20Z</time>
      </trkpt>
      <trkpt lat="47.36879" lon="-1.92135">
        <ele>-84</ele>
        <time>2012-01-08T07:48:22Z</time>
      </trkpt>
      <trkpt lat="47.3688" lon="-1.92125">
        <ele>-84</ele>
        <time>2012-01-08T07:48:24Z</time>
      </trkpt>
      <trkpt lat="47.3688" lon="-1.92114">
        <ele>-84</ele>
        <time>2012-01-08T07:48:26Z</time>
      </trkpt>
      <trkpt lat="47.36881" lon="-1.92105">
        <ele>-84</ele>
        <time>2012-01-08T07:48:28Z</time>
      </trkpt>
      <trkpt lat="47.36884" lon="-1.92092">
        <ele>-84</ele>
        <time>2012-01-08T07:48:30Z</time>
      </trkpt>
      <trkpt lat="47.36885" lon="-1.92085">
        <ele>-85</ele>
        <time>2012-01-08T07:48:33Z</time>
      </trkpt>
      <trkpt lat="47.36885" lon="-1.92075">
        <ele>-84</ele>
        <time>2012-01-08T07:48:35Z</time>
      </trkpt>
      <trkpt lat="47.36887" lon="-1.92063">
        <ele>-84</ele>
        <time>2012-01-08T07:48:37Z</time>
      </trkpt>
      <trkpt lat="47.36888" lon="-1.92052">
        <ele>-84</ele>
        <time>2012-01-08T07:48:39Z</time>
      </trkpt>
      <trkpt lat="47.36888" lon="-1.9204">
        <ele>-84</ele>
        <time>2012-01-08T07:48:41Z</time>
      </trkpt>
      <trkpt lat="47.36889" lon="-1.9203">
        <ele>-84</ele>
        <time>2012-01-08T07:48:43Z</time>
      </trkpt>
      <trkpt lat="47.3689" lon="-1.92018">
        <ele>-83</ele>
        <time>2012-01-08T07:48:45Z</time>
      </trkpt>
      <trkpt lat="47.3689" lon="-1.92007">
        <ele>-83</ele>
        <time>2012-01-08T07:48:47Z</time>
      </trkpt>
      <trkpt lat="47.36892" lon="-1.91997">
        <ele>-83</ele>
        <time>2012-01-08T07:48:49Z</time>
      </trkpt>
      <trkpt lat="47.36892" lon="-1.91985">
        <ele>-82</ele>
        <time>2012-01-08T07:48:51Z</time>
      </trkpt>
      <trkpt lat="47.36893" lon="-1.91975">
        <ele>-82</ele>
        <time>2012-01-08T07:48:53Z</time>
      </trkpt>
      <trkpt lat="47.36895" lon="-1.91965">
        <ele>-82</ele>
        <time>2012-01-08T07:48:55Z</time>
      </trkpt>
      <trkpt lat="47.36897" lon="-1.91948">
        <ele>-81</ele>
        <time>2012-01-08T07:48:57Z</time>
      </trkpt>
      <trkpt lat="47.36897" lon="-1.91937">
        <ele>-81</ele>
        <time>2012-01-08T07:49:00Z</time>
      </trkpt>
      <trkpt lat="47.36898" lon="-1.91925">
        <ele>-81</ele>
        <time>2012-01-08T07:49:02Z</time>
      </trkpt>
      <trkpt lat="47.36899" lon="-1.91912">
        <ele>-81</ele>
        <time>2012-01-08T07:49:04Z</time>
      </trkpt>
      <trkpt lat="47.369" lon="-1.919">
        <ele>-80</ele>
        <time>2012-01-08T07:49:06Z</time>
      </trkpt>
      <trkpt lat="47.369" lon="-1.91888">
        <ele>-80</ele>
        <time>2012-01-08T07:49:08Z</time>
      </trkpt>
      <trkpt lat="47.369" lon="-1.91875">
        <ele>-80</ele>
        <time>2012-01-08T07:49:10Z</time>
      </trkpt>
      <trkpt lat="47.369" lon="-1.91862">
        <ele>-80</ele>
        <time>2012-01-08T07:49:12Z</time>
      </trkpt>
      <trkpt lat="47.36901" lon="-1.9185">
        <ele>-79</ele>
        <time>2012-01-08T07:49:14Z</time>
      </trkpt>
      <trkpt lat="47.36902" lon="-1.91838">
        <ele>-79</ele>
        <time>2012-01-08T07:49:16Z</time>
      </trkpt>
      <trkpt lat="47.36903" lon="-1.91825">
        <ele>-79</ele>
        <time>2012-01-08T07:49:18Z</time>
      </trkpt>
      <trkpt lat="47.36904" lon="-1.91814">
        <ele>-79</ele>
        <time>2012-01-08T07:49:20Z</time>
      </trkpt>
      <trkpt lat="47.36905" lon="-1.91802">
        <ele>-79</ele>
        <time>2012-01-08T07:49:22Z</time>
      </trkpt>
      <trkpt lat="47.36906" lon="-1.9179">
        <ele>-79</ele>
        <time>2012-01-08T07:49:24Z</time>
      </trkpt>
      <trkpt lat="47.36907" lon="-1.91778">
        <ele>-79</ele>
        <time>2012-01-08T07:49:26Z</time>
      </trkpt>
      <trkpt lat="47.36908" lon="-1.91766">
        <ele>-79</ele>
        <time>2012-01-08T07:49:28Z</time>
      </trkpt>
      <trkpt lat="47.36908" lon="-1.91754">
        <ele>-79</ele>
        <time>2012-01-08T07:49:30Z</time>
      </trkpt>
      <trkpt lat="47.36909" lon="-1.91743">
        <ele>-79</ele>
        <time>2012-01-08T07:49:32Z</time>
      </trkpt>
      <trkpt lat="47.36911" lon="-1.91723">
        <ele>-79</ele>
        <time>2012-01-08T07:49:34Z</time>
      </trkpt>
      <trkpt lat="47.36911" lon="-1.91711">
        <ele>-80</ele>
        <time>2012-01-08T07:49:37Z</time>
      </trkpt>
      <trkpt lat="47.36912" lon="-1.91699">
        <ele>-80</ele>
        <time>2012-01-08T07:49:39Z</time>
      </trkpt>
      <trkpt lat="47.36913" lon="-1.91687">
        <ele>-80</ele>
        <time>2012-01-08T07:49:41Z</time>
      </trkpt>
      <trkpt lat="47.36913" lon="-1.91675">
        <ele>-80</ele>
        <time>2012-01-08T07:49:43Z</time>
      </trkpt>
      <trkpt lat="47.36913" lon="-1.91663">
        <ele>-80</ele>
        <time>2012-01-08T07:49:45Z</time>
      </trkpt>
      <trkpt lat="47.36913" lon="-1.9165">
        <ele>-80</ele>
        <time>2012-01-08T07:49:47Z</time>
      </trkpt>
      <trkpt lat="47.36913" lon="-1.91638">
        <ele>-80</ele>
        <time>2012-01-08T07:49:49Z</time>
      </trkpt>
      <trkpt lat="47.36914" lon="-1.91624">
        <ele>-81</ele>
        <time>2012-01-08T07:49:51Z</time>
      </trkpt>
      <trkpt lat="47.36913" lon="-1.91611">
        <ele>-81</ele>
        <time>2012-01-08T07:49:53Z</time>
      </trkpt>
      <trkpt lat="47.36912" lon="-1.91599">
        <ele>-81</ele>
        <time>2012-01-08T07:49:55Z</time>
      </trkpt>
      <trkpt lat="47.36911" lon="-1.91586">
        <ele>-82</ele>
        <time>2012-01-08T07:49:57Z</time>
      </trkpt>
      <trkpt lat="47.36909" lon="-1.91572">
        <ele>-82</ele>
        <time>2012-01-08T07:49:59Z</time>
      </trkpt>
      <trkpt lat="47.36906" lon="-1.91557">
        <ele>-81</ele>
        <time>2012-01-08T07:50:01Z</time>
      </trkpt>
      <trkpt lat="47.36904" lon="-1.91541">
        <ele>-82</ele>
        <time>2012-01-08T07:50:03Z</time>
      </trkpt>
      <trkpt lat="47.369" lon="-1.91517">
        <ele>-82</ele>
        <time>2012-01-08T07:50:06Z</time>
      </trkpt>
      <trkpt lat="47.36897" lon="-1.91501">
        <ele>-82</ele>
        <time>2012-01-08T07:50:08Z</time>
      </trkpt>
      <trkpt lat="47.36894" lon="-1.91486">
        <ele>-83</ele>
        <time>2012-01-08T07:50:10Z</time>
      </trkpt>
      <trkpt lat="47.36892" lon="-1.91471">
        <ele>-83</ele>
        <time>2012-01-08T07:50:12Z</time>
      </trkpt>
      <trkpt lat="47.36889" lon="-1.91456">
        <ele>-83</ele>
        <time>2012-01-08T07:50:14Z</time>
      </trkpt>
      <trkpt lat="47.36886" lon="-1.91443">
        <ele>-84</ele>
        <time>2012-01-08T07:50:16Z</time>
      </trkpt>
      <trkpt lat="47.36883" lon="-1.91429">
        <ele>-84</ele>
        <time>2012-01-08T07:50:18Z</time>
      </trkpt>
      <trkpt lat="47.3688" lon="-1.91415">
        <ele>-84</ele>
        <time>2012-01-08T07:50:20Z</time>
      </trkpt>
      <trkpt lat="47.36877" lon="-1.91402">
        <ele>-84</ele>
        <time>2012-01-08T07:50:22Z</time>
      </trkpt>
      <trkpt lat="47.36874" lon="-1.91389">
        <ele>-84</ele>
        <time>2012-01-08T07:50:24Z</time>
      </trkpt>
      <trkpt lat="47.36869" lon="-1.91368">
        <ele>-84</ele>
        <time>2012-01-08T07:50:26Z</time>
      </trkpt>
      <trkpt lat="47.36865" lon="-1.91355">
        <ele>-84</ele>
        <time>2012-01-08T07:50:28Z</time>
      </trkpt>
      <trkpt lat="47.36861" lon="-1.9134">
        <ele>-84</ele>
        <time>2012-01-08T07:50:31Z</time>
      </trkpt>
      <trkpt lat="47.36856" lon="-1.91326">
        <ele>-84</ele>
        <time>2012-01-08T07:50:33Z</time>
      </trkpt>
      <trkpt lat="47.36851" lon="-1.91313">
        <ele>-84</ele>
        <time>2012-01-08T07:50:35Z</time>
      </trkpt>
      <trkpt lat="47.36845" lon="-1.913">
        <ele>-84</ele>
        <time>2012-01-08T07:50:37Z</time>
      </trkpt>
      <trkpt lat="47.36839" lon="-1.91287">
        <ele>-85</ele>
        <time>2012-01-08T07:50:39Z</time>
      </trkpt>
      <trkpt lat="47.36833" lon="-1.91274">
        <ele>-85</ele>
        <time>2012-01-08T07:50:41Z</time>
      </trkpt>
      <trkpt lat="47.36827" lon="-1.91262">
        <ele>-85</ele>
        <time>2012-01-08T07:50:43Z</time>
      </trkpt>
      <trkpt lat="47.36821" lon="-1.91251">
        <ele>-85</ele>
        <time>2012-01-08T07:50:45Z</time>
      </trkpt>
      <trkpt lat="47.36815" lon="-1.91242">
        <ele>-85</ele>
        <time>2012-01-08T07:50:47Z</time>
      </trkpt>
      <trkpt lat="47.3681" lon="-1.91234">
        <ele>-85</ele>
        <time>2012-01-08T07:50:49Z</time>
      </trkpt>
      <trkpt lat="47.36807" lon="-1.91226">
        <ele>-85</ele>
        <time>2012-01-08T07:50:51Z</time>
      </trkpt>
      <trkpt lat="47.36802" lon="-1.91211">
        <ele>-85</ele>
        <time>2012-01-08T07:50:53Z</time>
      </trkpt>
      <trkpt lat="47.36799" lon="-1.91199">
        <ele>-84</ele>
        <time>2012-01-08T07:50:56Z</time>
      </trkpt>
      <trkpt lat="47.36797" lon="-1.91188">
        <ele>-84</ele>
        <time>2012-01-08T07:50:58Z</time>
      </trkpt>
      <trkpt lat="47.36795" lon="-1.91177">
        <ele>-84</ele>
        <time>2012-01-08T07:51:00Z</time>
      </trkpt>
      <trkpt lat="47.36793" lon="-1.91172">
        <ele>-83</ele>
        <time>2012-01-08T07:51:02Z</time>
      </trkpt>
      <trkpt lat="47.36787" lon="-1.91156">
        <ele>-83</ele>
        <time>2012-01-08T07:51:04Z</time>
      </trkpt>
      <trkpt lat="47.36783" lon="-1.91145">
        <ele>-82</ele>
        <time>2012-01-08T07:51:06Z</time>
      </trkpt>
      <trkpt lat="47.3678" lon="-1.91133">
        <ele>-82</ele>
        <time>2012-01-08T07:51:08Z</time>
      </trkpt>
      <trkpt lat="47.36776" lon="-1.91121">
        <ele>-81</ele>
        <time>2012-01-08T07:51:10Z</time>
      </trkpt>
      <trkpt lat="47.36772" lon="-1.91109">
        <ele>-81</ele>
        <time>2012-01-08T07:51:12Z</time>
      </trkpt>
      <trkpt lat="47.36768" lon="-1.91097">
        <ele>-81</ele>
        <time>2012-01-08T07:51:14Z</time>
      </trkpt>
      <trkpt lat="47.36763" lon="-1.91085">
        <ele>-81</ele>
        <time>2012-01-08T07:51:16Z</time>
      </trkpt>
      <trkpt lat="47.36757" lon="-1.91072">
        <ele>-80</ele>
        <time>2012-01-08T07:51:18Z</time>
      </trkpt>
      <trkpt lat="47.36751" lon="-1.9106">
        <ele>-80</ele>
        <time>2012-01-08T07:51:20Z</time>
      </trkpt>
      <trkpt lat="47.36745" lon="-1.91048">
        <ele>-80</ele>
        <time>2012-01-08T07:51:22Z</time>
      </trkpt>
      <trkpt lat="47.36735" lon="-1.9103">
        <ele>-80</ele>
        <time>2012-01-08T07:51:24Z</time>
      </trkpt>
      <trkpt lat="47.36728" lon="-1.91019">
        <ele>-80</ele>
        <time>2012-01-08T07:51:27Z</time>
      </trkpt>
      <trkpt lat="47.3672" lon="-1.91009">
        <ele>-80</ele>
        <time>2012-01-08T07:51:29Z</time>
      </trkpt>
      <trkpt lat="47.36711" lon="-1.91001">
        <ele>-80</ele>
        <time>2012-01-08T07:51:31Z</time>
      </trkpt>
      <trkpt lat="47.36701" lon="-1.90997">
        <ele>-80</ele>
        <time>2012-01-08T07:51:33Z</time>
      </trkpt>
      <trkpt lat="47.36691" lon="-1.90995">
        <ele>-80</ele>
        <time>2012-01-08T07:51:35Z</time>
      </trkpt>
      <trkpt lat="47.36682" lon="-1.90995">
        <ele>-80</ele>
        <time>2012-01-08T07:51:37Z</time>
      </trkpt>
      <trkpt lat="47.36668" lon="-1.90998">
        <ele>-80</ele>
        <time>2012-01-08T07:51:39Z</time>
      </trkpt>
      <trkpt lat="47.36659" lon="-1.91002">
        <ele>-80</ele>
        <time>2012-01-08T07:51:42Z</time>
      </trkpt>
      <trkpt lat="47.3665" lon="-1.91005">
        <ele>-81</ele>
        <time>2012-01-08T07:51:44Z</time>
      </trkpt>
      <trkpt lat="47.36642" lon="-1.91008">
        <ele>-81</ele>
        <time>2012-01-08T07:51:46Z</time>
      </trkpt>
      <trkpt lat="47.36634" lon="-1.91014">
        <ele>-81</ele>
        <time>2012-01-08T07:51:48Z</time>
      </trkpt>
      <trkpt lat="47.36626" lon="-1.9102">
        <ele>-81</ele>
        <time>2012-01-08T07:51:50Z</time>
      </trkpt>
      <trkpt lat="47.36621" lon="-1.91024">
        <ele>-81</ele>
        <time>2012-01-08T07:51:52Z</time>
      </trkpt>
      <trkpt lat="47.36618" lon="-1.91025">
        <ele>-82</ele>
        <time>2012-01-08T07:51:54Z</time>
      </trkpt>
      <trkpt lat="47.36614" lon="-1.91024">
        <ele>-82</ele>
        <time>2012-01-08T07:51:56Z</time>
      </trkpt>
      <trkpt lat="47.36612" lon="-1.91018">
        <ele>-82</ele>
        <time>2012-01-08T07:51:58Z</time>
      </trkpt>
      <trkpt lat="47.36611" lon="-1.91011">
        <ele>-82</ele>
        <time>2012-01-08T07:52:00Z</time>
      </trkpt>
      <trkpt lat="47.3661" lon="-1.91003">
        <ele>-82</ele>
        <time>2012-01-08T07:52:02Z</time>
      </trkpt>
      <trkpt lat="47.36605" lon="-1.90989">
        <ele>-82</ele>
        <time>2012-01-08T07:52:05Z</time>
      </trkpt>
      <trkpt lat="47.36602" lon="-1.90979">
        <ele>-82</ele>
        <time>2012-01-08T07:52:07Z</time>
      </trkpt>
      <trkpt lat="47.36598" lon="-1.90969">
        <ele>-82</ele>
        <time>2012-01-08T07:52:09Z</time>
      </trkpt>
      <trkpt lat="47.36593" lon="-1.90958">
        <ele>-82</ele>
        <time>2012-01-08T07:52:11Z</time>
      </trkpt>
      <trkpt lat="47.36589" lon="-1.90948">
        <ele>-83</ele>
        <time>2012-01-08T07:52:13Z</time>
      </trkpt>
      <trkpt lat="47.36584" lon="-1.90937">
        <ele>-82</ele>
        <time>2012-01-08T07:52:15Z</time>
      </trkpt>
      <trkpt lat="47.36579" lon="-1.90927">
        <ele>-83</ele>
        <time>2012-01-08T07:52:17Z</time>
      </trkpt>
      <trkpt lat="47.36574" lon="-1.90916">
        <ele>-83</ele>
        <time>2012-01-08T07:52:19Z</time>
      </trkpt>
      <trkpt lat="47.36569" lon="-1.90904">
        <ele>-83</ele>
        <time>2012-01-08T07:52:21Z</time>
      </trkpt>
      <trkpt lat="47.36565" lon="-1.90892">
        <ele>-83</ele>
        <time>2012-01-08T07:52:23Z</time>
      </trkpt>
      <trkpt lat="47.36563" lon="-1.90879">
        <ele>-84</ele>
        <time>2012-01-08T07:52:25Z</time>
      </trkpt>
      <trkpt lat="47.36562" lon="-1.90858">
        <ele>-84</ele>
        <time>2012-01-08T07:52:28Z</time>
      </trkpt>
      <trkpt lat="47.36562" lon="-1.90843">
        <ele>-84</ele>
        <time>2012-01-08T07:52:30Z</time>
      </trkpt>
      <trkpt lat="47.36562" lon="-1.90829">
        <ele>-84</ele>
        <time>2012-01-08T07:52:32Z</time>
      </trkpt>
      <trkpt lat="47.36563" lon="-1.90813">
        <ele>-84</ele>
        <time>2012-01-08T07:52:34Z</time>
      </trkpt>
      <trkpt lat="47.36562" lon="-1.90796">
        <ele>-85</ele>
        <time>2012-01-08T07:52:36Z</time>
      </trkpt>
      <trkpt lat="47.36558" lon="-1.9078">
        <ele>-85</ele>
        <time>2012-01-08T07:52:38Z</time>
      </trkpt>
      <trkpt lat="47.36551" lon="-1.90764">
        <ele>-86</ele>
        <time>2012-01-08T07:52:40Z</time>
      </trkpt>
      <trkpt lat="47.36543" lon="-1.90747">
        <ele>-86</ele>
        <time>2012-01-08T07:52:42Z</time>
      </trkpt>
      <trkpt lat="47.36534" lon="-1.90728">
        <ele>-86</ele>
        <time>2012-01-08T07:52:44Z</time>
      </trkpt>
      <trkpt lat="47.36526" lon="-1.90708">
        <ele>-87</ele>
        <time>2012-01-08T07:52:46Z</time>
      </trkpt>
      <trkpt lat="47.36512" lon="-1.90678">
        <ele>-88</ele>
        <time>2012-01-08T07:52:49Z</time>
      </trkpt>
      <trkpt lat="47.36507" lon="-1.90668">
        <ele>-89</ele>
        <time>2012-01-08T07:52:51Z</time>
      </trkpt>
      <trkpt lat="47.36493" lon="-1.90641">
        <ele>-90</ele>
        <time>2012-01-08T07:52:53Z</time>
      </trkpt>
      <trkpt lat="47.36483" lon="-1.90625">
        <ele>-91</ele>
        <time>2012-01-08T07:52:55Z</time>
      </trkpt>
      <trkpt lat="47.36474" lon="-1.90609">
        <ele>-92</ele>
        <time>2012-01-08T07:52:57Z</time>
      </trkpt>
      <trkpt lat="47.36465" lon="-1.90594">
        <ele>-92</ele>
        <time>2012-01-08T07:52:59Z</time>
      </trkpt>
      <trkpt lat="47.36456" lon="-1.90579">
        <ele>-92</ele>
        <time>2012-01-08T07:53:01Z</time>
      </trkpt>
      <trkpt lat="47.36443" lon="-1.90559">
        <ele>-92</ele>
        <time>2012-01-08T07:53:03Z</time>
      </trkpt>
      <trkpt lat="47.36435" lon="-1.90544">
        <ele>-92</ele>
        <time>2012-01-08T07:53:06Z</time>
      </trkpt>
      <trkpt lat="47.36425" lon="-1.90529">
        <ele>-92</ele>
        <time>2012-01-08T07:53:08Z</time>
      </trkpt>
      <trkpt lat="47.36416" lon="-1.90515">
        <ele>-92</ele>
        <time>2012-01-08T07:53:10Z</time>
      </trkpt>
      <trkpt lat="47.36407" lon="-1.90501">
        <ele>-92</ele>
        <time>2012-01-08T07:53:12Z</time>
      </trkpt>
      <trkpt lat="47.36398" lon="-1.90487">
        <ele>-92</ele>
        <time>2012-01-08T07:53:14Z</time>
      </trkpt>
      <trkpt lat="47.36389" lon="-1.90472">
        <ele>-93</ele>
        <time>2012-01-08T07:53:16Z</time>
      </trkpt>
      <trkpt lat="47.3638" lon="-1.90459">
        <ele>-93</ele>
        <time>2012-01-08T07:53:18Z</time>
      </trkpt>
      <trkpt lat="47.36371" lon="-1.90445">
        <ele>-93</ele>
        <time>2012-01-08T07:53:20Z</time>
      </trkpt>
      <trkpt lat="47.36363" lon="-1.90432">
        <ele>-94</ele>
        <time>2012-01-08T07:53:22Z</time>
      </trkpt>
      <trkpt lat="47.36351" lon="-1.90413">
        <ele>-94</ele>
        <time>2012-01-08T07:53:25Z</time>
      </trkpt>
      <trkpt lat="47.36343" lon="-1.90401">
        <ele>-94</ele>
        <time>2012-01-08T07:53:27Z</time>
      </trkpt>
      <trkpt lat="47.36335" lon="-1.90388">
        <ele>-95</ele>
        <time>2012-01-08T07:53:29Z</time>
      </trkpt>
      <trkpt lat="47.36328" lon="-1.90377">
        <ele>-95</ele>
        <time>2012-01-08T07:53:31Z</time>
      </trkpt>
      <trkpt lat="47.36321" lon="-1.90366">
        <ele>-95</ele>
        <time>2012-01-08T07:53:33Z</time>
      </trkpt>
      <trkpt lat="47.36315" lon="-1.90356">
        <ele>-95</ele>
        <time>2012-01-08T07:53:35Z</time>
      </trkpt>
      <trkpt lat="47.36309" lon="-1.90348">
        <ele>-95</ele>
        <time>2012-01-08T07:53:37Z</time>
      </trkpt>
      <trkpt lat="47.36306" lon="-1.90345">
        <ele>-95</ele>
        <time>2012-01-08T07:53:39Z</time>
      </trkpt>
      <trkpt lat="47.36303" lon="-1.90346">
        <ele>-95</ele>
        <time>2012-01-08T07:53:41Z</time>
      </trkpt>
      <trkpt lat="47.36302" lon="-1.90351">
        <ele>-96</ele>
        <time>2012-01-08T07:53:43Z</time>
      </trkpt>
      <trkpt lat="47.36302" lon="-1.90355">
        <ele>-95</ele>
        <time>2012-01-08T07:53:45Z</time>
      </trkpt>
      <trkpt lat="47.363" lon="-1.90359">
        <ele>-95</ele>
        <time>2012-01-08T07:53:47Z</time>
      </trkpt>
      <trkpt lat="47.363" lon="-1.90365">
        <ele>-95</ele>
        <time>2012-01-08T07:53:49Z</time>
      </trkpt>
      <trkpt lat="47.36299" lon="-1.90376">
        <ele>-95</ele>
        <time>2012-01-08T07:53:51Z</time>
      </trkpt>
      <trkpt lat="47.36301" lon="-1.90382">
        <ele>-95</ele>
        <time>2012-01-08T07:53:53Z</time>
      </trkpt>
      <trkpt lat="47.36301" lon="-1.9039">
        <ele>-96</ele>
        <time>2012-01-08T07:53:56Z</time>
      </trkpt>
      <trkpt lat="47.36301" lon="-1.90397">
        <ele>-96</ele>
        <time>2012-01-08T07:53:58Z</time>
      </trkpt>
      <trkpt lat="47.36301" lon="-1.90405">
        <ele>-96</ele>
        <time>2012-01-08T07:54:00Z</time>
      </trkpt>
      <trkpt lat="47.363" lon="-1.90413">
        <ele>-96</ele>
        <time>2012-01-08T07:54:02Z</time>
      </trkpt>
      <trkpt lat="47.36299" lon="-1.90419">
        <ele>-96</ele>
        <time>2012-01-08T07:54:04Z</time>
      </trkpt>
      <trkpt lat="47.36297" lon="-1.90424">
        <ele>-95</ele>
        <time>2012-01-08T07:54:06Z</time>
      </trkpt>
      <trkpt lat="47.36296" lon="-1.90431">
        <ele>-95</ele>
        <time>2012-01-08T07:54:08Z</time>
      </trkpt>
      <trkpt lat="47.36295" lon="-1.90439">
        <ele>-95</ele>
        <time>2012-01-08T07:54:10Z</time>
      </trkpt>
      <trkpt lat="47.36295" lon="-1.90448">
        <ele>-95</ele>
        <time>2012-01-08T07:54:12Z</time>
      </trkpt>
      <trkpt lat="47.36297" lon="-1.90454">
        <ele>-95</ele>
        <time>2012-01-08T07:54:14Z</time>
      </trkpt>
      <trkpt lat="47.363" lon="-1.9046">
        <ele>-95</ele>
        <time>2012-01-08T07:54:16Z</time>
      </trkpt>
      <trkpt lat="47.36305" lon="-1.90471">
        <ele>-96</ele>
        <time>2012-01-08T07:54:18Z</time>
      </trkpt>
      <trkpt lat="47.36308" lon="-1.9048">
        <ele>-97</ele>
        <time>2012-01-08T07:54:21Z</time>
      </trkpt>
      <trkpt lat="47.36308" lon="-1.90489">
        <ele>-98</ele>
        <time>2012-01-08T07:54:23Z</time>
      </trkpt>
      <trkpt lat="47.36307" lon="-1.90498">
        <ele>-99</ele>
        <time>2012-01-08T07:54:25Z</time>
      </trkpt>
      <trkpt lat="47.36308" lon="-1.90506">
        <ele>-100</ele>
        <time>2012-01-08T07:54:27Z</time>
      </trkpt>
      <trkpt lat="47.36307" lon="-1.90515">
        <ele>-100</ele>
        <time>2012-01-08T07:54:29Z</time>
      </trkpt>
      <trkpt lat="47.36306" lon="-1.90523">
        <ele>-100</ele>
        <time>2012-01-08T07:54:31Z</time>
      </trkpt>
      <trkpt lat="47.36306" lon="-1.90528">
        <ele>-100</ele>
        <time>2012-01-08T07:54:33Z</time>
      </trkpt>
      <trkpt lat="47.36305" lon="-1.90533">
        <ele>-100</ele>
        <time>2012-01-08T07:54:35Z</time>
      </trkpt>
      <trkpt lat="47.36304" lon="-1.90538">
        <ele>-100</ele>
        <time>2012-01-08T07:54:37Z</time>
      </trkpt>
      <trkpt lat="47.36304" lon="-1.90548">
        <ele>-100</ele>
        <time>2012-01-08T07:54:39Z</time>
      </trkpt>
      <trkpt lat="47.36303" lon="-1.90558">
        <ele>-100</ele>
        <time>2012-01-08T07:54:41Z</time>
      </trkpt>
      <trkpt lat="47.36303" lon="-1.90565">
        <ele>-99</ele>
        <time>2012-01-08T07:54:44Z</time>
      </trkpt>
      <trkpt lat="47.36301" lon="-1.9057">
        <ele>-99</ele>
        <time>2012-01-08T07:54:46Z</time>
      </trkpt>
      <trkpt lat="47.363" lon="-1.90573">
        <ele>-99</ele>
        <time>2012-01-08T07:54:48Z</time>
      </trkpt>
      <trkpt lat="47.363" lon="-1.90575">
        <ele>-99</ele>
        <time>2012-01-08T07:54:50Z</time>
      </trkpt>
      <trkpt lat="47.363" lon="-1.90577">
        <ele>-99</ele>
        <time>2012-01-08T07:54:52Z</time>
      </trkpt>
      <trkpt lat="47.363" lon="-1.9058">
        <ele>-99</ele>
        <time>2012-01-08T07:54:54Z</time>
      </trkpt>
      <trkpt lat="47.363" lon="-1.90582">
        <ele>-99</ele>
        <time>2012-01-08T07:54:56Z</time>
      </trkpt>
      <trkpt lat="47.363" lon="-1.90584">
        <ele>-99</ele>
        <time>2012-01-08T07:54:58Z</time>
      </trkpt>
      <trkpt lat="47.36301" lon="-1.90585">
        <ele>-99</ele>
        <time>2012-01-08T07:55:00Z</time>
      </trkpt>
      <trkpt lat="47.36301" lon="-1.90588">
        <ele>-99</ele>
        <time>2012-01-08T07:55:02Z</time>
      </trkpt>
      <trkpt lat="47.363" lon="-1.90592">
        <ele>-99</ele>
        <time>2012-01-08T07:55:05Z</time>
      </trkpt>
      <trkpt lat="47.363" lon="-1.90593">
        <ele>-99</ele>
        <time>2012-01-08T07:55:07Z</time>
      </trkpt>
      <trkpt lat="47.36299" lon="-1.90598">
        <ele>-99</ele>
        <time>2012-01-08T07:55:09Z</time>
      </trkpt>
      <trkpt lat="47.36299" lon="-1.90599">
        <ele>-98</ele>
        <time>2012-01-08T07:55:11Z</time>
      </trkpt>
      <trkpt lat="47.36296" lon="-1.90601">
        <ele>-98</ele>
        <time>2012-01-08T07:55:13Z</time>
      </trkpt>
      <trkpt lat="47.36295" lon="-1.906">
        <ele>-97</ele>
        <time>2012-01-08T07:55:15Z</time>
      </trkpt>
      <trkpt lat="47.36295" lon="-1.90599">
        <ele>-97</ele>
        <time>2012-01-08T07:55:17Z</time>
      </trkpt>
      <trkpt lat="47.36294" lon="-1.90598">
        <ele>-97</ele>
        <time>2012-01-08T07:55:19Z</time>
      </trkpt>
      <trkpt lat="47.36293" lon="-1.90599">
        <ele>-96</ele>
        <time>2012-01-08T07:55:21Z</time>
      </trkpt>
      <trkpt lat="47.36293" lon="-1.906">
        <ele>-96</ele>
        <time>2012-01-08T07:55:23Z</time>
      </trkpt>
      <trkpt lat="47.36294" lon="-1.90601">
        <ele>-96</ele>
        <time>2012-01-08T07:55:25Z</time>
      </trkpt>
      <trkpt lat="47.36294" lon="-1.90603">
        <ele>-96</ele>
        <time>2012-01-08T07:55:27Z</time>
      </trkpt>
      <trkpt lat="47.36296" lon="-1.90607">
        <ele>-97</ele>
        <time>2012-01-08T07:55:29Z</time>
      </trkpt>
      <trkpt lat="47.36298" lon="-1.90611">
        <ele>-97</ele>
        <time>2012-01-08T07:55:32Z</time>
      </trkpt>
      <trkpt lat="47.363" lon="-1.90616">
        <ele>-97</ele>
        <time>2012-01-08T07:55:34Z</time>
      </trkpt>
      <trkpt lat="47.36301" lon="-1.90621">
        <ele>-98</ele>
        <time>2012-01-08T07:55:36Z</time>
      </trkpt>
      <trkpt lat="47.36301" lon="-1.90623">
        <ele>-99</ele>
        <time>2012-01-08T07:55:38Z</time>
      </trkpt>
      <trkpt lat="47.36301" lon="-1.90624">
        <ele>-99</ele>
        <time>2012-01-08T07:55:40Z</time>
      </trkpt>
      <trkpt lat="47.36301" lon="-1.90626">
        <ele>-99</ele>
        <time>2012-01-08T07:55:42Z</time>
      </trkpt>
      <trkpt lat="47.36301" lon="-1.90627">
        <ele>-99</ele>
        <time>2012-01-08T07:55:44Z</time>
      </trkpt>
      <trkpt lat="47.363" lon="-1.90628">
        <ele>-98</ele>
        <time>2012-01-08T07:55:46Z</time>
      </trkpt>
      <trkpt lat="47.36299" lon="-1.90629">
        <ele>-98</ele>
        <time>2012-01-08T07:55:48Z</time>
      </trkpt>
      <trkpt lat="47.36298" lon="-1.9063">
        <ele>-98</ele>
        <time>2012-01-08T07:55:50Z</time>
      </trkpt>
      <trkpt lat="47.36296" lon="-1.90634">
        <ele>-97</ele>
        <time>2012-01-08T07:55:53Z</time>
      </trkpt>
      <trkpt lat="47.36295" lon="-1.90635">
        <ele>-97</ele>
        <time>2012-01-08T07:55:55Z</time>
      </trkpt>
      <trkpt lat="47.36294" lon="-1.90635">
        <ele>-96</ele>
        <time>2012-01-08T07:55:57Z</time>
      </trkpt>
      <trkpt lat="47.36293" lon="-1.90636">
        <ele>-95</ele>
        <time>2012-01-08T07:55:59Z</time>
      </trkpt>
      <trkpt lat="47.36292" lon="-1.90636">
        <ele>-95</ele>
        <time>2012-01-08T07:56:01Z</time>
      </trkpt>
      <trkpt lat="47.36292" lon="-1.90638">
        <ele>-95</ele>
        <time>2012-01-08T07:56:03Z</time>
      </trkpt>
      <trkpt lat="47.36292" lon="-1.90638">
        <ele>-95</ele>
        <time>2012-01-08T07:56:06Z</time>
      </trkpt>
      <trkpt lat="47.36291" lon="-1.90639">
        <ele>-95</ele>
        <time>2012-01-08T07:56:08Z</time>
      </trkpt>
      <trkpt lat="47.36291" lon="-1.90641">
        <ele>-95</ele>
        <time>2012-01-08T07:56:10Z</time>
      </trkpt>
      <trkpt lat="47.3629" lon="-1.90644">
        <ele>-95</ele>
        <time>2012-01-08T07:56:12Z</time>
      </trkpt>
      <trkpt lat="47.36289" lon="-1.90648">
        <ele>-95</ele>
        <time>2012-01-08T07:56:15Z</time>
      </trkpt>
      <trkpt lat="47.36289" lon="-1.90651">
        <ele>-95</ele>
        <time>2012-01-08T07:56:17Z</time>
      </trkpt>
      <trkpt lat="47.36289" lon="-1.90654">
        <ele>-95</ele>
        <time>2012-01-08T07:56:19Z</time>
      </trkpt>
      <trkpt lat="47.36289" lon="-1.90658">
        <ele>-95</ele>
        <time>2012-01-08T07:56:21Z</time>
      </trkpt>
      <trkpt lat="47.36288" lon="-1.90663">
        <ele>-95</ele>
        <time>2012-01-08T07:56:23Z</time>
      </trkpt>
      <trkpt lat="47.36288" lon="-1.90669">
        <ele>-95</ele>
        <time>2012-01-08T07:56:25Z</time>
      </trkpt>
      <trkpt lat="47.36288" lon="-1.90672">
        <ele>-95</ele>
        <time>2012-01-08T07:56:27Z</time>
      </trkpt>
      <trkpt lat="47.36287" lon="-1.90678">
        <ele>-95</ele>
        <time>2012-01-08T07:56:30Z</time>
      </trkpt>
      <trkpt lat="47.36285" lon="-1.90683">
        <ele>-94</ele>
        <time>2012-01-08T07:56:32Z</time>
      </trkpt>
      <trkpt lat="47.36282" lon="-1.90692">
        <ele>-94</ele>
        <time>2012-01-08T07:56:34Z</time>
      </trkpt>
      <trkpt lat="47.36282" lon="-1.907">
        <ele>-94</ele>
        <time>2012-01-08T07:56:36Z</time>
      </trkpt>
      <trkpt lat="47.36279" lon="-1.90711">
        <ele>-94</ele>
        <time>2012-01-08T07:56:39Z</time>
      </trkpt>
      <trkpt lat="47.36278" lon="-1.9072">
        <ele>-94</ele>
        <time>2012-01-08T07:56:41Z</time>
      </trkpt>
      <trkpt lat="47.36278" lon="-1.90724">
        <ele>-95</ele>
        <time>2012-01-08T07:56:43Z</time>
      </trkpt>
      <trkpt lat="47.36279" lon="-1.90738">
        <ele>-95</ele>
        <time>2012-01-08T07:56:45Z</time>
      </trkpt>
      <trkpt lat="47.36278" lon="-1.90745">
        <ele>-95</ele>
        <time>2012-01-08T07:56:47Z</time>
      </trkpt>
      <trkpt lat="47.36276" lon="-1.90752">
        <ele>-96</ele>
        <time>2012-01-08T07:56:49Z</time>
      </trkpt>
      <trkpt lat="47.3627" lon="-1.90762">
        <ele>-96</ele>
        <time>2012-01-08T07:56:51Z</time>
      </trkpt>
      <trkpt lat="47.36264" lon="-1.90765">
        <ele>-96</ele>
        <time>2012-01-08T07:56:53Z</time>
      </trkpt>
      <trkpt lat="47.36261" lon="-1.90767">
        <ele>-96</ele>
        <time>2012-01-08T07:56:56Z</time>
      </trkpt>
      <trkpt lat="47.36257" lon="-1.90772">
        <ele>-96</ele>
        <time>2012-01-08T07:56:58Z</time>
      </trkpt>
      <trkpt lat="47.36256" lon="-1.90775">
        <ele>-96</ele>
        <time>2012-01-08T07:57:00Z</time>
      </trkpt>
      <trkpt lat="47.36255" lon="-1.90777">
        <ele>-96</ele>
        <time>2012-01-08T07:57:02Z</time>
      </trkpt>
      <trkpt lat="47.36255" lon="-1.9078">
        <ele>-96</ele>
        <time>2012-01-08T07:57:04Z</time>
      </trkpt>
      <trkpt lat="47.36254" lon="-1.90781">
        <ele>-96</ele>
        <time>2012-01-08T07:57:06Z</time>
      </trkpt>
      <trkpt lat="47.36253" lon="-1.90784">
        <ele>-96</ele>
        <time>2012-01-08T07:57:08Z</time>
      </trkpt>
      <trkpt lat="47.36251" lon="-1.90787">
        <ele>-96</ele>
        <time>2012-01-08T07:57:10Z</time>
      </trkpt>
      <trkpt lat="47.36251" lon="-1.90788">
        <ele>-96</ele>
        <time>2012-01-08T07:57:12Z</time>
      </trkpt>
      <trkpt lat="47.36248" lon="-1.90794">
        <ele>-96</ele>
        <time>2012-01-08T07:57:14Z</time>
      </trkpt>
      <trkpt lat="47.36247" lon="-1.90796">
        <ele>-96</ele>
        <time>2012-01-08T07:57:17Z</time>
      </trkpt>
      <trkpt lat="47.36245" lon="-1.90805">
        <ele>-96</ele>
        <time>2012-01-08T07:57:19Z</time>
      </trkpt>
      <trkpt lat="47.36243" lon="-1.9081">
        <ele>-96</ele>
        <time>2012-01-08T07:57:21Z</time>
      </trkpt>
      <trkpt lat="47.36239" lon="-1.90816">
        <ele>-96</ele>
        <time>2012-01-08T07:57:23Z</time>
      </trkpt>
      <trkpt lat="47.36235" lon="-1.90817">
        <ele>-96</ele>
        <time>2012-01-08T07:57:25Z</time>
      </trkpt>
      <trkpt lat="47.36232" lon="-1.90814">
        <ele>-96</ele>
        <time>2012-01-08T07:57:27Z</time>
      </trkpt>
      <trkpt lat="47.36227" lon="-1.90814">
        <ele>-96</ele>
        <time>2012-01-08T07:57:29Z</time>
      </trkpt>
      <trkpt lat="47.36224" lon="-1.90814">
        <ele>-95</ele>
        <time>2012-01-08T07:57:32Z</time>
      </trkpt>
      <trkpt lat="47.36222" lon="-1.90813">
        <ele>-96</ele>
        <time>2012-01-08T07:57:34Z</time>
      </trkpt>
      <trkpt lat="47.3622" lon="-1.90809">
        <ele>-95</ele>
        <time>2012-01-08T07:57:36Z</time>
      </trkpt>
      <trkpt lat="47.36218" lon="-1.90804">
        <ele>-95</ele>
        <time>2012-01-08T07:57:38Z</time>
      </trkpt>
      <trkpt lat="47.36216" lon="-1.90797">
        <ele>-95</ele>
        <time>2012-01-08T07:57:40Z</time>
      </trkpt>
      <trkpt lat="47.36214" lon="-1.90791">
        <ele>-95</ele>
        <time>2012-01-08T07:57:42Z</time>
      </trkpt>
      <trkpt lat="47.36213" lon="-1.90785">
        <ele>-94</ele>
        <time>2012-01-08T07:57:44Z</time>
      </trkpt>
      <trkpt lat="47.36211" lon="-1.90779">
        <ele>-94</ele>
        <time>2012-01-08T07:57:46Z</time>
      </trkpt>
      <trkpt lat="47.36209" lon="-1.90775">
        <ele>-94</ele>
        <time>2012-01-08T07:57:48Z</time>
      </trkpt>
      <trkpt lat="47.36208" lon="-1.90768">
        <ele>-94</ele>
        <time>2012-01-08T07:57:50Z</time>
      </trkpt>
      <trkpt lat="47.36206" lon="-1.90764">
        <ele>-94</ele>
        <time>2012-01-08T07:57:53Z</time>
      </trkpt>
      <trkpt lat="47.36205" lon="-1.90761">
        <ele>-94</ele>
        <time>2012-01-08T07:57:55Z</time>
      </trkpt>
      <trkpt lat="47.36203" lon="-1.90758">
        <ele>-94</ele>
        <time>2012-01-08T07:57:57Z</time>
      </trkpt>
      <trkpt lat="47.36203" lon="-1.90753">
        <ele>-93</ele>
        <time>2012-01-08T07:57:59Z</time>
      </trkpt>
      <trkpt lat="47.36202" lon="-1.90749">
        <ele>-93</ele>
        <time>2012-01-08T07:58:01Z</time>
      </trkpt>
      <trkpt lat="47.36201" lon="-1.90744">
        <ele>-93</ele>
        <time>2012-01-08T07:58:03Z</time>
      </trkpt>
      <trkpt lat="47.36201" lon="-1.90742">
        <ele>-93</ele>
        <time>2012-01-08T07:58:05Z</time>
      </trkpt>
      <trkpt lat="47.362" lon="-1.90741">
        <ele>-93</ele>
        <time>2012-01-08T07:58:07Z</time>
      </trkpt>
      <trkpt lat="47.362" lon="-1.9074">
        <ele>-93</ele>
        <time>2012-01-08T07:58:09Z</time>
      </trkpt>
      <trkpt lat="47.36199" lon="-1.90738">
        <ele>-94</ele>
        <time>2012-01-08T07:58:11Z</time>
      </trkpt>
      <trkpt lat="47.36197" lon="-1.90734">
        <ele>-94</ele>
        <time>2012-01-08T07:58:13Z</time>
      </trkpt>
      <trkpt lat="47.36195" lon="-1.90728">
        <ele>-94</ele>
        <time>2012-01-08T07:58:15Z</time>
      </trkpt>
      <trkpt lat="47.36193" lon="-1.90718">
        <ele>-94</ele>
        <time>2012-01-08T07:58:17Z</time>
      </trkpt>
      <trkpt lat="47.36192" lon="-1.9071">
        <ele>-93</ele>
        <time>2012-01-08T07:58:20Z</time>
      </trkpt>
      <trkpt lat="47.3619" lon="-1.90702">
        <ele>-93</ele>
        <time>2012-01-08T07:58:22Z</time>
      </trkpt>
      <trkpt lat="47.36189" lon="-1.90693">
        <ele>-93</ele>
        <time>2012-01-08T07:58:24Z</time>
      </trkpt>
      <trkpt lat="47.36187" lon="-1.90685">
        <ele>-92</ele>
        <time>2012-01-08T07:58:26Z</time>
      </trkpt>
      <trkpt lat="47.36184" lon="-1.90676">
        <ele>-92</ele>
        <time>2012-01-08T07:58:28Z</time>
      </trkpt>
      <trkpt lat="47.36183" lon="-1.90666">
        <ele>-92</ele>
        <time>2012-01-08T07:58:30Z</time>
      </trkpt>
      <trkpt lat="47.36182" lon="-1.90657">
        <ele>-92</ele>
        <time>2012-01-08T07:58:32Z</time>
      </trkpt>
      <trkpt lat="47.3618" lon="-1.90647">
        <ele>-91</ele>
        <time>2012-01-08T07:58:34Z</time>
      </trkpt>
      <trkpt lat="47.36178" lon="-1.90633">
        <ele>-91</ele>
        <time>2012-01-08T07:58:36Z</time>
      </trkpt>
      <trkpt lat="47.36177" lon="-1.90624">
        <ele>-91</ele>
        <time>2012-01-08T07:58:39Z</time>
      </trkpt>
      <trkpt lat="47.36175" lon="-1.90617">
        <ele>-91</ele>
        <time>2012-01-08T07:58:41Z</time>
      </trkpt>
      <trkpt lat="47.36174" lon="-1.90614">
        <ele>-91</ele>
        <time>2012-01-08T07:58:43Z</time>
      </trkpt>
      <trkpt lat="47.36172" lon="-1.90611">
        <ele>-91</ele>
        <time>2012-01-08T07:58:45Z</time>
      </trkpt>
      <trkpt lat="47.36168" lon="-1.9061">
        <ele>-91</ele>
        <time>2012-01-08T07:58:47Z</time>
      </trkpt>
      <trkpt lat="47.36164" lon="-1.90609">
        <ele>-91</ele>
        <time>2012-01-08T07:58:49Z</time>
      </trkpt>
      <trkpt lat="47.36162" lon="-1.90607">
        <ele>-91</ele>
        <time>2012-01-08T07:58:51Z</time>
      </trkpt>
      <trkpt lat="47.36161" lon="-1.90606">
        <ele>-91</ele>
        <time>2012-01-08T07:58:53Z</time>
      </trkpt>
      <trkpt lat="47.36162" lon="-1.90609">
        <ele>-91</ele>
        <time>2012-01-08T07:58:55Z</time>
      </trkpt>
      <trkpt lat="47.36163" lon="-1.90613">
        <ele>-91</ele>
        <time>2012-01-08T07:58:58Z</time>
      </trkpt>
      <trkpt lat="47.36161" lon="-1.90618">
        <ele>-91</ele>
        <time>2012-01-08T07:59:00Z</time>
      </trkpt>
      <trkpt lat="47.36157" lon="-1.90621">
        <ele>-91</ele>
        <time>2012-01-08T07:59:02Z</time>
      </trkpt>
      <trkpt lat="47.36153" lon="-1.90617">
        <ele>-91</ele>
        <time>2012-01-08T07:59:04Z</time>
      </trkpt>
      <trkpt lat="47.36152" lon="-1.90613">
        <ele>-91</ele>
        <time>2012-01-08T07:59:06Z</time>
      </trkpt>
      <trkpt lat="47.36147" lon="-1.90612">
        <ele>-91</ele>
        <time>2012-01-08T07:59:08Z</time>
      </trkpt>
      <trkpt lat="47.36143" lon="-1.90616">
        <ele>-92</ele>
        <time>2012-01-08T07:59:10Z</time>
      </trkpt>
      <trkpt lat="47.36142" lon="-1.9062">
        <ele>-93</ele>
        <time>2012-01-08T07:59:12Z</time>
      </trkpt>
      <trkpt lat="47.3614" lon="-1.90628">
        <ele>-93</ele>
        <time>2012-01-08T07:59:14Z</time>
      </trkpt>
      <trkpt lat="47.3614" lon="-1.90635">
        <ele>-93</ele>
        <time>2012-01-08T07:59:17Z</time>
      </trkpt>
      <trkpt lat="47.36138" lon="-1.90641">
        <ele>-93</ele>
        <time>2012-01-08T07:59:19Z</time>
      </trkpt>
      <trkpt lat="47.36139" lon="-1.90646">
        <ele>-93</ele>
        <time>2012-01-08T07:59:21Z</time>
      </trkpt>
      <trkpt lat="47.36141" lon="-1.90649">
        <ele>-94</ele>
        <time>2012-01-08T07:59:23Z</time>
      </trkpt>
      <trkpt lat="47.36142" lon="-1.90652">
        <ele>-94</ele>
        <time>2012-01-08T07:59:25Z</time>
      </trkpt>
      <trkpt lat="47.36144" lon="-1.90653">
        <ele>-94</ele>
        <time>2012-01-08T07:59:27Z</time>
      </trkpt>
      <trkpt lat="47.36145" lon="-1.90649">
        <ele>-94</ele>
        <time>2012-01-08T07:59:29Z</time>
      </trkpt>
      <trkpt lat="47.36147" lon="-1.90645">
        <ele>-93</ele>
        <time>2012-01-08T07:59:32Z</time>
      </trkpt>
      <trkpt lat="47.36148" lon="-1.9064">
        <ele>-93</ele>
        <time>2012-01-08T07:59:34Z</time>
      </trkpt>
      <trkpt lat="47.3615" lon="-1.9064">
        <ele>-93</ele>
        <time>2012-01-08T07:59:36Z</time>
      </trkpt>
      <trkpt lat="47.36153" lon="-1.90643">
        <ele>-92</ele>
        <time>2012-01-08T07:59:38Z</time>
      </trkpt>
      <trkpt lat="47.36157" lon="-1.90648">
        <ele>-92</ele>
        <time>2012-01-08T07:59:40Z</time>
      </trkpt>
      <trkpt lat="47.36157" lon="-1.90652">
        <ele>-92</ele>
        <time>2012-01-08T07:59:42Z</time>
      </trkpt>
      <trkpt lat="47.36158" lon="-1.90662">
        <ele>-92</ele>
        <time>2012-01-08T07:59:44Z</time>
      </trkpt>
      <trkpt lat="47.3616" lon="-1.90669">
        <ele>-92</ele>
        <time>2012-01-08T07:59:46Z</time>
      </trkpt>
      <trkpt lat="47.3616" lon="-1.90677">
        <ele>-93</ele>
        <time>2012-01-08T07:59:49Z</time>
      </trkpt>
      <trkpt lat="47.36161" lon="-1.90685">
        <ele>-93</ele>
        <time>2012-01-08T07:59:51Z</time>
      </trkpt>
      <trkpt lat="47.36161" lon="-1.90694">
        <ele>-93</ele>
        <time>2012-01-08T07:59:53Z</time>
      </trkpt>
      <trkpt lat="47.36162" lon="-1.907">
        <ele>-93</ele>
        <time>2012-01-08T07:59:55Z</time>
      </trkpt>
      <trkpt lat="47.36163" lon="-1.90703">
        <ele>-94</ele>
        <time>2012-01-08T07:59:57Z</time>
      </trkpt>
      <trkpt lat="47.36163" lon="-1.90705">
        <ele>-94</ele>
        <time>2012-01-08T07:59:59Z</time>
      </trkpt>
      <trkpt lat="47.36163" lon="-1.90707">
        <ele>-94</ele>
        <time>2012-01-08T08:00:01Z</time>
      </trkpt>
      <trkpt lat="47.36163" lon="-1.90708">
        <ele>-95</ele>
        <time>2012-01-08T08:00:03Z</time>
      </trkpt>
      <trkpt lat="47.36163" lon="-1.90711">
        <ele>-95</ele>
        <time>2012-01-08T08:00:05Z</time>
      </trkpt>
      <trkpt lat="47.36163" lon="-1.90712">
        <ele>-95</ele>
        <time>2012-01-08T08:00:07Z</time>
      </trkpt>
      <trkpt lat="47.36163" lon="-1.90714">
        <ele>-95</ele>
        <time>2012-01-08T08:00:09Z</time>
      </trkpt>
      <trkpt lat="47.36163" lon="-1.90715">
        <ele>-95</ele>
        <time>2012-01-08T08:00:11Z</time>
      </trkpt>
      <trkpt lat="47.36162" lon="-1.90718">
        <ele>-95</ele>
        <time>2012-01-08T08:00:13Z</time>
      </trkpt>
      <trkpt lat="47.36161" lon="-1.9072">
        <ele>-95</ele>
        <time>2012-01-08T08:00:15Z</time>
      </trkpt>
      <trkpt lat="47.36162" lon="-1.90724">
        <ele>-95</ele>
        <time>2012-01-08T08:00:18Z</time>
      </trkpt>
      <trkpt lat="47.36163" lon="-1.9073">
        <ele>-95</ele>
        <time>2012-01-08T08:00:20Z</time>
      </trkpt>
      <trkpt lat="47.36164" lon="-1.90735">
        <ele>-95</ele>
        <time>2012-01-08T08:00:22Z</time>
      </trkpt>
      <trkpt lat="47.36166" lon="-1.90739">
        <ele>-95</ele>
        <time>2012-01-08T08:00:24Z</time>
      </trkpt>
      <trkpt lat="47.36166" lon="-1.90741">
        <ele>-95</ele>
        <time>2012-01-08T08:00:26Z</time>
      </trkpt>
      <trkpt lat="47.36166" lon="-1.90742">
        <ele>-95</ele>
        <time>2012-01-08T08:00:28Z</time>
      </trkpt>
      <trkpt lat="47.36166" lon="-1.90745">
        <ele>-95</ele>
        <time>2012-01-08T08:00:30Z</time>
      </trkpt>
      <trkpt lat="47.36166" lon="-1.9075">
        <ele>-95</ele>
        <time>2012-01-08T08:00:32Z</time>
      </trkpt>
      <trkpt lat="47.36167" lon="-1.90755">
        <ele>-95</ele>
        <time>2012-01-08T08:00:34Z</time>
      </trkpt>
      <trkpt lat="47.36171" lon="-1.90765">
        <ele>-95</ele>
        <time>2012-01-08T08:00:36Z</time>
      </trkpt>
      <trkpt lat="47.36172" lon="-1.90772">
        <ele>-95</ele>
        <time>2012-01-08T08:00:38Z</time>
      </trkpt>
      <trkpt lat="47.36173" lon="-1.90775">
        <ele>-96</ele>
        <time>2012-01-08T08:00:41Z</time>
      </trkpt>
      <trkpt lat="47.36176" lon="-1.90785">
        <ele>-96</ele>
        <time>2012-01-08T08:00:43Z</time>
      </trkpt>
      <trkpt lat="47.36179" lon="-1.90791">
        <ele>-96</ele>
        <time>2012-01-08T08:00:45Z</time>
      </trkpt>
      <trkpt lat="47.36181" lon="-1.90797">
        <ele>-96</ele>
        <time>2012-01-08T08:00:47Z</time>
      </trkpt>
      <trkpt lat="47.36182" lon="-1.90803">
        <ele>-96</ele>
        <time>2012-01-08T08:00:49Z</time>
      </trkpt>
      <trkpt lat="47.36182" lon="-1.9081">
        <ele>-96</ele>
        <time>2012-01-08T08:00:51Z</time>
      </trkpt>
      <trkpt lat="47.36182" lon="-1.90814">
        <ele>-97</ele>
        <time>2012-01-08T08:00:53Z</time>
      </trkpt>
      <trkpt lat="47.36182" lon="-1.90817">
        <ele>-97</ele>
        <time>2012-01-08T08:00:55Z</time>
      </trkpt>
      <trkpt lat="47.36183" lon="-1.90819">
        <ele>-97</ele>
        <time>2012-01-08T08:00:58Z</time>
      </trkpt>
      <trkpt lat="47.36183" lon="-1.90821">
        <ele>-97</ele>
        <time>2012-01-08T08:01:00Z</time>
      </trkpt>
      <trkpt lat="47.36183" lon="-1.90823">
        <ele>-98</ele>
        <time>2012-01-08T08:01:02Z</time>
      </trkpt>
      <trkpt lat="47.36184" lon="-1.90825">
        <ele>-98</ele>
        <time>2012-01-08T08:01:04Z</time>
      </trkpt>
      <trkpt lat="47.36184" lon="-1.90826">
        <ele>-97</ele>
        <time>2012-01-08T08:01:06Z</time>
      </trkpt>
      <trkpt lat="47.36184" lon="-1.90827">
        <ele>-97</ele>
        <time>2012-01-08T08:01:08Z</time>
      </trkpt>
      <trkpt lat="47.36184" lon="-1.90829">
        <ele>-97</ele>
        <time>2012-01-08T08:01:10Z</time>
      </trkpt>
      <trkpt lat="47.36185" lon="-1.9083">
        <ele>-97</ele>
        <time>2012-01-08T08:01:13Z</time>
      </trkpt>
      <trkpt lat="47.36185" lon="-1.9083">
        <ele>-97</ele>
        <time>2012-01-08T08:01:15Z</time>
      </trkpt>
      <trkpt lat="47.36186" lon="-1.90831">
        <ele>-97</ele>
        <time>2012-01-08T08:01:17Z</time>
      </trkpt>
      <trkpt lat="47.36186" lon="-1.90832">
        <ele>-97</ele>
        <time>2012-01-08T08:01:19Z</time>
      </trkpt>
      <trkpt lat="47.36186" lon="-1.90832">
        <ele>-97</ele>
        <time>2012-01-08T08:01:21Z</time>
      </trkpt>
      <trkpt lat="47.36186" lon="-1.90833">
        <ele>-97</ele>
        <time>2012-01-08T08:01:23Z</time>
      </trkpt>
      <trkpt lat="47.36187" lon="-1.90834">
        <ele>-97</ele>
        <time>2012-01-08T08:01:26Z</time>
      </trkpt>
      <trkpt lat="47.36187" lon="-1.90834">
        <ele>-97</ele>
        <time>2012-01-08T08:01:28Z</time>
      </trkpt>
      <trkpt lat="47.36187" lon="-1.90834">
        <ele>-97</ele>
        <time>2012-01-08T08:01:30Z</time>
      </trkpt>
      <trkpt lat="47.36187" lon="-1.90835">
        <ele>-97</ele>
        <time>2012-01-08T08:01:32Z</time>
      </trkpt>
      <trkpt lat="47.36187" lon="-1.90835">
        <ele>-97</ele>
        <time>2012-01-08T08:01:34Z</time>
      </trkpt>
      <trkpt lat="47.36187" lon="-1.90835">
        <ele>-97</ele>
        <time>2012-01-08T08:01:36Z</time>
      </trkpt>
      <trkpt lat="47.36187" lon="-1.90836">
        <ele>-97</ele>
        <time>2012-01-08T08:01:38Z</time>
      </trkpt>
      <trkpt lat="47.36187" lon="-1.90837">
        <ele>-97</ele>
        <time>2012-01-08T08:01:40Z</time>
      </trkpt>
      <trkpt lat="47.36186" lon="-1.90837">
        <ele>-97</ele>
        <time>2012-01-08T08:01:42Z</time>
      </trkpt>
      <trkpt lat="47.36185" lon="-1.90838">
        <ele>-97</ele>
        <time>2012-01-08T08:01:44Z</time>
      </trkpt>
      <trkpt lat="47.36182" lon="-1.90838">
        <ele>-97</ele>
        <time>2012-01-08T08:01:46Z</time>
      </trkpt>
      <trkpt lat="47.3618" lon="-1.90838">
        <ele>-98</ele>
        <time>2012-01-08T08:01:48Z</time>
      </trkpt>
      <trkpt lat="47.36177" lon="-1.90838">
        <ele>-98</ele>
        <time>2012-01-08T08:01:50Z</time>
      </trkpt>
      <trkpt lat="47.36174" lon="-1.90837">
        <ele>-98</ele>
        <time>2012-01-08T08:01:52Z</time>
      </trkpt>
      <trkpt lat="47.36171" lon="-1.90837">
        <ele>-98</ele>
        <time>2012-01-08T08:01:54Z</time>
      </trkpt>
      <trkpt lat="47.36169" lon="-1.9084">
        <ele>-98</ele>
        <time>2012-01-08T08:01:57Z</time>
      </trkpt>
      <trkpt lat="47.36166" lon="-1.90843">
        <ele>-99</ele>
        <time>2012-01-08T08:01:59Z</time>
      </trkpt>
      <trkpt lat="47.36164" lon="-1.90845">
        <ele>-99</ele>
        <time>2012-01-08T08:02:01Z</time>
      </trkpt>
      <trkpt lat="47.36164" lon="-1.90845">
        <ele>-99</ele>
        <time>2012-01-08T08:02:03Z</time>
      </trkpt>
      <trkpt lat="47.36163" lon="-1.90849">
        <ele>-100</ele>
        <time>2012-01-08T08:02:05Z</time>
      </trkpt>
      <trkpt lat="47.36163" lon="-1.90856">
        <ele>-100</ele>
        <time>2012-01-08T08:02:07Z</time>
      </trkpt>
      <trkpt lat="47.36165" lon="-1.90861">
        <ele>-100</ele>
        <time>2012-01-08T08:02:09Z</time>
      </trkpt>
      <trkpt lat="47.36166" lon="-1.90867">
        <ele>-100</ele>
        <time>2012-01-08T08:02:11Z</time>
      </trkpt>
      <trkpt lat="47.36169" lon="-1.90875">
        <ele>-100</ele>
        <time>2012-01-08T08:02:13Z</time>
      </trkpt>
      <trkpt lat="47.3617" lon="-1.90877">
        <ele>-100</ele>
        <time>2012-01-08T08:02:16Z</time>
      </trkpt>
      <trkpt lat="47.36172" lon="-1.90884">
        <ele>-100</ele>
        <time>2012-01-08T08:02:18Z</time>
      </trkpt>
      <trkpt lat="47.36173" lon="-1.90886">
        <ele>-100</ele>
        <time>2012-01-08T08:02:20Z</time>
      </trkpt>
      <trkpt lat="47.36173" lon="-1.90886">
        <ele>-100</ele>
        <time>2012-01-08T08:02:22Z</time>
      </trkpt>
      <trkpt lat="47.36173" lon="-1.90886">
        <ele>-100</ele>
        <time>2012-01-08T08:02:24Z</time>
      </trkpt>
      <trkpt lat="47.36173" lon="-1.90886">
        <ele>-100</ele>
        <time>2012-01-08T08:02:26Z</time>
      </trkpt>
      <trkpt lat="47.36174" lon="-1.90886">
        <ele>-100</ele>
        <time>2012-01-08T08:02:28Z</time>
      </trkpt>
      <trkpt lat="47.36174" lon="-1.90886">
        <ele>-100</ele>
        <time>2012-01-08T08:02:30Z</time>
      </trkpt>
      <trkpt lat="47.36174" lon="-1.90885">
        <ele>-100</ele>
        <time>2012-01-08T08:02:32Z</time>
      </trkpt>
      <trkpt lat="47.36172" lon="-1.90882">
        <ele>-100</ele>
        <time>2012-01-08T08:02:35Z</time>
      </trkpt>
      <trkpt lat="47.36171" lon="-1.90877">
        <ele>-100</ele>
        <time>2012-01-08T08:02:37Z</time>
      </trkpt>
      <trkpt lat="47.36169" lon="-1.90871">
        <ele>-100</ele>
        <time>2012-01-08T08:02:39Z</time>
      </trkpt>
      <trkpt lat="47.36166" lon="-1.90862">
        <ele>-100</ele>
        <time>2012-01-08T08:02:41Z</time>
      </trkpt>
      <trkpt lat="47.36162" lon="-1.90849">
        <ele>-100</ele>
        <time>2012-01-08T08:02:43Z</time>
      </trkpt>
      <trkpt lat="47.36158" lon="-1.90842">
        <ele>-100</ele>
        <time>2012-01-08T08:02:46Z</time>
      </trkpt>
      <trkpt lat="47.36152" lon="-1.90834">
        <ele>-100</ele>
        <time>2012-01-08T08:02:48Z</time>
      </trkpt>
      <trkpt lat="47.36145" lon="-1.90825">
        <ele>-101</ele>
        <time>2012-01-08T08:02:50Z</time>
      </trkpt>
      <trkpt lat="47.36142" lon="-1.90816">
        <ele>-101</ele>
        <time>2012-01-08T08:02:52Z</time>
      </trkpt>
      <trkpt lat="47.36141" lon="-1.90807">
        <ele>-102</ele>
        <time>2012-01-08T08:02:54Z</time>
      </trkpt>
      <trkpt lat="47.36138" lon="-1.908">
        <ele>-103</ele>
        <time>2012-01-08T08:02:56Z</time>
      </trkpt>
      <trkpt lat="47.36135" lon="-1.90793">
        <ele>-103</ele>
        <time>2012-01-08T08:02:58Z</time>
      </trkpt>
      <trkpt lat="47.36133" lon="-1.90785">
        <ele>-103</ele>
        <time>2012-01-08T08:03:00Z</time>
      </trkpt>
      <trkpt lat="47.36131" lon="-1.90776">
        <ele>-103</ele>
        <time>2012-01-08T08:03:02Z</time>
      </trkpt>
      <trkpt lat="47.36129" lon="-1.9077">
        <ele>-103</ele>
        <time>2012-01-08T08:03:05Z</time>
      </trkpt>
      <trkpt lat="47.36129" lon="-1.90767">
        <ele>-103</ele>
        <time>2012-01-08T08:03:07Z</time>
      </trkpt>
      <trkpt lat="47.36129" lon="-1.90766">
        <ele>-102</ele>
        <time>2012-01-08T08:03:09Z</time>
      </trkpt>
      <trkpt lat="47.36128" lon="-1.90764">
        <ele>-102</ele>
        <time>2012-01-08T08:03:11Z</time>
      </trkpt>
      <trkpt lat="47.36127" lon="-1.9076">
        <ele>-102</ele>
        <time>2012-01-08T08:03:13Z</time>
      </trkpt>
      <trkpt lat="47.36126" lon="-1.90754">
        <ele>-102</ele>
        <time>2012-01-08T08:03:15Z</time>
      </trkpt>
      <trkpt lat="47.36124" lon="-1.90746">
        <ele>-102</ele>
        <time>2012-01-08T08:03:17Z</time>
      </trkpt>
      <trkpt lat="47.36122" lon="-1.90737">
        <ele>-102</ele>
        <time>2012-01-08T08:03:19Z</time>
      </trkpt>
      <trkpt lat="47.36118" lon="-1.90728">
        <ele>-102</ele>
        <time>2012-01-08T08:03:21Z</time>
      </trkpt>
      <trkpt lat="47.36114" lon="-1.9072">
        <ele>-102</ele>
        <time>2012-01-08T08:03:23Z</time>
      </trkpt>
      <trkpt lat="47.36112" lon="-1.90711">
        <ele>-102</ele>
        <time>2012-01-08T08:03:25Z</time>
      </trkpt>
      <trkpt lat="47.36108" lon="-1.90697">
        <ele>-101</ele>
        <time>2012-01-08T08:03:28Z</time>
      </trkpt>
      <trkpt lat="47.36104" lon="-1.90687">
        <ele>-101</ele>
        <time>2012-01-08T08:03:30Z</time>
      </trkpt>
      <trkpt lat="47.361" lon="-1.90678">
        <ele>-101</ele>
        <time>2012-01-08T08:03:32Z</time>
      </trkpt>
      <trkpt lat="47.36098" lon="-1.90672">
        <ele>-101</ele>
        <time>2012-01-08T08:03:34Z</time>
      </trkpt>
      <trkpt lat="47.36095" lon="-1.90667">
        <ele>-101</ele>
        <time>2012-01-08T08:03:36Z</time>
      </trkpt>
      <trkpt lat="47.36092" lon="-1.90665">
        <ele>-101</ele>
        <time>2012-01-08T08:03:38Z</time>
      </trkpt>
      <trkpt lat="47.36089" lon="-1.90664">
        <ele>-101</ele>
        <time>2012-01-08T08:03:40Z</time>
      </trkpt>
      <trkpt lat="47.36085" lon="-1.90661">
        <ele>-101</ele>
        <time>2012-01-08T08:03:42Z</time>
      </trkpt>
      <trkpt lat="47.36082" lon="-1.90659">
        <ele>-101</ele>
        <time>2012-01-08T08:03:44Z</time>
      </trkpt>
      <trkpt lat="47.3608" lon="-1.90658">
        <ele>-101</ele>
        <time>2012-01-08T08:03:46Z</time>
      </trkpt>
      <trkpt lat="47.36078" lon="-1.90657">
        <ele>-101</ele>
        <time>2012-01-08T08:03:49Z</time>
      </trkpt>
      <trkpt lat="47.36075" lon="-1.90656">
        <ele>-100</ele>
        <time>2012-01-08T08:03:51Z</time>
      </trkpt>
      <trkpt lat="47.36072" lon="-1.90656">
        <ele>-100</ele>
        <time>2012-01-08T08:03:53Z</time>
      </trkpt>
      <trkpt lat="47.36068" lon="-1.90656">
        <ele>-100</ele>
        <time>2012-01-08T08:03:55Z</time>
      </trkpt>
      <trkpt lat="47.36065" lon="-1.90656">
        <ele>-100</ele>
        <time>2012-01-08T08:03:57Z</time>
      </trkpt>
      <trkpt lat="47.36062" lon="-1.90654">
        <ele>-100</ele>
        <time>2012-01-08T08:03:59Z</time>
      </trkpt>
      <trkpt lat="47.36059" lon="-1.90653">
        <ele>-99</ele>
        <time>2012-01-08T08:04:01Z</time>
      </trkpt>
      <trkpt lat="47.36055" lon="-1.90653">
        <ele>-99</ele>
        <time>2012-01-08T08:04:03Z</time>
      </trkpt>
      <trkpt lat="47.36052" lon="-1.90654">
        <ele>-99</ele>
        <time>2012-01-08T08:04:06Z</time>
      </trkpt>
      <trkpt lat="47.3605" lon="-1.90655">
        <ele>-98</ele>
        <time>2012-01-08T08:04:08Z</time>
      </trkpt>
      <trkpt lat="47.36049" lon="-1.90656">
        <ele>-98</ele>
        <time>2012-01-08T08:04:10Z</time>
      </trkpt>
      <trkpt lat="47.36047" lon="-1.90656">
        <ele>-97</ele>
        <time>2012-01-08T08:04:12Z</time>
      </trkpt>
      <trkpt lat="47.36045" lon="-1.90656">
        <ele>-97</ele>
        <time>2012-01-08T08:04:14Z</time>
      </trkpt>
      <trkpt lat="47.36043" lon="-1.90655">
        <ele>-97</ele>
        <time>2012-01-08T08:04:16Z</time>
      </trkpt>
      <trkpt lat="47.36041" lon="-1.90656">
        <ele>-97</ele>
        <time>2012-01-08T08:04:18Z</time>
      </trkpt>
      <trkpt lat="47.36038" lon="-1.90657">
        <ele>-96</ele>
        <time>2012-01-08T08:04:20Z</time>
      </trkpt>
      <trkpt lat="47.36034" lon="-1.90658">
        <ele>-96</ele>
        <time>2012-01-08T08:04:22Z</time>
      </trkpt>
      <trkpt lat="47.36032" lon="-1.90658">
        <ele>-96</ele>
        <time>2012-01-08T08:04:25Z</time>
      </trkpt>
      <trkpt lat="47.36029" lon="-1.90656">
        <ele>-95</ele>
        <time>2012-01-08T08:04:27Z</time>
      </trkpt>
      <trkpt lat="47.36027" lon="-1.90654">
        <ele>-95</ele>
        <time>2012-01-08T08:04:29Z</time>
      </trkpt>
      <trkpt lat="47.36024" lon="-1.90653">
        <ele>-94</ele>
        <time>2012-01-08T08:04:31Z</time>
      </trkpt>
      <trkpt lat="47.36021" lon="-1.90654">
        <ele>-94</ele>
        <time>2012-01-08T08:04:33Z</time>
      </trkpt>
      <trkpt lat="47.36018" lon="-1.90654">
        <ele>-94</ele>
        <time>2012-01-08T08:04:35Z</time>
      </trkpt>
      <trkpt lat="47.36016" lon="-1.90655">
        <ele>-93</ele>
        <time>2012-01-08T08:04:37Z</time>
      </trkpt>
      <trkpt lat="47.36011" lon="-1.90656">
        <ele>-93</ele>
        <time>2012-01-08T08:04:39Z</time>
      </trkpt>
      <trkpt lat="47.36008" lon="-1.90657">
        <ele>-93</ele>
        <time>2012-01-08T08:04:41Z</time>
      </trkpt>
      <trkpt lat="47.36005" lon="-1.90658">
        <ele>-93</ele>
        <time>2012-01-08T08:04:44Z</time>
      </trkpt>
      <trkpt lat="47.36002" lon="-1.90658">
        <ele>-92</ele>
        <time>2012-01-08T08:04:46Z</time>
      </trkpt>
      <trkpt lat="47.35998" lon="-1.90658">
        <ele>-92</ele>
        <time>2012-01-08T08:04:48Z</time>
      </trkpt>
      <trkpt lat="47.35994" lon="-1.90658">
        <ele>-91</ele>
        <time>2012-01-08T08:04:50Z</time>
      </trkpt>
      <trkpt lat="47.35991" lon="-1.90656">
        <ele>-91</ele>
        <time>2012-01-08T08:04:52Z</time>
      </trkpt>
      <trkpt lat="47.35989" lon="-1.90652">
        <ele>-91</ele>
        <time>2012-01-08T08:04:54Z</time>
      </trkpt>
      <trkpt lat="47.35987" lon="-1.9065">
        <ele>-90</ele>
        <time>2012-01-08T08:04:56Z</time>
      </trkpt>
      <trkpt lat="47.35986" lon="-1.90647">
        <ele>-90</ele>
        <time>2012-01-08T08:04:58Z</time>
      </trkpt>
      <trkpt lat="47.35985" lon="-1.90644">
        <ele>-90</ele>
        <time>2012-01-08T08:05:00Z</time>
      </trkpt>
      <trkpt lat="47.35984" lon="-1.9064">
        <ele>-90</ele>
        <time>2012-01-08T08:05:02Z</time>
      </trkpt>
      <trkpt lat="47.35982" lon="-1.90634">
        <ele>-90</ele>
        <time>2012-01-08T08:05:04Z</time>
      </trkpt>
      <trkpt lat="47.35981" lon="-1.90628">
        <ele>-90</ele>
        <time>2012-01-08T08:05:06Z</time>
      </trkpt>
      <trkpt lat="47.35979" lon="-1.90622">
        <ele>-90</ele>
        <time>2012-01-08T08:05:09Z</time>
      </trkpt>
      <trkpt lat="47.35977" lon="-1.90617">
        <ele>-90</ele>
        <time>2012-01-08T08:05:11Z</time>
      </trkpt>
      <trkpt lat="47.35975" lon="-1.9061">
        <ele>-90</ele>
        <time>2012-01-08T08:05:13Z</time>
      </trkpt>
      <trkpt lat="47.35973" lon="-1.906">
        <ele>-90</ele>
        <time>2012-01-08T08:05:15Z</time>
      </trkpt>
      <trkpt lat="47.35971" lon="-1.90592">
        <ele>-90</ele>
        <time>2012-01-08T08:05:17Z</time>
      </trkpt>
      <trkpt lat="47.3597" lon="-1.90584">
        <ele>-90</ele>
        <time>2012-01-08T08:05:19Z</time>
      </trkpt>
      <trkpt lat="47.35968" lon="-1.90576">
        <ele>-90</ele>
        <time>2012-01-08T08:05:21Z</time>
      </trkpt>
      <trkpt lat="47.35966" lon="-1.90566">
        <ele>-91</ele>
        <time>2012-01-08T08:05:23Z</time>
      </trkpt>
      <trkpt lat="47.35965" lon="-1.90564">
        <ele>-91</ele>
        <time>2012-01-08T08:05:25Z</time>
      </trkpt>
      <trkpt lat="47.35961" lon="-1.90557">
        <ele>-91</ele>
        <time>2012-01-08T08:05:28Z</time>
      </trkpt>
      <trkpt lat="47.35957" lon="-1.90554">
        <ele>-91</ele>
        <time>2012-01-08T08:05:30Z</time>
      </trkpt>
      <trkpt lat="47.35954" lon="-1.90552">
        <ele>-91</ele>
        <time>2012-01-08T08:05:32Z</time>
      </trkpt>
      <trkpt lat="47.3595" lon="-1.90551">
        <ele>-91</ele>
        <time>2012-01-08T08:05:34Z</time>
      </trkpt>
      <trkpt lat="47.35946" lon="-1.90551">
        <ele>-90</ele>
        <time>2012-01-08T08:05:36Z</time>
      </trkpt>
      <trkpt lat="47.35941" lon="-1.90551">
        <ele>-90</ele>
        <time>2012-01-08T08:05:38Z</time>
      </trkpt>
      <trkpt lat="47.35936" lon="-1.90551">
        <ele>-90</ele>
        <time>2012-01-08T08:05:40Z</time>
      </trkpt>
      <trkpt lat="47.35928" lon="-1.90551">
        <ele>-89</ele>
        <time>2012-01-08T08:05:42Z</time>
      </trkpt>
      <trkpt lat="47.35922" lon="-1.90549">
        <ele>-89</ele>
        <time>2012-01-08T08:05:44Z</time>
      </trkpt>
      <trkpt lat="47.35918" lon="-1.90545">
        <ele>-89</ele>
        <time>2012-01-08T08:05:47Z</time>
      </trkpt>
      <trkpt lat="47.35914" lon="-1.9054">
        <ele>-88</ele>
        <time>2012-01-08T08:05:49Z</time>
      </trkpt>
      <trkpt lat="47.3591" lon="-1.90535">
        <ele>-88</ele>
        <time>2012-01-08T08:05:51Z</time>
      </trkpt>
      <trkpt lat="47.35906" lon="-1.9053">
        <ele>-88</ele>
        <time>2012-01-08T08:05:53Z</time>
      </trkpt>
      <trkpt lat="47.35902" lon="-1.90525">
        <ele>-87</ele>
        <time>2012-01-08T08:05:55Z</time>
      </trkpt>
      <trkpt lat="47.35898" lon="-1.90521">
        <ele>-87</ele>
        <time>2012-01-08T08:05:57Z</time>
      </trkpt>
      <trkpt lat="47.35893" lon="-1.90519">
        <ele>-87</ele>
        <time>2012-01-08T08:05:59Z</time>
      </trkpt>
      <trkpt lat="47.35889" lon="-1.90522">
        <ele>-87</ele>
        <time>2012-01-08T08:06:01Z</time>
      </trkpt>
      <trkpt lat="47.35886" lon="-1.90526">
        <ele>-86</ele>
        <time>2012-01-08T08:06:03Z</time>
      </trkpt>
      <trkpt lat="47.35883" lon="-1.90531">
        <ele>-86</ele>
        <time>2012-01-08T08:06:05Z</time>
      </trkpt>
      <trkpt lat="47.35878" lon="-1.90537">
        <ele>-86</ele>
        <time>2012-01-08T08:06:07Z</time>
      </trkpt>
      <trkpt lat="47.35875" lon="-1.90542">
        <ele>-86</ele>
        <time>2012-01-08T08:06:09Z</time>
      </trkpt>
      <trkpt lat="47.35872" lon="-1.90548">
        <ele>-85</ele>
        <time>2012-01-08T08:06:11Z</time>
      </trkpt>
      <trkpt lat="47.35868" lon="-1.90553">
        <ele>-85</ele>
        <time>2012-01-08T08:06:14Z</time>
      </trkpt>
      <trkpt lat="47.35866" lon="-1.90556">
        <ele>-85</ele>
        <time>2012-01-08T08:06:16Z</time>
      </trkpt>
      <trkpt lat="47.35862" lon="-1.90564">
        <ele>-85</ele>
        <time>2012-01-08T08:06:18Z</time>
      </trkpt>
      <trkpt lat="47.35859" lon="-1.90568">
        <ele>-85</ele>
        <time>2012-01-08T08:06:20Z</time>
      </trkpt>
      <trkpt lat="47.35856" lon="-1.90573">
        <ele>-85</ele>
        <time>2012-01-08T08:06:22Z</time>
      </trkpt>
      <trkpt lat="47.35853" lon="-1.90577">
        <ele>-85</ele>
        <time>2012-01-08T08:06:24Z</time>
      </trkpt>
      <trkpt lat="47.35849" lon="-1.90582">
        <ele>-85</ele>
        <time>2012-01-08T08:06:26Z</time>
      </trkpt>
      <trkpt lat="47.35846" lon="-1.90586">
        <ele>-85</ele>
        <time>2012-01-08T08:06:28Z</time>
      </trkpt>
      <trkpt lat="47.35843" lon="-1.9059">
        <ele>-84</ele>
        <time>2012-01-08T08:06:30Z</time>
      </trkpt>
      <trkpt lat="47.35839" lon="-1.90594">
        <ele>-84</ele>
        <time>2012-01-08T08:06:32Z</time>
      </trkpt>
      <trkpt lat="47.35835" lon="-1.90598">
        <ele>-84</ele>
        <time>2012-01-08T08:06:34Z</time>
      </trkpt>
      <trkpt lat="47.35831" lon="-1.90603">
        <ele>-84</ele>
        <time>2012-01-08T08:06:36Z</time>
      </trkpt>
      <trkpt lat="47.35826" lon="-1.90609">
        <ele>-85</ele>
        <time>2012-01-08T08:06:38Z</time>
      </trkpt>
      <trkpt lat="47.35821" lon="-1.90613">
        <ele>-85</ele>
        <time>2012-01-08T08:06:40Z</time>
      </trkpt>
      <trkpt lat="47.35817" lon="-1.90619">
        <ele>-85</ele>
        <time>2012-01-08T08:06:42Z</time>
      </trkpt>
      <trkpt lat="47.35812" lon="-1.90624">
        <ele>-85</ele>
        <time>2012-01-08T08:06:45Z</time>
      </trkpt>
      <trkpt lat="47.35807" lon="-1.9063">
        <ele>-85</ele>
        <time>2012-01-08T08:06:47Z</time>
      </trkpt>
      <trkpt lat="47.35802" lon="-1.90636">
        <ele>-85</ele>
        <time>2012-01-08T08:06:49Z</time>
      </trkpt>
      <trkpt lat="47.35798" lon="-1.9064">
        <ele>-85</ele>
        <time>2012-01-08T08:06:51Z</time>
      </trkpt>
      <trkpt lat="47.35793" lon="-1.90642">
        <ele>-85</ele>
        <time>2012-01-08T08:06:53Z</time>
      </trkpt>
      <trkpt lat="47.35787" lon="-1.9064">
        <ele>-85</ele>
        <time>2012-01-08T08:06:55Z</time>
      </trkpt>
      <trkpt lat="47.35781" lon="-1.90638">
        <ele>-85</ele>
        <time>2012-01-08T08:06:57Z</time>
      </trkpt>
      <trkpt lat="47.35776" lon="-1.90635">
        <ele>-85</ele>
        <time>2012-01-08T08:06:59Z</time>
      </trkpt>
      <trkpt lat="47.3577" lon="-1.9063">
        <ele>-85</ele>
        <time>2012-01-08T08:07:01Z</time>
      </trkpt>
      <trkpt lat="47.35764" lon="-1.90626">
        <ele>-85</ele>
        <time>2012-01-08T08:07:03Z</time>
      </trkpt>
      <trkpt lat="47.35758" lon="-1.90621">
        <ele>-85</ele>
        <time>2012-01-08T08:07:05Z</time>
      </trkpt>
      <trkpt lat="47.35752" lon="-1.90616">
        <ele>-85</ele>
        <time>2012-01-08T08:07:07Z</time>
      </trkpt>
      <trkpt lat="47.35744" lon="-1.9061">
        <ele>-85</ele>
        <time>2012-01-08T08:07:09Z</time>
      </trkpt>
      <trkpt lat="47.35738" lon="-1.90605">
        <ele>-85</ele>
        <time>2012-01-08T08:07:11Z</time>
      </trkpt>
      <trkpt lat="47.35733" lon="-1.90601">
        <ele>-85</ele>
        <time>2012-01-08T08:07:13Z</time>
      </trkpt>
      <trkpt lat="47.35728" lon="-1.90597">
        <ele>-85</ele>
        <time>2012-01-08T08:07:16Z</time>
      </trkpt>
      <trkpt lat="47.35723" lon="-1.90593">
        <ele>-85</ele>
        <time>2012-01-08T08:07:18Z</time>
      </trkpt>
      <trkpt lat="47.35718" lon="-1.9059">
        <ele>-85</ele>
        <time>2012-01-08T08:07:20Z</time>
      </trkpt>
      <trkpt lat="47.35714" lon="-1.90588">
        <ele>-85</ele>
        <time>2012-01-08T08:07:22Z</time>
      </trkpt>
      <trkpt lat="47.3571" lon="-1.90587">
        <ele>-85</ele>
        <time>2012-01-08T08:07:24Z</time>
      </trkpt>
      <trkpt lat="47.35707" lon="-1.90589">
        <ele>-84</ele>
        <time>2012-01-08T08:07:26Z</time>
      </trkpt>
      <trkpt lat="47.35702" lon="-1.90592">
        <ele>-84</ele>
        <time>2012-01-08T08:07:28Z</time>
      </trkpt>
      <trkpt lat="47.35696" lon="-1.90594">
        <ele>-84</ele>
        <time>2012-01-08T08:07:30Z</time>
      </trkpt>
      <trkpt lat="47.3569" lon="-1.90596">
        <ele>-85</ele>
        <time>2012-01-08T08:07:32Z</time>
      </trkpt>
      <trkpt lat="47.35684" lon="-1.90597">
        <ele>-85</ele>
        <time>2012-01-08T08:07:34Z</time>
      </trkpt>
      <trkpt lat="47.35677" lon="-1.90596">
        <ele>-85</ele>
        <time>2012-01-08T08:07:36Z</time>
      </trkpt>
      <trkpt lat="47.35671" lon="-1.90591">
        <ele>-85</ele>
        <time>2012-01-08T08:07:38Z</time>
      </trkpt>
      <trkpt lat="47.35667" lon="-1.90582">
        <ele>-85</ele>
        <time>2012-01-08T08:07:40Z</time>
      </trkpt>
      <trkpt lat="47.35661" lon="-1.90569">
        <ele>-85</ele>
        <time>2012-01-08T08:07:42Z</time>
      </trkpt>
      <trkpt lat="47.35658" lon="-1.90559">
        <ele>-84</ele>
        <time>2012-01-08T08:07:44Z</time>
      </trkpt>
      <trkpt lat="47.35655" lon="-1.9055">
        <ele>-84</ele>
        <time>2012-01-08T08:07:46Z</time>
      </trkpt>
      <trkpt lat="47.35653" lon="-1.90541">
        <ele>-84</ele>
        <time>2012-01-08T08:07:49Z</time>
      </trkpt>
      <trkpt lat="47.35649" lon="-1.90532">
        <ele>-84</ele>
        <time>2012-01-08T08:07:51Z</time>
      </trkpt>
      <trkpt lat="47.35646" lon="-1.90521">
        <ele>-84</ele>
        <time>2012-01-08T08:07:53Z</time>
      </trkpt>
      <trkpt lat="47.35643" lon="-1.9051">
        <ele>-84</ele>
        <time>2012-01-08T08:07:55Z</time>
      </trkpt>
      <trkpt lat="47.35639" lon="-1.90501">
        <ele>-84</ele>
        <time>2012-01-08T08:07:57Z</time>
      </trkpt>
      <trkpt lat="47.35635" lon="-1.90492">
        <ele>-83</ele>
        <time>2012-01-08T08:07:59Z</time>
      </trkpt>
      <trkpt lat="47.35632" lon="-1.90482">
        <ele>-83</ele>
        <time>2012-01-08T08:08:01Z</time>
      </trkpt>
      <trkpt lat="47.35627" lon="-1.90467">
        <ele>-83</ele>
        <time>2012-01-08T08:08:03Z</time>
      </trkpt>
      <trkpt lat="47.35623" lon="-1.90456">
        <ele>-83</ele>
        <time>2012-01-08T08:08:05Z</time>
      </trkpt>
      <trkpt lat="47.35619" lon="-1.90446">
        <ele>-83</ele>
        <time>2012-01-08T08:08:07Z</time>
      </trkpt>
      <trkpt lat="47.35616" lon="-1.90436">
        <ele>-83</ele>
        <time>2012-01-08T08:08:10Z</time>
      </trkpt>
      <trkpt lat="47.35613" lon="-1.90427">
        <ele>-83</ele>
        <time>2012-01-08T08:08:12Z</time>
      </trkpt>
      <trkpt lat="47.3561" lon="-1.90418">
        <ele>-83</ele>
        <time>2012-01-08T08:08:14Z</time>
      </trkpt>
      <trkpt lat="47.35606" lon="-1.90408">
        <ele>-83</ele>
        <time>2012-01-08T08:08:16Z</time>
      </trkpt>
      <trkpt lat="47.35603" lon="-1.90398">
        <ele>-83</ele>
        <time>2012-01-08T08:08:18Z</time>
      </trkpt>
      <trkpt lat="47.35599" lon="-1.90386">
        <ele>-83</ele>
        <time>2012-01-08T08:08:20Z</time>
      </trkpt>
      <trkpt lat="47.35596" lon="-1.90376">
        <ele>-83</ele>
        <time>2012-01-08T08:08:22Z</time>
      </trkpt>
      <trkpt lat="47.35593" lon="-1.90365">
        <ele>-83</ele>
        <time>2012-01-08T08:08:24Z</time>
      </trkpt>
      <trkpt lat="47.35591" lon="-1.90354">
        <ele>-83</ele>
        <time>2012-01-08T08:08:26Z</time>
      </trkpt>
      <trkpt lat="47.35588" lon="-1.90339">
        <ele>-83</ele>
        <time>2012-01-08T08:08:28Z</time>
      </trkpt>
      <trkpt lat="47.35585" lon="-1.9033">
        <ele>-83</ele>
        <time>2012-01-08T08:08:30Z</time>
      </trkpt>
      <trkpt lat="47.35583" lon="-1.90321">
        <ele>-83</ele>
        <time>2012-01-08T08:08:32Z</time>
      </trkpt>
      <trkpt lat="47.3558" lon="-1.90312">
        <ele>-83</ele>
        <time>2012-01-08T08:08:35Z</time>
      </trkpt>
      <trkpt lat="47.35578" lon="-1.90302">
        <ele>-83</ele>
        <time>2012-01-08T08:08:37Z</time>
      </trkpt>
      <trkpt lat="47.35577" lon="-1.90293">
        <ele>-83</ele>
        <time>2012-01-08T08:08:39Z</time>
      </trkpt>
      <trkpt lat="47.35577" lon="-1.90283">
        <ele>-82</ele>
        <time>2012-01-08T08:08:41Z</time>
      </trkpt>
      <trkpt lat="47.35577" lon="-1.90271">
        <ele>-82</ele>
        <time>2012-01-08T08:08:43Z</time>
      </trkpt>
      <trkpt lat="47.35577" lon="-1.90259">
        <ele>-82</ele>
        <time>2012-01-08T08:08:45Z</time>
      </trkpt>
      <trkpt lat="47.35577" lon="-1.90247">
        <ele>-82</ele>
        <time>2012-01-08T08:08:47Z</time>
      </trkpt>
      <trkpt lat="47.35577" lon="-1.90237">
        <ele>-82</ele>
        <time>2012-01-08T08:08:49Z</time>
      </trkpt>
      <trkpt lat="47.35575" lon="-1.90224">
        <ele>-82</ele>
        <time>2012-01-08T08:08:51Z</time>
      </trkpt>
      <trkpt lat="47.35574" lon="-1.90215">
        <ele>-82</ele>
        <time>2012-01-08T08:08:53Z</time>
      </trkpt>
      <trkpt lat="47.35572" lon="-1.90205">
        <ele>-82</ele>
        <time>2012-01-08T08:08:56Z</time>
      </trkpt>
      <trkpt lat="47.3557" lon="-1.90196">
        <ele>-81</ele>
        <time>2012-01-08T08:08:58Z</time>
      </trkpt>
      <trkpt lat="47.35568" lon="-1.90186">
        <ele>-81</ele>
        <time>2012-01-08T08:09:00Z</time>
      </trkpt>
      <trkpt lat="47.35566" lon="-1.90176">
        <ele>-81</ele>
        <time>2012-01-08T08:09:02Z</time>
      </trkpt>
      <trkpt lat="47.35565" lon="-1.90166">
        <ele>-81</ele>
        <time>2012-01-08T08:09:04Z</time>
      </trkpt>
      <trkpt lat="47.35564" lon="-1.90156">
        <ele>-81</ele>
        <time>2012-01-08T08:09:06Z</time>
      </trkpt>
      <trkpt lat="47.35564" lon="-1.90146">
        <ele>-81</ele>
        <time>2012-01-08T08:09:08Z</time>
      </trkpt>
      <trkpt lat="47.35563" lon="-1.90137">
        <ele>-81</ele>
        <time>2012-01-08T08:09:10Z</time>
      </trkpt>
      <trkpt lat="47.35562" lon="-1.90121">
        <ele>-81</ele>
        <time>2012-01-08T08:09:12Z</time>
      </trkpt>
      <trkpt lat="47.35561" lon="-1.90111">
        <ele>-81</ele>
        <time>2012-01-08T08:09:14Z</time>
      </trkpt>
      <trkpt lat="47.35561" lon="-1.901">
        <ele>-81</ele>
        <time>2012-01-08T08:09:16Z</time>
      </trkpt>
      <trkpt lat="47.3556" lon="-1.90088">
        <ele>-80</ele>
        <time>2012-01-08T08:09:19Z</time>
      </trkpt>
      <trkpt lat="47.35559" lon="-1.90078">
        <ele>-80</ele>
        <time>2012-01-08T08:09:21Z</time>
      </trkpt>
      <trkpt lat="47.35558" lon="-1.90067">
        <ele>-80</ele>
        <time>2012-01-08T08:09:23Z</time>
      </trkpt>
      <trkpt lat="47.35557" lon="-1.90056">
        <ele>-79</ele>
        <time>2012-01-08T08:09:25Z</time>
      </trkpt>
      <trkpt lat="47.35556" lon="-1.90045">
        <ele>-79</ele>
        <time>2012-01-08T08:09:27Z</time>
      </trkpt>
      <trkpt lat="47.35555" lon="-1.90034">
        <ele>-79</ele>
        <time>2012-01-08T08:09:29Z</time>
      </trkpt>
      <trkpt lat="47.35554" lon="-1.90023">
        <ele>-79</ele>
        <time>2012-01-08T08:09:31Z</time>
      </trkpt>
      <trkpt lat="47.35554" lon="-1.90012">
        <ele>-79</ele>
        <time>2012-01-08T08:09:33Z</time>
      </trkpt>
      <trkpt lat="47.35554" lon="-1.90001">
        <ele>-79</ele>
        <time>2012-01-08T08:09:35Z</time>
      </trkpt>
      <trkpt lat="47.35553" lon="-1.8999">
        <ele>-79</ele>
        <time>2012-01-08T08:09:37Z</time>
      </trkpt>
      <trkpt lat="47.35551" lon="-1.89975">
        <ele>-79</ele>
        <time>2012-01-08T08:09:39Z</time>
      </trkpt>
      <trkpt lat="47.3555" lon="-1.89964">
        <ele>-79</ele>
        <time>2012-01-08T08:09:41Z</time>
      </trkpt>
      <trkpt lat="47.35548" lon="-1.89954">
        <ele>-79</ele>
        <time>2012-01-08T08:09:44Z</time>
      </trkpt>
      <trkpt lat="47.35548" lon="-1.89943">
        <ele>-78</ele>
        <time>2012-01-08T08:09:46Z</time>
      </trkpt>
      <trkpt lat="47.35547" lon="-1.89931">
        <ele>-78</ele>
        <time>2012-01-08T08:09:48Z</time>
      </trkpt>
      <trkpt lat="47.35545" lon="-1.8992">
        <ele>-78</ele>
        <time>2012-01-08T08:09:50Z</time>
      </trkpt>
      <trkpt lat="47.35544" lon="-1.89909">
        <ele>-78</ele>
        <time>2012-01-08T08:09:52Z</time>
      </trkpt>
      <trkpt lat="47.35542" lon="-1.89898">
        <ele>-78</ele>
        <time>2012-01-08T08:09:54Z</time>
      </trkpt>
      <trkpt lat="47.3554" lon="-1.89886">
        <ele>-78</ele>
        <time>2012-01-08T08:09:56Z</time>
      </trkpt>
      <trkpt lat="47.35538" lon="-1.89876">
        <ele>-77</ele>
        <time>2012-01-08T08:09:58Z</time>
      </trkpt>
      <trkpt lat="47.35535" lon="-1.89861">
        <ele>-77</ele>
        <time>2012-01-08T08:10:00Z</time>
      </trkpt>
      <trkpt lat="47.35534" lon="-1.89852">
        <ele>-77</ele>
        <time>2012-01-08T08:10:02Z</time>
      </trkpt>
      <trkpt lat="47.35532" lon="-1.89842">
        <ele>-77</ele>
        <time>2012-01-08T08:10:04Z</time>
      </trkpt>
      <trkpt lat="47.3553" lon="-1.89833">
        <ele>-77</ele>
        <time>2012-01-08T08:10:07Z</time>
      </trkpt>
      <trkpt lat="47.35527" lon="-1.89824">
        <ele>-76</ele>
        <time>2012-01-08T08:10:09Z</time>
      </trkpt>
      <trkpt lat="47.35525" lon="-1.89814">
        <ele>-76</ele>
        <time>2012-01-08T08:10:11Z</time>
      </trkpt>
      <trkpt lat="47.35522" lon="-1.89804">
        <ele>-76</ele>
        <time>2012-01-08T08:10:13Z</time>
      </trkpt>
      <trkpt lat="47.35519" lon="-1.89795">
        <ele>-76</ele>
        <time>2012-01-08T08:10:15Z</time>
      </trkpt>
      <trkpt lat="47.35516" lon="-1.89784">
        <ele>-76</ele>
        <time>2012-01-08T08:10:17Z</time>
      </trkpt>
      <trkpt lat="47.35513" lon="-1.89773">
        <ele>-76</ele>
        <time>2012-01-08T08:10:19Z</time>
      </trkpt>
      <trkpt lat="47.35509" lon="-1.89759">
        <ele>-76</ele>
        <time>2012-01-08T08:10:21Z</time>
      </trkpt>
      <trkpt lat="47.35507" lon="-1.8975">
        <ele>-76</ele>
        <time>2012-01-08T08:10:23Z</time>
      </trkpt>
      <trkpt lat="47.35504" lon="-1.8974">
        <ele>-76</ele>
        <time>2012-01-08T08:10:25Z</time>
      </trkpt>
      <trkpt lat="47.35501" lon="-1.89729">
        <ele>-76</ele>
        <time>2012-01-08T08:10:28Z</time>
      </trkpt>
      <trkpt lat="47.35499" lon="-1.89718">
        <ele>-76</ele>
        <time>2012-01-08T08:10:30Z</time>
      </trkpt>
      <trkpt lat="47.35496" lon="-1.89706">
        <ele>-76</ele>
        <time>2012-01-08T08:10:32Z</time>
      </trkpt>
      <trkpt lat="47.35493" lon="-1.89695">
        <ele>-76</ele>
        <time>2012-01-08T08:10:34Z</time>
      </trkpt>
      <trkpt lat="47.35491" lon="-1.89683">
        <ele>-75</ele>
        <time>2012-01-08T08:10:36Z</time>
      </trkpt>
      <trkpt lat="47.35489" lon="-1.89671">
        <ele>-75</ele>
        <time>2012-01-08T08:10:38Z</time>
      </trkpt>
      <trkpt lat="47.35487" lon="-1.89659">
        <ele>-75</ele>
        <time>2012-01-08T08:10:40Z</time>
      </trkpt>
      <trkpt lat="47.35484" lon="-1.89647">
        <ele>-75</ele>
        <time>2012-01-08T08:10:42Z</time>
      </trkpt>
      <trkpt lat="47.35482" lon="-1.89634">
        <ele>-75</ele>
        <time>2012-01-08T08:10:44Z</time>
      </trkpt>
      <trkpt lat="47.35478" lon="-1.89615">
        <ele>-75</ele>
        <time>2012-01-08T08:10:46Z</time>
      </trkpt>
      <trkpt lat="47.35476" lon="-1.89603">
        <ele>-75</ele>
        <time>2012-01-08T08:10:48Z</time>
      </trkpt>
      <trkpt lat="47.35474" lon="-1.89591">
        <ele>-75</ele>
        <time>2012-01-08T08:10:50Z</time>
      </trkpt>
      <trkpt lat="47.35473" lon="-1.89578">
        <ele>-75</ele>
        <time>2012-01-08T08:10:53Z</time>
      </trkpt>
      <trkpt lat="47.35476" lon="-1.89569">
        <ele>-75</ele>
        <time>2012-01-08T08:10:55Z</time>
      </trkpt>
      <trkpt lat="47.35479" lon="-1.8956">
        <ele>-75</ele>
        <time>2012-01-08T08:10:57Z</time>
      </trkpt>
      <trkpt lat="47.35479" lon="-1.89549">
        <ele>-75</ele>
        <time>2012-01-08T08:10:59Z</time>
      </trkpt>
      <trkpt lat="47.35477" lon="-1.89536">
        <ele>-75</ele>
        <time>2012-01-08T08:11:01Z</time>
      </trkpt>
      <trkpt lat="47.35476" lon="-1.89524">
        <ele>-75</ele>
        <time>2012-01-08T08:11:03Z</time>
      </trkpt>
      <trkpt lat="47.35473" lon="-1.89513">
        <ele>-75</ele>
        <time>2012-01-08T08:11:05Z</time>
      </trkpt>
      <trkpt lat="47.35469" lon="-1.89495">
        <ele>-75</ele>
        <time>2012-01-08T08:11:07Z</time>
      </trkpt>
      <trkpt lat="47.35468" lon="-1.89483">
        <ele>-74</ele>
        <time>2012-01-08T08:11:09Z</time>
      </trkpt>
      <trkpt lat="47.35469" lon="-1.89472">
        <ele>-75</ele>
        <time>2012-01-08T08:11:12Z</time>
      </trkpt>
      <trkpt lat="47.35469" lon="-1.89462">
        <ele>-75</ele>
        <time>2012-01-08T08:11:14Z</time>
      </trkpt>
      <trkpt lat="47.35466" lon="-1.89451">
        <ele>-75</ele>
        <time>2012-01-08T08:11:16Z</time>
      </trkpt>
      <trkpt lat="47.35465" lon="-1.89439">
        <ele>-75</ele>
        <time>2012-01-08T08:11:18Z</time>
      </trkpt>
      <trkpt lat="47.35463" lon="-1.89427">
        <ele>-75</ele>
        <time>2012-01-08T08:11:20Z</time>
      </trkpt>
      <trkpt lat="47.35462" lon="-1.89415">
        <ele>-75</ele>
        <time>2012-01-08T08:11:22Z</time>
      </trkpt>
      <trkpt lat="47.35461" lon="-1.89402">
        <ele>-74</ele>
        <time>2012-01-08T08:11:24Z</time>
      </trkpt>
      <trkpt lat="47.35459" lon="-1.89384">
        <ele>-74</ele>
        <time>2012-01-08T08:11:26Z</time>
      </trkpt>
      <trkpt lat="47.35457" lon="-1.89371">
        <ele>-74</ele>
        <time>2012-01-08T08:11:28Z</time>
      </trkpt>
      <trkpt lat="47.35456" lon="-1.89358">
        <ele>-74</ele>
        <time>2012-01-08T08:11:30Z</time>
      </trkpt>
      <trkpt lat="47.35455" lon="-1.89347">
        <ele>-74</ele>
        <time>2012-01-08T08:11:33Z</time>
      </trkpt>
      <trkpt lat="47.35453" lon="-1.89336">
        <ele>-74</ele>
        <time>2012-01-08T08:11:35Z</time>
      </trkpt>
      <trkpt lat="47.35451" lon="-1.89325">
        <ele>-74</ele>
        <time>2012-01-08T08:11:37Z</time>
      </trkpt>
      <trkpt lat="47.35449" lon="-1.89315">
        <ele>-74</ele>
        <time>2012-01-08T08:11:39Z</time>
      </trkpt>
      <trkpt lat="47.35446" lon="-1.89309">
        <ele>-74</ele>
        <time>2012-01-08T08:11:41Z</time>
      </trkpt>
      <trkpt lat="47.35441" lon="-1.89307">
        <ele>-74</ele>
        <time>2012-01-08T08:11:43Z</time>
      </trkpt>
      <trkpt lat="47.35435" lon="-1.89309">
        <ele>-74</ele>
        <time>2012-01-08T08:11:45Z</time>
      </trkpt>
      <trkpt lat="47.35429" lon="-1.89313">
        <ele>-74</ele>
        <time>2012-01-08T08:11:47Z</time>
      </trkpt>
      <trkpt lat="47.35422" lon="-1.89316">
        <ele>-74</ele>
        <time>2012-01-08T08:11:49Z</time>
      </trkpt>
      <trkpt lat="47.35416" lon="-1.8932">
        <ele>-74</ele>
        <time>2012-01-08T08:11:51Z</time>
      </trkpt>
      <trkpt lat="47.35409" lon="-1.89325">
        <ele>-74</ele>
        <time>2012-01-08T08:11:53Z</time>
      </trkpt>
      <trkpt lat="47.354" lon="-1.89332">
        <ele>-74</ele>
        <time>2012-01-08T08:11:55Z</time>
      </trkpt>
      <trkpt lat="47.35393" lon="-1.89337">
        <ele>-74</ele>
        <time>2012-01-08T08:11:57Z</time>
      </trkpt>
      <trkpt lat="47.35386" lon="-1.89343">
        <ele>-74</ele>
        <time>2012-01-08T08:12:00Z</time>
      </trkpt>
      <trkpt lat="47.35379" lon="-1.89349">
        <ele>-74</ele>
        <time>2012-01-08T08:12:02Z</time>
      </trkpt>
      <trkpt lat="47.35373" lon="-1.89354">
        <ele>-74</ele>
        <time>2012-01-08T08:12:04Z</time>
      </trkpt>
      <trkpt lat="47.35367" lon="-1.8936">
        <ele>-74</ele>
        <time>2012-01-08T08:12:06Z</time>
      </trkpt>
      <trkpt lat="47.35361" lon="-1.89365">
        <ele>-74</ele>
        <time>2012-01-08T08:12:08Z</time>
      </trkpt>
      <trkpt lat="47.35355" lon="-1.8937">
        <ele>-74</ele>
        <time>2012-01-08T08:12:10Z</time>
      </trkpt>
      <trkpt lat="47.35348" lon="-1.89376">
        <ele>-75</ele>
        <time>2012-01-08T08:12:12Z</time>
      </trkpt>
      <trkpt lat="47.35342" lon="-1.89382">
        <ele>-75</ele>
        <time>2012-01-08T08:12:14Z</time>
      </trkpt>
      <trkpt lat="47.35331" lon="-1.89392">
        <ele>-75</ele>
        <time>2012-01-08T08:12:16Z</time>
      </trkpt>
      <trkpt lat="47.35324" lon="-1.89399">
        <ele>-76</ele>
        <time>2012-01-08T08:12:18Z</time>
      </trkpt>
      <trkpt lat="47.35316" lon="-1.89406">
        <ele>-76</ele>
        <time>2012-01-08T08:12:21Z</time>
      </trkpt>
      <trkpt lat="47.35309" lon="-1.89413">
        <ele>-76</ele>
        <time>2012-01-08T08:12:23Z</time>
      </trkpt>
      <trkpt lat="47.35303" lon="-1.89419">
        <ele>-76</ele>
        <time>2012-01-08T08:12:25Z</time>
      </trkpt>
      <trkpt lat="47.35296" lon="-1.89426">
        <ele>-76</ele>
        <time>2012-01-08T08:12:27Z</time>
      </trkpt>
      <trkpt lat="47.35289" lon="-1.89432">
        <ele>-76</ele>
        <time>2012-01-08T08:12:29Z</time>
      </trkpt>
      <trkpt lat="47.35282" lon="-1.89439">
        <ele>-76</ele>
        <time>2012-01-08T08:12:31Z</time>
      </trkpt>
      <trkpt lat="47.35275" lon="-1.89445">
        <ele>-76</ele>
        <time>2012-01-08T08:12:33Z</time>
      </trkpt>
      <trkpt lat="47.35268" lon="-1.89453">
        <ele>-76</ele>
        <time>2012-01-08T08:12:35Z</time>
      </trkpt>
      <trkpt lat="47.35262" lon="-1.89459">
        <ele>-77</ele>
        <time>2012-01-08T08:12:37Z</time>
      </trkpt>
      <trkpt lat="47.35255" lon="-1.89465">
        <ele>-77</ele>
        <time>2012-01-08T08:12:39Z</time>
      </trkpt>
      <trkpt lat="47.35249" lon="-1.89471">
        <ele>-77</ele>
        <time>2012-01-08T08:12:41Z</time>
      </trkpt>
      <trkpt lat="47.3524" lon="-1.89481">
        <ele>-77</ele>
        <time>2012-01-08T08:12:43Z</time>
      </trkpt>
      <trkpt lat="47.35236" lon="-1.89484">
        <ele>-78</ele>
        <time>2012-01-08T08:12:45Z</time>
      </trkpt>
      <trkpt lat="47.35226" lon="-1.89494">
        <ele>-78</ele>
        <time>2012-01-08T08:12:47Z</time>
      </trkpt>
      <trkpt lat="47.3522" lon="-1.895">
        <ele>-78</ele>
        <time>2012-01-08T08:12:49Z</time>
      </trkpt>
      <trkpt lat="47.35213" lon="-1.89506">
        <ele>-78</ele>
        <time>2012-01-08T08:12:51Z</time>
      </trkpt>
      <trkpt lat="47.35206" lon="-1.89513">
        <ele>-78</ele>
        <time>2012-01-08T08:12:53Z</time>
      </trkpt>
      <trkpt lat="47.35199" lon="-1.8952">
        <ele>-78</ele>
        <time>2012-01-08T08:12:56Z</time>
      </trkpt>
      <trkpt lat="47.35192" lon="-1.89527">
        <ele>-78</ele>
        <time>2012-01-08T08:12:58Z</time>
      </trkpt>
      <trkpt lat="47.35185" lon="-1.89534">
        <ele>-78</ele>
        <time>2012-01-08T08:13:00Z</time>
      </trkpt>
      <trkpt lat="47.35178" lon="-1.8954">
        <ele>-78</ele>
        <time>2012-01-08T08:13:02Z</time>
      </trkpt>
      <trkpt lat="47.35172" lon="-1.89545">
        <ele>-79</ele>
        <time>2012-01-08T08:13:04Z</time>
      </trkpt>
      <trkpt lat="47.35166" lon="-1.89548">
        <ele>-79</ele>
        <time>2012-01-08T08:13:06Z</time>
      </trkpt>
      <trkpt lat="47.35161" lon="-1.89553">
        <ele>-79</ele>
        <time>2012-01-08T08:13:08Z</time>
      </trkpt>
      <trkpt lat="47.3516" lon="-1.89555">
        <ele>-79</ele>
        <time>2012-01-08T08:13:11Z</time>
      </trkpt>
      <trkpt lat="47.3516" lon="-1.89565">
        <ele>-79</ele>
        <time>2012-01-08T08:13:13Z</time>
      </trkpt>
      <trkpt lat="47.35161" lon="-1.89573">
        <ele>-79</ele>
        <time>2012-01-08T08:13:15Z</time>
      </trkpt>
      <trkpt lat="47.35162" lon="-1.89582">
        <ele>-79</ele>
        <time>2012-01-08T08:13:17Z</time>
      </trkpt>
      <trkpt lat="47.35162" lon="-1.8959">
        <ele>-79</ele>
        <time>2012-01-08T08:13:19Z</time>
      </trkpt>
      <trkpt lat="47.35163" lon="-1.89599">
        <ele>-79</ele>
        <time>2012-01-08T08:13:21Z</time>
      </trkpt>
      <trkpt lat="47.35165" lon="-1.89608">
        <ele>-79</ele>
        <time>2012-01-08T08:13:23Z</time>
      </trkpt>
      <trkpt lat="47.35167" lon="-1.89618">
        <ele>-80</ele>
        <time>2012-01-08T08:13:25Z</time>
      </trkpt>
      <trkpt lat="47.35168" lon="-1.89628">
        <ele>-81</ele>
        <time>2012-01-08T08:13:27Z</time>
      </trkpt>
      <trkpt lat="47.3517" lon="-1.89638">
        <ele>-81</ele>
        <time>2012-01-08T08:13:29Z</time>
      </trkpt>
      <trkpt lat="47.35172" lon="-1.89648">
        <ele>-81</ele>
        <time>2012-01-08T08:13:31Z</time>
      </trkpt>
      <trkpt lat="47.35173" lon="-1.89658">
        <ele>-82</ele>
        <time>2012-01-08T08:13:33Z</time>
      </trkpt>
      <trkpt lat="47.35174" lon="-1.89668">
        <ele>-82</ele>
        <time>2012-01-08T08:13:35Z</time>
      </trkpt>
      <trkpt lat="47.35168" lon="-1.89677">
        <ele>-82</ele>
        <time>2012-01-08T08:13:37Z</time>
      </trkpt>
      <trkpt lat="47.35161" lon="-1.89678">
        <ele>-82</ele>
        <time>2012-01-08T08:13:40Z</time>
      </trkpt>
      <trkpt lat="47.35153" lon="-1.8968">
        <ele>-82</ele>
        <time>2012-01-08T08:13:42Z</time>
      </trkpt>
      <trkpt lat="47.35144" lon="-1.89682">
        <ele>-82</ele>
        <time>2012-01-08T08:13:44Z</time>
      </trkpt>
      <trkpt lat="47.35135" lon="-1.89684">
        <ele>-82</ele>
        <time>2012-01-08T08:13:46Z</time>
      </trkpt>
      <trkpt lat="47.35126" lon="-1.89686">
        <ele>-82</ele>
        <time>2012-01-08T08:13:48Z</time>
      </trkpt>
      <trkpt lat="47.35117" lon="-1.89687">
        <ele>-82</ele>
        <time>2012-01-08T08:13:50Z</time>
      </trkpt>
      <trkpt lat="47.35107" lon="-1.89688">
        <ele>-82</ele>
        <time>2012-01-08T08:13:52Z</time>
      </trkpt>
      <trkpt lat="47.35098" lon="-1.89689">
        <ele>-82</ele>
        <time>2012-01-08T08:13:54Z</time>
      </trkpt>
      <trkpt lat="47.35088" lon="-1.89689">
        <ele>-82</ele>
        <time>2012-01-08T08:13:56Z</time>
      </trkpt>
      <trkpt lat="47.35079" lon="-1.89688">
        <ele>-82</ele>
        <time>2012-01-08T08:13:58Z</time>
      </trkpt>
      <trkpt lat="47.35065" lon="-1.89687">
        <ele>-82</ele>
        <time>2012-01-08T08:14:00Z</time>
      </trkpt>
      <trkpt lat="47.35055" lon="-1.89687">
        <ele>-82</ele>
        <time>2012-01-08T08:14:03Z</time>
      </trkpt>
      <trkpt lat="47.35046" lon="-1.89686">
        <ele>-81</ele>
        <time>2012-01-08T08:14:05Z</time>
      </trkpt>
      <trkpt lat="47.35037" lon="-1.89685">
        <ele>-81</ele>
        <time>2012-01-08T08:14:07Z</time>
      </trkpt>
      <trkpt lat="47.35029" lon="-1.89685">
        <ele>-81</ele>
        <time>2012-01-08T08:14:09Z</time>
      </trkpt>
      <trkpt lat="47.35019" lon="-1.89685">
        <ele>-81</ele>
        <time>2012-01-08T08:14:11Z</time>
      </trkpt>
      <trkpt lat="47.3501" lon="-1.89686">
        <ele>-81</ele>
        <time>2012-01-08T08:14:13Z</time>
      </trkpt>
      <trkpt lat="47.35" lon="-1.89688">
        <ele>-82</ele>
        <time>2012-01-08T08:14:15Z</time>
      </trkpt>
      <trkpt lat="47.34987" lon="-1.89697">
        <ele>-82</ele>
        <time>2012-01-08T08:14:17Z</time>
      </trkpt>
      <trkpt lat="47.34978" lon="-1.89705">
        <ele>-82</ele>
        <time>2012-01-08T08:14:19Z</time>
      </trkpt>
      <trkpt lat="47.34969" lon="-1.89713">
        <ele>-82</ele>
        <time>2012-01-08T08:14:21Z</time>
      </trkpt>
      <trkpt lat="47.3496" lon="-1.89721">
        <ele>-82</ele>
        <time>2012-01-08T08:14:23Z</time>
      </trkpt>
      <trkpt lat="47.34952" lon="-1.89729">
        <ele>-82</ele>
        <time>2012-01-08T08:14:26Z</time>
      </trkpt>
      <trkpt lat="47.34944" lon="-1.89738">
        <ele>-83</ele>
        <time>2012-01-08T08:14:28Z</time>
      </trkpt>
      <trkpt lat="47.34938" lon="-1.89745">
        <ele>-83</ele>
        <time>2012-01-08T08:14:30Z</time>
      </trkpt>
      <trkpt lat="47.34932" lon="-1.89751">
        <ele>-84</ele>
        <time>2012-01-08T08:14:32Z</time>
      </trkpt>
      <trkpt lat="47.34925" lon="-1.89758">
        <ele>-84</ele>
        <time>2012-01-08T08:14:34Z</time>
      </trkpt>
      <trkpt lat="47.34919" lon="-1.89765">
        <ele>-84</ele>
        <time>2012-01-08T08:14:36Z</time>
      </trkpt>
      <trkpt lat="47.34912" lon="-1.89771">
        <ele>-84</ele>
        <time>2012-01-08T08:14:38Z</time>
      </trkpt>
      <trkpt lat="47.34906" lon="-1.89777">
        <ele>-84</ele>
        <time>2012-01-08T08:14:40Z</time>
      </trkpt>
      <trkpt lat="47.349" lon="-1.89783">
        <ele>-84</ele>
        <time>2012-01-08T08:14:42Z</time>
      </trkpt>
      <trkpt lat="47.34895" lon="-1.89788">
        <ele>-84</ele>
        <time>2012-01-08T08:14:44Z</time>
      </trkpt>
      <trkpt lat="47.3489" lon="-1.89794">
        <ele>-84</ele>
        <time>2012-01-08T08:14:46Z</time>
      </trkpt>
      <trkpt lat="47.34887" lon="-1.89797">
        <ele>-85</ele>
        <time>2012-01-08T08:14:48Z</time>
      </trkpt>
      <trkpt lat="47.34887" lon="-1.89797">
        <ele>-85</ele>
        <time>2012-01-08T08:14:50Z</time>
      </trkpt>
      <trkpt lat="47.34887" lon="-1.89798">
        <ele>-85</ele>
        <time>2012-01-08T08:14:52Z</time>
      </trkpt>
      <trkpt lat="47.34887" lon="-1.89798">
        <ele>-85</ele>
        <time>2012-01-08T08:14:54Z</time>
      </trkpt>
      <trkpt lat="47.34886" lon="-1.89798">
        <ele>-85</ele>
        <time>2012-01-08T08:14:57Z</time>
      </trkpt>
      <trkpt lat="47.34886" lon="-1.89799">
        <ele>-85</ele>
        <time>2012-01-08T08:14:59Z</time>
      </trkpt>
      <trkpt lat="47.34835" lon="-1.89955">
        <ele>-89</ele>
        <time>2012-01-08T08:15:01Z</time>
      </trkpt>
      <trkpt lat="47.34829" lon="-1.89963">
        <ele>-88</ele>
        <time>2012-01-08T08:15:03Z</time>
      </trkpt>
      <trkpt lat="47.34824" lon="-1.89974">
        <ele>-88</ele>
        <time>2012-01-08T08:15:05Z</time>
      </trkpt>
      <trkpt lat="47.34819" lon="-1.89986">
        <ele>-88</ele>
        <time>2012-01-08T08:15:07Z</time>
      </trkpt>
      <trkpt lat="47.34814" lon="-1.89998">
        <ele>-86</ele>
        <time>2012-01-08T08:15:09Z</time>
      </trkpt>
      <trkpt lat="47.34809" lon="-1.90008">
        <ele>-86</ele>
        <time>2012-01-08T08:15:11Z</time>
      </trkpt>
      <trkpt lat="47.34802" lon="-1.90019">
        <ele>-86</ele>
        <time>2012-01-08T08:15:13Z</time>
      </trkpt>
      <trkpt lat="47.34795" lon="-1.90029">
        <ele>-86</ele>
        <time>2012-01-08T08:15:15Z</time>
      </trkpt>
      <trkpt lat="47.34787" lon="-1.90037">
        <ele>-86</ele>
        <time>2012-01-08T08:15:18Z</time>
      </trkpt>
      <trkpt lat="47.34779" lon="-1.90045">
        <ele>-87</ele>
        <time>2012-01-08T08:15:20Z</time>
      </trkpt>
      <trkpt lat="47.34775" lon="-1.90055">
        <ele>-87</ele>
        <time>2012-01-08T08:15:22Z</time>
      </trkpt>
      <trkpt lat="47.34779" lon="-1.90071">
        <ele>-87</ele>
        <time>2012-01-08T08:15:24Z</time>
      </trkpt>
      <trkpt lat="47.34782" lon="-1.90083">
        <ele>-87</ele>
        <time>2012-01-08T08:15:26Z</time>
      </trkpt>
      <trkpt lat="47.34785" lon="-1.90096">
        <ele>-87</ele>
        <time>2012-01-08T08:15:28Z</time>
      </trkpt>
      <trkpt lat="47.34788" lon="-1.90109">
        <ele>-88</ele>
        <time>2012-01-08T08:15:30Z</time>
      </trkpt>
      <trkpt lat="47.34791" lon="-1.90122">
        <ele>-88</ele>
        <time>2012-01-08T08:15:32Z</time>
      </trkpt>
      <trkpt lat="47.34796" lon="-1.90134">
        <ele>-88</ele>
        <time>2012-01-08T08:15:34Z</time>
      </trkpt>
      <trkpt lat="47.34802" lon="-1.90144">
        <ele>-88</ele>
        <time>2012-01-08T08:15:36Z</time>
      </trkpt>
      <trkpt lat="47.34808" lon="-1.90154">
        <ele>-88</ele>
        <time>2012-01-08T08:15:38Z</time>
      </trkpt>
      <trkpt lat="47.34814" lon="-1.90164">
        <ele>-88</ele>
        <time>2012-01-08T08:15:41Z</time>
      </trkpt>
      <trkpt lat="47.34823" lon="-1.90179">
        <ele>-88</ele>
        <time>2012-01-08T08:15:43Z</time>
      </trkpt>
      <trkpt lat="47.34829" lon="-1.90189">
        <ele>-89</ele>
        <time>2012-01-08T08:15:45Z</time>
      </trkpt>
      <trkpt lat="47.34833" lon="-1.902">
        <ele>-89</ele>
        <time>2012-01-08T08:15:47Z</time>
      </trkpt>
      <trkpt lat="47.34838" lon="-1.90211">
        <ele>-89</ele>
        <time>2012-01-08T08:15:49Z</time>
      </trkpt>
      <trkpt lat="47.34842" lon="-1.90222">
        <ele>-89</ele>
        <time>2012-01-08T08:15:51Z</time>
      </trkpt>
      <trkpt lat="47.34847" lon="-1.90233">
        <ele>-90</ele>
        <time>2012-01-08T08:15:53Z</time>
      </trkpt>
      <trkpt lat="47.34851" lon="-1.90246">
        <ele>-90</ele>
        <time>2012-01-08T08:15:55Z</time>
      </trkpt>
      <trkpt lat="47.34852" lon="-1.90257">
        <ele>-91</ele>
        <time>2012-01-08T08:15:57Z</time>
      </trkpt>
      <trkpt lat="47.34855" lon="-1.90266">
        <ele>-92</ele>
        <time>2012-01-08T08:15:59Z</time>
      </trkpt>
      <trkpt lat="47.34858" lon="-1.90276">
        <ele>-92</ele>
        <time>2012-01-08T08:16:01Z</time>
      </trkpt>
      <trkpt lat="47.34858" lon="-1.90286">
        <ele>-93</ele>
        <time>2012-01-08T08:16:04Z</time>
      </trkpt>
      <trkpt lat="47.34858" lon="-1.90296">
        <ele>-94</ele>
        <time>2012-01-08T08:16:06Z</time>
      </trkpt>
      <trkpt lat="47.34858" lon="-1.90307">
        <ele>-95</ele>
        <time>2012-01-08T08:16:08Z</time>
      </trkpt>
      <trkpt lat="47.34859" lon="-1.90314">
        <ele>-95</ele>
        <time>2012-01-08T08:16:10Z</time>
      </trkpt>
      <trkpt lat="47.34857" lon="-1.90318">
        <ele>-96</ele>
        <time>2012-01-08T08:16:12Z</time>
      </trkpt>
      <trkpt lat="47.34854" lon="-1.90322">
        <ele>-96</ele>
        <time>2012-01-08T08:16:14Z</time>
      </trkpt>
      <trkpt lat="47.34848" lon="-1.90328">
        <ele>-96</ele>
        <time>2012-01-08T08:16:16Z</time>
      </trkpt>
      <trkpt lat="47.34843" lon="-1.90335">
        <ele>-96</ele>
        <time>2012-01-08T08:16:18Z</time>
      </trkpt>
      <trkpt lat="47.34839" lon="-1.90344">
        <ele>-96</ele>
        <time>2012-01-08T08:16:20Z</time>
      </trkpt>
      <trkpt lat="47.34833" lon="-1.90351">
        <ele>-96</ele>
        <time>2012-01-08T08:16:23Z</time>
      </trkpt>
      <trkpt lat="47.34827" lon="-1.90356">
        <ele>-96</ele>
        <time>2012-01-08T08:16:25Z</time>
      </trkpt>
      <trkpt lat="47.34821" lon="-1.90368">
        <ele>-97</ele>
        <time>2012-01-08T08:16:27Z</time>
      </trkpt>
      <trkpt lat="47.34819" lon="-1.90372">
        <ele>-97</ele>
        <time>2012-01-08T08:16:29Z</time>
      </trkpt>
      <trkpt lat="47.34815" lon="-1.90377">
        <ele>-97</ele>
        <time>2012-01-08T08:16:31Z</time>
      </trkpt>
      <trkpt lat="47.3481" lon="-1.90383">
        <ele>-97</ele>
        <time>2012-01-08T08:16:33Z</time>
      </trkpt>
      <trkpt lat="47.34802" lon="-1.90389">
        <ele>-97</ele>
        <time>2012-01-08T08:16:35Z</time>
      </trkpt>
      <trkpt lat="47.34793" lon="-1.90395">
        <ele>-97</ele>
        <time>2012-01-08T08:16:37Z</time>
      </trkpt>
      <trkpt lat="47.34786" lon="-1.90403">
        <ele>-97</ele>
        <time>2012-01-08T08:16:39Z</time>
      </trkpt>
      <trkpt lat="47.34779" lon="-1.90409">
        <ele>-97</ele>
        <time>2012-01-08T08:16:41Z</time>
      </trkpt>
      <trkpt lat="47.34773" lon="-1.90415">
        <ele>-97</ele>
        <time>2012-01-08T08:16:43Z</time>
      </trkpt>
      <trkpt lat="47.3477" lon="-1.9042">
        <ele>-98</ele>
        <time>2012-01-08T08:16:45Z</time>
      </trkpt>
      <trkpt lat="47.34766" lon="-1.90423">
        <ele>-98</ele>
        <time>2012-01-08T08:16:47Z</time>
      </trkpt>
      <trkpt lat="47.34762" lon="-1.90425">
        <ele>-99</ele>
        <time>2012-01-08T08:16:50Z</time>
      </trkpt>
      <trkpt lat="47.34759" lon="-1.90429">
        <ele>-99</ele>
        <time>2012-01-08T08:16:52Z</time>
      </trkpt>
      <trkpt lat="47.34757" lon="-1.90432">
        <ele>-100</ele>
        <time>2012-01-08T08:16:54Z</time>
      </trkpt>
      <trkpt lat="47.34755" lon="-1.90436">
        <ele>-100</ele>
        <time>2012-01-08T08:16:56Z</time>
      </trkpt>
      <trkpt lat="47.34753" lon="-1.90438">
        <ele>-100</ele>
        <time>2012-01-08T08:16:58Z</time>
      </trkpt>
      <trkpt lat="47.3475" lon="-1.90441">
        <ele>-100</ele>
        <time>2012-01-08T08:17:00Z</time>
      </trkpt>
      <trkpt lat="47.34748" lon="-1.90444">
        <ele>-100</ele>
        <time>2012-01-08T08:17:02Z</time>
      </trkpt>
      <trkpt lat="47.34745" lon="-1.90447">
        <ele>-100</ele>
        <time>2012-01-08T08:17:04Z</time>
      </trkpt>
      <trkpt lat="47.34742" lon="-1.90451">
        <ele>-100</ele>
        <time>2012-01-08T08:17:06Z</time>
      </trkpt>
      <trkpt lat="47.3474" lon="-1.90454">
        <ele>-100</ele>
        <time>2012-01-08T08:17:08Z</time>
      </trkpt>
      <trkpt lat="47.34738" lon="-1.90457">
        <ele>-100</ele>
        <time>2012-01-08T08:17:10Z</time>
      </trkpt>
      <trkpt lat="47.34736" lon="-1.9046">
        <ele>-101</ele>
        <time>2012-01-08T08:17:12Z</time>
      </trkpt>
      <trkpt lat="47.34734" lon="-1.90463">
        <ele>-100</ele>
        <time>2012-01-08T08:17:14Z</time>
      </trkpt>
      <trkpt lat="47.34732" lon="-1.90466">
        <ele>-100</ele>
        <time>2012-01-08T08:17:17Z</time>
      </trkpt>
      <trkpt lat="47.34729" lon="-1.90471">
        <ele>-100</ele>
        <time>2012-01-08T08:17:19Z</time>
      </trkpt>
      <trkpt lat="47.34727" lon="-1.90474">
        <ele>-100</ele>
        <time>2012-01-08T08:17:21Z</time>
      </trkpt>
      <trkpt lat="47.34726" lon="-1.90478">
        <ele>-100</ele>
        <time>2012-01-08T08:17:23Z</time>
      </trkpt>
      <trkpt lat="47.34725" lon="-1.90483">
        <ele>-101</ele>
        <time>2012-01-08T08:17:25Z</time>
      </trkpt>
      <trkpt lat="47.34724" lon="-1.90487">
        <ele>-101</ele>
        <time>2012-01-08T08:17:27Z</time>
      </trkpt>
      <trkpt lat="47.34723" lon="-1.90491">
        <ele>-100</ele>
        <time>2012-01-08T08:17:29Z</time>
      </trkpt>
      <trkpt lat="47.34721" lon="-1.90495">
        <ele>-101</ele>
        <time>2012-01-08T08:17:31Z</time>
      </trkpt>
      <trkpt lat="47.3472" lon="-1.90499">
        <ele>-101</ele>
        <time>2012-01-08T08:17:33Z</time>
      </trkpt>
      <trkpt lat="47.34718" lon="-1.90504">
        <ele>-101</ele>
        <time>2012-01-08T08:17:35Z</time>
      </trkpt>
      <trkpt lat="47.34716" lon="-1.90508">
        <ele>-101</ele>
        <time>2012-01-08T08:17:37Z</time>
      </trkpt>
      <trkpt lat="47.34713" lon="-1.90513">
        <ele>-101</ele>
        <time>2012-01-08T08:17:39Z</time>
      </trkpt>
      <trkpt lat="47.34711" lon="-1.90516">
        <ele>-101</ele>
        <time>2012-01-08T08:17:42Z</time>
      </trkpt>
      <trkpt lat="47.34708" lon="-1.90522">
        <ele>-101</ele>
        <time>2012-01-08T08:17:44Z</time>
      </trkpt>
      <trkpt lat="47.34705" lon="-1.90526">
        <ele>-101</ele>
        <time>2012-01-08T08:17:46Z</time>
      </trkpt>
      <trkpt lat="47.34703" lon="-1.9053">
        <ele>-101</ele>
        <time>2012-01-08T08:17:48Z</time>
      </trkpt>
      <trkpt lat="47.34699" lon="-1.90535">
        <ele>-102</ele>
        <time>2012-01-08T08:17:50Z</time>
      </trkpt>
      <trkpt lat="47.34697" lon="-1.9054">
        <ele>-102</ele>
        <time>2012-01-08T08:17:52Z</time>
      </trkpt>
      <trkpt lat="47.34692" lon="-1.90544">
        <ele>-102</ele>
        <time>2012-01-08T08:17:54Z</time>
      </trkpt>
      <trkpt lat="47.3469" lon="-1.90547">
        <ele>-102</ele>
        <time>2012-01-08T08:17:56Z</time>
      </trkpt>
      <trkpt lat="47.34689" lon="-1.90548">
        <ele>-102</ele>
        <time>2012-01-08T08:17:58Z</time>
      </trkpt>
      <trkpt lat="47.34688" lon="-1.9055">
        <ele>-102</ele>
        <time>2012-01-08T08:18:00Z</time>
      </trkpt>
      <trkpt lat="47.34686" lon="-1.90552">
        <ele>-101</ele>
        <time>2012-01-08T08:18:02Z</time>
      </trkpt>
      <trkpt lat="47.34682" lon="-1.90555">
        <ele>-101</ele>
        <time>2012-01-08T08:18:04Z</time>
      </trkpt>
      <trkpt lat="47.34678" lon="-1.90557">
        <ele>-101</ele>
        <time>2012-01-08T08:18:06Z</time>
      </trkpt>
      <trkpt lat="47.34672" lon="-1.90561">
        <ele>-101</ele>
        <time>2012-01-08T08:18:08Z</time>
      </trkpt>
      <trkpt lat="47.34666" lon="-1.90566">
        <ele>-101</ele>
        <time>2012-01-08T08:18:10Z</time>
      </trkpt>
      <trkpt lat="47.34661" lon="-1.90571">
        <ele>-101</ele>
        <time>2012-01-08T08:18:12Z</time>
      </trkpt>
      <trkpt lat="47.34657" lon="-1.90577">
        <ele>-101</ele>
        <time>2012-01-08T08:18:15Z</time>
      </trkpt>
      <trkpt lat="47.3465" lon="-1.90587">
        <ele>-101</ele>
        <time>2012-01-08T08:18:17Z</time>
      </trkpt>
      <trkpt lat="47.34645" lon="-1.90595">
        <ele>-101</ele>
        <time>2012-01-08T08:18:19Z</time>
      </trkpt>
      <trkpt lat="47.34641" lon="-1.90602">
        <ele>-101</ele>
        <time>2012-01-08T08:18:21Z</time>
      </trkpt>
      <trkpt lat="47.34635" lon="-1.90611">
        <ele>-101</ele>
        <time>2012-01-08T08:18:23Z</time>
      </trkpt>
      <trkpt lat="47.34629" lon="-1.90619">
        <ele>-102</ele>
        <time>2012-01-08T08:18:25Z</time>
      </trkpt>
      <trkpt lat="47.34622" lon="-1.90626">
        <ele>-102</ele>
        <time>2012-01-08T08:18:27Z</time>
      </trkpt>
      <trkpt lat="47.34615" lon="-1.90637">
        <ele>-103</ele>
        <time>2012-01-08T08:18:29Z</time>
      </trkpt>
      <trkpt lat="47.34607" lon="-1.90647">
        <ele>-103</ele>
        <time>2012-01-08T08:18:31Z</time>
      </trkpt>
      <trkpt lat="47.34602" lon="-1.90654">
        <ele>-104</ele>
        <time>2012-01-08T08:18:33Z</time>
      </trkpt>
      <trkpt lat="47.34599" lon="-1.90658">
        <ele>-105</ele>
        <time>2012-01-08T08:18:35Z</time>
      </trkpt>
      <trkpt lat="47.34597" lon="-1.90661">
        <ele>-106</ele>
        <time>2012-01-08T08:18:37Z</time>
      </trkpt>
      <trkpt lat="47.34596" lon="-1.90663">
        <ele>-107</ele>
        <time>2012-01-08T08:18:39Z</time>
      </trkpt>
      <trkpt lat="47.34594" lon="-1.90665">
        <ele>-107</ele>
        <time>2012-01-08T08:18:42Z</time>
      </trkpt>
      <trkpt lat="47.34591" lon="-1.9067">
        <ele>-107</ele>
        <time>2012-01-08T08:18:44Z</time>
      </trkpt>
      <trkpt lat="47.34585" lon="-1.9068">
        <ele>-108</ele>
        <time>2012-01-08T08:18:46Z</time>
      </trkpt>
      <trkpt lat="47.34581" lon="-1.90685">
        <ele>-108</ele>
        <time>2012-01-08T08:18:48Z</time>
      </trkpt>
      <trkpt lat="47.34576" lon="-1.90692">
        <ele>-108</ele>
        <time>2012-01-08T08:18:50Z</time>
      </trkpt>
      <trkpt lat="47.34572" lon="-1.90699">
        <ele>-109</ele>
        <time>2012-01-08T08:18:52Z</time>
      </trkpt>
      <trkpt lat="47.34568" lon="-1.90708">
        <ele>-109</ele>
        <time>2012-01-08T08:18:54Z</time>
      </trkpt>
      <trkpt lat="47.34563" lon="-1.90717">
        <ele>-110</ele>
        <time>2012-01-08T08:18:56Z</time>
      </trkpt>
      <trkpt lat="47.34558" lon="-1.90725">
        <ele>-110</ele>
        <time>2012-01-08T08:18:58Z</time>
      </trkpt>
      <trkpt lat="47.34553" lon="-1.90735">
        <ele>-110</ele>
        <time>2012-01-08T08:19:00Z</time>
      </trkpt>
      <trkpt lat="47.34546" lon="-1.90745">
        <ele>-110</ele>
        <time>2012-01-08T08:19:03Z</time>
      </trkpt>
      <trkpt lat="47.34535" lon="-1.90749">
        <ele>-110</ele>
        <time>2012-01-08T08:19:05Z</time>
      </trkpt>
      <trkpt lat="47.34528" lon="-1.9075">
        <ele>-111</ele>
        <time>2012-01-08T08:19:07Z</time>
      </trkpt>
      <trkpt lat="47.3452" lon="-1.90751">
        <ele>-111</ele>
        <time>2012-01-08T08:19:09Z</time>
      </trkpt>
      <trkpt lat="47.34512" lon="-1.90753">
        <ele>-111</ele>
        <time>2012-01-08T08:19:11Z</time>
      </trkpt>
      <trkpt lat="47.34505" lon="-1.90755">
        <ele>-111</ele>
        <time>2012-01-08T08:19:13Z</time>
      </trkpt>
      <trkpt lat="47.34495" lon="-1.90757">
        <ele>-111</ele>
        <time>2012-01-08T08:19:15Z</time>
      </trkpt>
      <trkpt lat="47.34483" lon="-1.90761">
        <ele>-112</ele>
        <time>2012-01-08T08:19:17Z</time>
      </trkpt>
      <trkpt lat="47.34471" lon="-1.90764">
        <ele>-113</ele>
        <time>2012-01-08T08:19:19Z</time>
      </trkpt>
      <trkpt lat="47.34452" lon="-1.90769">
        <ele>-114</ele>
        <time>2012-01-08T08:19:22Z</time>
      </trkpt>
      <trkpt lat="47.34442" lon="-1.90771">
        <ele>-114</ele>
        <time>2012-01-08T08:19:24Z</time>
      </trkpt>
      <trkpt lat="47.34433" lon="-1.90773">
        <ele>-115</ele>
        <time>2012-01-08T08:19:26Z</time>
      </trkpt>
      <trkpt lat="47.34425" lon="-1.90777">
        <ele>-115</ele>
        <time>2012-01-08T08:19:28Z</time>
      </trkpt>
      <trkpt lat="47.34416" lon="-1.90784">
        <ele>-115</ele>
        <time>2012-01-08T08:19:30Z</time>
      </trkpt>
      <trkpt lat="47.34407" lon="-1.90793">
        <ele>-116</ele>
        <time>2012-01-08T08:19:32Z</time>
      </trkpt>
      <trkpt lat="47.34401" lon="-1.90801">
        <ele>-117</ele>
        <time>2012-01-08T08:19:34Z</time>
      </trkpt>
      <trkpt lat="47.34393" lon="-1.90808">
        <ele>-118</ele>
        <time>2012-01-08T08:19:36Z</time>
      </trkpt>
      <trkpt lat="47.34386" lon="-1.90817">
        <ele>-118</ele>
        <time>2012-01-08T08:19:39Z</time>
      </trkpt>
      <trkpt lat="47.34382" lon="-1.90822">
        <ele>-119</ele>
        <time>2012-01-08T08:19:41Z</time>
      </trkpt>
      <trkpt lat="47.34377" lon="-1.90827">
        <ele>-119</ele>
        <time>2012-01-08T08:19:43Z</time>
      </trkpt>
      <trkpt lat="47.34372" lon="-1.90833">
        <ele>-120</ele>
        <time>2012-01-08T08:19:45Z</time>
      </trkpt>
      <trkpt lat="47.34367" lon="-1.90839">
        <ele>-120</ele>
        <time>2012-01-08T08:19:47Z</time>
      </trkpt>
      <trkpt lat="47.34362" lon="-1.90847">
        <ele>-121</ele>
        <time>2012-01-08T08:19:49Z</time>
      </trkpt>
      <trkpt lat="47.34355" lon="-1.90857">
        <ele>-122</ele>
        <time>2012-01-08T08:19:51Z</time>
      </trkpt>
      <trkpt lat="47.34344" lon="-1.90868">
        <ele>-122</ele>
        <time>2012-01-08T08:19:53Z</time>
      </trkpt>
      <trkpt lat="47.34332" lon="-1.9088">
        <ele>-123</ele>
        <time>2012-01-08T08:19:56Z</time>
      </trkpt>
      <trkpt lat="47.34319" lon="-1.90893">
        <ele>-125</ele>
        <time>2012-01-08T08:19:58Z</time>
      </trkpt>
      <trkpt lat="47.343" lon="-1.90912">
        <ele>-126</ele>
        <time>2012-01-08T08:20:00Z</time>
      </trkpt>
      <trkpt lat="47.34289" lon="-1.90923">
        <ele>-127</ele>
        <time>2012-01-08T08:20:02Z</time>
      </trkpt>
      <trkpt lat="47.34279" lon="-1.90934">
        <ele>-127</ele>
        <time>2012-01-08T08:20:04Z</time>
      </trkpt>
      <trkpt lat="47.3427" lon="-1.90943">
        <ele>-127</ele>
        <time>2012-01-08T08:20:06Z</time>
      </trkpt>
      <trkpt lat="47.34261" lon="-1.90952">
        <ele>-128</ele>
        <time>2012-01-08T08:20:08Z</time>
      </trkpt>
      <trkpt lat="47.34252" lon="-1.90959">
        <ele>-129</ele>
        <time>2012-01-08T08:20:10Z</time>
      </trkpt>
      <trkpt lat="47.34247" lon="-1.90964">
        <ele>-129</ele>
        <time>2012-01-08T08:20:12Z</time>
      </trkpt>
      <trkpt lat="47.34243" lon="-1.90969">
        <ele>-130</ele>
        <time>2012-01-08T08:20:14Z</time>
      </trkpt>
      <trkpt lat="47.34241" lon="-1.90979">
        <ele>-131</ele>
        <time>2012-01-08T08:20:17Z</time>
      </trkpt>
      <trkpt lat="47.34233" lon="-1.90997">
        <ele>-132</ele>
        <time>2012-01-08T08:20:19Z</time>
      </trkpt>
      <trkpt lat="47.34228" lon="-1.91007">
        <ele>-133</ele>
        <time>2012-01-08T08:20:21Z</time>
      </trkpt>
      <trkpt lat="47.34221" lon="-1.91019">
        <ele>-133</ele>
        <time>2012-01-08T08:20:23Z</time>
      </trkpt>
      <trkpt lat="47.34214" lon="-1.91026">
        <ele>-135</ele>
        <time>2012-01-08T08:20:25Z</time>
      </trkpt>
      <trkpt lat="47.34209" lon="-1.91029">
        <ele>-136</ele>
        <time>2012-01-08T08:20:27Z</time>
      </trkpt>
      <trkpt lat="47.34206" lon="-1.91025">
        <ele>-136</ele>
        <time>2012-01-08T08:20:29Z</time>
      </trkpt>
      <trkpt lat="47.34202" lon="-1.91021">
        <ele>-136</ele>
        <time>2012-01-08T08:20:31Z</time>
      </trkpt>
      <trkpt lat="47.34198" lon="-1.91016">
        <ele>-136</ele>
        <time>2012-01-08T08:20:33Z</time>
      </trkpt>
      <trkpt lat="47.34195" lon="-1.91012">
        <ele>-135</ele>
        <time>2012-01-08T08:20:35Z</time>
      </trkpt>
      <trkpt lat="47.34193" lon="-1.91008">
        <ele>-135</ele>
        <time>2012-01-08T08:20:38Z</time>
      </trkpt>
      <trkpt lat="47.34189" lon="-1.91003">
        <ele>-135</ele>
        <time>2012-01-08T08:20:40Z</time>
      </trkpt>
      <trkpt lat="47.34189" lon="-1.91004">
        <ele>-135</ele>
        <time>2012-01-08T08:20:42Z</time>
      </trkpt>
      <trkpt lat="47.34188" lon="-1.91004">
        <ele>-135</ele>
        <time>2012-01-08T08:20:44Z</time>
      </trkpt>
      <trkpt lat="47.34187" lon="-1.91004">
        <ele>-135</ele>
        <time>2012-01-08T08:20:46Z</time>
      </trkpt>
      <trkpt lat="47.34187" lon="-1.91005">
        <ele>-135</ele>
        <time>2012-01-08T08:20:48Z</time>
      </trkpt>
      <trkpt lat="47.34187" lon="-1.91006">
        <ele>-135</ele>
        <time>2012-01-08T08:20:50Z</time>
      </trkpt>
      <trkpt lat="47.34187" lon="-1.91007">
        <ele>-135</ele>
        <time>2012-01-08T08:20:52Z</time>
      </trkpt>
      <trkpt lat="47.34187" lon="-1.91007">
        <ele>-135</ele>
        <time>2012-01-08T08:20:55Z</time>
      </trkpt>
      <trkpt lat="47.34187" lon="-1.91007">
        <ele>-135</ele>
        <time>2012-01-08T08:20:57Z</time>
      </trkpt>
      <trkpt lat="47.34187" lon="-1.91007">
        <ele>-134</ele>
        <time>2012-01-08T08:20:59Z</time>
      </trkpt>
      <trkpt lat="47.34187" lon="-1.91007">
        <ele>-134</ele>
        <time>2012-01-08T08:21:01Z</time>
      </trkpt>
      <trkpt lat="47.34187" lon="-1.91008">
        <ele>-135</ele>
        <time>2012-01-08T08:21:03Z</time>
      </trkpt>
      <trkpt lat="47.34187" lon="-1.9101">
        <ele>-134</ele>
        <time>2012-01-08T08:21:05Z</time>
      </trkpt>
      <trkpt lat="47.34189" lon="-1.91014">
        <ele>-135</ele>
        <time>2012-01-08T08:21:07Z</time>
      </trkpt>
      <trkpt lat="47.34191" lon="-1.91019">
        <ele>-135</ele>
        <time>2012-01-08T08:21:09Z</time>
      </trkpt>
      <trkpt lat="47.34193" lon="-1.91023">
        <ele>-135</ele>
        <time>2012-01-08T08:21:11Z</time>
      </trkpt>
      <trkpt lat="47.34195" lon="-1.91027">
        <ele>-135</ele>
        <time>2012-01-08T08:21:13Z</time>
      </trkpt>
      <trkpt lat="47.34196" lon="-1.91033">
        <ele>-135</ele>
        <time>2012-01-08T08:21:15Z</time>
      </trkpt>
      <trkpt lat="47.34199" lon="-1.9104">
        <ele>-135</ele>
        <time>2012-01-08T08:21:18Z</time>
      </trkpt>
      <trkpt lat="47.342" lon="-1.91044">
        <ele>-135</ele>
        <time>2012-01-08T08:21:20Z</time>
      </trkpt>
      <trkpt lat="47.342" lon="-1.91044">
        <ele>-136</ele>
        <time>2012-01-08T08:21:22Z</time>
      </trkpt>
      <trkpt lat="47.342" lon="-1.91045">
        <ele>-137</ele>
        <time>2012-01-08T08:21:24Z</time>
      </trkpt>
      <trkpt lat="47.342" lon="-1.91045">
        <ele>-137</ele>
        <time>2012-01-08T08:21:26Z</time>
      </trkpt>
      <trkpt lat="47.342" lon="-1.91045">
        <ele>-137</ele>
        <time>2012-01-08T08:21:28Z</time>
      </trkpt>
      <trkpt lat="47.34201" lon="-1.91046">
        <ele>-137</ele>
        <time>2012-01-08T08:21:30Z</time>
      </trkpt>
      <trkpt lat="47.34201" lon="-1.91046">
        <ele>-137</ele>
        <time>2012-01-08T08:21:32Z</time>
      </trkpt>
      <trkpt lat="47.34201" lon="-1.91046">
        <ele>-137</ele>
        <time>2012-01-08T08:21:34Z</time>
      </trkpt>
      <trkpt lat="47.34202" lon="-1.91047">
        <ele>-137</ele>
        <time>2012-01-08T08:21:36Z</time>
      </trkpt>
      <trkpt lat="47.34202" lon="-1.91047">
        <ele>-137</ele>
        <time>2012-01-08T08:21:38Z</time>
      </trkpt>
      <trkpt lat="47.34203" lon="-1.91047">
        <ele>-137</ele>
        <time>2012-01-08T08:21:40Z</time>
      </trkpt>
      <trkpt lat="47.34203" lon="-1.91048">
        <ele>-137</ele>
        <time>2012-01-08T08:21:42Z</time>
      </trkpt>
      <trkpt lat="47.34203" lon="-1.91048">
        <ele>-137</ele>
        <time>2012-01-08T08:21:44Z</time>
      </trkpt>
      <trkpt lat="47.34203" lon="-1.91048">
        <ele>-138</ele>
        <time>2012-01-08T08:21:46Z</time>
      </trkpt>
      <trkpt lat="47.34203" lon="-1.91048">
        <ele>-138</ele>
        <time>2012-01-08T08:21:48Z</time>
      </trkpt>
      <trkpt lat="47.34204" lon="-1.91048">
        <ele>-138</ele>
        <time>2012-01-08T08:21:51Z</time>
      </trkpt>
      <trkpt lat="47.34204" lon="-1.91048">
        <ele>-137</ele>
        <time>2012-01-08T08:21:53Z</time>
      </trkpt>
      <trkpt lat="47.34204" lon="-1.91049">
        <ele>-136</ele>
        <time>2012-01-08T08:21:55Z</time>
      </trkpt>
      <trkpt lat="47.34204" lon="-1.91049">
        <ele>-136</ele>
        <time>2012-01-08T08:21:57Z</time>
      </trkpt>
      <trkpt lat="47.34204" lon="-1.91049">
        <ele>-137</ele>
        <time>2012-01-08T08:21:59Z</time>
      </trkpt>
      <trkpt lat="47.34204" lon="-1.91049">
        <ele>-137</ele>
        <time>2012-01-08T08:22:01Z</time>
      </trkpt>
      <trkpt lat="47.34204" lon="-1.91049">
        <ele>-137</ele>
        <time>2012-01-08T08:22:03Z</time>
      </trkpt>
      <trkpt lat="47.34204" lon="-1.9105">
        <ele>-137</ele>
        <time>2012-01-08T08:22:05Z</time>
      </trkpt>
      <trkpt lat="47.34204" lon="-1.9105">
        <ele>-138</ele>
        <time>2012-01-08T08:22:07Z</time>
      </trkpt>
      <trkpt lat="47.34204" lon="-1.9105">
        <ele>-138</ele>
        <time>2012-01-08T08:22:09Z</time>
      </trkpt>
      <trkpt lat="47.34204" lon="-1.91051">
        <ele>-138</ele>
        <time>2012-01-08T08:22:12Z</time>
      </trkpt>
      <trkpt lat="47.34205" lon="-1.91051">
        <ele>-137</ele>
        <time>2012-01-08T08:22:14Z</time>
      </trkpt>
      <trkpt lat="47.34205" lon="-1.91051">
        <ele>-137</ele>
        <time>2012-01-08T08:22:16Z</time>
      </trkpt>
      <trkpt lat="47.34205" lon="-1.91051">
        <ele>-137</ele>
        <time>2012-01-08T08:22:18Z</time>
      </trkpt>
      <trkpt lat="47.34205" lon="-1.91051">
        <ele>-137</ele>
        <time>2012-01-08T08:22:20Z</time>
      </trkpt>
      <trkpt lat="47.34205" lon="-1.91051">
        <ele>-137</ele>
        <time>2012-01-08T08:22:22Z</time>
      </trkpt>
      <trkpt lat="47.34206" lon="-1.91051">
        <ele>-137</ele>
        <time>2012-01-08T08:22:24Z</time>
      </trkpt>
      <trkpt lat="47.34206" lon="-1.91052">
        <ele>-137</ele>
        <time>2012-01-08T08:22:26Z</time>
      </trkpt>
      <trkpt lat="47.34206" lon="-1.91052">
        <ele>-137</ele>
        <time>2012-01-08T08:22:28Z</time>
      </trkpt>
      <trkpt lat="47.34206" lon="-1.91052">
        <ele>-137</ele>
        <time>2012-01-08T08:22:30Z</time>
      </trkpt>
      <trkpt lat="47.34206" lon="-1.91052">
        <ele>-137</ele>
        <time>2012-01-08T08:22:32Z</time>
      </trkpt>
      <trkpt lat="47.34206" lon="-1.91052">
        <ele>-137</ele>
        <time>2012-01-08T08:22:34Z</time>
      </trkpt>
      <trkpt lat="47.34206" lon="-1.91051">
        <ele>-137</ele>
        <time>2012-01-08T08:22:36Z</time>
      </trkpt>
      <trkpt lat="47.34206" lon="-1.91051">
        <ele>-137</ele>
        <time>2012-01-08T08:22:38Z</time>
      </trkpt>
      <trkpt lat="47.34206" lon="-1.91051">
        <ele>-137</ele>
        <time>2012-01-08T08:22:40Z</time>
      </trkpt>
      <trkpt lat="47.34205" lon="-1.91051">
        <ele>-137</ele>
        <time>2012-01-08T08:22:42Z</time>
      </trkpt>
      <trkpt lat="47.34205" lon="-1.91051">
        <ele>-137</ele>
        <time>2012-01-08T08:22:44Z</time>
      </trkpt>
      <trkpt lat="47.34205" lon="-1.91051">
        <ele>-137</ele>
        <time>2012-01-08T08:22:47Z</time>
      </trkpt>
      <trkpt lat="47.34205" lon="-1.91051">
        <ele>-137</ele>
        <time>2012-01-08T08:22:49Z</time>
      </trkpt>
      <trkpt lat="47.34205" lon="-1.91051">
        <ele>-137</ele>
        <time>2012-01-08T08:22:51Z</time>
      </trkpt>
      <trkpt lat="47.34205" lon="-1.91052">
        <ele>-137</ele>
        <time>2012-01-08T08:22:53Z</time>
      </trkpt>
      <trkpt lat="47.34204" lon="-1.91052">
        <ele>-137</ele>
        <time>2012-01-08T08:22:55Z</time>
      </trkpt>
      <trkpt lat="47.34204" lon="-1.91052">
        <ele>-137</ele>
        <time>2012-01-08T08:22:57Z</time>
      </trkpt>
      <trkpt lat="47.34204" lon="-1.91052">
        <ele>-137</ele>
        <time>2012-01-08T08:22:59Z</time>
      </trkpt>
      <trkpt lat="47.34204" lon="-1.91052">
        <ele>-137</ele>
        <time>2012-01-08T08:23:01Z</time>
      </trkpt>
      <trkpt lat="47.34204" lon="-1.91052">
        <ele>-137</ele>
        <time>2012-01-08T08:23:03Z</time>
      </trkpt>
      <trkpt lat="47.34204" lon="-1.91052">
        <ele>-137</ele>
        <time>2012-01-08T08:23:05Z</time>
      </trkpt>
      <trkpt lat="47.34204" lon="-1.91052">
        <ele>-137</ele>
        <time>2012-01-08T08:23:07Z</time>
      </trkpt>
      <trkpt lat="47.34204" lon="-1.91052">
        <ele>-137</ele>
        <time>2012-01-08T08:23:09Z</time>
      </trkpt>
      <trkpt lat="47.34204" lon="-1.91052">
        <ele>-137</ele>
        <time>2012-01-08T08:23:11Z</time>
      </trkpt>
      <trkpt lat="47.34204" lon="-1.91052">
        <ele>-137</ele>
        <time>2012-01-08T08:23:13Z</time>
      </trkpt>
      <trkpt lat="47.34203" lon="-1.91052">
        <ele>-137</ele>
        <time>2012-01-08T08:23:15Z</time>
      </trkpt>
      <trkpt lat="47.34203" lon="-1.91051">
        <ele>-137</ele>
        <time>2012-01-08T08:23:17Z</time>
      </trkpt>
      <trkpt lat="47.34203" lon="-1.91051">
        <ele>-137</ele>
        <time>2012-01-08T08:23:20Z</time>
      </trkpt>
      <trkpt lat="47.34203" lon="-1.91051">
        <ele>-137</ele>
        <time>2012-01-08T08:23:22Z</time>
      </trkpt>
      <trkpt lat="47.34203" lon="-1.91051">
        <ele>-137</ele>
        <time>2012-01-08T08:23:24Z</time>
      </trkpt>
      <trkpt lat="47.34203" lon="-1.91051">
        <ele>-137</ele>
        <time>2012-01-08T08:23:26Z</time>
      </trkpt>
      <trkpt lat="47.34204" lon="-1.91051">
        <ele>-137</ele>
        <time>2012-01-08T08:23:28Z</time>
      </trkpt>
      <trkpt lat="47.34204" lon="-1.91051">
        <ele>-137</ele>
        <time>2012-01-08T08:23:30Z</time>
      </trkpt>
      <trkpt lat="47.34203" lon="-1.9105">
        <ele>-137</ele>
        <time>2012-01-08T08:23:32Z</time>
      </trkpt>
      <trkpt lat="47.34203" lon="-1.9105">
        <ele>-137</ele>
        <time>2012-01-08T08:23:34Z</time>
      </trkpt>
      <trkpt lat="47.34203" lon="-1.9105">
        <ele>-137</ele>
        <time>2012-01-08T08:23:36Z</time>
      </trkpt>
      <trkpt lat="47.34203" lon="-1.9105">
        <ele>-137</ele>
        <time>2012-01-08T08:23:38Z</time>
      </trkpt>
      <trkpt lat="47.34203" lon="-1.9105">
        <ele>-137</ele>
        <time>2012-01-08T08:23:40Z</time>
      </trkpt>
      <trkpt lat="47.34203" lon="-1.9105">
        <ele>-137</ele>
        <time>2012-01-08T08:23:42Z</time>
      </trkpt>
      <trkpt lat="47.34203" lon="-1.91049">
        <ele>-137</ele>
        <time>2012-01-08T08:23:45Z</time>
      </trkpt>
      <trkpt lat="47.34203" lon="-1.91049">
        <ele>-137</ele>
        <time>2012-01-08T08:23:47Z</time>
      </trkpt>
      <trkpt lat="47.34203" lon="-1.91049">
        <ele>-137</ele>
        <time>2012-01-08T08:23:49Z</time>
      </trkpt>
      <trkpt lat="47.34203" lon="-1.91049">
        <ele>-137</ele>
        <time>2012-01-08T08:23:51Z</time>
      </trkpt>
      <trkpt lat="47.34203" lon="-1.91049">
        <ele>-137</ele>
        <time>2012-01-08T08:23:53Z</time>
      </trkpt>
      <trkpt lat="47.34203" lon="-1.91049">
        <ele>-137</ele>
        <time>2012-01-08T08:23:55Z</time>
      </trkpt>
      <trkpt lat="47.34204" lon="-1.91049">
        <ele>-137</ele>
        <time>2012-01-08T08:23:57Z</time>
      </trkpt>
      <trkpt lat="47.34204" lon="-1.91049">
        <ele>-137</ele>
        <time>2012-01-08T08:23:59Z</time>
      </trkpt>
      <trkpt lat="47.34204" lon="-1.91049">
        <ele>-137</ele>
        <time>2012-01-08T08:24:01Z</time>
      </trkpt>
      <trkpt lat="47.34204" lon="-1.91049">
        <ele>-137</ele>
        <time>2012-01-08T08:24:03Z</time>
      </trkpt>
      <trkpt lat="47.34207" lon="-1.9105">
        <ele>-138</ele>
        <time>2012-01-08T08:24:05Z</time>
      </trkpt>
      <trkpt lat="47.34208" lon="-1.9105">
        <ele>-138</ele>
        <time>2012-01-08T08:24:07Z</time>
      </trkpt>
      <trkpt lat="47.34209" lon="-1.91054">
        <ele>-138</ele>
        <time>2012-01-08T08:24:10Z</time>
      </trkpt>
      <trkpt lat="47.34211" lon="-1.91059">
        <ele>-137</ele>
        <time>2012-01-08T08:24:12Z</time>
      </trkpt>
      <trkpt lat="47.34214" lon="-1.91065">
        <ele>-137</ele>
        <time>2012-01-08T08:24:14Z</time>
      </trkpt>
      <trkpt lat="47.34218" lon="-1.91071">
        <ele>-137</ele>
        <time>2012-01-08T08:24:16Z</time>
      </trkpt>
      <trkpt lat="47.34221" lon="-1.91078">
        <ele>-137</ele>
        <time>2012-01-08T08:24:18Z</time>
      </trkpt>
      <trkpt lat="47.34224" lon="-1.91085">
        <ele>-137</ele>
        <time>2012-01-08T08:24:20Z</time>
      </trkpt>
      <trkpt lat="47.34228" lon="-1.91092">
        <ele>-137</ele>
        <time>2012-01-08T08:24:22Z</time>
      </trkpt>
      <trkpt lat="47.3423" lon="-1.91099">
        <ele>-138</ele>
        <time>2012-01-08T08:24:24Z</time>
      </trkpt>
      <trkpt lat="47.34233" lon="-1.91105">
        <ele>-138</ele>
        <time>2012-01-08T08:24:26Z</time>
      </trkpt>
      <trkpt lat="47.34236" lon="-1.91113">
        <ele>-138</ele>
        <time>2012-01-08T08:24:28Z</time>
      </trkpt>
      <trkpt lat="47.34238" lon="-1.91116">
        <ele>-138</ele>
        <time>2012-01-08T08:24:30Z</time>
      </trkpt>
      <trkpt lat="47.34241" lon="-1.91121">
        <ele>-138</ele>
        <time>2012-01-08T08:24:33Z</time>
      </trkpt>
      <trkpt lat="47.34244" lon="-1.91123">
        <ele>-138</ele>
        <time>2012-01-08T08:24:35Z</time>
      </trkpt>
      <trkpt lat="47.34247" lon="-1.91121">
        <ele>-138</ele>
        <time>2012-01-08T08:24:37Z</time>
      </trkpt>
      <trkpt lat="47.3425" lon="-1.91119">
        <ele>-137</ele>
        <time>2012-01-08T08:24:39Z</time>
      </trkpt>
      <trkpt lat="47.34253" lon="-1.91118">
        <ele>-137</ele>
        <time>2012-01-08T08:24:41Z</time>
      </trkpt>
      <trkpt lat="47.34258" lon="-1.91115">
        <ele>-137</ele>
        <time>2012-01-08T08:24:43Z</time>
      </trkpt>
      <trkpt lat="47.3426" lon="-1.91114">
        <ele>-136</ele>
        <time>2012-01-08T08:24:46Z</time>
      </trkpt>
      <trkpt lat="47.34266" lon="-1.91113">
        <ele>-136</ele>
        <time>2012-01-08T08:24:48Z</time>
      </trkpt>
      <trkpt lat="47.34269" lon="-1.91112">
        <ele>-135</ele>
        <time>2012-01-08T08:24:50Z</time>
      </trkpt>
      <trkpt lat="47.34273" lon="-1.91111">
        <ele>-134</ele>
        <time>2012-01-08T08:24:52Z</time>
      </trkpt>
      <trkpt lat="47.34276" lon="-1.9111">
        <ele>-134</ele>
        <time>2012-01-08T08:24:54Z</time>
      </trkpt>
      <trkpt lat="47.34279" lon="-1.91109">
        <ele>-133</ele>
        <time>2012-01-08T08:24:56Z</time>
      </trkpt>
      <trkpt lat="47.34283" lon="-1.91107">
        <ele>-133</ele>
        <time>2012-01-08T08:24:58Z</time>
      </trkpt>
      <trkpt lat="47.34286" lon="-1.91105">
        <ele>-132</ele>
        <time>2012-01-08T08:25:00Z</time>
      </trkpt>
      <trkpt lat="47.34289" lon="-1.91102">
        <ele>-132</ele>
        <time>2012-01-08T08:25:02Z</time>
      </trkpt>
      <trkpt lat="47.34291" lon="-1.91098">
        <ele>-131</ele>
        <time>2012-01-08T08:25:04Z</time>
      </trkpt>
      <trkpt lat="47.34293" lon="-1.91094">
        <ele>-131</ele>
        <time>2012-01-08T08:25:06Z</time>
      </trkpt>
      <trkpt lat="47.34294" lon="-1.9109">
        <ele>-130</ele>
        <time>2012-01-08T08:25:09Z</time>
      </trkpt>
      <trkpt lat="47.34294" lon="-1.91086">
        <ele>-129</ele>
        <time>2012-01-08T08:25:11Z</time>
      </trkpt>
      <trkpt lat="47.34294" lon="-1.91082">
        <ele>-129</ele>
        <time>2012-01-08T08:25:13Z</time>
      </trkpt>
      <trkpt lat="47.34294" lon="-1.91078">
        <ele>-128</ele>
        <time>2012-01-08T08:25:15Z</time>
      </trkpt>
      <trkpt lat="47.34295" lon="-1.91075">
        <ele>-128</ele>
        <time>2012-01-08T08:25:17Z</time>
      </trkpt>
      <trkpt lat="47.34296" lon="-1.91071">
        <ele>-127</ele>
        <time>2012-01-08T08:25:19Z</time>
      </trkpt>
      <trkpt lat="47.34296" lon="-1.91066">
        <ele>-127</ele>
        <time>2012-01-08T08:25:21Z</time>
      </trkpt>
      <trkpt lat="47.34296" lon="-1.9106">
        <ele>-126</ele>
        <time>2012-01-08T08:25:23Z</time>
      </trkpt>
      <trkpt lat="47.34298" lon="-1.91056">
        <ele>-126</ele>
        <time>2012-01-08T08:25:26Z</time>
      </trkpt>
      <trkpt lat="47.34299" lon="-1.91052">
        <ele>-125</ele>
        <time>2012-01-08T08:25:28Z</time>
      </trkpt>
      <trkpt lat="47.34301" lon="-1.91049">
        <ele>-125</ele>
        <time>2012-01-08T08:25:30Z</time>
      </trkpt>
      <trkpt lat="47.34303" lon="-1.91047">
        <ele>-124</ele>
        <time>2012-01-08T08:25:32Z</time>
      </trkpt>
      <trkpt lat="47.34305" lon="-1.91046">
        <ele>-124</ele>
        <time>2012-01-08T08:25:34Z</time>
      </trkpt>
      <trkpt lat="47.34307" lon="-1.91046">
        <ele>-123</ele>
        <time>2012-01-08T08:25:36Z</time>
      </trkpt>
      <trkpt lat="47.3431" lon="-1.91046">
        <ele>-123</ele>
        <time>2012-01-08T08:25:38Z</time>
      </trkpt>
      <trkpt lat="47.34313" lon="-1.91045">
        <ele>-123</ele>
        <time>2012-01-08T08:25:40Z</time>
      </trkpt>
      <trkpt lat="47.34315" lon="-1.91045">
        <ele>-123</ele>
        <time>2012-01-08T08:25:42Z</time>
      </trkpt>
      <trkpt lat="47.34317" lon="-1.91045">
        <ele>-122</ele>
        <time>2012-01-08T08:25:44Z</time>
      </trkpt>
      <trkpt lat="47.3432" lon="-1.91045">
        <ele>-121</ele>
        <time>2012-01-08T08:25:47Z</time>
      </trkpt>
      <trkpt lat="47.34322" lon="-1.91045">
        <ele>-121</ele>
        <time>2012-01-08T08:25:49Z</time>
      </trkpt>
      <trkpt lat="47.34324" lon="-1.91045">
        <ele>-121</ele>
        <time>2012-01-08T08:25:51Z</time>
      </trkpt>
      <trkpt lat="47.34327" lon="-1.91044">
        <ele>-120</ele>
        <time>2012-01-08T08:25:53Z</time>
      </trkpt>
      <trkpt lat="47.3433" lon="-1.91045">
        <ele>-120</ele>
        <time>2012-01-08T08:25:55Z</time>
      </trkpt>
      <trkpt lat="47.34333" lon="-1.91045">
        <ele>-120</ele>
        <time>2012-01-08T08:25:57Z</time>
      </trkpt>
      <trkpt lat="47.34335" lon="-1.91045">
        <ele>-119</ele>
        <time>2012-01-08T08:25:59Z</time>
      </trkpt>
      <trkpt lat="47.34337" lon="-1.91045">
        <ele>-118</ele>
        <time>2012-01-08T08:26:01Z</time>
      </trkpt>
      <trkpt lat="47.34341" lon="-1.91045">
        <ele>-118</ele>
        <time>2012-01-08T08:26:03Z</time>
      </trkpt>
      <trkpt lat="47.34343" lon="-1.91045">
        <ele>-118</ele>
        <time>2012-01-08T08:26:05Z</time>
      </trkpt>
      <trkpt lat="47.34345" lon="-1.91044">
        <ele>-118</ele>
        <time>2012-01-08T08:26:07Z</time>
      </trkpt>
      <trkpt lat="47.34348" lon="-1.91044">
        <ele>-117</ele>
        <time>2012-01-08T08:26:09Z</time>
      </trkpt>
      <trkpt lat="47.3435" lon="-1.91044">
        <ele>-117</ele>
        <time>2012-01-08T08:26:12Z</time>
      </trkpt>
      <trkpt lat="47.34353" lon="-1.91042">
        <ele>-117</ele>
        <time>2012-01-08T08:26:14Z</time>
      </trkpt>
      <trkpt lat="47.34356" lon="-1.91041">
        <ele>-116</ele>
        <time>2012-01-08T08:26:16Z</time>
      </trkpt>
      <trkpt lat="47.34359" lon="-1.9104">
        <ele>-116</ele>
        <time>2012-01-08T08:26:18Z</time>
      </trkpt>
      <trkpt lat="47.34363" lon="-1.91038">
        <ele>-115</ele>
        <time>2012-01-08T08:26:20Z</time>
      </trkpt>
      <trkpt lat="47.34367" lon="-1.91037">
        <ele>-115</ele>
        <time>2012-01-08T08:26:22Z</time>
      </trkpt>
      <trkpt lat="47.34372" lon="-1.91036">
        <ele>-115</ele>
        <time>2012-01-08T08:26:24Z</time>
      </trkpt>
      <trkpt lat="47.34375" lon="-1.91034">
        <ele>-114</ele>
        <time>2012-01-08T08:26:26Z</time>
      </trkpt>
      <trkpt lat="47.34379" lon="-1.91033">
        <ele>-114</ele>
        <time>2012-01-08T08:26:29Z</time>
      </trkpt>
      <trkpt lat="47.34382" lon="-1.91032">
        <ele>-114</ele>
        <time>2012-01-08T08:26:31Z</time>
      </trkpt>
      <trkpt lat="47.34386" lon="-1.91031">
        <ele>-113</ele>
        <time>2012-01-08T08:26:33Z</time>
      </trkpt>
      <trkpt lat="47.34389" lon="-1.91029">
        <ele>-113</ele>
        <time>2012-01-08T08:26:35Z</time>
      </trkpt>
      <trkpt lat="47.34393" lon="-1.91027">
        <ele>-113</ele>
        <time>2012-01-08T08:26:37Z</time>
      </trkpt>
      <trkpt lat="47.34397" lon="-1.91025">
        <ele>-112</ele>
        <time>2012-01-08T08:26:39Z</time>
      </trkpt>
      <trkpt lat="47.34401" lon="-1.91023">
        <ele>-112</ele>
        <time>2012-01-08T08:26:41Z</time>
      </trkpt>
      <trkpt lat="47.34407" lon="-1.91022">
        <ele>-111</ele>
        <time>2012-01-08T08:26:43Z</time>
      </trkpt>
      <trkpt lat="47.3441" lon="-1.91022">
        <ele>-111</ele>
        <time>2012-01-08T08:26:45Z</time>
      </trkpt>
      <trkpt lat="47.34414" lon="-1.91022">
        <ele>-110</ele>
        <time>2012-01-08T08:26:47Z</time>
      </trkpt>
      <trkpt lat="47.34417" lon="-1.91022">
        <ele>-110</ele>
        <time>2012-01-08T08:26:50Z</time>
      </trkpt>
      <trkpt lat="47.3442" lon="-1.91022">
        <ele>-109</ele>
        <time>2012-01-08T08:26:52Z</time>
      </trkpt>
      <trkpt lat="47.34423" lon="-1.91023">
        <ele>-109</ele>
        <time>2012-01-08T08:26:54Z</time>
      </trkpt>
      <trkpt lat="47.34426" lon="-1.91023">
        <ele>-109</ele>
        <time>2012-01-08T08:26:56Z</time>
      </trkpt>
      <trkpt lat="47.34428" lon="-1.91022">
        <ele>-108</ele>
        <time>2012-01-08T08:26:58Z</time>
      </trkpt>
      <trkpt lat="47.34431" lon="-1.91023">
        <ele>-108</ele>
        <time>2012-01-08T08:27:00Z</time>
      </trkpt>
      <trkpt lat="47.34433" lon="-1.91023">
        <ele>-107</ele>
        <time>2012-01-08T08:27:02Z</time>
      </trkpt>
      <trkpt lat="47.34436" lon="-1.91023">
        <ele>-107</ele>
        <time>2012-01-08T08:27:04Z</time>
      </trkpt>
      <trkpt lat="47.34439" lon="-1.91023">
        <ele>-106</ele>
        <time>2012-01-08T08:27:06Z</time>
      </trkpt>
      <trkpt lat="47.34444" lon="-1.91023">
        <ele>-106</ele>
        <time>2012-01-08T08:27:08Z</time>
      </trkpt>
      <trkpt lat="47.34447" lon="-1.91023">
        <ele>-106</ele>
        <time>2012-01-08T08:27:10Z</time>
      </trkpt>
      <trkpt lat="47.3445" lon="-1.91024">
        <ele>-105</ele>
        <time>2012-01-08T08:27:12Z</time>
      </trkpt>
      <trkpt lat="47.34453" lon="-1.91025">
        <ele>-105</ele>
        <time>2012-01-08T08:27:15Z</time>
      </trkpt>
      <trkpt lat="47.34455" lon="-1.91028">
        <ele>-104</ele>
        <time>2012-01-08T08:27:17Z</time>
      </trkpt>
      <trkpt lat="47.34458" lon="-1.9103">
        <ele>-104</ele>
        <time>2012-01-08T08:27:19Z</time>
      </trkpt>
      <trkpt lat="47.3446" lon="-1.91033">
        <ele>-104</ele>
        <time>2012-01-08T08:27:21Z</time>
      </trkpt>
      <trkpt lat="47.34461" lon="-1.91038">
        <ele>-104</ele>
        <time>2012-01-08T08:27:23Z</time>
      </trkpt>
      <trkpt lat="47.34463" lon="-1.91043">
        <ele>-104</ele>
        <time>2012-01-08T08:27:25Z</time>
      </trkpt>
      <trkpt lat="47.34465" lon="-1.9105">
        <ele>-103</ele>
        <time>2012-01-08T08:27:27Z</time>
      </trkpt>
      <trkpt lat="47.34467" lon="-1.91056">
        <ele>-103</ele>
        <time>2012-01-08T08:27:29Z</time>
      </trkpt>
      <trkpt lat="47.34468" lon="-1.91063">
        <ele>-103</ele>
        <time>2012-01-08T08:27:31Z</time>
      </trkpt>
      <trkpt lat="47.3447" lon="-1.91069">
        <ele>-103</ele>
        <time>2012-01-08T08:27:33Z</time>
      </trkpt>
      <trkpt lat="47.34472" lon="-1.91077">
        <ele>-103</ele>
        <time>2012-01-08T08:27:36Z</time>
      </trkpt>
      <trkpt lat="47.34473" lon="-1.91084">
        <ele>-103</ele>
        <time>2012-01-08T08:27:38Z</time>
      </trkpt>
      <trkpt lat="47.34475" lon="-1.91092">
        <ele>-103</ele>
        <time>2012-01-08T08:27:40Z</time>
      </trkpt>
      <trkpt lat="47.34477" lon="-1.911">
        <ele>-102</ele>
        <time>2012-01-08T08:27:42Z</time>
      </trkpt>
      <trkpt lat="47.34479" lon="-1.91109">
        <ele>-102</ele>
        <time>2012-01-08T08:27:44Z</time>
      </trkpt>
      <trkpt lat="47.34481" lon="-1.91117">
        <ele>-102</ele>
        <time>2012-01-08T08:27:46Z</time>
      </trkpt>
      <trkpt lat="47.34482" lon="-1.91126">
        <ele>-101</ele>
        <time>2012-01-08T08:27:48Z</time>
      </trkpt>
      <trkpt lat="47.34483" lon="-1.91135">
        <ele>-101</ele>
        <time>2012-01-08T08:27:50Z</time>
      </trkpt>
      <trkpt lat="47.34485" lon="-1.91148">
        <ele>-101</ele>
        <time>2012-01-08T08:27:52Z</time>
      </trkpt>
      <trkpt lat="47.34486" lon="-1.91158">
        <ele>-101</ele>
        <time>2012-01-08T08:27:54Z</time>
      </trkpt>
      <trkpt lat="47.34488" lon="-1.91169">
        <ele>-101</ele>
        <time>2012-01-08T08:27:57Z</time>
      </trkpt>
      <trkpt lat="47.3449" lon="-1.91181">
        <ele>-101</ele>
        <time>2012-01-08T08:27:59Z</time>
      </trkpt>
      <trkpt lat="47.34493" lon="-1.91194">
        <ele>-101</ele>
        <time>2012-01-08T08:28:01Z</time>
      </trkpt>
      <trkpt lat="47.34495" lon="-1.91209">
        <ele>-102</ele>
        <time>2012-01-08T08:28:03Z</time>
      </trkpt>
      <trkpt lat="47.34496" lon="-1.91225">
        <ele>-102</ele>
        <time>2012-01-08T08:28:05Z</time>
      </trkpt>
      <trkpt lat="47.34494" lon="-1.91242">
        <ele>-103</ele>
        <time>2012-01-08T08:28:07Z</time>
      </trkpt>
      <trkpt lat="47.3449" lon="-1.91257">
        <ele>-104</ele>
        <time>2012-01-08T08:28:09Z</time>
      </trkpt>
      <trkpt lat="47.34485" lon="-1.9127">
        <ele>-105</ele>
        <time>2012-01-08T08:28:11Z</time>
      </trkpt>
      <trkpt lat="47.34481" lon="-1.91281">
        <ele>-106</ele>
        <time>2012-01-08T08:28:13Z</time>
      </trkpt>
      <trkpt lat="47.34478" lon="-1.91293">
        <ele>-106</ele>
        <time>2012-01-08T08:28:15Z</time>
      </trkpt>
      <trkpt lat="47.34476" lon="-1.91304">
        <ele>-107</ele>
        <time>2012-01-08T08:28:17Z</time>
      </trkpt>
      <trkpt lat="47.34474" lon="-1.91314">
        <ele>-108</ele>
        <time>2012-01-08T08:28:19Z</time>
      </trkpt>
      <trkpt lat="47.34471" lon="-1.91325">
        <ele>-109</ele>
        <time>2012-01-08T08:28:21Z</time>
      </trkpt>
      <trkpt lat="47.34467" lon="-1.91335">
        <ele>-110</ele>
        <time>2012-01-08T08:28:23Z</time>
      </trkpt>
      <trkpt lat="47.34461" lon="-1.91342">
        <ele>-111</ele>
        <time>2012-01-08T08:28:25Z</time>
      </trkpt>
      <trkpt lat="47.34453" lon="-1.91349">
        <ele>-113</ele>
        <time>2012-01-08T08:28:27Z</time>
      </trkpt>
      <trkpt lat="47.34432" lon="-1.9136">
        <ele>-114</ele>
        <time>2012-01-08T08:28:29Z</time>
      </trkpt>
      <trkpt lat="47.34417" lon="-1.91371">
        <ele>-115</ele>
        <time>2012-01-08T08:28:31Z</time>
      </trkpt>
      <trkpt lat="47.34403" lon="-1.91381">
        <ele>-117</ele>
        <time>2012-01-08T08:28:33Z</time>
      </trkpt>
      <trkpt lat="47.34388" lon="-1.91392">
        <ele>-120</ele>
        <time>2012-01-08T08:28:35Z</time>
      </trkpt>
      <trkpt lat="47.34374" lon="-1.91403">
        <ele>-122</ele>
        <time>2012-01-08T08:28:37Z</time>
      </trkpt>
      <trkpt lat="47.34357" lon="-1.91412">
        <ele>-126</ele>
        <time>2012-01-08T08:28:40Z</time>
      </trkpt>
      <trkpt lat="47.34341" lon="-1.91419">
        <ele>-128</ele>
        <time>2012-01-08T08:28:42Z</time>
      </trkpt>
      <trkpt lat="47.34331" lon="-1.91425">
        <ele>-132</ele>
        <time>2012-01-08T08:28:44Z</time>
      </trkpt>
      <trkpt lat="47.34327" lon="-1.91429">
        <ele>-135</ele>
        <time>2012-01-08T08:28:46Z</time>
      </trkpt>
      <trkpt lat="47.34327" lon="-1.91437">
        <ele>-137</ele>
        <time>2012-01-08T08:28:48Z</time>
      </trkpt>
      <trkpt lat="47.34328" lon="-1.91446">
        <ele>-138</ele>
        <time>2012-01-08T08:28:50Z</time>
      </trkpt>
      <trkpt lat="47.3433" lon="-1.91455">
        <ele>-138</ele>
        <time>2012-01-08T08:28:52Z</time>
      </trkpt>
      <trkpt lat="47.34332" lon="-1.91465">
        <ele>-139</ele>
        <time>2012-01-08T08:28:54Z</time>
      </trkpt>
      <trkpt lat="47.34335" lon="-1.9148">
        <ele>-139</ele>
        <time>2012-01-08T08:28:56Z</time>
      </trkpt>
      <trkpt lat="47.34337" lon="-1.9149">
        <ele>-139</ele>
        <time>2012-01-08T08:28:58Z</time>
      </trkpt>
      <trkpt lat="47.3434" lon="-1.91501">
        <ele>-139</ele>
        <time>2012-01-08T08:29:01Z</time>
      </trkpt>
      <trkpt lat="47.34343" lon="-1.91512">
        <ele>-139</ele>
        <time>2012-01-08T08:29:03Z</time>
      </trkpt>
      <trkpt lat="47.34347" lon="-1.91523">
        <ele>-139</ele>
        <time>2012-01-08T08:29:05Z</time>
      </trkpt>
      <trkpt lat="47.3435" lon="-1.91533">
        <ele>-139</ele>
        <time>2012-01-08T08:29:07Z</time>
      </trkpt>
      <trkpt lat="47.34354" lon="-1.91543">
        <ele>-139</ele>
        <time>2012-01-08T08:29:09Z</time>
      </trkpt>
      <trkpt lat="47.34357" lon="-1.91553">
        <ele>-139</ele>
        <time>2012-01-08T08:29:11Z</time>
      </trkpt>
      <trkpt lat="47.34361" lon="-1.91563">
        <ele>-139</ele>
        <time>2012-01-08T08:29:13Z</time>
      </trkpt>
      <trkpt lat="47.34364" lon="-1.91573">
        <ele>-140</ele>
        <time>2012-01-08T08:29:15Z</time>
      </trkpt>
      <trkpt lat="47.3437" lon="-1.91589">
        <ele>-140</ele>
        <time>2012-01-08T08:29:17Z</time>
      </trkpt>
      <trkpt lat="47.34374" lon="-1.91603">
        <ele>-139</ele>
        <time>2012-01-08T08:29:19Z</time>
      </trkpt>
      <trkpt lat="47.34378" lon="-1.91617">
        <ele>-139</ele>
        <time>2012-01-08T08:29:22Z</time>
      </trkpt>
      <trkpt lat="47.34382" lon="-1.91628">
        <ele>-139</ele>
        <time>2012-01-08T08:29:24Z</time>
      </trkpt>
      <trkpt lat="47.34387" lon="-1.9163">
        <ele>-139</ele>
        <time>2012-01-08T08:29:26Z</time>
      </trkpt>
      <trkpt lat="47.34393" lon="-1.91629">
        <ele>-140</ele>
        <time>2012-01-08T08:29:28Z</time>
      </trkpt>
      <trkpt lat="47.344" lon="-1.91625">
        <ele>-140</ele>
        <time>2012-01-08T08:29:30Z</time>
      </trkpt>
      <trkpt lat="47.34407" lon="-1.91621">
        <ele>-140</ele>
        <time>2012-01-08T08:29:32Z</time>
      </trkpt>
      <trkpt lat="47.34412" lon="-1.91618">
        <ele>-139</ele>
        <time>2012-01-08T08:29:34Z</time>
      </trkpt>
      <trkpt lat="47.34418" lon="-1.91614">
        <ele>-139</ele>
        <time>2012-01-08T08:29:36Z</time>
      </trkpt>
      <trkpt lat="47.34426" lon="-1.9161">
        <ele>-139</ele>
        <time>2012-01-08T08:29:38Z</time>
      </trkpt>
      <trkpt lat="47.34429" lon="-1.91608">
        <ele>-138</ele>
        <time>2012-01-08T08:29:40Z</time>
      </trkpt>
      <trkpt lat="47.34436" lon="-1.91603">
        <ele>-138</ele>
        <time>2012-01-08T08:29:42Z</time>
      </trkpt>
      <trkpt lat="47.34441" lon="-1.916">
        <ele>-138</ele>
        <time>2012-01-08T08:29:44Z</time>
      </trkpt>
      <trkpt lat="47.34446" lon="-1.91597">
        <ele>-137</ele>
        <time>2012-01-08T08:29:47Z</time>
      </trkpt>
      <trkpt lat="47.34452" lon="-1.91594">
        <ele>-136</ele>
        <time>2012-01-08T08:29:49Z</time>
      </trkpt>
      <trkpt lat="47.34457" lon="-1.91593">
        <ele>-136</ele>
        <time>2012-01-08T08:29:51Z</time>
      </trkpt>
      <trkpt lat="47.34461" lon="-1.91595">
        <ele>-135</ele>
        <time>2012-01-08T08:29:53Z</time>
      </trkpt>
      <trkpt lat="47.34463" lon="-1.91599">
        <ele>-135</ele>
        <time>2012-01-08T08:29:55Z</time>
      </trkpt>
      <trkpt lat="47.34465" lon="-1.91603">
        <ele>-135</ele>
        <time>2012-01-08T08:29:57Z</time>
      </trkpt>
      <trkpt lat="47.34467" lon="-1.91605">
        <ele>-135</ele>
        <time>2012-01-08T08:29:59Z</time>
      </trkpt>
      <trkpt lat="47.34468" lon="-1.91609">
        <ele>-135</ele>
        <time>2012-01-08T08:30:01Z</time>
      </trkpt>
      <trkpt lat="47.3447" lon="-1.91613">
        <ele>-135</ele>
        <time>2012-01-08T08:30:03Z</time>
      </trkpt>
      <trkpt lat="47.34472" lon="-1.91616">
        <ele>-135</ele>
        <time>2012-01-08T08:30:05Z</time>
      </trkpt>
      <trkpt lat="47.34475" lon="-1.91623">
        <ele>-135</ele>
        <time>2012-01-08T08:30:07Z</time>
      </trkpt>
      <trkpt lat="47.34477" lon="-1.9163">
        <ele>-135</ele>
        <time>2012-01-08T08:30:09Z</time>
      </trkpt>
      <trkpt lat="47.3448" lon="-1.91636">
        <ele>-135</ele>
        <time>2012-01-08T08:30:11Z</time>
      </trkpt>
      <trkpt lat="47.34482" lon="-1.91643">
        <ele>-135</ele>
        <time>2012-01-08T08:30:13Z</time>
      </trkpt>
      <trkpt lat="47.34485" lon="-1.91651">
        <ele>-135</ele>
        <time>2012-01-08T08:30:15Z</time>
      </trkpt>
      <trkpt lat="47.34489" lon="-1.91658">
        <ele>-135</ele>
        <time>2012-01-08T08:30:18Z</time>
      </trkpt>
      <trkpt lat="47.34491" lon="-1.91666">
        <ele>-136</ele>
        <time>2012-01-08T08:30:20Z</time>
      </trkpt>
      <trkpt lat="47.34494" lon="-1.91674">
        <ele>-136</ele>
        <time>2012-01-08T08:30:22Z</time>
      </trkpt>
      <trkpt lat="47.34497" lon="-1.91683">
        <ele>-136</ele>
        <time>2012-01-08T08:30:24Z</time>
      </trkpt>
      <trkpt lat="47.34501" lon="-1.91693">
        <ele>-137</ele>
        <time>2012-01-08T08:30:26Z</time>
      </trkpt>
      <trkpt lat="47.34504" lon="-1.91702">
        <ele>-137</ele>
        <time>2012-01-08T08:30:28Z</time>
      </trkpt>
      <trkpt lat="47.34507" lon="-1.91712">
        <ele>-138</ele>
        <time>2012-01-08T08:30:30Z</time>
      </trkpt>
      <trkpt lat="47.34513" lon="-1.91727">
        <ele>-138</ele>
        <time>2012-01-08T08:30:32Z</time>
      </trkpt>
      <trkpt lat="47.34516" lon="-1.91737">
        <ele>-139</ele>
        <time>2012-01-08T08:30:34Z</time>
      </trkpt>
      <trkpt lat="47.34519" lon="-1.91745">
        <ele>-139</ele>
        <time>2012-01-08T08:30:36Z</time>
      </trkpt>
      <trkpt lat="47.34523" lon="-1.91749">
        <ele>-140</ele>
        <time>2012-01-08T08:30:38Z</time>
      </trkpt>
      <trkpt lat="47.34527" lon="-1.91751">
        <ele>-140</ele>
        <time>2012-01-08T08:30:41Z</time>
      </trkpt>
      <trkpt lat="47.34529" lon="-1.91755">
        <ele>-141</ele>
        <time>2012-01-08T08:30:43Z</time>
      </trkpt>
      <trkpt lat="47.34535" lon="-1.91765">
        <ele>-141</ele>
        <time>2012-01-08T08:30:45Z</time>
      </trkpt>
      <trkpt lat="47.3454" lon="-1.91772">
        <ele>-141</ele>
        <time>2012-01-08T08:30:47Z</time>
      </trkpt>
      <trkpt lat="47.34546" lon="-1.91781">
        <ele>-142</ele>
        <time>2012-01-08T08:30:49Z</time>
      </trkpt>
      <trkpt lat="47.34551" lon="-1.91793">
        <ele>-141</ele>
        <time>2012-01-08T08:30:51Z</time>
      </trkpt>
      <trkpt lat="47.34556" lon="-1.91802">
        <ele>-141</ele>
        <time>2012-01-08T08:30:53Z</time>
      </trkpt>
      <trkpt lat="47.34558" lon="-1.91812">
        <ele>-141</ele>
        <time>2012-01-08T08:30:55Z</time>
      </trkpt>
      <trkpt lat="47.34558" lon="-1.91821">
        <ele>-140</ele>
        <time>2012-01-08T08:30:57Z</time>
      </trkpt>
      <trkpt lat="47.34557" lon="-1.91837">
        <ele>-140</ele>
        <time>2012-01-08T08:30:59Z</time>
      </trkpt>
      <trkpt lat="47.34557" lon="-1.91847">
        <ele>-140</ele>
        <time>2012-01-08T08:31:01Z</time>
      </trkpt>
      <trkpt lat="47.34557" lon="-1.91858">
        <ele>-140</ele>
        <time>2012-01-08T08:31:03Z</time>
      </trkpt>
      <trkpt lat="47.34558" lon="-1.91869">
        <ele>-140</ele>
        <time>2012-01-08T08:31:06Z</time>
      </trkpt>
      <trkpt lat="47.3456" lon="-1.91882">
        <ele>-141</ele>
        <time>2012-01-08T08:31:08Z</time>
      </trkpt>
      <trkpt lat="47.34561" lon="-1.91893">
        <ele>-141</ele>
        <time>2012-01-08T08:31:10Z</time>
      </trkpt>
      <trkpt lat="47.34562" lon="-1.91904">
        <ele>-141</ele>
        <time>2012-01-08T08:31:12Z</time>
      </trkpt>
      <trkpt lat="47.34565" lon="-1.91911">
        <ele>-141</ele>
        <time>2012-01-08T08:31:14Z</time>
      </trkpt>
      <trkpt lat="47.34569" lon="-1.91917">
        <ele>-141</ele>
        <time>2012-01-08T08:31:16Z</time>
      </trkpt>
      <trkpt lat="47.34574" lon="-1.91922">
        <ele>-141</ele>
        <time>2012-01-08T08:31:18Z</time>
      </trkpt>
      <trkpt lat="47.34577" lon="-1.91922">
        <ele>-141</ele>
        <time>2012-01-08T08:31:20Z</time>
      </trkpt>
      <trkpt lat="47.34581" lon="-1.91921">
        <ele>-140</ele>
        <time>2012-01-08T08:31:22Z</time>
      </trkpt>
      <trkpt lat="47.34584" lon="-1.9192">
        <ele>-140</ele>
        <time>2012-01-08T08:31:24Z</time>
      </trkpt>
      <trkpt lat="47.34587" lon="-1.91919">
        <ele>-140</ele>
        <time>2012-01-08T08:31:26Z</time>
      </trkpt>
      <trkpt lat="47.3459" lon="-1.91921">
        <ele>-139</ele>
        <time>2012-01-08T08:31:28Z</time>
      </trkpt>
      <trkpt lat="47.34592" lon="-1.91926">
        <ele>-139</ele>
        <time>2012-01-08T08:31:30Z</time>
      </trkpt>
      <trkpt lat="47.34594" lon="-1.9193">
        <ele>-138</ele>
        <time>2012-01-08T08:31:33Z</time>
      </trkpt>
      <trkpt lat="47.34596" lon="-1.91936">
        <ele>-137</ele>
        <time>2012-01-08T08:31:35Z</time>
      </trkpt>
      <trkpt lat="47.34598" lon="-1.91944">
        <ele>-137</ele>
        <time>2012-01-08T08:31:37Z</time>
      </trkpt>
      <trkpt lat="47.346" lon="-1.91952">
        <ele>-137</ele>
        <time>2012-01-08T08:31:39Z</time>
      </trkpt>
      <trkpt lat="47.34602" lon="-1.9196">
        <ele>-138</ele>
        <time>2012-01-08T08:31:41Z</time>
      </trkpt>
      <trkpt lat="47.34605" lon="-1.91966">
        <ele>-138</ele>
        <time>2012-01-08T08:31:43Z</time>
      </trkpt>
      <trkpt lat="47.34608" lon="-1.91967">
        <ele>-138</ele>
        <time>2012-01-08T08:31:45Z</time>
      </trkpt>
      <trkpt lat="47.34611" lon="-1.91966">
        <ele>-138</ele>
        <time>2012-01-08T08:31:47Z</time>
      </trkpt>
      <trkpt lat="47.34614" lon="-1.91965">
        <ele>-138</ele>
        <time>2012-01-08T08:31:49Z</time>
      </trkpt>
      <trkpt lat="47.34617" lon="-1.91964">
        <ele>-137</ele>
        <time>2012-01-08T08:31:51Z</time>
      </trkpt>
      <trkpt lat="47.34619" lon="-1.91963">
        <ele>-137</ele>
        <time>2012-01-08T08:31:53Z</time>
      </trkpt>
      <trkpt lat="47.34623" lon="-1.91962">
        <ele>-137</ele>
        <time>2012-01-08T08:31:56Z</time>
      </trkpt>
      <trkpt lat="47.34625" lon="-1.91962">
        <ele>-136</ele>
        <time>2012-01-08T08:31:58Z</time>
      </trkpt>
      <trkpt lat="47.34628" lon="-1.9196">
        <ele>-135</ele>
        <time>2012-01-08T08:32:00Z</time>
      </trkpt>
      <trkpt lat="47.3463" lon="-1.91959">
        <ele>-134</ele>
        <time>2012-01-08T08:32:02Z</time>
      </trkpt>
      <trkpt lat="47.34632" lon="-1.91958">
        <ele>-133</ele>
        <time>2012-01-08T08:32:04Z</time>
      </trkpt>
      <trkpt lat="47.34635" lon="-1.91957">
        <ele>-133</ele>
        <time>2012-01-08T08:32:06Z</time>
      </trkpt>
      <trkpt lat="47.34638" lon="-1.91956">
        <ele>-132</ele>
        <time>2012-01-08T08:32:08Z</time>
      </trkpt>
      <trkpt lat="47.34642" lon="-1.91955">
        <ele>-131</ele>
        <time>2012-01-08T08:32:10Z</time>
      </trkpt>
      <trkpt lat="47.34644" lon="-1.91955">
        <ele>-131</ele>
        <time>2012-01-08T08:32:12Z</time>
      </trkpt>
      <trkpt lat="47.34648" lon="-1.91954">
        <ele>-130</ele>
        <time>2012-01-08T08:32:14Z</time>
      </trkpt>
      <trkpt lat="47.34652" lon="-1.91952">
        <ele>-130</ele>
        <time>2012-01-08T08:32:16Z</time>
      </trkpt>
      <trkpt lat="47.34656" lon="-1.91952">
        <ele>-130</ele>
        <time>2012-01-08T08:32:18Z</time>
      </trkpt>
      <trkpt lat="47.34659" lon="-1.91953">
        <ele>-129</ele>
        <time>2012-01-08T08:32:20Z</time>
      </trkpt>
      <trkpt lat="47.34662" lon="-1.91956">
        <ele>-131</ele>
        <time>2012-01-08T08:32:22Z</time>
      </trkpt>
      <trkpt lat="47.34665" lon="-1.9196">
        <ele>-130</ele>
        <time>2012-01-08T08:32:24Z</time>
      </trkpt>
      <trkpt lat="47.34666" lon="-1.91964">
        <ele>-130</ele>
        <time>2012-01-08T08:32:27Z</time>
      </trkpt>
      <trkpt lat="47.34669" lon="-1.9197">
        <ele>-129</ele>
        <time>2012-01-08T08:32:29Z</time>
      </trkpt>
      <trkpt lat="47.34671" lon="-1.91976">
        <ele>-127</ele>
        <time>2012-01-08T08:32:31Z</time>
      </trkpt>
      <trkpt lat="47.34674" lon="-1.91983">
        <ele>-127</ele>
        <time>2012-01-08T08:32:33Z</time>
      </trkpt>
      <trkpt lat="47.34676" lon="-1.9199">
        <ele>-128</ele>
        <time>2012-01-08T08:32:35Z</time>
      </trkpt>
      <trkpt lat="47.34679" lon="-1.91997">
        <ele>-128</ele>
        <time>2012-01-08T08:32:37Z</time>
      </trkpt>
      <trkpt lat="47.34681" lon="-1.92006">
        <ele>-129</ele>
        <time>2012-01-08T08:32:39Z</time>
      </trkpt>
      <trkpt lat="47.34685" lon="-1.92015">
        <ele>-129</ele>
        <time>2012-01-08T08:32:41Z</time>
      </trkpt>
      <trkpt lat="47.3469" lon="-1.92028">
        <ele>-129</ele>
        <time>2012-01-08T08:32:43Z</time>
      </trkpt>
      <trkpt lat="47.34694" lon="-1.92037">
        <ele>-129</ele>
        <time>2012-01-08T08:32:45Z</time>
      </trkpt>
      <trkpt lat="47.34697" lon="-1.92046">
        <ele>-129</ele>
        <time>2012-01-08T08:32:47Z</time>
      </trkpt>
      <trkpt lat="47.34699" lon="-1.92056">
        <ele>-129</ele>
        <time>2012-01-08T08:32:50Z</time>
      </trkpt>
      <trkpt lat="47.34702" lon="-1.92064">
        <ele>-129</ele>
        <time>2012-01-08T08:32:52Z</time>
      </trkpt>
      <trkpt lat="47.34706" lon="-1.92065">
        <ele>-129</ele>
        <time>2012-01-08T08:32:54Z</time>
      </trkpt>
      <trkpt lat="47.34709" lon="-1.92064">
        <ele>-129</ele>
        <time>2012-01-08T08:32:56Z</time>
      </trkpt>
      <trkpt lat="47.34712" lon="-1.92062">
        <ele>-129</ele>
        <time>2012-01-08T08:32:58Z</time>
      </trkpt>
      <trkpt lat="47.34715" lon="-1.92059">
        <ele>-128</ele>
        <time>2012-01-08T08:33:00Z</time>
      </trkpt>
      <trkpt lat="47.3472" lon="-1.92057">
        <ele>-127</ele>
        <time>2012-01-08T08:33:02Z</time>
      </trkpt>
      <trkpt lat="47.34723" lon="-1.92055">
        <ele>-127</ele>
        <time>2012-01-08T08:33:04Z</time>
      </trkpt>
      <trkpt lat="47.34726" lon="-1.92053">
        <ele>-126</ele>
        <time>2012-01-08T08:33:06Z</time>
      </trkpt>
      <trkpt lat="47.34729" lon="-1.92051">
        <ele>-125</ele>
        <time>2012-01-08T08:33:09Z</time>
      </trkpt>
      <trkpt lat="47.34732" lon="-1.92049">
        <ele>-125</ele>
        <time>2012-01-08T08:33:11Z</time>
      </trkpt>
      <trkpt lat="47.34734" lon="-1.92046">
        <ele>-124</ele>
        <time>2012-01-08T08:33:13Z</time>
      </trkpt>
      <trkpt lat="47.34737" lon="-1.92044">
        <ele>-124</ele>
        <time>2012-01-08T08:33:15Z</time>
      </trkpt>
      <trkpt lat="47.34741" lon="-1.92042">
        <ele>-123</ele>
        <time>2012-01-08T08:33:17Z</time>
      </trkpt>
      <trkpt lat="47.34743" lon="-1.92039">
        <ele>-123</ele>
        <time>2012-01-08T08:33:19Z</time>
      </trkpt>
      <trkpt lat="47.34746" lon="-1.92037">
        <ele>-122</ele>
        <time>2012-01-08T08:33:21Z</time>
      </trkpt>
      <trkpt lat="47.34748" lon="-1.92035">
        <ele>-122</ele>
        <time>2012-01-08T08:33:23Z</time>
      </trkpt>
      <trkpt lat="47.3475" lon="-1.92033">
        <ele>-121</ele>
        <time>2012-01-08T08:33:25Z</time>
      </trkpt>
      <trkpt lat="47.34753" lon="-1.9203">
        <ele>-121</ele>
        <time>2012-01-08T08:33:27Z</time>
      </trkpt>
      <trkpt lat="47.34755" lon="-1.92028">
        <ele>-120</ele>
        <time>2012-01-08T08:33:29Z</time>
      </trkpt>
      <trkpt lat="47.34757" lon="-1.92025">
        <ele>-120</ele>
        <time>2012-01-08T08:33:31Z</time>
      </trkpt>
      <trkpt lat="47.34758" lon="-1.92023">
        <ele>-119</ele>
        <time>2012-01-08T08:33:34Z</time>
      </trkpt>
      <trkpt lat="47.34761" lon="-1.9202">
        <ele>-119</ele>
        <time>2012-01-08T08:33:36Z</time>
      </trkpt>
      <trkpt lat="47.34763" lon="-1.92018">
        <ele>-118</ele>
        <time>2012-01-08T08:33:38Z</time>
      </trkpt>
      <trkpt lat="47.34765" lon="-1.92015">
        <ele>-118</ele>
        <time>2012-01-08T08:33:40Z</time>
      </trkpt>
      <trkpt lat="47.34767" lon="-1.92013">
        <ele>-117</ele>
        <time>2012-01-08T08:33:42Z</time>
      </trkpt>
      <trkpt lat="47.34769" lon="-1.92011">
        <ele>-117</ele>
        <time>2012-01-08T08:33:44Z</time>
      </trkpt>
      <trkpt lat="47.34772" lon="-1.92008">
        <ele>-116</ele>
        <time>2012-01-08T08:33:46Z</time>
      </trkpt>
      <trkpt lat="47.34774" lon="-1.92007">
        <ele>-116</ele>
        <time>2012-01-08T08:33:48Z</time>
      </trkpt>
      <trkpt lat="47.34776" lon="-1.92005">
        <ele>-115</ele>
        <time>2012-01-08T08:33:50Z</time>
      </trkpt>
      <trkpt lat="47.34779" lon="-1.92002">
        <ele>-115</ele>
        <time>2012-01-08T08:33:52Z</time>
      </trkpt>
      <trkpt lat="47.34781" lon="-1.92">
        <ele>-114</ele>
        <time>2012-01-08T08:33:54Z</time>
      </trkpt>
      <trkpt lat="47.34783" lon="-1.91998">
        <ele>-114</ele>
        <time>2012-01-08T08:33:57Z</time>
      </trkpt>
      <trkpt lat="47.34785" lon="-1.91996">
        <ele>-114</ele>
        <time>2012-01-08T08:33:59Z</time>
      </trkpt>
      <trkpt lat="47.34787" lon="-1.91994">
        <ele>-113</ele>
        <time>2012-01-08T08:34:01Z</time>
      </trkpt>
      <trkpt lat="47.3479" lon="-1.91991">
        <ele>-113</ele>
        <time>2012-01-08T08:34:03Z</time>
      </trkpt>
      <trkpt lat="47.34792" lon="-1.91989">
        <ele>-112</ele>
        <time>2012-01-08T08:34:05Z</time>
      </trkpt>
      <trkpt lat="47.34795" lon="-1.91987">
        <ele>-112</ele>
        <time>2012-01-08T08:34:07Z</time>
      </trkpt>
      <trkpt lat="47.34797" lon="-1.91984">
        <ele>-111</ele>
        <time>2012-01-08T08:34:09Z</time>
      </trkpt>
      <trkpt lat="47.34798" lon="-1.91981">
        <ele>-110</ele>
        <time>2012-01-08T08:34:11Z</time>
      </trkpt>
      <trkpt lat="47.34801" lon="-1.91977">
        <ele>-110</ele>
        <time>2012-01-08T08:34:13Z</time>
      </trkpt>
      <trkpt lat="47.34803" lon="-1.91973">
        <ele>-109</ele>
        <time>2012-01-08T08:34:15Z</time>
      </trkpt>
      <trkpt lat="47.34805" lon="-1.9197">
        <ele>-109</ele>
        <time>2012-01-08T08:34:17Z</time>
      </trkpt>
      <trkpt lat="47.34807" lon="-1.91967">
        <ele>-108</ele>
        <time>2012-01-08T08:34:20Z</time>
      </trkpt>
      <trkpt lat="47.34809" lon="-1.91964">
        <ele>-108</ele>
        <time>2012-01-08T08:34:22Z</time>
      </trkpt>
      <trkpt lat="47.34811" lon="-1.91962">
        <ele>-107</ele>
        <time>2012-01-08T08:34:24Z</time>
      </trkpt>
      <trkpt lat="47.34814" lon="-1.91959">
        <ele>-107</ele>
        <time>2012-01-08T08:34:26Z</time>
      </trkpt>
      <trkpt lat="47.34816" lon="-1.91957">
        <ele>-107</ele>
        <time>2012-01-08T08:34:28Z</time>
      </trkpt>
      <trkpt lat="47.34819" lon="-1.91955">
        <ele>-106</ele>
        <time>2012-01-08T08:34:30Z</time>
      </trkpt>
      <trkpt lat="47.34822" lon="-1.91953">
        <ele>-106</ele>
        <time>2012-01-08T08:34:32Z</time>
      </trkpt>
      <trkpt lat="47.34824" lon="-1.9195">
        <ele>-106</ele>
        <time>2012-01-08T08:34:34Z</time>
      </trkpt>
      <trkpt lat="47.34829" lon="-1.91948">
        <ele>-105</ele>
        <time>2012-01-08T08:34:36Z</time>
      </trkpt>
      <trkpt lat="47.34832" lon="-1.91946">
        <ele>-105</ele>
        <time>2012-01-08T08:34:38Z</time>
      </trkpt>
      <trkpt lat="47.34835" lon="-1.91946">
        <ele>-105</ele>
        <time>2012-01-08T08:34:40Z</time>
      </trkpt>
      <trkpt lat="47.34838" lon="-1.91947">
        <ele>-105</ele>
        <time>2012-01-08T08:34:42Z</time>
      </trkpt>
      <trkpt lat="47.3484" lon="-1.91947">
        <ele>-105</ele>
        <time>2012-01-08T08:34:44Z</time>
      </trkpt>
      <trkpt lat="47.34843" lon="-1.91948">
        <ele>-105</ele>
        <time>2012-01-08T08:34:47Z</time>
      </trkpt>
      <trkpt lat="47.34846" lon="-1.9195">
        <ele>-105</ele>
        <time>2012-01-08T08:34:49Z</time>
      </trkpt>
      <trkpt lat="47.34848" lon="-1.91951">
        <ele>-105</ele>
        <time>2012-01-08T08:34:51Z</time>
      </trkpt>
      <trkpt lat="47.34851" lon="-1.91953">
        <ele>-104</ele>
        <time>2012-01-08T08:34:53Z</time>
      </trkpt>
      <trkpt lat="47.34854" lon="-1.91953">
        <ele>-104</ele>
        <time>2012-01-08T08:34:55Z</time>
      </trkpt>
      <trkpt lat="47.34858" lon="-1.91955">
        <ele>-104</ele>
        <time>2012-01-08T08:34:57Z</time>
      </trkpt>
      <trkpt lat="47.3486" lon="-1.91957">
        <ele>-104</ele>
        <time>2012-01-08T08:34:59Z</time>
      </trkpt>
      <trkpt lat="47.34861" lon="-1.9196">
        <ele>-105</ele>
        <time>2012-01-08T08:35:01Z</time>
      </trkpt>
      <trkpt lat="47.34862" lon="-1.91961">
        <ele>-105</ele>
        <time>2012-01-08T08:35:03Z</time>
      </trkpt>
      <trkpt lat="47.34863" lon="-1.91961">
        <ele>-105</ele>
        <time>2012-01-08T08:35:05Z</time>
      </trkpt>
      <trkpt lat="47.34863" lon="-1.91961">
        <ele>-106</ele>
        <time>2012-01-08T08:35:07Z</time>
      </trkpt>
      <trkpt lat="47.34871" lon="-1.9196">
        <ele>-105</ele>
        <time>2012-01-08T08:35:10Z</time>
      </trkpt>
      <trkpt lat="47.3487" lon="-1.91963">
        <ele>-105</ele>
        <time>2012-01-08T08:35:12Z</time>
      </trkpt>
      <trkpt lat="47.34867" lon="-1.91972">
        <ele>-105</ele>
        <time>2012-01-08T08:35:14Z</time>
      </trkpt>
      <trkpt lat="47.34866" lon="-1.91979">
        <ele>-104</ele>
        <time>2012-01-08T08:35:16Z</time>
      </trkpt>
      <trkpt lat="47.34865" lon="-1.91989">
        <ele>-105</ele>
        <time>2012-01-08T08:35:18Z</time>
      </trkpt>
      <trkpt lat="47.34866" lon="-1.91999">
        <ele>-105</ele>
        <time>2012-01-08T08:35:20Z</time>
      </trkpt>
      <trkpt lat="47.34867" lon="-1.92009">
        <ele>-105</ele>
        <time>2012-01-08T08:35:22Z</time>
      </trkpt>
      <trkpt lat="47.34868" lon="-1.92019">
        <ele>-106</ele>
        <time>2012-01-08T08:35:24Z</time>
      </trkpt>
      <trkpt lat="47.3487" lon="-1.92029">
        <ele>-106</ele>
        <time>2012-01-08T08:35:26Z</time>
      </trkpt>
      <trkpt lat="47.34872" lon="-1.92041">
        <ele>-106</ele>
        <time>2012-01-08T08:35:28Z</time>
      </trkpt>
      <trkpt lat="47.34874" lon="-1.92054">
        <ele>-106</ele>
        <time>2012-01-08T08:35:30Z</time>
      </trkpt>
      <trkpt lat="47.34876" lon="-1.92069">
        <ele>-106</ele>
        <time>2012-01-08T08:35:32Z</time>
      </trkpt>
      <trkpt lat="47.34879" lon="-1.92085">
        <ele>-107</ele>
        <time>2012-01-08T08:35:35Z</time>
      </trkpt>
      <trkpt lat="47.34881" lon="-1.92103">
        <ele>-107</ele>
        <time>2012-01-08T08:35:37Z</time>
      </trkpt>
      <trkpt lat="47.34884" lon="-1.92131">
        <ele>-108</ele>
        <time>2012-01-08T08:35:39Z</time>
      </trkpt>
      <trkpt lat="47.34885" lon="-1.92149">
        <ele>-109</ele>
        <time>2012-01-08T08:35:41Z</time>
      </trkpt>
      <trkpt lat="47.34887" lon="-1.92166">
        <ele>-109</ele>
        <time>2012-01-08T08:35:43Z</time>
      </trkpt>
      <trkpt lat="47.3489" lon="-1.9218">
        <ele>-110</ele>
        <time>2012-01-08T08:35:45Z</time>
      </trkpt>
      <trkpt lat="47.34892" lon="-1.92189">
        <ele>-110</ele>
        <time>2012-01-08T08:35:47Z</time>
      </trkpt>
      <trkpt lat="47.34893" lon="-1.92196">
        <ele>-111</ele>
        <time>2012-01-08T08:35:49Z</time>
      </trkpt>
      <trkpt lat="47.35257" lon="-1.9234">
        <ele>-103</ele>
        <time>2012-01-08T08:35:52Z</time>
      </trkpt>
      <trkpt lat="47.35263" lon="-1.92321">
        <ele>-103</ele>
        <time>2012-01-08T08:35:54Z</time>
      </trkpt>
      <trkpt lat="47.35268" lon="-1.92306">
        <ele>-104</ele>
        <time>2012-01-08T08:35:56Z</time>
      </trkpt>
      <trkpt lat="47.35272" lon="-1.92296">
        <ele>-105</ele>
        <time>2012-01-08T08:35:58Z</time>
      </trkpt>
      <trkpt lat="47.35275" lon="-1.92288">
        <ele>-105</ele>
        <time>2012-01-08T08:36:00Z</time>
      </trkpt>
      <trkpt lat="47.35277" lon="-1.92281">
        <ele>-106</ele>
        <time>2012-01-08T08:36:02Z</time>
      </trkpt>
      <trkpt lat="47.35279" lon="-1.92274">
        <ele>-107</ele>
        <time>2012-01-08T08:36:04Z</time>
      </trkpt>
      <trkpt lat="47.3528" lon="-1.92267">
        <ele>-107</ele>
        <time>2012-01-08T08:36:06Z</time>
      </trkpt>
      <trkpt lat="47.35282" lon="-1.9226">
        <ele>-107</ele>
        <time>2012-01-08T08:36:08Z</time>
      </trkpt>
      <trkpt lat="47.35282" lon="-1.92254">
        <ele>-107</ele>
        <time>2012-01-08T08:36:10Z</time>
      </trkpt>
      <trkpt lat="47.35283" lon="-1.92248">
        <ele>-107</ele>
        <time>2012-01-08T08:36:12Z</time>
      </trkpt>
      <trkpt lat="47.35283" lon="-1.9224">
        <ele>-107</ele>
        <time>2012-01-08T08:36:14Z</time>
      </trkpt>
      <trkpt lat="47.35283" lon="-1.92229">
        <ele>-106</ele>
        <time>2012-01-08T08:36:16Z</time>
      </trkpt>
      <trkpt lat="47.35285" lon="-1.92218">
        <ele>-106</ele>
        <time>2012-01-08T08:36:18Z</time>
      </trkpt>
      <trkpt lat="47.35289" lon="-1.92202">
        <ele>-106</ele>
        <time>2012-01-08T08:36:21Z</time>
      </trkpt>
      <trkpt lat="47.35293" lon="-1.92191">
        <ele>-106</ele>
        <time>2012-01-08T08:36:23Z</time>
      </trkpt>
      <trkpt lat="47.35295" lon="-1.92186">
        <ele>-106</ele>
        <time>2012-01-08T08:36:25Z</time>
      </trkpt>
      <trkpt lat="47.35303" lon="-1.92171">
        <ele>-106</ele>
        <time>2012-01-08T08:36:27Z</time>
      </trkpt>
      <trkpt lat="47.35309" lon="-1.92161">
        <ele>-105</ele>
        <time>2012-01-08T08:36:29Z</time>
      </trkpt>
      <trkpt lat="47.35315" lon="-1.92152">
        <ele>-105</ele>
        <time>2012-01-08T08:36:31Z</time>
      </trkpt>
      <trkpt lat="47.35321" lon="-1.92142">
        <ele>-105</ele>
        <time>2012-01-08T08:36:33Z</time>
      </trkpt>
      <trkpt lat="47.35328" lon="-1.92133">
        <ele>-105</ele>
        <time>2012-01-08T08:36:35Z</time>
      </trkpt>
      <trkpt lat="47.35334" lon="-1.92124">
        <ele>-105</ele>
        <time>2012-01-08T08:36:37Z</time>
      </trkpt>
      <trkpt lat="47.35341" lon="-1.92116">
        <ele>-104</ele>
        <time>2012-01-08T08:36:39Z</time>
      </trkpt>
      <trkpt lat="47.35351" lon="-1.92103">
        <ele>-104</ele>
        <time>2012-01-08T08:36:42Z</time>
      </trkpt>
      <trkpt lat="47.35357" lon="-1.92095">
        <ele>-104</ele>
        <time>2012-01-08T08:36:44Z</time>
      </trkpt>
      <trkpt lat="47.35362" lon="-1.92088">
        <ele>-103</ele>
        <time>2012-01-08T08:36:46Z</time>
      </trkpt>
      <trkpt lat="47.35367" lon="-1.92083">
        <ele>-103</ele>
        <time>2012-01-08T08:36:48Z</time>
      </trkpt>
      <trkpt lat="47.35371" lon="-1.92085">
        <ele>-103</ele>
        <time>2012-01-08T08:36:50Z</time>
      </trkpt>
      <trkpt lat="47.35374" lon="-1.92094">
        <ele>-103</ele>
        <time>2012-01-08T08:36:53Z</time>
      </trkpt>
      <trkpt lat="47.35376" lon="-1.92097">
        <ele>-103</ele>
        <time>2012-01-08T08:36:55Z</time>
      </trkpt>
      <trkpt lat="47.35381" lon="-1.92107">
        <ele>-103</ele>
        <time>2012-01-08T08:36:57Z</time>
      </trkpt>
      <trkpt lat="47.35385" lon="-1.92114">
        <ele>-103</ele>
        <time>2012-01-08T08:36:59Z</time>
      </trkpt>
      <trkpt lat="47.35389" lon="-1.92121">
        <ele>-104</ele>
        <time>2012-01-08T08:37:01Z</time>
      </trkpt>
      <trkpt lat="47.35394" lon="-1.92131">
        <ele>-104</ele>
        <time>2012-01-08T08:37:03Z</time>
      </trkpt>
      <trkpt lat="47.35399" lon="-1.92141">
        <ele>-104</ele>
        <time>2012-01-08T08:37:05Z</time>
      </trkpt>
      <trkpt lat="47.35404" lon="-1.92151">
        <ele>-105</ele>
        <time>2012-01-08T08:37:07Z</time>
      </trkpt>
      <trkpt lat="47.35409" lon="-1.92161">
        <ele>-105</ele>
        <time>2012-01-08T08:37:09Z</time>
      </trkpt>
      <trkpt lat="47.35413" lon="-1.92172">
        <ele>-106</ele>
        <time>2012-01-08T08:37:11Z</time>
      </trkpt>
      <trkpt lat="47.35419" lon="-1.92187">
        <ele>-106</ele>
        <time>2012-01-08T08:37:13Z</time>
      </trkpt>
      <trkpt lat="47.35423" lon="-1.92196">
        <ele>-106</ele>
        <time>2012-01-08T08:37:16Z</time>
      </trkpt>
      <trkpt lat="47.35428" lon="-1.92204">
        <ele>-107</ele>
        <time>2012-01-08T08:37:18Z</time>
      </trkpt>
      <trkpt lat="47.3543" lon="-1.92209">
        <ele>-107</ele>
        <time>2012-01-08T08:37:20Z</time>
      </trkpt>
      <trkpt lat="47.35431" lon="-1.92226">
        <ele>-108</ele>
        <time>2012-01-08T08:37:22Z</time>
      </trkpt>
      <trkpt lat="47.35428" lon="-1.92237">
        <ele>-108</ele>
        <time>2012-01-08T08:37:24Z</time>
      </trkpt>
      <trkpt lat="47.35425" lon="-1.92249">
        <ele>-108</ele>
        <time>2012-01-08T08:37:26Z</time>
      </trkpt>
      <trkpt lat="47.35423" lon="-1.92261">
        <ele>-109</ele>
        <time>2012-01-08T08:37:28Z</time>
      </trkpt>
      <trkpt lat="47.35425" lon="-1.92271">
        <ele>-109</ele>
        <time>2012-01-08T08:37:30Z</time>
      </trkpt>
      <trkpt lat="47.35434" lon="-1.92284">
        <ele>-109</ele>
        <time>2012-01-08T08:37:32Z</time>
      </trkpt>
      <trkpt lat="47.35438" lon="-1.92288">
        <ele>-110</ele>
        <time>2012-01-08T08:37:35Z</time>
      </trkpt>
      <trkpt lat="47.35449" lon="-1.92305">
        <ele>-110</ele>
        <time>2012-01-08T08:37:37Z</time>
      </trkpt>
      <trkpt lat="47.35455" lon="-1.92317">
        <ele>-111</ele>
        <time>2012-01-08T08:37:39Z</time>
      </trkpt>
      <trkpt lat="47.3546" lon="-1.92326">
        <ele>-112</ele>
        <time>2012-01-08T08:37:41Z</time>
      </trkpt>
      <trkpt lat="47.35461" lon="-1.9233">
        <ele>-113</ele>
        <time>2012-01-08T08:37:43Z</time>
      </trkpt>
      <trkpt lat="47.35461" lon="-1.92333">
        <ele>-113</ele>
        <time>2012-01-08T08:37:45Z</time>
      </trkpt>
      <trkpt lat="47.35461" lon="-1.92342">
        <ele>-114</ele>
        <time>2012-01-08T08:37:47Z</time>
      </trkpt>
      <trkpt lat="47.3546" lon="-1.92347">
        <ele>-115</ele>
        <time>2012-01-08T08:37:49Z</time>
      </trkpt>
      <trkpt lat="47.35459" lon="-1.92354">
        <ele>-115</ele>
        <time>2012-01-08T08:37:51Z</time>
      </trkpt>
      <trkpt lat="47.35458" lon="-1.9236">
        <ele>-115</ele>
        <time>2012-01-08T08:37:53Z</time>
      </trkpt>
      <trkpt lat="47.35457" lon="-1.92364">
        <ele>-116</ele>
        <time>2012-01-08T08:37:55Z</time>
      </trkpt>
      <trkpt lat="47.35453" lon="-1.92369">
        <ele>-117</ele>
        <time>2012-01-08T08:37:57Z</time>
      </trkpt>
      <trkpt lat="47.35451" lon="-1.92374">
        <ele>-119</ele>
        <time>2012-01-08T08:37:59Z</time>
      </trkpt>
      <trkpt lat="47.3545" lon="-1.92377">
        <ele>-120</ele>
        <time>2012-01-08T08:38:01Z</time>
      </trkpt>
      <trkpt lat="47.35449" lon="-1.92379">
        <ele>-122</ele>
        <time>2012-01-08T08:38:03Z</time>
      </trkpt>
      <trkpt lat="47.35448" lon="-1.9238">
        <ele>-122</ele>
        <time>2012-01-08T08:38:06Z</time>
      </trkpt>
      <trkpt lat="47.35448" lon="-1.92381">
        <ele>-122</ele>
        <time>2012-01-08T08:38:08Z</time>
      </trkpt>
      <trkpt lat="47.35448" lon="-1.92382">
        <ele>-122</ele>
        <time>2012-01-08T08:38:10Z</time>
      </trkpt>
      <trkpt lat="47.35448" lon="-1.92387">
        <ele>-122</ele>
        <time>2012-01-08T08:38:12Z</time>
      </trkpt>
      <trkpt lat="47.35446" lon="-1.92393">
        <ele>-122</ele>
        <time>2012-01-08T08:38:14Z</time>
      </trkpt>
      <trkpt lat="47.35445" lon="-1.92402">
        <ele>-122</ele>
        <time>2012-01-08T08:38:16Z</time>
      </trkpt>
      <trkpt lat="47.35443" lon="-1.9241">
        <ele>-121</ele>
        <time>2012-01-08T08:38:18Z</time>
      </trkpt>
      <trkpt lat="47.35442" lon="-1.92413">
        <ele>-120</ele>
        <time>2012-01-08T08:38:20Z</time>
      </trkpt>
      <trkpt lat="47.35443" lon="-1.92417">
        <ele>-120</ele>
        <time>2012-01-08T08:38:22Z</time>
      </trkpt>
      <trkpt lat="47.35444" lon="-1.92422">
        <ele>-119</ele>
        <time>2012-01-08T08:38:25Z</time>
      </trkpt>
      <trkpt lat="47.35447" lon="-1.92433">
        <ele>-119</ele>
        <time>2012-01-08T08:38:27Z</time>
      </trkpt>
      <trkpt lat="47.35453" lon="-1.92443">
        <ele>-119</ele>
        <time>2012-01-08T08:38:29Z</time>
      </trkpt>
      <trkpt lat="47.35458" lon="-1.92451">
        <ele>-120</ele>
        <time>2012-01-08T08:38:31Z</time>
      </trkpt>
      <trkpt lat="47.35461" lon="-1.92461">
        <ele>-121</ele>
        <time>2012-01-08T08:38:33Z</time>
      </trkpt>
      <trkpt lat="47.35463" lon="-1.92474">
        <ele>-121</ele>
        <time>2012-01-08T08:38:35Z</time>
      </trkpt>
      <trkpt lat="47.35463" lon="-1.92487">
        <ele>-122</ele>
        <time>2012-01-08T08:38:37Z</time>
      </trkpt>
      <trkpt lat="47.35463" lon="-1.925">
        <ele>-122</ele>
        <time>2012-01-08T08:38:39Z</time>
      </trkpt>
      <trkpt lat="47.35461" lon="-1.92509">
        <ele>-122</ele>
        <time>2012-01-08T08:38:41Z</time>
      </trkpt>
      <trkpt lat="47.35457" lon="-1.92516">
        <ele>-122</ele>
        <time>2012-01-08T08:38:43Z</time>
      </trkpt>
      <trkpt lat="47.35453" lon="-1.92521">
        <ele>-122</ele>
        <time>2012-01-08T08:38:45Z</time>
      </trkpt>
      <trkpt lat="47.35451" lon="-1.92525">
        <ele>-122</ele>
        <time>2012-01-08T08:38:47Z</time>
      </trkpt>
      <trkpt lat="47.35448" lon="-1.92529">
        <ele>-121</ele>
        <time>2012-01-08T08:38:49Z</time>
      </trkpt>
      <trkpt lat="47.35445" lon="-1.92533">
        <ele>-121</ele>
        <time>2012-01-08T08:38:51Z</time>
      </trkpt>
      <trkpt lat="47.35442" lon="-1.92539">
        <ele>-121</ele>
        <time>2012-01-08T08:38:54Z</time>
      </trkpt>
      <trkpt lat="47.35439" lon="-1.92543">
        <ele>-121</ele>
        <time>2012-01-08T08:38:56Z</time>
      </trkpt>
      <trkpt lat="47.35438" lon="-1.92546">
        <ele>-121</ele>
        <time>2012-01-08T08:38:58Z</time>
      </trkpt>
      <trkpt lat="47.35437" lon="-1.92548">
        <ele>-120</ele>
        <time>2012-01-08T08:39:00Z</time>
      </trkpt>
      <trkpt lat="47.35435" lon="-1.9255">
        <ele>-120</ele>
        <time>2012-01-08T08:39:02Z</time>
      </trkpt>
      <trkpt lat="47.35434" lon="-1.92552">
        <ele>-119</ele>
        <time>2012-01-08T08:39:04Z</time>
      </trkpt>
      <trkpt lat="47.35433" lon="-1.92556">
        <ele>-119</ele>
        <time>2012-01-08T08:39:06Z</time>
      </trkpt>
      <trkpt lat="47.35431" lon="-1.92562">
        <ele>-118</ele>
        <time>2012-01-08T08:39:08Z</time>
      </trkpt>
      <trkpt lat="47.35429" lon="-1.92568">
        <ele>-118</ele>
        <time>2012-01-08T08:39:11Z</time>
      </trkpt>
      <trkpt lat="47.35428" lon="-1.92575">
        <ele>-118</ele>
        <time>2012-01-08T08:39:13Z</time>
      </trkpt>
      <trkpt lat="47.35424" lon="-1.92581">
        <ele>-118</ele>
        <time>2012-01-08T08:39:15Z</time>
      </trkpt>
      <trkpt lat="47.35421" lon="-1.92588">
        <ele>-118</ele>
        <time>2012-01-08T08:39:17Z</time>
      </trkpt>
      <trkpt lat="47.35417" lon="-1.92595">
        <ele>-118</ele>
        <time>2012-01-08T08:39:19Z</time>
      </trkpt>
      <trkpt lat="47.35413" lon="-1.926">
        <ele>-118</ele>
        <time>2012-01-08T08:39:21Z</time>
      </trkpt>
      <trkpt lat="47.35408" lon="-1.92602">
        <ele>-118</ele>
        <time>2012-01-08T08:39:23Z</time>
      </trkpt>
      <trkpt lat="47.35405" lon="-1.92604">
        <ele>-118</ele>
        <time>2012-01-08T08:39:25Z</time>
      </trkpt>
      <trkpt lat="47.35402" lon="-1.92611">
        <ele>-118</ele>
        <time>2012-01-08T08:39:27Z</time>
      </trkpt>
      <trkpt lat="47.35397" lon="-1.92619">
        <ele>-118</ele>
        <time>2012-01-08T08:39:30Z</time>
      </trkpt>
      <trkpt lat="47.35392" lon="-1.92625">
        <ele>-119</ele>
        <time>2012-01-08T08:39:32Z</time>
      </trkpt>
      <trkpt lat="47.3539" lon="-1.92631">
        <ele>-119</ele>
        <time>2012-01-08T08:39:34Z</time>
      </trkpt>
      <trkpt lat="47.35388" lon="-1.92639">
        <ele>-119</ele>
        <time>2012-01-08T08:39:36Z</time>
      </trkpt>
      <trkpt lat="47.35384" lon="-1.92648">
        <ele>-119</ele>
        <time>2012-01-08T08:39:38Z</time>
      </trkpt>
      <trkpt lat="47.35379" lon="-1.92655">
        <ele>-119</ele>
        <time>2012-01-08T08:39:40Z</time>
      </trkpt>
      <trkpt lat="47.35376" lon="-1.9266">
        <ele>-119</ele>
        <time>2012-01-08T08:39:42Z</time>
      </trkpt>
      <trkpt lat="47.35373" lon="-1.92666">
        <ele>-119</ele>
        <time>2012-01-08T08:39:44Z</time>
      </trkpt>
      <trkpt lat="47.35368" lon="-1.92672">
        <ele>-119</ele>
        <time>2012-01-08T08:39:47Z</time>
      </trkpt>
      <trkpt lat="47.35364" lon="-1.92675">
        <ele>-119</ele>
        <time>2012-01-08T08:39:49Z</time>
      </trkpt>
      <trkpt lat="47.3536" lon="-1.92677">
        <ele>-119</ele>
        <time>2012-01-08T08:39:51Z</time>
      </trkpt>
      <trkpt lat="47.35358" lon="-1.92681">
        <ele>-119</ele>
        <time>2012-01-08T08:39:53Z</time>
      </trkpt>
      <trkpt lat="47.35353" lon="-1.92686">
        <ele>-119</ele>
        <time>2012-01-08T08:39:55Z</time>
      </trkpt>
      <trkpt lat="47.35348" lon="-1.9269">
        <ele>-119</ele>
        <time>2012-01-08T08:39:57Z</time>
      </trkpt>
      <trkpt lat="47.35346" lon="-1.92691">
        <ele>-119</ele>
        <time>2012-01-08T08:40:00Z</time>
      </trkpt>
      <trkpt lat="47.35341" lon="-1.92693">
        <ele>-119</ele>
        <time>2012-01-08T08:40:02Z</time>
      </trkpt>
      <trkpt lat="47.35338" lon="-1.92695">
        <ele>-119</ele>
        <time>2012-01-08T08:40:04Z</time>
      </trkpt>
      <trkpt lat="47.35334" lon="-1.92697">
        <ele>-118</ele>
        <time>2012-01-08T08:40:06Z</time>
      </trkpt>
      <trkpt lat="47.35329" lon="-1.92698">
        <ele>-118</ele>
        <time>2012-01-08T08:40:08Z</time>
      </trkpt>
      <trkpt lat="47.35324" lon="-1.92699">
        <ele>-117</ele>
        <time>2012-01-08T08:40:10Z</time>
      </trkpt>
      <trkpt lat="47.35318" lon="-1.927">
        <ele>-117</ele>
        <time>2012-01-08T08:40:12Z</time>
      </trkpt>
      <trkpt lat="47.35315" lon="-1.92703">
        <ele>-117</ele>
        <time>2012-01-08T08:40:15Z</time>
      </trkpt>
      <trkpt lat="47.3531" lon="-1.92706">
        <ele>-117</ele>
        <time>2012-01-08T08:40:17Z</time>
      </trkpt>
      <trkpt lat="47.35307" lon="-1.92706">
        <ele>-117</ele>
        <time>2012-01-08T08:40:19Z</time>
      </trkpt>
      <trkpt lat="47.35304" lon="-1.92706">
        <ele>-117</ele>
        <time>2012-01-08T08:40:21Z</time>
      </trkpt>
      <trkpt lat="47.353" lon="-1.92707">
        <ele>-116</ele>
        <time>2012-01-08T08:40:23Z</time>
      </trkpt>
      <trkpt lat="47.35297" lon="-1.92707">
        <ele>-116</ele>
        <time>2012-01-08T08:40:25Z</time>
      </trkpt>
      <trkpt lat="47.35291" lon="-1.92707">
        <ele>-116</ele>
        <time>2012-01-08T08:40:27Z</time>
      </trkpt>
      <trkpt lat="47.35287" lon="-1.9271">
        <ele>-116</ele>
        <time>2012-01-08T08:40:30Z</time>
      </trkpt>
      <trkpt lat="47.35281" lon="-1.92713">
        <ele>-116</ele>
        <time>2012-01-08T08:40:32Z</time>
      </trkpt>
      <trkpt lat="47.35274" lon="-1.92715">
        <ele>-116</ele>
        <time>2012-01-08T08:40:34Z</time>
      </trkpt>
      <trkpt lat="47.35269" lon="-1.92721">
        <ele>-117</ele>
        <time>2012-01-08T08:40:36Z</time>
      </trkpt>
      <trkpt lat="47.35264" lon="-1.92725">
        <ele>-118</ele>
        <time>2012-01-08T08:40:38Z</time>
      </trkpt>
      <trkpt lat="47.3526" lon="-1.92721">
        <ele>-119</ele>
        <time>2012-01-08T08:40:40Z</time>
      </trkpt>
      <trkpt lat="47.3526" lon="-1.92717">
        <ele>-120</ele>
        <time>2012-01-08T08:40:42Z</time>
      </trkpt>
      <trkpt lat="47.35258" lon="-1.92711">
        <ele>-120</ele>
        <time>2012-01-08T08:40:44Z</time>
      </trkpt>
      <trkpt lat="47.35257" lon="-1.92707">
        <ele>-120</ele>
        <time>2012-01-08T08:40:47Z</time>
      </trkpt>
      <trkpt lat="47.35255" lon="-1.92702">
        <ele>-119</ele>
        <time>2012-01-08T08:40:49Z</time>
      </trkpt>
      <trkpt lat="47.35254" lon="-1.92698">
        <ele>-119</ele>
        <time>2012-01-08T08:40:51Z</time>
      </trkpt>
      <trkpt lat="47.35251" lon="-1.92694">
        <ele>-119</ele>
        <time>2012-01-08T08:40:53Z</time>
      </trkpt>
      <trkpt lat="47.35245" lon="-1.92693">
        <ele>-119</ele>
        <time>2012-01-08T08:40:55Z</time>
      </trkpt>
      <trkpt lat="47.3524" lon="-1.92692">
        <ele>-120</ele>
        <time>2012-01-08T08:40:57Z</time>
      </trkpt>
      <trkpt lat="47.35236" lon="-1.92694">
        <ele>-120</ele>
        <time>2012-01-08T08:40:59Z</time>
      </trkpt>
      <trkpt lat="47.35233" lon="-1.92699">
        <ele>-121</ele>
        <time>2012-01-08T08:41:01Z</time>
      </trkpt>
      <trkpt lat="47.35231" lon="-1.92702">
        <ele>-122</ele>
        <time>2012-01-08T08:41:03Z</time>
      </trkpt>
      <trkpt lat="47.3523" lon="-1.92706">
        <ele>-123</ele>
        <time>2012-01-08T08:41:06Z</time>
      </trkpt>
      <trkpt lat="47.35227" lon="-1.9271">
        <ele>-124</ele>
        <time>2012-01-08T08:41:08Z</time>
      </trkpt>
      <trkpt lat="47.35224" lon="-1.92718">
        <ele>-125</ele>
        <time>2012-01-08T08:41:10Z</time>
      </trkpt>
      <trkpt lat="47.3522" lon="-1.92727">
        <ele>-127</ele>
        <time>2012-01-08T08:41:12Z</time>
      </trkpt>
      <trkpt lat="47.35218" lon="-1.92736">
        <ele>-129</ele>
        <time>2012-01-08T08:41:14Z</time>
      </trkpt>
      <trkpt lat="47.35217" lon="-1.92745">
        <ele>-131</ele>
        <time>2012-01-08T08:41:16Z</time>
      </trkpt>
      <trkpt lat="47.35219" lon="-1.92754">
        <ele>-133</ele>
        <time>2012-01-08T08:41:18Z</time>
      </trkpt>
      <trkpt lat="47.35221" lon="-1.92763">
        <ele>-135</ele>
        <time>2012-01-08T08:41:20Z</time>
      </trkpt>
      <trkpt lat="47.35225" lon="-1.92777">
        <ele>-136</ele>
        <time>2012-01-08T08:41:22Z</time>
      </trkpt>
      <trkpt lat="47.35225" lon="-1.92781">
        <ele>-138</ele>
        <time>2012-01-08T08:41:25Z</time>
      </trkpt>
      <trkpt lat="47.35224" lon="-1.92785">
        <ele>-139</ele>
        <time>2012-01-08T08:41:27Z</time>
      </trkpt>
      <trkpt lat="47.3522" lon="-1.92785">
        <ele>-139</ele>
        <time>2012-01-08T08:41:29Z</time>
      </trkpt>
      <trkpt lat="47.35216" lon="-1.92786">
        <ele>-140</ele>
        <time>2012-01-08T08:41:31Z</time>
      </trkpt>
      <trkpt lat="47.35211" lon="-1.92787">
        <ele>-140</ele>
        <time>2012-01-08T08:41:33Z</time>
      </trkpt>
      <trkpt lat="47.35206" lon="-1.92788">
        <ele>-141</ele>
        <time>2012-01-08T08:41:35Z</time>
      </trkpt>
      <trkpt lat="47.35201" lon="-1.92789">
        <ele>-141</ele>
        <time>2012-01-08T08:41:37Z</time>
      </trkpt>
      <trkpt lat="47.35195" lon="-1.92789">
        <ele>-141</ele>
        <time>2012-01-08T08:41:39Z</time>
      </trkpt>
      <trkpt lat="47.35189" lon="-1.9279">
        <ele>-141</ele>
        <time>2012-01-08T08:41:41Z</time>
      </trkpt>
      <trkpt lat="47.35179" lon="-1.92791">
        <ele>-141</ele>
        <time>2012-01-08T08:41:44Z</time>
      </trkpt>
      <trkpt lat="47.35172" lon="-1.92792">
        <ele>-141</ele>
        <time>2012-01-08T08:41:46Z</time>
      </trkpt>
      <trkpt lat="47.35165" lon="-1.92796">
        <ele>-141</ele>
        <time>2012-01-08T08:41:48Z</time>
      </trkpt>
      <trkpt lat="47.35157" lon="-1.92801">
        <ele>-142</ele>
        <time>2012-01-08T08:41:50Z</time>
      </trkpt>
      <trkpt lat="47.35152" lon="-1.92809">
        <ele>-142</ele>
        <time>2012-01-08T08:41:52Z</time>
      </trkpt>
      <trkpt lat="47.35148" lon="-1.92816">
        <ele>-142</ele>
        <time>2012-01-08T08:41:54Z</time>
      </trkpt>
      <trkpt lat="47.35145" lon="-1.92826">
        <ele>-143</ele>
        <time>2012-01-08T08:41:56Z</time>
      </trkpt>
      <trkpt lat="47.35143" lon="-1.92836">
        <ele>-143</ele>
        <time>2012-01-08T08:41:58Z</time>
      </trkpt>
      <trkpt lat="47.35141" lon="-1.92853">
        <ele>-143</ele>
        <time>2012-01-08T08:42:00Z</time>
      </trkpt>
      <trkpt lat="47.35139" lon="-1.92862">
        <ele>-143</ele>
        <time>2012-01-08T08:42:02Z</time>
      </trkpt>
      <trkpt lat="47.35139" lon="-1.9287">
        <ele>-143</ele>
        <time>2012-01-08T08:42:04Z</time>
      </trkpt>
      <trkpt lat="47.3514" lon="-1.92876">
        <ele>-144</ele>
        <time>2012-01-08T08:42:07Z</time>
      </trkpt>
      <trkpt lat="47.35143" lon="-1.92882">
        <ele>-144</ele>
        <time>2012-01-08T08:42:09Z</time>
      </trkpt>
      <trkpt lat="47.35145" lon="-1.9289">
        <ele>-144</ele>
        <time>2012-01-08T08:42:11Z</time>
      </trkpt>
      <trkpt lat="47.35147" lon="-1.929">
        <ele>-144</ele>
        <time>2012-01-08T08:42:13Z</time>
      </trkpt>
      <trkpt lat="47.35149" lon="-1.92911">
        <ele>-143</ele>
        <time>2012-01-08T08:42:15Z</time>
      </trkpt>
      <trkpt lat="47.3515" lon="-1.92924">
        <ele>-143</ele>
        <time>2012-01-08T08:42:17Z</time>
      </trkpt>
      <trkpt lat="47.3515" lon="-1.92937">
        <ele>-143</ele>
        <time>2012-01-08T08:42:19Z</time>
      </trkpt>
      <trkpt lat="47.35151" lon="-1.9295">
        <ele>-144</ele>
        <time>2012-01-08T08:42:21Z</time>
      </trkpt>
      <trkpt lat="47.35152" lon="-1.9297">
        <ele>-144</ele>
        <time>2012-01-08T08:42:23Z</time>
      </trkpt>
      <trkpt lat="47.35153" lon="-1.92983">
        <ele>-144</ele>
        <time>2012-01-08T08:42:25Z</time>
      </trkpt>
      <trkpt lat="47.35153" lon="-1.92992">
        <ele>-144</ele>
        <time>2012-01-08T08:42:28Z</time>
      </trkpt>
      <trkpt lat="47.35154" lon="-1.93002">
        <ele>-144</ele>
        <time>2012-01-08T08:42:30Z</time>
      </trkpt>
      <trkpt lat="47.35156" lon="-1.93014">
        <ele>-144</ele>
        <time>2012-01-08T08:42:32Z</time>
      </trkpt>
      <trkpt lat="47.35158" lon="-1.93026">
        <ele>-145</ele>
        <time>2012-01-08T08:42:34Z</time>
      </trkpt>
      <trkpt lat="47.35159" lon="-1.93038">
        <ele>-145</ele>
        <time>2012-01-08T08:42:36Z</time>
      </trkpt>
      <trkpt lat="47.35161" lon="-1.93051">
        <ele>-145</ele>
        <time>2012-01-08T08:42:38Z</time>
      </trkpt>
      <trkpt lat="47.35162" lon="-1.93063">
        <ele>-145</ele>
        <time>2012-01-08T08:42:40Z</time>
      </trkpt>
      <trkpt lat="47.35167" lon="-1.9308">
        <ele>-145</ele>
        <time>2012-01-08T08:42:42Z</time>
      </trkpt>
      <trkpt lat="47.35169" lon="-1.93092">
        <ele>-145</ele>
        <time>2012-01-08T08:42:45Z</time>
      </trkpt>
      <trkpt lat="47.3517" lon="-1.93104">
        <ele>-146</ele>
        <time>2012-01-08T08:42:47Z</time>
      </trkpt>
      <trkpt lat="47.35172" lon="-1.93116">
        <ele>-146</ele>
        <time>2012-01-08T08:42:49Z</time>
      </trkpt>
      <trkpt lat="47.35173" lon="-1.93127">
        <ele>-146</ele>
        <time>2012-01-08T08:42:51Z</time>
      </trkpt>
      <trkpt lat="47.35173" lon="-1.93138">
        <ele>-146</ele>
        <time>2012-01-08T08:42:53Z</time>
      </trkpt>
      <trkpt lat="47.35175" lon="-1.93149">
        <ele>-146</ele>
        <time>2012-01-08T08:42:55Z</time>
      </trkpt>
      <trkpt lat="47.35176" lon="-1.9316">
        <ele>-146</ele>
        <time>2012-01-08T08:42:57Z</time>
      </trkpt>
      <trkpt lat="47.35178" lon="-1.93171">
        <ele>-146</ele>
        <time>2012-01-08T08:42:59Z</time>
      </trkpt>
      <trkpt lat="47.35178" lon="-1.93181">
        <ele>-146</ele>
        <time>2012-01-08T08:43:01Z</time>
      </trkpt>
      <trkpt lat="47.35178" lon="-1.93191">
        <ele>-146</ele>
        <time>2012-01-08T08:43:03Z</time>
      </trkpt>
      <trkpt lat="47.35178" lon="-1.93206">
        <ele>-147</ele>
        <time>2012-01-08T08:43:05Z</time>
      </trkpt>
      <trkpt lat="47.35178" lon="-1.93216">
        <ele>-147</ele>
        <time>2012-01-08T08:43:07Z</time>
      </trkpt>
      <trkpt lat="47.35179" lon="-1.93227">
        <ele>-148</ele>
        <time>2012-01-08T08:43:10Z</time>
      </trkpt>
      <trkpt lat="47.3518" lon="-1.93239">
        <ele>-148</ele>
        <time>2012-01-08T08:43:12Z</time>
      </trkpt>
      <trkpt lat="47.35179" lon="-1.93253">
        <ele>-148</ele>
        <time>2012-01-08T08:43:14Z</time>
      </trkpt>
      <trkpt lat="47.35178" lon="-1.93266">
        <ele>-149</ele>
        <time>2012-01-08T08:43:16Z</time>
      </trkpt>
      <trkpt lat="47.35177" lon="-1.93275">
        <ele>-149</ele>
        <time>2012-01-08T08:43:18Z</time>
      </trkpt>
      <trkpt lat="47.35177" lon="-1.93284">
        <ele>-149</ele>
        <time>2012-01-08T08:43:20Z</time>
      </trkpt>
      <trkpt lat="47.35176" lon="-1.93292">
        <ele>-149</ele>
        <time>2012-01-08T08:43:22Z</time>
      </trkpt>
      <trkpt lat="47.35177" lon="-1.93301">
        <ele>-149</ele>
        <time>2012-01-08T08:43:24Z</time>
      </trkpt>
      <trkpt lat="47.35181" lon="-1.93316">
        <ele>-149</ele>
        <time>2012-01-08T08:43:26Z</time>
      </trkpt>
      <trkpt lat="47.35184" lon="-1.93326">
        <ele>-149</ele>
        <time>2012-01-08T08:43:29Z</time>
      </trkpt>
      <trkpt lat="47.35187" lon="-1.93337">
        <ele>-149</ele>
        <time>2012-01-08T08:43:31Z</time>
      </trkpt>
      <trkpt lat="47.35189" lon="-1.93348">
        <ele>-149</ele>
        <time>2012-01-08T08:43:33Z</time>
      </trkpt>
      <trkpt lat="47.35192" lon="-1.93358">
        <ele>-149</ele>
        <time>2012-01-08T08:43:35Z</time>
      </trkpt>
      <trkpt lat="47.35194" lon="-1.93368">
        <ele>-149</ele>
        <time>2012-01-08T08:43:37Z</time>
      </trkpt>
      <trkpt lat="47.35196" lon="-1.93377">
        <ele>-149</ele>
        <time>2012-01-08T08:43:39Z</time>
      </trkpt>
      <trkpt lat="47.35198" lon="-1.93389">
        <ele>-149</ele>
        <time>2012-01-08T08:43:41Z</time>
      </trkpt>
      <trkpt lat="47.35199" lon="-1.93397">
        <ele>-150</ele>
        <time>2012-01-08T08:43:43Z</time>
      </trkpt>
      <trkpt lat="47.35201" lon="-1.93404">
        <ele>-150</ele>
        <time>2012-01-08T08:43:46Z</time>
      </trkpt>
      <trkpt lat="47.35204" lon="-1.93413">
        <ele>-150</ele>
        <time>2012-01-08T08:43:48Z</time>
      </trkpt>
      <trkpt lat="47.35209" lon="-1.93423">
        <ele>-150</ele>
        <time>2012-01-08T08:43:50Z</time>
      </trkpt>
      <trkpt lat="47.35214" lon="-1.93432">
        <ele>-150</ele>
        <time>2012-01-08T08:43:52Z</time>
      </trkpt>
      <trkpt lat="47.35219" lon="-1.93441">
        <ele>-150</ele>
        <time>2012-01-08T08:43:54Z</time>
      </trkpt>
      <trkpt lat="47.35224" lon="-1.9345">
        <ele>-150</ele>
        <time>2012-01-08T08:43:56Z</time>
      </trkpt>
      <trkpt lat="47.35229" lon="-1.93459">
        <ele>-150</ele>
        <time>2012-01-08T08:43:58Z</time>
      </trkpt>
      <trkpt lat="47.35234" lon="-1.93468">
        <ele>-150</ele>
        <time>2012-01-08T08:44:00Z</time>
      </trkpt>
      <trkpt lat="47.35242" lon="-1.93483">
        <ele>-150</ele>
        <time>2012-01-08T08:44:02Z</time>
      </trkpt>
      <trkpt lat="47.35247" lon="-1.93493">
        <ele>-149</ele>
        <time>2012-01-08T08:44:05Z</time>
      </trkpt>
      <trkpt lat="47.35253" lon="-1.93502">
        <ele>-149</ele>
        <time>2012-01-08T08:44:07Z</time>
      </trkpt>
      <trkpt lat="47.35258" lon="-1.93512">
        <ele>-149</ele>
        <time>2012-01-08T08:44:09Z</time>
      </trkpt>
      <trkpt lat="47.35263" lon="-1.93523">
        <ele>-149</ele>
        <time>2012-01-08T08:44:11Z</time>
      </trkpt>
      <trkpt lat="47.35272" lon="-1.93536">
        <ele>-149</ele>
        <time>2012-01-08T08:44:13Z</time>
      </trkpt>
      <trkpt lat="47.35277" lon="-1.93546">
        <ele>-149</ele>
        <time>2012-01-08T08:44:16Z</time>
      </trkpt>
      <trkpt lat="47.35283" lon="-1.93555">
        <ele>-148</ele>
        <time>2012-01-08T08:44:18Z</time>
      </trkpt>
      <trkpt lat="47.35288" lon="-1.93565">
        <ele>-148</ele>
        <time>2012-01-08T08:44:20Z</time>
      </trkpt>
      <trkpt lat="47.35294" lon="-1.93574">
        <ele>-148</ele>
        <time>2012-01-08T08:44:22Z</time>
      </trkpt>
      <trkpt lat="47.35299" lon="-1.93583">
        <ele>-147</ele>
        <time>2012-01-08T08:44:24Z</time>
      </trkpt>
      <trkpt lat="47.35304" lon="-1.93592">
        <ele>-147</ele>
        <time>2012-01-08T08:44:26Z</time>
      </trkpt>
      <trkpt lat="47.35309" lon="-1.93601">
        <ele>-147</ele>
        <time>2012-01-08T08:44:28Z</time>
      </trkpt>
      <trkpt lat="47.35314" lon="-1.9361">
        <ele>-147</ele>
        <time>2012-01-08T08:44:30Z</time>
      </trkpt>
      <trkpt lat="47.35319" lon="-1.93619">
        <ele>-146</ele>
        <time>2012-01-08T08:44:32Z</time>
      </trkpt>
      <trkpt lat="47.35324" lon="-1.93628">
        <ele>-145</ele>
        <time>2012-01-08T08:44:34Z</time>
      </trkpt>
      <trkpt lat="47.35329" lon="-1.93639">
        <ele>-144</ele>
        <time>2012-01-08T08:44:36Z</time>
      </trkpt>
      <trkpt lat="47.35336" lon="-1.93652">
        <ele>-144</ele>
        <time>2012-01-08T08:44:38Z</time>
      </trkpt>
      <trkpt lat="47.35339" lon="-1.93657">
        <ele>-143</ele>
        <time>2012-01-08T08:44:40Z</time>
      </trkpt>
      <trkpt lat="47.35347" lon="-1.93669">
        <ele>-143</ele>
        <time>2012-01-08T08:44:43Z</time>
      </trkpt>
      <trkpt lat="47.35352" lon="-1.93677">
        <ele>-143</ele>
        <time>2012-01-08T08:44:45Z</time>
      </trkpt>
      <trkpt lat="47.35357" lon="-1.93685">
        <ele>-142</ele>
        <time>2012-01-08T08:44:47Z</time>
      </trkpt>
      <trkpt lat="47.35361" lon="-1.93692">
        <ele>-142</ele>
        <time>2012-01-08T08:44:49Z</time>
      </trkpt>
      <trkpt lat="47.35368" lon="-1.93704">
        <ele>-142</ele>
        <time>2012-01-08T08:44:51Z</time>
      </trkpt>
      <trkpt lat="47.35373" lon="-1.93711">
        <ele>-141</ele>
        <time>2012-01-08T08:44:54Z</time>
      </trkpt>
      <trkpt lat="47.35377" lon="-1.93719">
        <ele>-141</ele>
        <time>2012-01-08T08:44:56Z</time>
      </trkpt>
      <trkpt lat="47.35382" lon="-1.93726">
        <ele>-141</ele>
        <time>2012-01-08T08:44:58Z</time>
      </trkpt>
      <trkpt lat="47.35386" lon="-1.93734">
        <ele>-140</ele>
        <time>2012-01-08T08:45:00Z</time>
      </trkpt>
      <trkpt lat="47.35393" lon="-1.93745">
        <ele>-140</ele>
        <time>2012-01-08T08:45:02Z</time>
      </trkpt>
      <trkpt lat="47.35396" lon="-1.93749">
        <ele>-140</ele>
        <time>2012-01-08T08:45:05Z</time>
      </trkpt>
      <trkpt lat="47.35403" lon="-1.9376">
        <ele>-139</ele>
        <time>2012-01-08T08:45:07Z</time>
      </trkpt>
      <trkpt lat="47.35407" lon="-1.93767">
        <ele>-139</ele>
        <time>2012-01-08T08:45:09Z</time>
      </trkpt>
      <trkpt lat="47.35412" lon="-1.93775">
        <ele>-138</ele>
        <time>2012-01-08T08:45:11Z</time>
      </trkpt>
      <trkpt lat="47.35416" lon="-1.93782">
        <ele>-138</ele>
        <time>2012-01-08T08:45:13Z</time>
      </trkpt>
      <trkpt lat="47.35421" lon="-1.9379">
        <ele>-138</ele>
        <time>2012-01-08T08:45:15Z</time>
      </trkpt>
      <trkpt lat="47.35427" lon="-1.93801">
        <ele>-138</ele>
        <time>2012-01-08T08:45:18Z</time>
      </trkpt>
      <trkpt lat="47.35432" lon="-1.93808">
        <ele>-138</ele>
        <time>2012-01-08T08:45:20Z</time>
      </trkpt>
      <trkpt lat="47.35436" lon="-1.93816">
        <ele>-138</ele>
        <time>2012-01-08T08:45:22Z</time>
      </trkpt>
      <trkpt lat="47.3544" lon="-1.93823">
        <ele>-137</ele>
        <time>2012-01-08T08:45:24Z</time>
      </trkpt>
      <trkpt lat="47.35445" lon="-1.9383">
        <ele>-137</ele>
        <time>2012-01-08T08:45:26Z</time>
      </trkpt>
      <trkpt lat="47.35449" lon="-1.93837">
        <ele>-137</ele>
        <time>2012-01-08T08:45:28Z</time>
      </trkpt>
      <trkpt lat="47.35453" lon="-1.93844">
        <ele>-136</ele>
        <time>2012-01-08T08:45:30Z</time>
      </trkpt>
      <trkpt lat="47.3546" lon="-1.93854">
        <ele>-136</ele>
        <time>2012-01-08T08:45:32Z</time>
      </trkpt>
      <trkpt lat="47.35462" lon="-1.93858">
        <ele>-136</ele>
        <time>2012-01-08T08:45:35Z</time>
      </trkpt>
      <trkpt lat="47.35469" lon="-1.93868">
        <ele>-135</ele>
        <time>2012-01-08T08:45:37Z</time>
      </trkpt>
      <trkpt lat="47.35473" lon="-1.93875">
        <ele>-135</ele>
        <time>2012-01-08T08:45:39Z</time>
      </trkpt>
      <trkpt lat="47.35477" lon="-1.93882">
        <ele>-135</ele>
        <time>2012-01-08T08:45:41Z</time>
      </trkpt>
      <trkpt lat="47.35481" lon="-1.93889">
        <ele>-135</ele>
        <time>2012-01-08T08:45:43Z</time>
      </trkpt>
      <trkpt lat="47.35485" lon="-1.93897">
        <ele>-134</ele>
        <time>2012-01-08T08:45:45Z</time>
      </trkpt>
      <trkpt lat="47.35492" lon="-1.93908">
        <ele>-134</ele>
        <time>2012-01-08T08:45:47Z</time>
      </trkpt>
      <trkpt lat="47.35495" lon="-1.93911">
        <ele>-133</ele>
        <time>2012-01-08T08:45:50Z</time>
      </trkpt>
      <trkpt lat="47.35501" lon="-1.93922">
        <ele>-133</ele>
        <time>2012-01-08T08:45:52Z</time>
      </trkpt>
      <trkpt lat="47.35506" lon="-1.93929">
        <ele>-133</ele>
        <time>2012-01-08T08:45:54Z</time>
      </trkpt>
      <trkpt lat="47.3551" lon="-1.93936">
        <ele>-133</ele>
        <time>2012-01-08T08:45:56Z</time>
      </trkpt>
      <trkpt lat="47.35514" lon="-1.93942">
        <ele>-132</ele>
        <time>2012-01-08T08:45:58Z</time>
      </trkpt>
      <trkpt lat="47.35517" lon="-1.93949">
        <ele>-132</ele>
        <time>2012-01-08T08:46:00Z</time>
      </trkpt>
      <trkpt lat="47.35524" lon="-1.93959">
        <ele>-132</ele>
        <time>2012-01-08T08:46:03Z</time>
      </trkpt>
      <trkpt lat="47.35528" lon="-1.93966">
        <ele>-131</ele>
        <time>2012-01-08T08:46:05Z</time>
      </trkpt>
      <trkpt lat="47.35532" lon="-1.93973">
        <ele>-131</ele>
        <time>2012-01-08T08:46:07Z</time>
      </trkpt>
      <trkpt lat="47.35536" lon="-1.93978">
        <ele>-130</ele>
        <time>2012-01-08T08:46:09Z</time>
      </trkpt>
      <trkpt lat="47.3554" lon="-1.93982">
        <ele>-130</ele>
        <time>2012-01-08T08:46:11Z</time>
      </trkpt>
      <trkpt lat="47.35544" lon="-1.93986">
        <ele>-130</ele>
        <time>2012-01-08T08:46:13Z</time>
      </trkpt>
      <trkpt lat="47.35548" lon="-1.93991">
        <ele>-130</ele>
        <time>2012-01-08T08:46:15Z</time>
      </trkpt>
      <trkpt lat="47.35556" lon="-1.93999">
        <ele>-130</ele>
        <time>2012-01-08T08:46:18Z</time>
      </trkpt>
      <trkpt lat="47.3556" lon="-1.94005">
        <ele>-129</ele>
        <time>2012-01-08T08:46:20Z</time>
      </trkpt>
      <trkpt lat="47.35565" lon="-1.9401">
        <ele>-129</ele>
        <time>2012-01-08T08:46:22Z</time>
      </trkpt>
      <trkpt lat="47.3557" lon="-1.94015">
        <ele>-129</ele>
        <time>2012-01-08T08:46:24Z</time>
      </trkpt>
      <trkpt lat="47.35574" lon="-1.94021">
        <ele>-128</ele>
        <time>2012-01-08T08:46:26Z</time>
      </trkpt>
      <trkpt lat="47.35579" lon="-1.94027">
        <ele>-128</ele>
        <time>2012-01-08T08:46:28Z</time>
      </trkpt>
      <trkpt lat="47.35583" lon="-1.94032">
        <ele>-127</ele>
        <time>2012-01-08T08:46:30Z</time>
      </trkpt>
      <trkpt lat="47.35591" lon="-1.94041">
        <ele>-127</ele>
        <time>2012-01-08T08:46:32Z</time>
      </trkpt>
      <trkpt lat="47.35594" lon="-1.94044">
        <ele>-126</ele>
        <time>2012-01-08T08:46:35Z</time>
      </trkpt>
      <trkpt lat="47.35603" lon="-1.94053">
        <ele>-126</ele>
        <time>2012-01-08T08:46:37Z</time>
      </trkpt>
      <trkpt lat="47.35608" lon="-1.94058">
        <ele>-126</ele>
        <time>2012-01-08T08:46:39Z</time>
      </trkpt>
      <trkpt lat="47.35614" lon="-1.94062">
        <ele>-125</ele>
        <time>2012-01-08T08:46:41Z</time>
      </trkpt>
      <trkpt lat="47.35619" lon="-1.94068">
        <ele>-125</ele>
        <time>2012-01-08T08:46:43Z</time>
      </trkpt>
      <trkpt lat="47.35623" lon="-1.94074">
        <ele>-124</ele>
        <time>2012-01-08T08:46:45Z</time>
      </trkpt>
      <trkpt lat="47.35631" lon="-1.94084">
        <ele>-124</ele>
        <time>2012-01-08T08:46:47Z</time>
      </trkpt>
      <trkpt lat="47.35633" lon="-1.94087">
        <ele>-123</ele>
        <time>2012-01-08T08:46:50Z</time>
      </trkpt>
      <trkpt lat="47.35641" lon="-1.94097">
        <ele>-123</ele>
        <time>2012-01-08T08:46:52Z</time>
      </trkpt>
      <trkpt lat="47.35645" lon="-1.94105">
        <ele>-123</ele>
        <time>2012-01-08T08:46:54Z</time>
      </trkpt>
      <trkpt lat="47.35649" lon="-1.94113">
        <ele>-123</ele>
        <time>2012-01-08T08:46:56Z</time>
      </trkpt>
      <trkpt lat="47.35653" lon="-1.9412">
        <ele>-122</ele>
        <time>2012-01-08T08:46:58Z</time>
      </trkpt>
      <trkpt lat="47.35657" lon="-1.94128">
        <ele>-122</ele>
        <time>2012-01-08T08:47:00Z</time>
      </trkpt>
      <trkpt lat="47.35661" lon="-1.94136">
        <ele>-122</ele>
        <time>2012-01-08T08:47:02Z</time>
      </trkpt>
      <trkpt lat="47.35667" lon="-1.94144">
        <ele>-122</ele>
        <time>2012-01-08T08:47:04Z</time>
      </trkpt>
      <trkpt lat="47.35672" lon="-1.94152">
        <ele>-121</ele>
        <time>2012-01-08T08:47:06Z</time>
      </trkpt>
      <trkpt lat="47.35681" lon="-1.94163">
        <ele>-121</ele>
        <time>2012-01-08T08:47:08Z</time>
      </trkpt>
      <trkpt lat="47.35687" lon="-1.94172">
        <ele>-121</ele>
        <time>2012-01-08T08:47:11Z</time>
      </trkpt>
      <trkpt lat="47.35694" lon="-1.94181">
        <ele>-121</ele>
        <time>2012-01-08T08:47:13Z</time>
      </trkpt>
      <trkpt lat="47.357" lon="-1.94189">
        <ele>-121</ele>
        <time>2012-01-08T08:47:15Z</time>
      </trkpt>
      <trkpt lat="47.35707" lon="-1.94198">
        <ele>-121</ele>
        <time>2012-01-08T08:47:17Z</time>
      </trkpt>
      <trkpt lat="47.35714" lon="-1.94208">
        <ele>-121</ele>
        <time>2012-01-08T08:47:19Z</time>
      </trkpt>
      <trkpt lat="47.35721" lon="-1.94218">
        <ele>-121</ele>
        <time>2012-01-08T08:47:21Z</time>
      </trkpt>
      <trkpt lat="47.35727" lon="-1.94227">
        <ele>-121</ele>
        <time>2012-01-08T08:47:23Z</time>
      </trkpt>
      <trkpt lat="47.35733" lon="-1.94236">
        <ele>-121</ele>
        <time>2012-01-08T08:47:25Z</time>
      </trkpt>
      <trkpt lat="47.35743" lon="-1.9425">
        <ele>-121</ele>
        <time>2012-01-08T08:47:28Z</time>
      </trkpt>
      <trkpt lat="47.35746" lon="-1.94254">
        <ele>-120</ele>
        <time>2012-01-08T08:47:30Z</time>
      </trkpt>
      <trkpt lat="47.35754" lon="-1.94267">
        <ele>-120</ele>
        <time>2012-01-08T08:47:32Z</time>
      </trkpt>
      <trkpt lat="47.35759" lon="-1.94276">
        <ele>-119</ele>
        <time>2012-01-08T08:47:34Z</time>
      </trkpt>
      <trkpt lat="47.35764" lon="-1.94285">
        <ele>-119</ele>
        <time>2012-01-08T08:47:36Z</time>
      </trkpt>
      <trkpt lat="47.35769" lon="-1.94294">
        <ele>-118</ele>
        <time>2012-01-08T08:47:38Z</time>
      </trkpt>
      <trkpt lat="47.35773" lon="-1.94303">
        <ele>-118</ele>
        <time>2012-01-08T08:47:40Z</time>
      </trkpt>
      <trkpt lat="47.35778" lon="-1.94312">
        <ele>-117</ele>
        <time>2012-01-08T08:47:42Z</time>
      </trkpt>
      <trkpt lat="47.35781" lon="-1.9432">
        <ele>-117</ele>
        <time>2012-01-08T08:47:44Z</time>
      </trkpt>
      <trkpt lat="47.35786" lon="-1.94329">
        <ele>-117</ele>
        <time>2012-01-08T08:47:46Z</time>
      </trkpt>
      <trkpt lat="47.35789" lon="-1.94338">
        <ele>-117</ele>
        <time>2012-01-08T08:47:48Z</time>
      </trkpt>
      <trkpt lat="47.35794" lon="-1.94346">
        <ele>-117</ele>
        <time>2012-01-08T08:47:50Z</time>
      </trkpt>
      <trkpt lat="47.35802" lon="-1.94358">
        <ele>-117</ele>
        <time>2012-01-08T08:47:52Z</time>
      </trkpt>
      <trkpt lat="47.35804" lon="-1.94362">
        <ele>-117</ele>
        <time>2012-01-08T08:47:54Z</time>
      </trkpt>
      <trkpt lat="47.35813" lon="-1.94376">
        <ele>-117</ele>
        <time>2012-01-08T08:47:57Z</time>
      </trkpt>
      <trkpt lat="47.35818" lon="-1.94386">
        <ele>-117</ele>
        <time>2012-01-08T08:47:59Z</time>
      </trkpt>
      <trkpt lat="47.35825" lon="-1.94395">
        <ele>-117</ele>
        <time>2012-01-08T08:48:01Z</time>
      </trkpt>
      <trkpt lat="47.35833" lon="-1.94405">
        <ele>-118</ele>
        <time>2012-01-08T08:48:03Z</time>
      </trkpt>
      <trkpt lat="47.35841" lon="-1.94415">
        <ele>-118</ele>
        <time>2012-01-08T08:48:05Z</time>
      </trkpt>
      <trkpt lat="47.35848" lon="-1.94427">
        <ele>-119</ele>
        <time>2012-01-08T08:48:07Z</time>
      </trkpt>
      <trkpt lat="47.3585" lon="-1.94429">
        <ele>-120</ele>
        <time>2012-01-08T08:48:09Z</time>
      </trkpt>
      <trkpt lat="47.35855" lon="-1.9443">
        <ele>-121</ele>
        <time>2012-01-08T08:48:12Z</time>
      </trkpt>
      <trkpt lat="47.35859" lon="-1.94427">
        <ele>-121</ele>
        <time>2012-01-08T08:48:14Z</time>
      </trkpt>
      <trkpt lat="47.35864" lon="-1.94423">
        <ele>-121</ele>
        <time>2012-01-08T08:48:16Z</time>
      </trkpt>
      <trkpt lat="47.35868" lon="-1.94419">
        <ele>-120</ele>
        <time>2012-01-08T08:48:18Z</time>
      </trkpt>
      <trkpt lat="47.35874" lon="-1.94415">
        <ele>-120</ele>
        <time>2012-01-08T08:48:20Z</time>
      </trkpt>
      <trkpt lat="47.35879" lon="-1.94411">
        <ele>-119</ele>
        <time>2012-01-08T08:48:22Z</time>
      </trkpt>
      <trkpt lat="47.35884" lon="-1.94407">
        <ele>-119</ele>
        <time>2012-01-08T08:48:24Z</time>
      </trkpt>
      <trkpt lat="47.35889" lon="-1.94405">
        <ele>-118</ele>
        <time>2012-01-08T08:48:26Z</time>
      </trkpt>
      <trkpt lat="47.35897" lon="-1.94411">
        <ele>-117</ele>
        <time>2012-01-08T08:48:28Z</time>
      </trkpt>
      <trkpt lat="47.35901" lon="-1.94418">
        <ele>-117</ele>
        <time>2012-01-08T08:48:31Z</time>
      </trkpt>
      <trkpt lat="47.35904" lon="-1.94428">
        <ele>-116</ele>
        <time>2012-01-08T08:48:33Z</time>
      </trkpt>
      <trkpt lat="47.35907" lon="-1.94439">
        <ele>-116</ele>
        <time>2012-01-08T08:48:35Z</time>
      </trkpt>
      <trkpt lat="47.35911" lon="-1.94451">
        <ele>-116</ele>
        <time>2012-01-08T08:48:37Z</time>
      </trkpt>
      <trkpt lat="47.35916" lon="-1.94462">
        <ele>-117</ele>
        <time>2012-01-08T08:48:39Z</time>
      </trkpt>
      <trkpt lat="47.35922" lon="-1.94471">
        <ele>-117</ele>
        <time>2012-01-08T08:48:41Z</time>
      </trkpt>
      <trkpt lat="47.35929" lon="-1.9448">
        <ele>-117</ele>
        <time>2012-01-08T08:48:43Z</time>
      </trkpt>
      <trkpt lat="47.35936" lon="-1.94488">
        <ele>-118</ele>
        <time>2012-01-08T08:48:45Z</time>
      </trkpt>
      <trkpt lat="47.35947" lon="-1.94495">
        <ele>-118</ele>
        <time>2012-01-08T08:48:48Z</time>
      </trkpt>
      <trkpt lat="47.35954" lon="-1.94499">
        <ele>-118</ele>
        <time>2012-01-08T08:48:50Z</time>
      </trkpt>
      <trkpt lat="47.3596" lon="-1.94506">
        <ele>-117</ele>
        <time>2012-01-08T08:48:52Z</time>
      </trkpt>
      <trkpt lat="47.35966" lon="-1.94515">
        <ele>-117</ele>
        <time>2012-01-08T08:48:54Z</time>
      </trkpt>
      <trkpt lat="47.35971" lon="-1.94524">
        <ele>-117</ele>
        <time>2012-01-08T08:48:56Z</time>
      </trkpt>
      <trkpt lat="47.35978" lon="-1.94536">
        <ele>-117</ele>
        <time>2012-01-08T08:48:58Z</time>
      </trkpt>
      <trkpt lat="47.35983" lon="-1.94546">
        <ele>-116</ele>
        <time>2012-01-08T08:49:00Z</time>
      </trkpt>
      <trkpt lat="47.35988" lon="-1.94555">
        <ele>-117</ele>
        <time>2012-01-08T08:49:03Z</time>
      </trkpt>
      <trkpt lat="47.35994" lon="-1.94563">
        <ele>-116</ele>
        <time>2012-01-08T08:49:05Z</time>
      </trkpt>
      <trkpt lat="47.35997" lon="-1.9457">
        <ele>-117</ele>
        <time>2012-01-08T08:49:07Z</time>
      </trkpt>
      <trkpt lat="47.36003" lon="-1.94574">
        <ele>-117</ele>
        <time>2012-01-08T08:49:09Z</time>
      </trkpt>
      <trkpt lat="47.3601" lon="-1.94573">
        <ele>-116</ele>
        <time>2012-01-08T08:49:11Z</time>
      </trkpt>
      <trkpt lat="47.36015" lon="-1.94571">
        <ele>-116</ele>
        <time>2012-01-08T08:49:13Z</time>
      </trkpt>
      <trkpt lat="47.36021" lon="-1.94567">
        <ele>-115</ele>
        <time>2012-01-08T08:49:15Z</time>
      </trkpt>
      <trkpt lat="47.36029" lon="-1.94563">
        <ele>-115</ele>
        <time>2012-01-08T08:49:18Z</time>
      </trkpt>
      <trkpt lat="47.36034" lon="-1.94561">
        <ele>-114</ele>
        <time>2012-01-08T08:49:20Z</time>
      </trkpt>
      <trkpt lat="47.36037" lon="-1.94559">
        <ele>-113</ele>
        <time>2012-01-08T08:49:22Z</time>
      </trkpt>
      <trkpt lat="47.3604" lon="-1.94563">
        <ele>-113</ele>
        <time>2012-01-08T08:49:24Z</time>
      </trkpt>
      <trkpt lat="47.36044" lon="-1.94571">
        <ele>-112</ele>
        <time>2012-01-08T08:49:26Z</time>
      </trkpt>
      <trkpt lat="47.36049" lon="-1.94579">
        <ele>-112</ele>
        <time>2012-01-08T08:49:28Z</time>
      </trkpt>
      <trkpt lat="47.36054" lon="-1.94587">
        <ele>-112</ele>
        <time>2012-01-08T08:49:30Z</time>
      </trkpt>
      <trkpt lat="47.36059" lon="-1.94596">
        <ele>-112</ele>
        <time>2012-01-08T08:49:32Z</time>
      </trkpt>
      <trkpt lat="47.36061" lon="-1.946">
        <ele>-112</ele>
        <time>2012-01-08T08:49:35Z</time>
      </trkpt>
      <trkpt lat="47.36066" lon="-1.94612">
        <ele>-112</ele>
        <time>2012-01-08T08:49:37Z</time>
      </trkpt>
      <trkpt lat="47.36071" lon="-1.94618">
        <ele>-112</ele>
        <time>2012-01-08T08:49:39Z</time>
      </trkpt>
      <trkpt lat="47.36075" lon="-1.94625">
        <ele>-112</ele>
        <time>2012-01-08T08:49:41Z</time>
      </trkpt>
      <trkpt lat="47.36079" lon="-1.94633">
        <ele>-112</ele>
        <time>2012-01-08T08:49:43Z</time>
      </trkpt>
      <trkpt lat="47.36082" lon="-1.94641">
        <ele>-112</ele>
        <time>2012-01-08T08:49:45Z</time>
      </trkpt>
      <trkpt lat="47.36088" lon="-1.94656">
        <ele>-112</ele>
        <time>2012-01-08T08:49:47Z</time>
      </trkpt>
      <trkpt lat="47.3609" lon="-1.94661">
        <ele>-112</ele>
        <time>2012-01-08T08:49:49Z</time>
      </trkpt>
      <trkpt lat="47.36097" lon="-1.94678">
        <ele>-113</ele>
        <time>2012-01-08T08:49:52Z</time>
      </trkpt>
      <trkpt lat="47.36102" lon="-1.94689">
        <ele>-113</ele>
        <time>2012-01-08T08:49:54Z</time>
      </trkpt>
      <trkpt lat="47.36106" lon="-1.94699">
        <ele>-114</ele>
        <time>2012-01-08T08:49:56Z</time>
      </trkpt>
      <trkpt lat="47.36111" lon="-1.94708">
        <ele>-115</ele>
        <time>2012-01-08T08:49:58Z</time>
      </trkpt>
      <trkpt lat="47.36114" lon="-1.94714">
        <ele>-116</ele>
        <time>2012-01-08T08:50:00Z</time>
      </trkpt>
      <trkpt lat="47.36116" lon="-1.94718">
        <ele>-117</ele>
        <time>2012-01-08T08:50:02Z</time>
      </trkpt>
      <trkpt lat="47.36118" lon="-1.9472">
        <ele>-117</ele>
        <time>2012-01-08T08:50:04Z</time>
      </trkpt>
      <trkpt lat="47.36129" lon="-1.9472">
        <ele>-118</ele>
        <time>2012-01-08T08:50:06Z</time>
      </trkpt>
      <trkpt lat="47.36142" lon="-1.94718">
        <ele>-119</ele>
        <time>2012-01-08T08:50:08Z</time>
      </trkpt>
      <trkpt lat="47.36155" lon="-1.94721">
        <ele>-120</ele>
        <time>2012-01-08T08:50:10Z</time>
      </trkpt>
      <trkpt lat="47.36164" lon="-1.94733">
        <ele>-121</ele>
        <time>2012-01-08T08:50:13Z</time>
      </trkpt>
      <trkpt lat="47.3617" lon="-1.94741">
        <ele>-123</ele>
        <time>2012-01-08T08:50:15Z</time>
      </trkpt>
      <trkpt lat="47.36173" lon="-1.94745">
        <ele>-123</ele>
        <time>2012-01-08T08:50:17Z</time>
      </trkpt>
      <trkpt lat="47.36176" lon="-1.94748">
        <ele>-123</ele>
        <time>2012-01-08T08:50:19Z</time>
      </trkpt>
      <trkpt lat="47.36179" lon="-1.94746">
        <ele>-123</ele>
        <time>2012-01-08T08:50:21Z</time>
      </trkpt>
      <trkpt lat="47.36183" lon="-1.9474">
        <ele>-123</ele>
        <time>2012-01-08T08:50:23Z</time>
      </trkpt>
      <trkpt lat="47.36188" lon="-1.94732">
        <ele>-122</ele>
        <time>2012-01-08T08:50:25Z</time>
      </trkpt>
      <trkpt lat="47.36195" lon="-1.9472">
        <ele>-122</ele>
        <time>2012-01-08T08:50:27Z</time>
      </trkpt>
      <trkpt lat="47.36197" lon="-1.94716">
        <ele>-121</ele>
        <time>2012-01-08T08:50:29Z</time>
      </trkpt>
      <trkpt lat="47.36202" lon="-1.94704">
        <ele>-121</ele>
        <time>2012-01-08T08:50:31Z</time>
      </trkpt>
      <trkpt lat="47.36205" lon="-1.94696">
        <ele>-121</ele>
        <time>2012-01-08T08:50:34Z</time>
      </trkpt>
      <trkpt lat="47.36208" lon="-1.94687">
        <ele>-120</ele>
        <time>2012-01-08T08:50:36Z</time>
      </trkpt>
      <trkpt lat="47.36211" lon="-1.94678">
        <ele>-120</ele>
        <time>2012-01-08T08:50:38Z</time>
      </trkpt>
      <trkpt lat="47.36214" lon="-1.94668">
        <ele>-120</ele>
        <time>2012-01-08T08:50:40Z</time>
      </trkpt>
      <trkpt lat="47.36217" lon="-1.94653">
        <ele>-120</ele>
        <time>2012-01-08T08:50:42Z</time>
      </trkpt>
      <trkpt lat="47.36218" lon="-1.94649">
        <ele>-119</ele>
        <time>2012-01-08T08:50:44Z</time>
      </trkpt>
      <trkpt lat="47.3622" lon="-1.94634">
        <ele>-119</ele>
        <time>2012-01-08T08:50:47Z</time>
      </trkpt>
      <trkpt lat="47.36221" lon="-1.94624">
        <ele>-119</ele>
        <time>2012-01-08T08:50:49Z</time>
      </trkpt>
      <trkpt lat="47.36222" lon="-1.94614">
        <ele>-118</ele>
        <time>2012-01-08T08:50:51Z</time>
      </trkpt>
      <trkpt lat="47.36224" lon="-1.94604">
        <ele>-118</ele>
        <time>2012-01-08T08:50:53Z</time>
      </trkpt>
      <trkpt lat="47.36224" lon="-1.94595">
        <ele>-117</ele>
        <time>2012-01-08T08:50:55Z</time>
      </trkpt>
      <trkpt lat="47.36223" lon="-1.9458">
        <ele>-117</ele>
        <time>2012-01-08T08:50:57Z</time>
      </trkpt>
      <trkpt lat="47.36223" lon="-1.94576">
        <ele>-117</ele>
        <time>2012-01-08T08:50:59Z</time>
      </trkpt>
      <trkpt lat="47.36221" lon="-1.94561">
        <ele>-116</ele>
        <time>2012-01-08T08:51:02Z</time>
      </trkpt>
      <trkpt lat="47.3622" lon="-1.94552">
        <ele>-116</ele>
        <time>2012-01-08T08:51:04Z</time>
      </trkpt>
      <trkpt lat="47.36218" lon="-1.94542">
        <ele>-115</ele>
        <time>2012-01-08T08:51:06Z</time>
      </trkpt>
      <trkpt lat="47.36216" lon="-1.94533">
        <ele>-115</ele>
        <time>2012-01-08T08:51:08Z</time>
      </trkpt>
      <trkpt lat="47.36214" lon="-1.94524">
        <ele>-115</ele>
        <time>2012-01-08T08:51:10Z</time>
      </trkpt>
      <trkpt lat="47.36212" lon="-1.9451">
        <ele>-115</ele>
        <time>2012-01-08T08:51:12Z</time>
      </trkpt>
      <trkpt lat="47.36212" lon="-1.94506">
        <ele>-114</ele>
        <time>2012-01-08T08:51:14Z</time>
      </trkpt>
      <trkpt lat="47.36216" lon="-1.94494">
        <ele>-114</ele>
        <time>2012-01-08T08:51:17Z</time>
      </trkpt>
      <trkpt lat="47.36218" lon="-1.94486">
        <ele>-114</ele>
        <time>2012-01-08T08:51:19Z</time>
      </trkpt>
      <trkpt lat="47.36221" lon="-1.94477">
        <ele>-113</ele>
        <time>2012-01-08T08:51:21Z</time>
      </trkpt>
      <trkpt lat="47.36226" lon="-1.94471">
        <ele>-113</ele>
        <time>2012-01-08T08:51:23Z</time>
      </trkpt>
      <trkpt lat="47.36229" lon="-1.94464">
        <ele>-113</ele>
        <time>2012-01-08T08:51:25Z</time>
      </trkpt>
      <trkpt lat="47.36232" lon="-1.94455">
        <ele>-113</ele>
        <time>2012-01-08T08:51:27Z</time>
      </trkpt>
      <trkpt lat="47.36233" lon="-1.94446">
        <ele>-113</ele>
        <time>2012-01-08T08:51:29Z</time>
      </trkpt>
      <trkpt lat="47.36239" lon="-1.94433">
        <ele>-113</ele>
        <time>2012-01-08T08:51:31Z</time>
      </trkpt>
      <trkpt lat="47.36245" lon="-1.94428">
        <ele>-113</ele>
        <time>2012-01-08T08:51:33Z</time>
      </trkpt>
      <trkpt lat="47.36249" lon="-1.94426">
        <ele>-113</ele>
        <time>2012-01-08T08:51:35Z</time>
      </trkpt>
      <trkpt lat="47.36259" lon="-1.94418">
        <ele>-113</ele>
        <time>2012-01-08T08:51:37Z</time>
      </trkpt>
      <trkpt lat="47.36263" lon="-1.94415">
        <ele>-113</ele>
        <time>2012-01-08T08:51:39Z</time>
      </trkpt>
      <trkpt lat="47.36274" lon="-1.94406">
        <ele>-112</ele>
        <time>2012-01-08T08:51:41Z</time>
      </trkpt>
      <trkpt lat="47.36282" lon="-1.944">
        <ele>-112</ele>
        <time>2012-01-08T08:51:43Z</time>
      </trkpt>
      <trkpt lat="47.36285" lon="-1.94397">
        <ele>-112</ele>
        <time>2012-01-08T08:51:45Z</time>
      </trkpt>
      <trkpt lat="47.36296" lon="-1.94388">
        <ele>-112</ele>
        <time>2012-01-08T08:51:48Z</time>
      </trkpt>
      <trkpt lat="47.36304" lon="-1.94384">
        <ele>-112</ele>
        <time>2012-01-08T08:51:50Z</time>
      </trkpt>
      <trkpt lat="47.36312" lon="-1.94379">
        <ele>-112</ele>
        <time>2012-01-08T08:51:52Z</time>
      </trkpt>
      <trkpt lat="47.3632" lon="-1.94376">
        <ele>-112</ele>
        <time>2012-01-08T08:51:54Z</time>
      </trkpt>
      <trkpt lat="47.36329" lon="-1.94374">
        <ele>-112</ele>
        <time>2012-01-08T08:51:56Z</time>
      </trkpt>
      <trkpt lat="47.36338" lon="-1.94372">
        <ele>-112</ele>
        <time>2012-01-08T08:51:58Z</time>
      </trkpt>
      <trkpt lat="47.36347" lon="-1.94371">
        <ele>-112</ele>
        <time>2012-01-08T08:52:00Z</time>
      </trkpt>
      <trkpt lat="47.36361" lon="-1.9437">
        <ele>-112</ele>
        <time>2012-01-08T08:52:03Z</time>
      </trkpt>
      <trkpt lat="47.3637" lon="-1.94371">
        <ele>-112</ele>
        <time>2012-01-08T08:52:05Z</time>
      </trkpt>
      <trkpt lat="47.3638" lon="-1.94372">
        <ele>-112</ele>
        <time>2012-01-08T08:52:07Z</time>
      </trkpt>
      <trkpt lat="47.36389" lon="-1.94373">
        <ele>-112</ele>
        <time>2012-01-08T08:52:09Z</time>
      </trkpt>
      <trkpt lat="47.36398" lon="-1.94375">
        <ele>-112</ele>
        <time>2012-01-08T08:52:11Z</time>
      </trkpt>
      <trkpt lat="47.36412" lon="-1.94379">
        <ele>-112</ele>
        <time>2012-01-08T08:52:13Z</time>
      </trkpt>
      <trkpt lat="47.36417" lon="-1.94381">
        <ele>-112</ele>
        <time>2012-01-08T08:52:15Z</time>
      </trkpt>
      <trkpt lat="47.36431" lon="-1.94387">
        <ele>-112</ele>
        <time>2012-01-08T08:52:18Z</time>
      </trkpt>
      <trkpt lat="47.3644" lon="-1.94391">
        <ele>-112</ele>
        <time>2012-01-08T08:52:20Z</time>
      </trkpt>
      <trkpt lat="47.36449" lon="-1.94396">
        <ele>-112</ele>
        <time>2012-01-08T08:52:22Z</time>
      </trkpt>
      <trkpt lat="47.36458" lon="-1.944">
        <ele>-112</ele>
        <time>2012-01-08T08:52:24Z</time>
      </trkpt>
      <trkpt lat="47.36471" lon="-1.94407">
        <ele>-111</ele>
        <time>2012-01-08T08:52:26Z</time>
      </trkpt>
      <trkpt lat="47.3648" lon="-1.94413">
        <ele>-111</ele>
        <time>2012-01-08T08:52:28Z</time>
      </trkpt>
      <trkpt lat="47.36488" lon="-1.94418">
        <ele>-111</ele>
        <time>2012-01-08T08:52:31Z</time>
      </trkpt>
      <trkpt lat="47.36497" lon="-1.94424">
        <ele>-111</ele>
        <time>2012-01-08T08:52:33Z</time>
      </trkpt>
      <trkpt lat="47.36506" lon="-1.94429">
        <ele>-111</ele>
        <time>2012-01-08T08:52:35Z</time>
      </trkpt>
      <trkpt lat="47.36515" lon="-1.94433">
        <ele>-111</ele>
        <time>2012-01-08T08:52:37Z</time>
      </trkpt>
      <trkpt lat="47.36525" lon="-1.94439">
        <ele>-111</ele>
        <time>2012-01-08T08:52:39Z</time>
      </trkpt>
      <trkpt lat="47.36539" lon="-1.94446">
        <ele>-111</ele>
        <time>2012-01-08T08:52:42Z</time>
      </trkpt>
      <trkpt lat="47.36548" lon="-1.9445">
        <ele>-111</ele>
        <time>2012-01-08T08:52:44Z</time>
      </trkpt>
      <trkpt lat="47.36555" lon="-1.94455">
        <ele>-111</ele>
        <time>2012-01-08T08:52:46Z</time>
      </trkpt>
      <trkpt lat="47.36563" lon="-1.94459">
        <ele>-110</ele>
        <time>2012-01-08T08:52:48Z</time>
      </trkpt>
      <trkpt lat="47.36575" lon="-1.94464">
        <ele>-110</ele>
        <time>2012-01-08T08:52:50Z</time>
      </trkpt>
      <trkpt lat="47.36582" lon="-1.94468">
        <ele>-110</ele>
        <time>2012-01-08T08:52:52Z</time>
      </trkpt>
      <trkpt lat="47.3659" lon="-1.94472">
        <ele>-109</ele>
        <time>2012-01-08T08:52:55Z</time>
      </trkpt>
      <trkpt lat="47.36597" lon="-1.94476">
        <ele>-109</ele>
        <time>2012-01-08T08:52:57Z</time>
      </trkpt>
      <trkpt lat="47.36605" lon="-1.94478">
        <ele>-108</ele>
        <time>2012-01-08T08:52:59Z</time>
      </trkpt>
      <trkpt lat="47.36612" lon="-1.9448">
        <ele>-108</ele>
        <time>2012-01-08T08:53:01Z</time>
      </trkpt>
      <trkpt lat="47.36622" lon="-1.94485">
        <ele>-108</ele>
        <time>2012-01-08T08:53:03Z</time>
      </trkpt>
      <trkpt lat="47.36624" lon="-1.94495">
        <ele>-107</ele>
        <time>2012-01-08T08:53:06Z</time>
      </trkpt>
      <trkpt lat="47.36623" lon="-1.94505">
        <ele>-107</ele>
        <time>2012-01-08T08:53:08Z</time>
      </trkpt>
      <trkpt lat="47.36621" lon="-1.94516">
        <ele>-107</ele>
        <time>2012-01-08T08:53:10Z</time>
      </trkpt>
      <trkpt lat="47.36619" lon="-1.94526">
        <ele>-107</ele>
        <time>2012-01-08T08:53:12Z</time>
      </trkpt>
      <trkpt lat="47.36618" lon="-1.94535">
        <ele>-107</ele>
        <time>2012-01-08T08:53:14Z</time>
      </trkpt>
      <trkpt lat="47.36624" lon="-1.9454">
        <ele>-107</ele>
        <time>2012-01-08T08:53:16Z</time>
      </trkpt>
      <trkpt lat="47.36629" lon="-1.94542">
        <ele>-107</ele>
        <time>2012-01-08T08:53:19Z</time>
      </trkpt>
      <trkpt lat="47.36636" lon="-1.94543">
        <ele>-106</ele>
        <time>2012-01-08T08:53:21Z</time>
      </trkpt>
      <trkpt lat="47.36641" lon="-1.94542">
        <ele>-106</ele>
        <time>2012-01-08T08:53:23Z</time>
      </trkpt>
      <trkpt lat="47.36647" lon="-1.94542">
        <ele>-105</ele>
        <time>2012-01-08T08:53:25Z</time>
      </trkpt>
      <trkpt lat="47.36656" lon="-1.94542">
        <ele>-105</ele>
        <time>2012-01-08T08:53:27Z</time>
      </trkpt>
      <trkpt lat="47.36662" lon="-1.94542">
        <ele>-105</ele>
        <time>2012-01-08T08:53:29Z</time>
      </trkpt>
      <trkpt lat="47.36668" lon="-1.94541">
        <ele>-105</ele>
        <time>2012-01-08T08:53:31Z</time>
      </trkpt>
      <trkpt lat="47.36673" lon="-1.9454">
        <ele>-104</ele>
        <time>2012-01-08T08:53:34Z</time>
      </trkpt>
      <trkpt lat="47.36679" lon="-1.94539">
        <ele>-104</ele>
        <time>2012-01-08T08:53:36Z</time>
      </trkpt>
      <trkpt lat="47.36685" lon="-1.94538">
        <ele>-104</ele>
        <time>2012-01-08T08:53:38Z</time>
      </trkpt>
      <trkpt lat="47.36691" lon="-1.94537">
        <ele>-103</ele>
        <time>2012-01-08T08:53:40Z</time>
      </trkpt>
      <trkpt lat="47.36697" lon="-1.94536">
        <ele>-103</ele>
        <time>2012-01-08T08:53:42Z</time>
      </trkpt>
      <trkpt lat="47.36703" lon="-1.94534">
        <ele>-102</ele>
        <time>2012-01-08T08:53:44Z</time>
      </trkpt>
      <trkpt lat="47.36709" lon="-1.94531">
        <ele>-102</ele>
        <time>2012-01-08T08:53:46Z</time>
      </trkpt>
      <trkpt lat="47.36718" lon="-1.94527">
        <ele>-101</ele>
        <time>2012-01-08T08:53:48Z</time>
      </trkpt>
      <trkpt lat="47.36725" lon="-1.94525">
        <ele>-101</ele>
        <time>2012-01-08T08:53:50Z</time>
      </trkpt>
      <trkpt lat="47.36731" lon="-1.94523">
        <ele>-101</ele>
        <time>2012-01-08T08:53:52Z</time>
      </trkpt>
      <trkpt lat="47.36737" lon="-1.94521">
        <ele>-101</ele>
        <time>2012-01-08T08:53:55Z</time>
      </trkpt>
      <trkpt lat="47.36744" lon="-1.94518">
        <ele>-101</ele>
        <time>2012-01-08T08:53:57Z</time>
      </trkpt>
      <trkpt lat="47.3675" lon="-1.94516">
        <ele>-101</ele>
        <time>2012-01-08T08:53:59Z</time>
      </trkpt>
      <trkpt lat="47.36757" lon="-1.94514">
        <ele>-100</ele>
        <time>2012-01-08T08:54:01Z</time>
      </trkpt>
      <trkpt lat="47.36764" lon="-1.94512">
        <ele>-100</ele>
        <time>2012-01-08T08:54:03Z</time>
      </trkpt>
      <trkpt lat="47.36771" lon="-1.9451">
        <ele>-100</ele>
        <time>2012-01-08T08:54:05Z</time>
      </trkpt>
      <trkpt lat="47.36778" lon="-1.94508">
        <ele>-99</ele>
        <time>2012-01-08T08:54:07Z</time>
      </trkpt>
      <trkpt lat="47.36785" lon="-1.94506">
        <ele>-99</ele>
        <time>2012-01-08T08:54:09Z</time>
      </trkpt>
      <trkpt lat="47.36795" lon="-1.94509">
        <ele>-99</ele>
        <time>2012-01-08T08:54:11Z</time>
      </trkpt>
      <trkpt lat="47.36801" lon="-1.94515">
        <ele>-99</ele>
        <time>2012-01-08T08:54:14Z</time>
      </trkpt>
      <trkpt lat="47.36805" lon="-1.94523">
        <ele>-99</ele>
        <time>2012-01-08T08:54:16Z</time>
      </trkpt>
      <trkpt lat="47.36811" lon="-1.94531">
        <ele>-98</ele>
        <time>2012-01-08T08:54:18Z</time>
      </trkpt>
      <trkpt lat="47.36816" lon="-1.94539">
        <ele>-98</ele>
        <time>2012-01-08T08:54:20Z</time>
      </trkpt>
      <trkpt lat="47.36823" lon="-1.94551">
        <ele>-98</ele>
        <time>2012-01-08T08:54:22Z</time>
      </trkpt>
      <trkpt lat="47.36826" lon="-1.94555">
        <ele>-98</ele>
        <time>2012-01-08T08:54:24Z</time>
      </trkpt>
      <trkpt lat="47.36834" lon="-1.94568">
        <ele>-98</ele>
        <time>2012-01-08T08:54:26Z</time>
      </trkpt>
      <trkpt lat="47.36839" lon="-1.94577">
        <ele>-98</ele>
        <time>2012-01-08T08:54:29Z</time>
      </trkpt>
      <trkpt lat="47.36843" lon="-1.94586">
        <ele>-98</ele>
        <time>2012-01-08T08:54:31Z</time>
      </trkpt>
      <trkpt lat="47.36846" lon="-1.94596">
        <ele>-98</ele>
        <time>2012-01-08T08:54:33Z</time>
      </trkpt>
      <trkpt lat="47.3685" lon="-1.94605">
        <ele>-98</ele>
        <time>2012-01-08T08:54:35Z</time>
      </trkpt>
      <trkpt lat="47.36855" lon="-1.94616">
        <ele>-98</ele>
        <time>2012-01-08T08:54:37Z</time>
      </trkpt>
      <trkpt lat="47.36858" lon="-1.94626">
        <ele>-98</ele>
        <time>2012-01-08T08:54:39Z</time>
      </trkpt>
      <trkpt lat="47.36862" lon="-1.94637">
        <ele>-98</ele>
        <time>2012-01-08T08:54:41Z</time>
      </trkpt>
      <trkpt lat="47.36865" lon="-1.94648">
        <ele>-98</ele>
        <time>2012-01-08T08:54:43Z</time>
      </trkpt>
      <trkpt lat="47.36871" lon="-1.94666">
        <ele>-98</ele>
        <time>2012-01-08T08:54:45Z</time>
      </trkpt>
      <trkpt lat="47.36875" lon="-1.94678">
        <ele>-98</ele>
        <time>2012-01-08T08:54:47Z</time>
      </trkpt>
      <trkpt lat="47.36879" lon="-1.9469">
        <ele>-98</ele>
        <time>2012-01-08T08:54:49Z</time>
      </trkpt>
      <trkpt lat="47.36883" lon="-1.94702">
        <ele>-98</ele>
        <time>2012-01-08T08:54:52Z</time>
      </trkpt>
      <trkpt lat="47.36886" lon="-1.94714">
        <ele>-98</ele>
        <time>2012-01-08T08:54:54Z</time>
      </trkpt>
      <trkpt lat="47.36888" lon="-1.94727">
        <ele>-98</ele>
        <time>2012-01-08T08:54:56Z</time>
      </trkpt>
      <trkpt lat="47.36889" lon="-1.9474">
        <ele>-98</ele>
        <time>2012-01-08T08:54:58Z</time>
      </trkpt>
      <trkpt lat="47.3689" lon="-1.94752">
        <ele>-98</ele>
        <time>2012-01-08T08:55:00Z</time>
      </trkpt>
      <trkpt lat="47.3689" lon="-1.94764">
        <ele>-98</ele>
        <time>2012-01-08T08:55:02Z</time>
      </trkpt>
      <trkpt lat="47.3689" lon="-1.94777">
        <ele>-99</ele>
        <time>2012-01-08T08:55:04Z</time>
      </trkpt>
      <trkpt lat="47.3689" lon="-1.9479">
        <ele>-99</ele>
        <time>2012-01-08T08:55:06Z</time>
      </trkpt>
      <trkpt lat="47.3689" lon="-1.94809">
        <ele>-99</ele>
        <time>2012-01-08T08:55:08Z</time>
      </trkpt>
      <trkpt lat="47.3689" lon="-1.94816">
        <ele>-100</ele>
        <time>2012-01-08T08:55:10Z</time>
      </trkpt>
      <trkpt lat="47.36894" lon="-1.94834">
        <ele>-100</ele>
        <time>2012-01-08T08:55:12Z</time>
      </trkpt>
      <trkpt lat="47.36897" lon="-1.94842">
        <ele>-102</ele>
        <time>2012-01-08T08:55:14Z</time>
      </trkpt>
      <trkpt lat="47.36907" lon="-1.94863">
        <ele>-103</ele>
        <time>2012-01-08T08:55:16Z</time>
      </trkpt>
      <trkpt lat="47.36913" lon="-1.94878">
        <ele>-104</ele>
        <time>2012-01-08T08:55:18Z</time>
      </trkpt>
      <trkpt lat="47.36917" lon="-1.94895">
        <ele>-106</ele>
        <time>2012-01-08T08:55:20Z</time>
      </trkpt>
      <trkpt lat="47.36921" lon="-1.94914">
        <ele>-107</ele>
        <time>2012-01-08T08:55:23Z</time>
      </trkpt>
      <trkpt lat="47.3692" lon="-1.94937">
        <ele>-108</ele>
        <time>2012-01-08T08:55:25Z</time>
      </trkpt>
      <trkpt lat="47.36919" lon="-1.94959">
        <ele>-109</ele>
        <time>2012-01-08T08:55:27Z</time>
      </trkpt>
      <trkpt lat="47.3692" lon="-1.94976">
        <ele>-109</ele>
        <time>2012-01-08T08:55:29Z</time>
      </trkpt>
      <trkpt lat="47.36927" lon="-1.94994">
        <ele>-110</ele>
        <time>2012-01-08T08:55:31Z</time>
      </trkpt>
      <trkpt lat="47.36933" lon="-1.95003">
        <ele>-110</ele>
        <time>2012-01-08T08:55:33Z</time>
      </trkpt>
      <trkpt lat="47.36935" lon="-1.95008">
        <ele>-109</ele>
        <time>2012-01-08T08:55:35Z</time>
      </trkpt>
      <trkpt lat="47.36938" lon="-1.95021">
        <ele>-108</ele>
        <time>2012-01-08T08:55:37Z</time>
      </trkpt>
      <trkpt lat="47.36939" lon="-1.95025">
        <ele>-108</ele>
        <time>2012-01-08T08:55:39Z</time>
      </trkpt>
      <trkpt lat="47.36941" lon="-1.95037">
        <ele>-107</ele>
        <time>2012-01-08T08:55:42Z</time>
      </trkpt>
      <trkpt lat="47.3694" lon="-1.95044">
        <ele>-108</ele>
        <time>2012-01-08T08:55:44Z</time>
      </trkpt>
      <trkpt lat="47.36936" lon="-1.95049">
        <ele>-108</ele>
        <time>2012-01-08T08:55:46Z</time>
      </trkpt>
      <trkpt lat="47.36929" lon="-1.95054">
        <ele>-109</ele>
        <time>2012-01-08T08:55:48Z</time>
      </trkpt>
      <trkpt lat="47.36923" lon="-1.95062">
        <ele>-111</ele>
        <time>2012-01-08T08:55:50Z</time>
      </trkpt>
      <trkpt lat="47.36921" lon="-1.95072">
        <ele>-112</ele>
        <time>2012-01-08T08:55:52Z</time>
      </trkpt>
      <trkpt lat="47.36918" lon="-1.95083">
        <ele>-112</ele>
        <time>2012-01-08T08:55:54Z</time>
      </trkpt>
      <trkpt lat="47.36916" lon="-1.95094">
        <ele>-113</ele>
        <time>2012-01-08T08:55:56Z</time>
      </trkpt>
      <trkpt lat="47.3691" lon="-1.95113">
        <ele>-113</ele>
        <time>2012-01-08T08:55:58Z</time>
      </trkpt>
      <trkpt lat="47.36905" lon="-1.95126">
        <ele>-114</ele>
        <time>2012-01-08T08:56:00Z</time>
      </trkpt>
      <trkpt lat="47.36899" lon="-1.95139">
        <ele>-114</ele>
        <time>2012-01-08T08:56:02Z</time>
      </trkpt>
      <trkpt lat="47.36896" lon="-1.95146">
        <ele>-114</ele>
        <time>2012-01-08T08:56:05Z</time>
      </trkpt>
      <trkpt lat="47.36887" lon="-1.95164">
        <ele>-114</ele>
        <time>2012-01-08T08:56:07Z</time>
      </trkpt>
      <trkpt lat="47.36881" lon="-1.95176">
        <ele>-115</ele>
        <time>2012-01-08T08:56:09Z</time>
      </trkpt>
      <trkpt lat="47.36877" lon="-1.95188">
        <ele>-115</ele>
        <time>2012-01-08T08:56:11Z</time>
      </trkpt>
      <trkpt lat="47.36872" lon="-1.952">
        <ele>-115</ele>
        <time>2012-01-08T08:56:13Z</time>
      </trkpt>
      <trkpt lat="47.36869" lon="-1.95212">
        <ele>-115</ele>
        <time>2012-01-08T08:56:15Z</time>
      </trkpt>
      <trkpt lat="47.36865" lon="-1.95226">
        <ele>-115</ele>
        <time>2012-01-08T08:56:17Z</time>
      </trkpt>
      <trkpt lat="47.36863" lon="-1.95237">
        <ele>-115</ele>
        <time>2012-01-08T08:56:19Z</time>
      </trkpt>
      <trkpt lat="47.36861" lon="-1.95249">
        <ele>-116</ele>
        <time>2012-01-08T08:56:21Z</time>
      </trkpt>
      <trkpt lat="47.36856" lon="-1.95269">
        <ele>-116</ele>
        <time>2012-01-08T08:56:24Z</time>
      </trkpt>
      <trkpt lat="47.36853" lon="-1.9528">
        <ele>-117</ele>
        <time>2012-01-08T08:56:26Z</time>
      </trkpt>
      <trkpt lat="47.36851" lon="-1.95294">
        <ele>-117</ele>
        <time>2012-01-08T08:56:28Z</time>
      </trkpt>
      <trkpt lat="47.36848" lon="-1.95308">
        <ele>-118</ele>
        <time>2012-01-08T08:56:30Z</time>
      </trkpt>
      <trkpt lat="47.36844" lon="-1.95324">
        <ele>-118</ele>
        <time>2012-01-08T08:56:32Z</time>
      </trkpt>
      <trkpt lat="47.3684" lon="-1.95338">
        <ele>-119</ele>
        <time>2012-01-08T08:56:34Z</time>
      </trkpt>
      <trkpt lat="47.36837" lon="-1.95363">
        <ele>-119</ele>
        <time>2012-01-08T08:56:36Z</time>
      </trkpt>
      <trkpt lat="47.36836" lon="-1.95379">
        <ele>-120</ele>
        <time>2012-01-08T08:56:39Z</time>
      </trkpt>
      <trkpt lat="47.36833" lon="-1.95395">
        <ele>-120</ele>
        <time>2012-01-08T08:56:41Z</time>
      </trkpt>
      <trkpt lat="47.36829" lon="-1.9541">
        <ele>-120</ele>
        <time>2012-01-08T08:56:43Z</time>
      </trkpt>
      <trkpt lat="47.36824" lon="-1.95424">
        <ele>-120</ele>
        <time>2012-01-08T08:56:45Z</time>
      </trkpt>
      <trkpt lat="47.36819" lon="-1.95436">
        <ele>-120</ele>
        <time>2012-01-08T08:56:47Z</time>
      </trkpt>
      <trkpt lat="47.36815" lon="-1.95446">
        <ele>-120</ele>
        <time>2012-01-08T08:56:49Z</time>
      </trkpt>
      <trkpt lat="47.36811" lon="-1.95456">
        <ele>-120</ele>
        <time>2012-01-08T08:56:51Z</time>
      </trkpt>
      <trkpt lat="47.36799" lon="-1.95475">
        <ele>-120</ele>
        <time>2012-01-08T08:56:53Z</time>
      </trkpt>
      <trkpt lat="47.36794" lon="-1.95482">
        <ele>-121</ele>
        <time>2012-01-08T08:56:55Z</time>
      </trkpt>
      <trkpt lat="47.36781" lon="-1.95505">
        <ele>-122</ele>
        <time>2012-01-08T08:56:58Z</time>
      </trkpt>
      <trkpt lat="47.36773" lon="-1.9552">
        <ele>-122</ele>
        <time>2012-01-08T08:57:00Z</time>
      </trkpt>
      <trkpt lat="47.36764" lon="-1.95534">
        <ele>-123</ele>
        <time>2012-01-08T08:57:02Z</time>
      </trkpt>
      <trkpt lat="47.36757" lon="-1.95545">
        <ele>-124</ele>
        <time>2012-01-08T08:57:04Z</time>
      </trkpt>
      <trkpt lat="47.3675" lon="-1.95557">
        <ele>-125</ele>
        <time>2012-01-08T08:57:06Z</time>
      </trkpt>
      <trkpt lat="47.36745" lon="-1.95571">
        <ele>-125</ele>
        <time>2012-01-08T08:57:08Z</time>
      </trkpt>
      <trkpt lat="47.36739" lon="-1.95586">
        <ele>-125</ele>
        <time>2012-01-08T08:57:10Z</time>
      </trkpt>
      <trkpt lat="47.36732" lon="-1.95611">
        <ele>-125</ele>
        <time>2012-01-08T08:57:12Z</time>
      </trkpt>
      <trkpt lat="47.36731" lon="-1.95619">
        <ele>-125</ele>
        <time>2012-01-08T08:57:14Z</time>
      </trkpt>
      <trkpt lat="47.36723" lon="-1.95645">
        <ele>-125</ele>
        <time>2012-01-08T08:57:16Z</time>
      </trkpt>
      <trkpt lat="47.36717" lon="-1.95662">
        <ele>-126</ele>
        <time>2012-01-08T08:57:18Z</time>
      </trkpt>
      <trkpt lat="47.36712" lon="-1.95678">
        <ele>-126</ele>
        <time>2012-01-08T08:57:20Z</time>
      </trkpt>
      <trkpt lat="47.36706" lon="-1.95695">
        <ele>-127</ele>
        <time>2012-01-08T08:57:22Z</time>
      </trkpt>
      <trkpt lat="47.36701" lon="-1.95711">
        <ele>-127</ele>
        <time>2012-01-08T08:57:24Z</time>
      </trkpt>
      <trkpt lat="47.36696" lon="-1.95727">
        <ele>-127</ele>
        <time>2012-01-08T08:57:27Z</time>
      </trkpt>
      <trkpt lat="47.36692" lon="-1.95743">
        <ele>-127</ele>
        <time>2012-01-08T08:57:29Z</time>
      </trkpt>
      <trkpt lat="47.36687" lon="-1.9576">
        <ele>-128</ele>
        <time>2012-01-08T08:57:31Z</time>
      </trkpt>
      <trkpt lat="47.36684" lon="-1.95776">
        <ele>-128</ele>
        <time>2012-01-08T08:57:33Z</time>
      </trkpt>
      <trkpt lat="47.36681" lon="-1.95792">
        <ele>-128</ele>
        <time>2012-01-08T08:57:35Z</time>
      </trkpt>
      <trkpt lat="47.36677" lon="-1.95817">
        <ele>-128</ele>
        <time>2012-01-08T08:57:37Z</time>
      </trkpt>
      <trkpt lat="47.36675" lon="-1.95825">
        <ele>-129</ele>
        <time>2012-01-08T08:57:39Z</time>
      </trkpt>
      <trkpt lat="47.3667" lon="-1.95848">
        <ele>-129</ele>
        <time>2012-01-08T08:57:41Z</time>
      </trkpt>
      <trkpt lat="47.36667" lon="-1.95861">
        <ele>-129</ele>
        <time>2012-01-08T08:57:44Z</time>
      </trkpt>
      <trkpt lat="47.36664" lon="-1.95876">
        <ele>-129</ele>
        <time>2012-01-08T08:57:46Z</time>
      </trkpt>
      <trkpt lat="47.36663" lon="-1.95891">
        <ele>-129</ele>
        <time>2012-01-08T08:57:48Z</time>
      </trkpt>
      <trkpt lat="47.36661" lon="-1.95906">
        <ele>-129</ele>
        <time>2012-01-08T08:57:50Z</time>
      </trkpt>
      <trkpt lat="47.36657" lon="-1.95919">
        <ele>-129</ele>
        <time>2012-01-08T08:57:52Z</time>
      </trkpt>
      <trkpt lat="47.3665" lon="-1.95931">
        <ele>-129</ele>
        <time>2012-01-08T08:57:54Z</time>
      </trkpt>
      <trkpt lat="47.36642" lon="-1.95944">
        <ele>-130</ele>
        <time>2012-01-08T08:57:56Z</time>
      </trkpt>
      <trkpt lat="47.36633" lon="-1.95959">
        <ele>-131</ele>
        <time>2012-01-08T08:57:58Z</time>
      </trkpt>
      <trkpt lat="47.36624" lon="-1.95974">
        <ele>-131</ele>
        <time>2012-01-08T08:58:00Z</time>
      </trkpt>
      <trkpt lat="47.36614" lon="-1.95989">
        <ele>-132</ele>
        <time>2012-01-08T08:58:02Z</time>
      </trkpt>
      <trkpt lat="47.36606" lon="-1.96004">
        <ele>-132</ele>
        <time>2012-01-08T08:58:04Z</time>
      </trkpt>
      <trkpt lat="47.36599" lon="-1.96031">
        <ele>-133</ele>
        <time>2012-01-08T08:58:06Z</time>
      </trkpt>
      <trkpt lat="47.36599" lon="-1.96051">
        <ele>-134</ele>
        <time>2012-01-08T08:58:08Z</time>
      </trkpt>
      <trkpt lat="47.36599" lon="-1.9606">
        <ele>-134</ele>
        <time>2012-01-08T08:58:10Z</time>
      </trkpt>
      <trkpt lat="47.36587" lon="-1.96079">
        <ele>-134</ele>
        <time>2012-01-08T08:58:12Z</time>
      </trkpt>
      <trkpt lat="47.36578" lon="-1.96088">
        <ele>-134</ele>
        <time>2012-01-08T08:58:14Z</time>
      </trkpt>
      <trkpt lat="47.3657" lon="-1.96098">
        <ele>-134</ele>
        <time>2012-01-08T08:58:17Z</time>
      </trkpt>
      <trkpt lat="47.36563" lon="-1.96107">
        <ele>-134</ele>
        <time>2012-01-08T08:58:19Z</time>
      </trkpt>
      <trkpt lat="47.36556" lon="-1.96116">
        <ele>-134</ele>
        <time>2012-01-08T08:58:21Z</time>
      </trkpt>
      <trkpt lat="47.36549" lon="-1.96124">
        <ele>-134</ele>
        <time>2012-01-08T08:58:23Z</time>
      </trkpt>
      <trkpt lat="47.3654" lon="-1.96132">
        <ele>-134</ele>
        <time>2012-01-08T08:58:25Z</time>
      </trkpt>
      <trkpt lat="47.36531" lon="-1.96137">
        <ele>-134</ele>
        <time>2012-01-08T08:58:27Z</time>
      </trkpt>
      <trkpt lat="47.3652" lon="-1.96142">
        <ele>-135</ele>
        <time>2012-01-08T08:58:29Z</time>
      </trkpt>
      <trkpt lat="47.36505" lon="-1.96149">
        <ele>-135</ele>
        <time>2012-01-08T08:58:31Z</time>
      </trkpt>
      <trkpt lat="47.36496" lon="-1.96152">
        <ele>-136</ele>
        <time>2012-01-08T08:58:33Z</time>
      </trkpt>
      <trkpt lat="47.3649" lon="-1.96153">
        <ele>-138</ele>
        <time>2012-01-08T08:58:35Z</time>
      </trkpt>
      <trkpt lat="47.36487" lon="-1.96153">
        <ele>-138</ele>
        <time>2012-01-08T08:58:38Z</time>
      </trkpt>
      <trkpt lat="47.36483" lon="-1.96153">
        <ele>-139</ele>
        <time>2012-01-08T08:58:40Z</time>
      </trkpt>
      <trkpt lat="47.36478" lon="-1.96153">
        <ele>-139</ele>
        <time>2012-01-08T08:58:42Z</time>
      </trkpt>
      <trkpt lat="47.36472" lon="-1.96152">
        <ele>-140</ele>
        <time>2012-01-08T08:58:44Z</time>
      </trkpt>
      <trkpt lat="47.36464" lon="-1.96151">
        <ele>-140</ele>
        <time>2012-01-08T08:58:46Z</time>
      </trkpt>
      <trkpt lat="47.36452" lon="-1.96152">
        <ele>-140</ele>
        <time>2012-01-08T08:58:48Z</time>
      </trkpt>
      <trkpt lat="47.36444" lon="-1.96153">
        <ele>-140</ele>
        <time>2012-01-08T08:58:51Z</time>
      </trkpt>
      <trkpt lat="47.36435" lon="-1.96154">
        <ele>-140</ele>
        <time>2012-01-08T08:58:53Z</time>
      </trkpt>
      <trkpt lat="47.36425" lon="-1.96156">
        <ele>-140</ele>
        <time>2012-01-08T08:58:55Z</time>
      </trkpt>
      <trkpt lat="47.36415" lon="-1.96159">
        <ele>-141</ele>
        <time>2012-01-08T08:58:57Z</time>
      </trkpt>
      <trkpt lat="47.36406" lon="-1.96162">
        <ele>-141</ele>
        <time>2012-01-08T08:58:59Z</time>
      </trkpt>
      <trkpt lat="47.36396" lon="-1.96167">
        <ele>-142</ele>
        <time>2012-01-08T08:59:01Z</time>
      </trkpt>
      <trkpt lat="47.36388" lon="-1.96172">
        <ele>-142</ele>
        <time>2012-01-08T08:59:03Z</time>
      </trkpt>
      <trkpt lat="47.36376" lon="-1.96181">
        <ele>-142</ele>
        <time>2012-01-08T08:59:05Z</time>
      </trkpt>
      <trkpt lat="47.36372" lon="-1.96185">
        <ele>-142</ele>
        <time>2012-01-08T08:59:07Z</time>
      </trkpt>
      <trkpt lat="47.36366" lon="-1.96192">
        <ele>-143</ele>
        <time>2012-01-08T08:59:09Z</time>
      </trkpt>
      <trkpt lat="47.36357" lon="-1.96203">
        <ele>-142</ele>
        <time>2012-01-08T08:59:12Z</time>
      </trkpt>
      <trkpt lat="47.36352" lon="-1.96212">
        <ele>-142</ele>
        <time>2012-01-08T08:59:14Z</time>
      </trkpt>
      <trkpt lat="47.36349" lon="-1.96217">
        <ele>-142</ele>
        <time>2012-01-08T08:59:16Z</time>
      </trkpt>
      <trkpt lat="47.36341" lon="-1.96235">
        <ele>-141</ele>
        <time>2012-01-08T08:59:18Z</time>
      </trkpt>
      <trkpt lat="47.36336" lon="-1.96247">
        <ele>-141</ele>
        <time>2012-01-08T08:59:20Z</time>
      </trkpt>
      <trkpt lat="47.36329" lon="-1.96267">
        <ele>-142</ele>
        <time>2012-01-08T08:59:22Z</time>
      </trkpt>
      <trkpt lat="47.36324" lon="-1.9628">
        <ele>-142</ele>
        <time>2012-01-08T08:59:24Z</time>
      </trkpt>
      <trkpt lat="47.36324" lon="-1.96292">
        <ele>-143</ele>
        <time>2012-01-08T08:59:26Z</time>
      </trkpt>
      <trkpt lat="47.36329" lon="-1.96293">
        <ele>-143</ele>
        <time>2012-01-08T08:59:29Z</time>
      </trkpt>
      <trkpt lat="47.36335" lon="-1.96289">
        <ele>-143</ele>
        <time>2012-01-08T08:59:31Z</time>
      </trkpt>
      <trkpt lat="47.36341" lon="-1.96284">
        <ele>-143</ele>
        <time>2012-01-08T08:59:33Z</time>
      </trkpt>
      <trkpt lat="47.36347" lon="-1.9628">
        <ele>-143</ele>
        <time>2012-01-08T08:59:35Z</time>
      </trkpt>
      <trkpt lat="47.36353" lon="-1.96276">
        <ele>-142</ele>
        <time>2012-01-08T08:59:37Z</time>
      </trkpt>
      <trkpt lat="47.36358" lon="-1.96271">
        <ele>-142</ele>
        <time>2012-01-08T08:59:39Z</time>
      </trkpt>
      <trkpt lat="47.36364" lon="-1.96267">
        <ele>-142</ele>
        <time>2012-01-08T08:59:41Z</time>
      </trkpt>
      <trkpt lat="47.36373" lon="-1.96261">
        <ele>-141</ele>
        <time>2012-01-08T08:59:43Z</time>
      </trkpt>
      <trkpt lat="47.36379" lon="-1.96263">
        <ele>-141</ele>
        <time>2012-01-08T08:59:46Z</time>
      </trkpt>
      <trkpt lat="47.36383" lon="-1.96269">
        <ele>-141</ele>
        <time>2012-01-08T08:59:48Z</time>
      </trkpt>
      <trkpt lat="47.36385" lon="-1.96277">
        <ele>-141</ele>
        <time>2012-01-08T08:59:50Z</time>
      </trkpt>
      <trkpt lat="47.36387" lon="-1.96287">
        <ele>-141</ele>
        <time>2012-01-08T08:59:52Z</time>
      </trkpt>
      <trkpt lat="47.3639" lon="-1.96296">
        <ele>-141</ele>
        <time>2012-01-08T08:59:54Z</time>
      </trkpt>
      <trkpt lat="47.36391" lon="-1.96311">
        <ele>-141</ele>
        <time>2012-01-08T08:59:56Z</time>
      </trkpt>
      <trkpt lat="47.36393" lon="-1.9632">
        <ele>-141</ele>
        <time>2012-01-08T08:59:58Z</time>
      </trkpt>
      <trkpt lat="47.36396" lon="-1.9633">
        <ele>-141</ele>
        <time>2012-01-08T09:00:00Z</time>
      </trkpt>
      <trkpt lat="47.36398" lon="-1.9634">
        <ele>-141</ele>
        <time>2012-01-08T09:00:02Z</time>
      </trkpt>
      <trkpt lat="47.36402" lon="-1.9635">
        <ele>-141</ele>
        <time>2012-01-08T09:00:05Z</time>
      </trkpt>
      <trkpt lat="47.36405" lon="-1.96359">
        <ele>-140</ele>
        <time>2012-01-08T09:00:07Z</time>
      </trkpt>
      <trkpt lat="47.36409" lon="-1.96368">
        <ele>-140</ele>
        <time>2012-01-08T09:00:09Z</time>
      </trkpt>
      <trkpt lat="47.36412" lon="-1.96378">
        <ele>-139</ele>
        <time>2012-01-08T09:00:11Z</time>
      </trkpt>
      <trkpt lat="47.36415" lon="-1.96387">
        <ele>-139</ele>
        <time>2012-01-08T09:00:13Z</time>
      </trkpt>
      <trkpt lat="47.36418" lon="-1.96394">
        <ele>-139</ele>
        <time>2012-01-08T09:00:15Z</time>
      </trkpt>
      <trkpt lat="47.3642" lon="-1.96401">
        <ele>-139</ele>
        <time>2012-01-08T09:00:17Z</time>
      </trkpt>
      <trkpt lat="47.36423" lon="-1.96411">
        <ele>-139</ele>
        <time>2012-01-08T09:00:19Z</time>
      </trkpt>
      <trkpt lat="47.36426" lon="-1.96416">
        <ele>-138</ele>
        <time>2012-01-08T09:00:21Z</time>
      </trkpt>
      <trkpt lat="47.36429" lon="-1.96422">
        <ele>-138</ele>
        <time>2012-01-08T09:00:24Z</time>
      </trkpt>
      <trkpt lat="47.36432" lon="-1.96428">
        <ele>-138</ele>
        <time>2012-01-08T09:00:26Z</time>
      </trkpt>
      <trkpt lat="47.36435" lon="-1.96435">
        <ele>-138</ele>
        <time>2012-01-08T09:00:28Z</time>
      </trkpt>
      <trkpt lat="47.36437" lon="-1.96444">
        <ele>-138</ele>
        <time>2012-01-08T09:00:30Z</time>
      </trkpt>
      <trkpt lat="47.36439" lon="-1.96452">
        <ele>-137</ele>
        <time>2012-01-08T09:00:32Z</time>
      </trkpt>
      <trkpt lat="47.36444" lon="-1.9646">
        <ele>-137</ele>
        <time>2012-01-08T09:00:34Z</time>
      </trkpt>
      <trkpt lat="47.36449" lon="-1.96474">
        <ele>-137</ele>
        <time>2012-01-08T09:00:36Z</time>
      </trkpt>
      <trkpt lat="47.36451" lon="-1.96478">
        <ele>-136</ele>
        <time>2012-01-08T09:00:38Z</time>
      </trkpt>
      <trkpt lat="47.36456" lon="-1.96492">
        <ele>-136</ele>
        <time>2012-01-08T09:00:40Z</time>
      </trkpt>
      <trkpt lat="47.3646" lon="-1.96501">
        <ele>-136</ele>
        <time>2012-01-08T09:00:42Z</time>
      </trkpt>
      <trkpt lat="47.36463" lon="-1.9651">
        <ele>-136</ele>
        <time>2012-01-08T09:00:44Z</time>
      </trkpt>
      <trkpt lat="47.36465" lon="-1.96519">
        <ele>-136</ele>
        <time>2012-01-08T09:00:46Z</time>
      </trkpt>
      <trkpt lat="47.36471" lon="-1.96527">
        <ele>-136</ele>
        <time>2012-01-08T09:00:48Z</time>
      </trkpt>
      <trkpt lat="47.36476" lon="-1.96537">
        <ele>-136</ele>
        <time>2012-01-08T09:00:51Z</time>
      </trkpt>
      <trkpt lat="47.3648" lon="-1.96548">
        <ele>-136</ele>
        <time>2012-01-08T09:00:53Z</time>
      </trkpt>
      <trkpt lat="47.36484" lon="-1.9656">
        <ele>-136</ele>
        <time>2012-01-08T09:00:55Z</time>
      </trkpt>
      <trkpt lat="47.3649" lon="-1.9657">
        <ele>-136</ele>
        <time>2012-01-08T09:00:57Z</time>
      </trkpt>
      <trkpt lat="47.36496" lon="-1.9658">
        <ele>-136</ele>
        <time>2012-01-08T09:00:59Z</time>
      </trkpt>
      <trkpt lat="47.36501" lon="-1.9659">
        <ele>-136</ele>
        <time>2012-01-08T09:01:01Z</time>
      </trkpt>
      <trkpt lat="47.36506" lon="-1.96601">
        <ele>-135</ele>
        <time>2012-01-08T09:01:03Z</time>
      </trkpt>
      <trkpt lat="47.3651" lon="-1.96611">
        <ele>-135</ele>
        <time>2012-01-08T09:01:05Z</time>
      </trkpt>
      <trkpt lat="47.36515" lon="-1.96629">
        <ele>-135</ele>
        <time>2012-01-08T09:01:07Z</time>
      </trkpt>
      <trkpt lat="47.36519" lon="-1.96642">
        <ele>-135</ele>
        <time>2012-01-08T09:01:09Z</time>
      </trkpt>
      <trkpt lat="47.36522" lon="-1.96654">
        <ele>-136</ele>
        <time>2012-01-08T09:01:11Z</time>
      </trkpt>
      <trkpt lat="47.36525" lon="-1.96666">
        <ele>-136</ele>
        <time>2012-01-08T09:01:14Z</time>
      </trkpt>
      <trkpt lat="47.36528" lon="-1.9668">
        <ele>-137</ele>
        <time>2012-01-08T09:01:16Z</time>
      </trkpt>
      <trkpt lat="47.36531" lon="-1.96695">
        <ele>-137</ele>
        <time>2012-01-08T09:01:18Z</time>
      </trkpt>
      <trkpt lat="47.36535" lon="-1.96711">
        <ele>-137</ele>
        <time>2012-01-08T09:01:20Z</time>
      </trkpt>
      <trkpt lat="47.36539" lon="-1.96726">
        <ele>-137</ele>
        <time>2012-01-08T09:01:22Z</time>
      </trkpt>
      <trkpt lat="47.36543" lon="-1.9674">
        <ele>-137</ele>
        <time>2012-01-08T09:01:24Z</time>
      </trkpt>
      <trkpt lat="47.36547" lon="-1.96763">
        <ele>-138</ele>
        <time>2012-01-08T09:01:26Z</time>
      </trkpt>
      <trkpt lat="47.36549" lon="-1.96776">
        <ele>-138</ele>
        <time>2012-01-08T09:01:28Z</time>
      </trkpt>
      <trkpt lat="47.36553" lon="-1.9679">
        <ele>-139</ele>
        <time>2012-01-08T09:01:30Z</time>
      </trkpt>
      <trkpt lat="47.36556" lon="-1.96807">
        <ele>-139</ele>
        <time>2012-01-08T09:01:33Z</time>
      </trkpt>
      <trkpt lat="47.36558" lon="-1.96823">
        <ele>-140</ele>
        <time>2012-01-08T09:01:35Z</time>
      </trkpt>
      <trkpt lat="47.3656" lon="-1.96835">
        <ele>-141</ele>
        <time>2012-01-08T09:01:37Z</time>
      </trkpt>
      <trkpt lat="47.36565" lon="-1.96839">
        <ele>-141</ele>
        <time>2012-01-08T09:01:39Z</time>
      </trkpt>
      <trkpt lat="47.36571" lon="-1.96835">
        <ele>-142</ele>
        <time>2012-01-08T09:01:41Z</time>
      </trkpt>
      <trkpt lat="47.36577" lon="-1.96829">
        <ele>-142</ele>
        <time>2012-01-08T09:01:43Z</time>
      </trkpt>
      <trkpt lat="47.36583" lon="-1.96823">
        <ele>-142</ele>
        <time>2012-01-08T09:01:45Z</time>
      </trkpt>
      <trkpt lat="47.3659" lon="-1.96817">
        <ele>-141</ele>
        <time>2012-01-08T09:01:47Z</time>
      </trkpt>
      <trkpt lat="47.36599" lon="-1.96808">
        <ele>-141</ele>
        <time>2012-01-08T09:01:49Z</time>
      </trkpt>
      <trkpt lat="47.36607" lon="-1.96803">
        <ele>-140</ele>
        <time>2012-01-08T09:01:51Z</time>
      </trkpt>
      <trkpt lat="47.36613" lon="-1.96797">
        <ele>-139</ele>
        <time>2012-01-08T09:01:53Z</time>
      </trkpt>
      <trkpt lat="47.3662" lon="-1.9679">
        <ele>-139</ele>
        <time>2012-01-08T09:01:56Z</time>
      </trkpt>
      <trkpt lat="47.36627" lon="-1.96784">
        <ele>-138</ele>
        <time>2012-01-08T09:01:58Z</time>
      </trkpt>
      <trkpt lat="47.36634" lon="-1.96779">
        <ele>-138</ele>
        <time>2012-01-08T09:02:00Z</time>
      </trkpt>
      <trkpt lat="47.3664" lon="-1.96774">
        <ele>-138</ele>
        <time>2012-01-08T09:02:02Z</time>
      </trkpt>
      <trkpt lat="47.36647" lon="-1.96769">
        <ele>-137</ele>
        <time>2012-01-08T09:02:04Z</time>
      </trkpt>
      <trkpt lat="47.36655" lon="-1.96765">
        <ele>-137</ele>
        <time>2012-01-08T09:02:06Z</time>
      </trkpt>
      <trkpt lat="47.36663" lon="-1.9676">
        <ele>-137</ele>
        <time>2012-01-08T09:02:08Z</time>
      </trkpt>
      <trkpt lat="47.36674" lon="-1.96754">
        <ele>-136</ele>
        <time>2012-01-08T09:02:10Z</time>
      </trkpt>
      <trkpt lat="47.36681" lon="-1.9675">
        <ele>-136</ele>
        <time>2012-01-08T09:02:12Z</time>
      </trkpt>
      <trkpt lat="47.36688" lon="-1.96747">
        <ele>-136</ele>
        <time>2012-01-08T09:02:14Z</time>
      </trkpt>
      <trkpt lat="47.36695" lon="-1.96743">
        <ele>-135</ele>
        <time>2012-01-08T09:02:16Z</time>
      </trkpt>
      <trkpt lat="47.36702" lon="-1.9674">
        <ele>-135</ele>
        <time>2012-01-08T09:02:18Z</time>
      </trkpt>
      <trkpt lat="47.36708" lon="-1.96736">
        <ele>-135</ele>
        <time>2012-01-08T09:02:21Z</time>
      </trkpt>
      <trkpt lat="47.36715" lon="-1.96732">
        <ele>-134</ele>
        <time>2012-01-08T09:02:23Z</time>
      </trkpt>
      <trkpt lat="47.36722" lon="-1.96728">
        <ele>-134</ele>
        <time>2012-01-08T09:02:25Z</time>
      </trkpt>
      <trkpt lat="47.36729" lon="-1.96724">
        <ele>-134</ele>
        <time>2012-01-08T09:02:27Z</time>
      </trkpt>
      <trkpt lat="47.36737" lon="-1.9672">
        <ele>-134</ele>
        <time>2012-01-08T09:02:29Z</time>
      </trkpt>
      <trkpt lat="47.36743" lon="-1.96717">
        <ele>-134</ele>
        <time>2012-01-08T09:02:31Z</time>
      </trkpt>
      <trkpt lat="47.3675" lon="-1.96714">
        <ele>-133</ele>
        <time>2012-01-08T09:02:33Z</time>
      </trkpt>
      <trkpt lat="47.36757" lon="-1.9671">
        <ele>-133</ele>
        <time>2012-01-08T09:02:35Z</time>
      </trkpt>
      <trkpt lat="47.36764" lon="-1.96707">
        <ele>-132</ele>
        <time>2012-01-08T09:02:37Z</time>
      </trkpt>
      <trkpt lat="47.36771" lon="-1.96708">
        <ele>-132</ele>
        <time>2012-01-08T09:02:39Z</time>
      </trkpt>
      <trkpt lat="47.3678" lon="-1.9671">
        <ele>-131</ele>
        <time>2012-01-08T09:02:41Z</time>
      </trkpt>
      <trkpt lat="47.36786" lon="-1.96706">
        <ele>-131</ele>
        <time>2012-01-08T09:02:43Z</time>
      </trkpt>
      <trkpt lat="47.36791" lon="-1.967">
        <ele>-130</ele>
        <time>2012-01-08T09:02:45Z</time>
      </trkpt>
      <trkpt lat="47.36798" lon="-1.96697">
        <ele>-130</ele>
        <time>2012-01-08T09:02:47Z</time>
      </trkpt>
      <trkpt lat="47.36804" lon="-1.96693">
        <ele>-130</ele>
        <time>2012-01-08T09:02:50Z</time>
      </trkpt>
      <trkpt lat="47.3681" lon="-1.96689">
        <ele>-130</ele>
        <time>2012-01-08T09:02:52Z</time>
      </trkpt>
      <trkpt lat="47.36815" lon="-1.96686">
        <ele>-129</ele>
        <time>2012-01-08T09:02:54Z</time>
      </trkpt>
      <trkpt lat="47.36821" lon="-1.96683">
        <ele>-129</ele>
        <time>2012-01-08T09:02:56Z</time>
      </trkpt>
      <trkpt lat="47.3683" lon="-1.96679">
        <ele>-128</ele>
        <time>2012-01-08T09:02:58Z</time>
      </trkpt>
      <trkpt lat="47.36837" lon="-1.96678">
        <ele>-127</ele>
        <time>2012-01-08T09:03:00Z</time>
      </trkpt>
      <trkpt lat="47.36843" lon="-1.96677">
        <ele>-127</ele>
        <time>2012-01-08T09:03:02Z</time>
      </trkpt>
      <trkpt lat="47.3685" lon="-1.96676">
        <ele>-126</ele>
        <time>2012-01-08T09:03:05Z</time>
      </trkpt>
      <trkpt lat="47.36856" lon="-1.96676">
        <ele>-126</ele>
        <time>2012-01-08T09:03:07Z</time>
      </trkpt>
      <trkpt lat="47.36863" lon="-1.96678">
        <ele>-126</ele>
        <time>2012-01-08T09:03:09Z</time>
      </trkpt>
      <trkpt lat="47.36869" lon="-1.96681">
        <ele>-125</ele>
        <time>2012-01-08T09:03:11Z</time>
      </trkpt>
      <trkpt lat="47.36878" lon="-1.96687">
        <ele>-125</ele>
        <time>2012-01-08T09:03:13Z</time>
      </trkpt>
      <trkpt lat="47.36884" lon="-1.96692">
        <ele>-125</ele>
        <time>2012-01-08T09:03:15Z</time>
      </trkpt>
      <trkpt lat="47.3689" lon="-1.96696">
        <ele>-125</ele>
        <time>2012-01-08T09:03:17Z</time>
      </trkpt>
      <trkpt lat="47.36896" lon="-1.96701">
        <ele>-125</ele>
        <time>2012-01-08T09:03:20Z</time>
      </trkpt>
      <trkpt lat="47.36902" lon="-1.96704">
        <ele>-125</ele>
        <time>2012-01-08T09:03:22Z</time>
      </trkpt>
      <trkpt lat="47.36908" lon="-1.96706">
        <ele>-124</ele>
        <time>2012-01-08T09:03:24Z</time>
      </trkpt>
      <trkpt lat="47.36914" lon="-1.96707">
        <ele>-124</ele>
        <time>2012-01-08T09:03:26Z</time>
      </trkpt>
      <trkpt lat="47.36923" lon="-1.96706">
        <ele>-124</ele>
        <time>2012-01-08T09:03:28Z</time>
      </trkpt>
      <trkpt lat="47.36928" lon="-1.96706">
        <ele>-124</ele>
        <time>2012-01-08T09:03:30Z</time>
      </trkpt>
      <trkpt lat="47.36933" lon="-1.96705">
        <ele>-124</ele>
        <time>2012-01-08T09:03:32Z</time>
      </trkpt>
      <trkpt lat="47.36938" lon="-1.96704">
        <ele>-123</ele>
        <time>2012-01-08T09:03:34Z</time>
      </trkpt>
      <trkpt lat="47.36943" lon="-1.96703">
        <ele>-123</ele>
        <time>2012-01-08T09:03:37Z</time>
      </trkpt>
      <trkpt lat="47.36948" lon="-1.96702">
        <ele>-123</ele>
        <time>2012-01-08T09:03:39Z</time>
      </trkpt>
      <trkpt lat="47.36953" lon="-1.96702">
        <ele>-123</ele>
        <time>2012-01-08T09:03:41Z</time>
      </trkpt>
      <trkpt lat="47.36958" lon="-1.96701">
        <ele>-123</ele>
        <time>2012-01-08T09:03:43Z</time>
      </trkpt>
      <trkpt lat="47.36963" lon="-1.967">
        <ele>-123</ele>
        <time>2012-01-08T09:03:45Z</time>
      </trkpt>
      <trkpt lat="47.36967" lon="-1.96699">
        <ele>-122</ele>
        <time>2012-01-08T09:03:47Z</time>
      </trkpt>
      <trkpt lat="47.36972" lon="-1.96698">
        <ele>-122</ele>
        <time>2012-01-08T09:03:49Z</time>
      </trkpt>
      <trkpt lat="47.3698" lon="-1.96697">
        <ele>-122</ele>
        <time>2012-01-08T09:03:51Z</time>
      </trkpt>
      <trkpt lat="47.36984" lon="-1.96696">
        <ele>-122</ele>
        <time>2012-01-08T09:03:53Z</time>
      </trkpt>
      <trkpt lat="47.36987" lon="-1.96694">
        <ele>-122</ele>
        <time>2012-01-08T09:03:56Z</time>
      </trkpt>
      <trkpt lat="47.36988" lon="-1.9669">
        <ele>-121</ele>
        <time>2012-01-08T09:03:58Z</time>
      </trkpt>
      <trkpt lat="47.36989" lon="-1.96686">
        <ele>-121</ele>
        <time>2012-01-08T09:04:00Z</time>
      </trkpt>
      <trkpt lat="47.36989" lon="-1.96683">
        <ele>-121</ele>
        <time>2012-01-08T09:04:02Z</time>
      </trkpt>
      <trkpt lat="47.36989" lon="-1.96679">
        <ele>-120</ele>
        <time>2012-01-08T09:04:04Z</time>
      </trkpt>
      <trkpt lat="47.36988" lon="-1.96676">
        <ele>-120</ele>
        <time>2012-01-08T09:04:06Z</time>
      </trkpt>
      <trkpt lat="47.36987" lon="-1.96671">
        <ele>-119</ele>
        <time>2012-01-08T09:04:08Z</time>
      </trkpt>
      <trkpt lat="47.36985" lon="-1.9667">
        <ele>-118</ele>
        <time>2012-01-08T09:04:10Z</time>
      </trkpt>
      <trkpt lat="47.36984" lon="-1.96669">
        <ele>-117</ele>
        <time>2012-01-08T09:04:13Z</time>
      </trkpt>
      <trkpt lat="47.36982" lon="-1.96668">
        <ele>-117</ele>
        <time>2012-01-08T09:04:15Z</time>
      </trkpt>
      <trkpt lat="47.3698" lon="-1.96668">
        <ele>-117</ele>
        <time>2012-01-08T09:04:17Z</time>
      </trkpt>
      <trkpt lat="47.36978" lon="-1.96668">
        <ele>-117</ele>
        <time>2012-01-08T09:04:19Z</time>
      </trkpt>
      <trkpt lat="47.36977" lon="-1.96669">
        <ele>-117</ele>
        <time>2012-01-08T09:04:21Z</time>
      </trkpt>
      <trkpt lat="47.36974" lon="-1.96669">
        <ele>-117</ele>
        <time>2012-01-08T09:04:23Z</time>
      </trkpt>
      <trkpt lat="47.36971" lon="-1.96669">
        <ele>-117</ele>
        <time>2012-01-08T09:04:25Z</time>
      </trkpt>
      <trkpt lat="47.36965" lon="-1.9667">
        <ele>-117</ele>
        <time>2012-01-08T09:04:27Z</time>
      </trkpt>
      <trkpt lat="47.36962" lon="-1.96669">
        <ele>-117</ele>
        <time>2012-01-08T09:04:30Z</time>
      </trkpt>
      <trkpt lat="47.36959" lon="-1.96669">
        <ele>-117</ele>
        <time>2012-01-08T09:04:32Z</time>
      </trkpt>
      <trkpt lat="47.36956" lon="-1.96667">
        <ele>-117</ele>
        <time>2012-01-08T09:04:34Z</time>
      </trkpt>
      <trkpt lat="47.36955" lon="-1.96664">
        <ele>-117</ele>
        <time>2012-01-08T09:04:36Z</time>
      </trkpt>
      <trkpt lat="47.36957" lon="-1.96662">
        <ele>-117</ele>
        <time>2012-01-08T09:04:38Z</time>
      </trkpt>
      <trkpt lat="47.36959" lon="-1.96661">
        <ele>-116</ele>
        <time>2012-01-08T09:04:40Z</time>
      </trkpt>
      <trkpt lat="47.36961" lon="-1.96662">
        <ele>-116</ele>
        <time>2012-01-08T09:04:42Z</time>
      </trkpt>
      <trkpt lat="47.36964" lon="-1.96662">
        <ele>-115</ele>
        <time>2012-01-08T09:04:44Z</time>
      </trkpt>
      <trkpt lat="47.36967" lon="-1.96661">
        <ele>-115</ele>
        <time>2012-01-08T09:04:46Z</time>
      </trkpt>
      <trkpt lat="47.3697" lon="-1.9666">
        <ele>-114</ele>
        <time>2012-01-08T09:04:48Z</time>
      </trkpt>
      <trkpt lat="47.36973" lon="-1.9666">
        <ele>-115</ele>
        <time>2012-01-08T09:04:51Z</time>
      </trkpt>
      <trkpt lat="47.36977" lon="-1.96659">
        <ele>-115</ele>
        <time>2012-01-08T09:04:53Z</time>
      </trkpt>
      <trkpt lat="47.3698" lon="-1.96658">
        <ele>-114</ele>
        <time>2012-01-08T09:04:55Z</time>
      </trkpt>
      <trkpt lat="47.36983" lon="-1.96657">
        <ele>-115</ele>
        <time>2012-01-08T09:04:57Z</time>
      </trkpt>
      <trkpt lat="47.36988" lon="-1.96656">
        <ele>-114</ele>
        <time>2012-01-08T09:04:59Z</time>
      </trkpt>
      <trkpt lat="47.36992" lon="-1.96656">
        <ele>-115</ele>
        <time>2012-01-08T09:05:01Z</time>
      </trkpt>
      <trkpt lat="47.36997" lon="-1.96655">
        <ele>-115</ele>
        <time>2012-01-08T09:05:03Z</time>
      </trkpt>
      <trkpt lat="47.37002" lon="-1.96654">
        <ele>-114</ele>
        <time>2012-01-08T09:05:05Z</time>
      </trkpt>
      <trkpt lat="47.37007" lon="-1.96653">
        <ele>-114</ele>
        <time>2012-01-08T09:05:07Z</time>
      </trkpt>
      <trkpt lat="47.37011" lon="-1.96652">
        <ele>-114</ele>
        <time>2012-01-08T09:05:10Z</time>
      </trkpt>
      <trkpt lat="47.37014" lon="-1.96651">
        <ele>-113</ele>
        <time>2012-01-08T09:05:12Z</time>
      </trkpt>
      <trkpt lat="47.37017" lon="-1.96651">
        <ele>-113</ele>
        <time>2012-01-08T09:05:14Z</time>
      </trkpt>
      <trkpt lat="47.3702" lon="-1.96651">
        <ele>-113</ele>
        <time>2012-01-08T09:05:16Z</time>
      </trkpt>
      <trkpt lat="47.37024" lon="-1.96651">
        <ele>-112</ele>
        <time>2012-01-08T09:05:18Z</time>
      </trkpt>
      <trkpt lat="47.37026" lon="-1.96651">
        <ele>-112</ele>
        <time>2012-01-08T09:05:20Z</time>
      </trkpt>
      <trkpt lat="47.37027" lon="-1.96649">
        <ele>-112</ele>
        <time>2012-01-08T09:05:22Z</time>
      </trkpt>
      <trkpt lat="47.3703" lon="-1.96645">
        <ele>-111</ele>
        <time>2012-01-08T09:05:24Z</time>
      </trkpt>
      <trkpt lat="47.37033" lon="-1.96641">
        <ele>-111</ele>
        <time>2012-01-08T09:05:26Z</time>
      </trkpt>
      <trkpt lat="47.37037" lon="-1.96643">
        <ele>-112</ele>
        <time>2012-01-08T09:05:28Z</time>
      </trkpt>
      <trkpt lat="47.3704" lon="-1.96643">
        <ele>-112</ele>
        <time>2012-01-08T09:05:30Z</time>
      </trkpt>
      <trkpt lat="47.37042" lon="-1.96643">
        <ele>-112</ele>
        <time>2012-01-08T09:05:33Z</time>
      </trkpt>
      <trkpt lat="47.37043" lon="-1.96646">
        <ele>-112</ele>
        <time>2012-01-08T09:05:35Z</time>
      </trkpt>
      <trkpt lat="47.37043" lon="-1.96648">
        <ele>-112</ele>
        <time>2012-01-08T09:05:37Z</time>
      </trkpt>
      <trkpt lat="47.3704" lon="-1.96649">
        <ele>-112</ele>
        <time>2012-01-08T09:05:39Z</time>
      </trkpt>
      <trkpt lat="47.37038" lon="-1.96656">
        <ele>-113</ele>
        <time>2012-01-08T09:05:41Z</time>
      </trkpt>
      <trkpt lat="47.37039" lon="-1.96658">
        <ele>-113</ele>
        <time>2012-01-08T09:05:43Z</time>
      </trkpt>
      <trkpt lat="47.3704" lon="-1.96658">
        <ele>-113</ele>
        <time>2012-01-08T09:05:45Z</time>
      </trkpt>
      <trkpt lat="47.3704" lon="-1.96657">
        <ele>-114</ele>
        <time>2012-01-08T09:05:47Z</time>
      </trkpt>
      <trkpt lat="47.3704" lon="-1.96657">
        <ele>-114</ele>
        <time>2012-01-08T09:05:49Z</time>
      </trkpt>
      <trkpt lat="47.37041" lon="-1.96657">
        <ele>-114</ele>
        <time>2012-01-08T09:05:51Z</time>
      </trkpt>
      <trkpt lat="47.37042" lon="-1.96656">
        <ele>-114</ele>
        <time>2012-01-08T09:05:53Z</time>
      </trkpt>
      <trkpt lat="47.37042" lon="-1.96656">
        <ele>-114</ele>
        <time>2012-01-08T09:05:55Z</time>
      </trkpt>
      <trkpt lat="47.37042" lon="-1.96656">
        <ele>-114</ele>
        <time>2012-01-08T09:05:58Z</time>
      </trkpt>
      <trkpt lat="47.37043" lon="-1.96656">
        <ele>-114</ele>
        <time>2012-01-08T09:06:00Z</time>
      </trkpt>
      <trkpt lat="47.37044" lon="-1.96657">
        <ele>-114</ele>
        <time>2012-01-08T09:06:02Z</time>
      </trkpt>
      <trkpt lat="47.37045" lon="-1.96657">
        <ele>-113</ele>
        <time>2012-01-08T09:06:04Z</time>
      </trkpt>
      <trkpt lat="47.37046" lon="-1.96655">
        <ele>-113</ele>
        <time>2012-01-08T09:06:06Z</time>
      </trkpt>
      <trkpt lat="47.37046" lon="-1.96654">
        <ele>-113</ele>
        <time>2012-01-08T09:06:08Z</time>
      </trkpt>
      <trkpt lat="47.37047" lon="-1.96653">
        <ele>-113</ele>
        <time>2012-01-08T09:06:10Z</time>
      </trkpt>
      <trkpt lat="47.37048" lon="-1.96652">
        <ele>-113</ele>
        <time>2012-01-08T09:06:12Z</time>
      </trkpt>
      <trkpt lat="47.37048" lon="-1.96652">
        <ele>-112</ele>
        <time>2012-01-08T09:06:14Z</time>
      </trkpt>
      <trkpt lat="47.37048" lon="-1.96652">
        <ele>-112</ele>
        <time>2012-01-08T09:06:16Z</time>
      </trkpt>
      <trkpt lat="47.37049" lon="-1.96652">
        <ele>-112</ele>
        <time>2012-01-08T09:06:18Z</time>
      </trkpt>
      <trkpt lat="47.37049" lon="-1.96652">
        <ele>-112</ele>
        <time>2012-01-08T09:06:21Z</time>
      </trkpt>
      <trkpt lat="47.3705" lon="-1.9665">
        <ele>-113</ele>
        <time>2012-01-08T09:06:23Z</time>
      </trkpt>
      <trkpt lat="47.37053" lon="-1.9665">
        <ele>-113</ele>
        <time>2012-01-08T09:06:25Z</time>
      </trkpt>
      <trkpt lat="47.37054" lon="-1.96654">
        <ele>-113</ele>
        <time>2012-01-08T09:06:27Z</time>
      </trkpt>
      <trkpt lat="47.37055" lon="-1.96657">
        <ele>-113</ele>
        <time>2012-01-08T09:06:29Z</time>
      </trkpt>
      <trkpt lat="47.37057" lon="-1.96671">
        <ele>-113</ele>
        <time>2012-01-08T09:06:31Z</time>
      </trkpt>
      <trkpt lat="47.37058" lon="-1.96685">
        <ele>-113</ele>
        <time>2012-01-08T09:06:33Z</time>
      </trkpt>
      <trkpt lat="47.37061" lon="-1.96686">
        <ele>-114</ele>
        <time>2012-01-08T09:06:35Z</time>
      </trkpt>
      <trkpt lat="47.37065" lon="-1.96684">
        <ele>-115</ele>
        <time>2012-01-08T09:06:37Z</time>
      </trkpt>
      <trkpt lat="47.37069" lon="-1.96682">
        <ele>-116</ele>
        <time>2012-01-08T09:06:40Z</time>
      </trkpt>
      <trkpt lat="47.37075" lon="-1.9668">
        <ele>-116</ele>
        <time>2012-01-08T09:06:42Z</time>
      </trkpt>
      <trkpt lat="47.3708" lon="-1.96678">
        <ele>-116</ele>
        <time>2012-01-08T09:06:44Z</time>
      </trkpt>
      <trkpt lat="47.37085" lon="-1.96676">
        <ele>-116</ele>
        <time>2012-01-08T09:06:46Z</time>
      </trkpt>
      <trkpt lat="47.37091" lon="-1.96674">
        <ele>-115</ele>
        <time>2012-01-08T09:06:48Z</time>
      </trkpt>
      <trkpt lat="47.37096" lon="-1.96673">
        <ele>-115</ele>
        <time>2012-01-08T09:06:50Z</time>
      </trkpt>
      <trkpt lat="47.37105" lon="-1.96671">
        <ele>-115</ele>
        <time>2012-01-08T09:06:52Z</time>
      </trkpt>
      <trkpt lat="47.37109" lon="-1.9667">
        <ele>-114</ele>
        <time>2012-01-08T09:06:54Z</time>
      </trkpt>
      <trkpt lat="47.37114" lon="-1.9667">
        <ele>-114</ele>
        <time>2012-01-08T09:06:57Z</time>
      </trkpt>
      <trkpt lat="47.37118" lon="-1.96669">
        <ele>-114</ele>
        <time>2012-01-08T09:06:59Z</time>
      </trkpt>
      <trkpt lat="47.37123" lon="-1.96669">
        <ele>-113</ele>
        <time>2012-01-08T09:07:01Z</time>
      </trkpt>
      <trkpt lat="47.37127" lon="-1.96669">
        <ele>-113</ele>
        <time>2012-01-08T09:07:03Z</time>
      </trkpt>
      <trkpt lat="47.37132" lon="-1.96669">
        <ele>-113</ele>
        <time>2012-01-08T09:07:05Z</time>
      </trkpt>
      <trkpt lat="47.37135" lon="-1.96669">
        <ele>-112</ele>
        <time>2012-01-08T09:07:07Z</time>
      </trkpt>
      <trkpt lat="47.37139" lon="-1.96672">
        <ele>-112</ele>
        <time>2012-01-08T09:07:09Z</time>
      </trkpt>
      <trkpt lat="47.37141" lon="-1.96679">
        <ele>-112</ele>
        <time>2012-01-08T09:07:11Z</time>
      </trkpt>
      <trkpt lat="47.37139" lon="-1.96684">
        <ele>-111</ele>
        <time>2012-01-08T09:07:13Z</time>
      </trkpt>
      <trkpt lat="47.37136" lon="-1.96688">
        <ele>-111</ele>
        <time>2012-01-08T09:07:16Z</time>
      </trkpt>
      <trkpt lat="47.37134" lon="-1.96694">
        <ele>-111</ele>
        <time>2012-01-08T09:07:18Z</time>
      </trkpt>
      <trkpt lat="47.3713" lon="-1.96698">
        <ele>-111</ele>
        <time>2012-01-08T09:07:20Z</time>
      </trkpt>
      <trkpt lat="47.37127" lon="-1.96703">
        <ele>-110</ele>
        <time>2012-01-08T09:07:22Z</time>
      </trkpt>
      <trkpt lat="47.37124" lon="-1.96708">
        <ele>-110</ele>
        <time>2012-01-08T09:07:24Z</time>
      </trkpt>
      <trkpt lat="47.37121" lon="-1.96713">
        <ele>-109</ele>
        <time>2012-01-08T09:07:26Z</time>
      </trkpt>
      <trkpt lat="47.37116" lon="-1.9672">
        <ele>-109</ele>
        <time>2012-01-08T09:07:28Z</time>
      </trkpt>
      <trkpt lat="47.37112" lon="-1.96725">
        <ele>-109</ele>
        <time>2012-01-08T09:07:30Z</time>
      </trkpt>
      <trkpt lat="47.37109" lon="-1.9673">
        <ele>-109</ele>
        <time>2012-01-08T09:07:32Z</time>
      </trkpt>
      <trkpt lat="47.37106" lon="-1.96735">
        <ele>-108</ele>
        <time>2012-01-08T09:07:35Z</time>
      </trkpt>
      <trkpt lat="47.37102" lon="-1.9674">
        <ele>-108</ele>
        <time>2012-01-08T09:07:37Z</time>
      </trkpt>
      <trkpt lat="47.37099" lon="-1.96745">
        <ele>-108</ele>
        <time>2012-01-08T09:07:39Z</time>
      </trkpt>
      <trkpt lat="47.37097" lon="-1.96751">
        <ele>-108</ele>
        <time>2012-01-08T09:07:41Z</time>
      </trkpt>
      <trkpt lat="47.37099" lon="-1.96761">
        <ele>-108</ele>
        <time>2012-01-08T09:07:43Z</time>
      </trkpt>
      <trkpt lat="47.37102" lon="-1.96765">
        <ele>-108</ele>
        <time>2012-01-08T09:07:45Z</time>
      </trkpt>
      <trkpt lat="47.37106" lon="-1.9677">
        <ele>-108</ele>
        <time>2012-01-08T09:07:47Z</time>
      </trkpt>
      <trkpt lat="47.37109" lon="-1.96774">
        <ele>-107</ele>
        <time>2012-01-08T09:07:50Z</time>
      </trkpt>
      <trkpt lat="47.37112" lon="-1.9678">
        <ele>-107</ele>
        <time>2012-01-08T09:07:52Z</time>
      </trkpt>
      <trkpt lat="47.37115" lon="-1.96786">
        <ele>-107</ele>
        <time>2012-01-08T09:07:54Z</time>
      </trkpt>
      <trkpt lat="47.37115" lon="-1.96793">
        <ele>-107</ele>
        <time>2012-01-08T09:07:56Z</time>
      </trkpt>
      <trkpt lat="47.37116" lon="-1.968">
        <ele>-107</ele>
        <time>2012-01-08T09:07:58Z</time>
      </trkpt>
      <trkpt lat="47.37115" lon="-1.96807">
        <ele>-106</ele>
        <time>2012-01-08T09:08:00Z</time>
      </trkpt>
      <trkpt lat="47.37115" lon="-1.96818">
        <ele>-106</ele>
        <time>2012-01-08T09:08:02Z</time>
      </trkpt>
      <trkpt lat="47.37115" lon="-1.96825">
        <ele>-106</ele>
        <time>2012-01-08T09:08:04Z</time>
      </trkpt>
      <trkpt lat="47.37114" lon="-1.96832">
        <ele>-105</ele>
        <time>2012-01-08T09:08:07Z</time>
      </trkpt>
      <trkpt lat="47.37114" lon="-1.96839">
        <ele>-105</ele>
        <time>2012-01-08T09:08:09Z</time>
      </trkpt>
      <trkpt lat="47.37114" lon="-1.96846">
        <ele>-105</ele>
        <time>2012-01-08T09:08:11Z</time>
      </trkpt>
      <trkpt lat="47.37113" lon="-1.96854">
        <ele>-105</ele>
        <time>2012-01-08T09:08:13Z</time>
      </trkpt>
      <trkpt lat="47.37113" lon="-1.96862">
        <ele>-104</ele>
        <time>2012-01-08T09:08:15Z</time>
      </trkpt>
      <trkpt lat="47.37112" lon="-1.9687">
        <ele>-104</ele>
        <time>2012-01-08T09:08:17Z</time>
      </trkpt>
      <trkpt lat="47.37112" lon="-1.96878">
        <ele>-104</ele>
        <time>2012-01-08T09:08:19Z</time>
      </trkpt>
      <trkpt lat="47.37111" lon="-1.96886">
        <ele>-103</ele>
        <time>2012-01-08T09:08:21Z</time>
      </trkpt>
      <trkpt lat="47.37111" lon="-1.96895">
        <ele>-103</ele>
        <time>2012-01-08T09:08:23Z</time>
      </trkpt>
      <trkpt lat="47.37112" lon="-1.96908">
        <ele>-103</ele>
        <time>2012-01-08T09:08:25Z</time>
      </trkpt>
      <trkpt lat="47.37112" lon="-1.96917">
        <ele>-103</ele>
        <time>2012-01-08T09:08:27Z</time>
      </trkpt>
      <trkpt lat="47.37112" lon="-1.96925">
        <ele>-102</ele>
        <time>2012-01-08T09:08:29Z</time>
      </trkpt>
      <trkpt lat="47.37112" lon="-1.96934">
        <ele>-102</ele>
        <time>2012-01-08T09:08:31Z</time>
      </trkpt>
      <trkpt lat="47.37112" lon="-1.96943">
        <ele>-102</ele>
        <time>2012-01-08T09:08:34Z</time>
      </trkpt>
      <trkpt lat="47.37112" lon="-1.96952">
        <ele>-102</ele>
        <time>2012-01-08T09:08:36Z</time>
      </trkpt>
      <trkpt lat="47.37113" lon="-1.96961">
        <ele>-102</ele>
        <time>2012-01-08T09:08:38Z</time>
      </trkpt>
      <trkpt lat="47.37114" lon="-1.9697">
        <ele>-102</ele>
        <time>2012-01-08T09:08:40Z</time>
      </trkpt>
      <trkpt lat="47.37114" lon="-1.9698">
        <ele>-102</ele>
        <time>2012-01-08T09:08:42Z</time>
      </trkpt>
      <trkpt lat="47.37115" lon="-1.96988">
        <ele>-102</ele>
        <time>2012-01-08T09:08:44Z</time>
      </trkpt>
      <trkpt lat="47.37117" lon="-1.96996">
        <ele>-103</ele>
        <time>2012-01-08T09:08:46Z</time>
      </trkpt>
      <trkpt lat="47.37118" lon="-1.97006">
        <ele>-103</ele>
        <time>2012-01-08T09:08:48Z</time>
      </trkpt>
      <trkpt lat="47.37122" lon="-1.97023">
        <ele>-104</ele>
        <time>2012-01-08T09:08:50Z</time>
      </trkpt>
      <trkpt lat="47.37125" lon="-1.97031">
        <ele>-104</ele>
        <time>2012-01-08T09:08:52Z</time>
      </trkpt>
      <trkpt lat="47.37132" lon="-1.97035">
        <ele>-104</ele>
        <time>2012-01-08T09:08:54Z</time>
      </trkpt>
      <trkpt lat="47.37138" lon="-1.97035">
        <ele>-105</ele>
        <time>2012-01-08T09:08:56Z</time>
      </trkpt>
      <trkpt lat="47.37144" lon="-1.97033">
        <ele>-105</ele>
        <time>2012-01-08T09:08:58Z</time>
      </trkpt>
      <trkpt lat="47.37149" lon="-1.97032">
        <ele>-106</ele>
        <time>2012-01-08T09:09:01Z</time>
      </trkpt>
      <trkpt lat="47.37155" lon="-1.97031">
        <ele>-106</ele>
        <time>2012-01-08T09:09:03Z</time>
      </trkpt>
      <trkpt lat="47.3716" lon="-1.9703">
        <ele>-106</ele>
        <time>2012-01-08T09:09:05Z</time>
      </trkpt>
      <trkpt lat="47.37165" lon="-1.97029">
        <ele>-106</ele>
        <time>2012-01-08T09:09:07Z</time>
      </trkpt>
      <trkpt lat="47.37171" lon="-1.97029">
        <ele>-106</ele>
        <time>2012-01-08T09:09:09Z</time>
      </trkpt>
      <trkpt lat="47.37178" lon="-1.97029">
        <ele>-106</ele>
        <time>2012-01-08T09:09:11Z</time>
      </trkpt>
      <trkpt lat="47.37184" lon="-1.97029">
        <ele>-106</ele>
        <time>2012-01-08T09:09:13Z</time>
      </trkpt>
      <trkpt lat="47.37189" lon="-1.97029">
        <ele>-106</ele>
        <time>2012-01-08T09:09:16Z</time>
      </trkpt>
      <trkpt lat="47.37196" lon="-1.97029">
        <ele>-106</ele>
        <time>2012-01-08T09:09:18Z</time>
      </trkpt>
      <trkpt lat="47.37202" lon="-1.97032">
        <ele>-107</ele>
        <time>2012-01-08T09:09:20Z</time>
      </trkpt>
      <trkpt lat="47.37207" lon="-1.97038">
        <ele>-107</ele>
        <time>2012-01-08T09:09:22Z</time>
      </trkpt>
      <trkpt lat="47.3721" lon="-1.97046">
        <ele>-107</ele>
        <time>2012-01-08T09:09:24Z</time>
      </trkpt>
      <trkpt lat="47.37213" lon="-1.97058">
        <ele>-107</ele>
        <time>2012-01-08T09:09:26Z</time>
      </trkpt>
      <trkpt lat="47.37216" lon="-1.97068">
        <ele>-107</ele>
        <time>2012-01-08T09:09:28Z</time>
      </trkpt>
      <trkpt lat="47.37218" lon="-1.97073">
        <ele>-107</ele>
        <time>2012-01-08T09:09:30Z</time>
      </trkpt>
      <trkpt lat="47.37222" lon="-1.97091">
        <ele>-107</ele>
        <time>2012-01-08T09:09:33Z</time>
      </trkpt>
      <trkpt lat="47.37223" lon="-1.97104">
        <ele>-108</ele>
        <time>2012-01-08T09:09:35Z</time>
      </trkpt>
      <trkpt lat="47.37225" lon="-1.97116">
        <ele>-108</ele>
        <time>2012-01-08T09:09:37Z</time>
      </trkpt>
      <trkpt lat="47.37226" lon="-1.97126">
        <ele>-109</ele>
        <time>2012-01-08T09:09:39Z</time>
      </trkpt>
      <trkpt lat="47.37228" lon="-1.97137">
        <ele>-110</ele>
        <time>2012-01-08T09:09:41Z</time>
      </trkpt>
      <trkpt lat="47.37229" lon="-1.97142">
        <ele>-110</ele>
        <time>2012-01-08T09:09:43Z</time>
      </trkpt>
      <trkpt lat="47.37229" lon="-1.97143">
        <ele>-111</ele>
        <time>2012-01-08T09:09:45Z</time>
      </trkpt>
      <trkpt lat="47.37229" lon="-1.97144">
        <ele>-111</ele>
        <time>2012-01-08T09:09:47Z</time>
      </trkpt>
      <trkpt lat="47.37229" lon="-1.97144">
        <ele>-112</ele>
        <time>2012-01-08T09:09:49Z</time>
      </trkpt>
      <trkpt lat="47.37229" lon="-1.97144">
        <ele>-112</ele>
        <time>2012-01-08T09:09:52Z</time>
      </trkpt>
      <trkpt lat="47.37229" lon="-1.97145">
        <ele>-112</ele>
        <time>2012-01-08T09:09:54Z</time>
      </trkpt>
      <trkpt lat="47.37229" lon="-1.97145">
        <ele>-112</ele>
        <time>2012-01-08T09:09:56Z</time>
      </trkpt>
      <trkpt lat="47.37229" lon="-1.97145">
        <ele>-112</ele>
        <time>2012-01-08T09:09:58Z</time>
      </trkpt>
      <trkpt lat="47.37229" lon="-1.97146">
        <ele>-112</ele>
        <time>2012-01-08T09:10:00Z</time>
      </trkpt>
      <trkpt lat="47.3723" lon="-1.97146">
        <ele>-111</ele>
        <time>2012-01-08T09:10:02Z</time>
      </trkpt>
      <trkpt lat="47.3723" lon="-1.97146">
        <ele>-112</ele>
        <time>2012-01-08T09:10:04Z</time>
      </trkpt>
      <trkpt lat="47.3723" lon="-1.97146">
        <ele>-112</ele>
        <time>2012-01-08T09:10:07Z</time>
      </trkpt>
      <trkpt lat="47.3723" lon="-1.97146">
        <ele>-112</ele>
        <time>2012-01-08T09:10:09Z</time>
      </trkpt>
      <trkpt lat="47.3723" lon="-1.97147">
        <ele>-112</ele>
        <time>2012-01-08T09:10:11Z</time>
      </trkpt>
      <trkpt lat="47.37229" lon="-1.97147">
        <ele>-112</ele>
        <time>2012-01-08T09:10:13Z</time>
      </trkpt>
      <trkpt lat="47.37229" lon="-1.97148">
        <ele>-112</ele>
        <time>2012-01-08T09:10:15Z</time>
      </trkpt>
      <trkpt lat="47.37225" lon="-1.97153">
        <ele>-112</ele>
        <time>2012-01-08T09:10:17Z</time>
      </trkpt>
      <trkpt lat="47.37223" lon="-1.97153">
        <ele>-112</ele>
        <time>2012-01-08T09:10:19Z</time>
      </trkpt>
      <trkpt lat="47.37215" lon="-1.97155">
        <ele>-111</ele>
        <time>2012-01-08T09:10:21Z</time>
      </trkpt>
      <trkpt lat="47.37211" lon="-1.97162">
        <ele>-112</ele>
        <time>2012-01-08T09:10:23Z</time>
      </trkpt>
      <trkpt lat="47.37209" lon="-1.97165">
        <ele>-112</ele>
        <time>2012-01-08T09:10:25Z</time>
      </trkpt>
      <trkpt lat="47.37202" lon="-1.97163">
        <ele>-112</ele>
        <time>2012-01-08T09:10:27Z</time>
      </trkpt>
      <trkpt lat="47.37203" lon="-1.97162">
        <ele>-113</ele>
        <time>2012-01-08T09:10:29Z</time>
      </trkpt>
      <trkpt lat="47.37203" lon="-1.97162">
        <ele>-113</ele>
        <time>2012-01-08T09:10:31Z</time>
      </trkpt>
      <trkpt lat="47.37203" lon="-1.97161">
        <ele>-113</ele>
        <time>2012-01-08T09:10:34Z</time>
      </trkpt>
      <trkpt lat="47.37203" lon="-1.97161">
        <ele>-114</ele>
        <time>2012-01-08T09:10:36Z</time>
      </trkpt>
      <trkpt lat="47.37203" lon="-1.97161">
        <ele>-115</ele>
        <time>2012-01-08T09:10:37Z</time>
      </trkpt>
    </trkseg>
  </trk>
</gpx>